<?xml version="1.0" encoding="UTF-8" standalone="no" ?>
<gpx xmlns="http://www.topografix.com/GPX/1/1" xmlns:xsi="http://www.w3.org/2001/XMLSchema-instance" xsi:schemaLocation="http://www.topografix.com/GPX/1/1 http://www.topografix.com/GPX/1/1/gpx.xsd" version="1.1" creator="VisuGPX - https://www.visugpx.com">
  <metadata>
    <name>Pornichet 18/03/2021</name>
    <desc><![CDATA[Sortie vtt du jeudi 18 mars 2021]]></desc>
  </metadata>
  <trk>
    <name><![CDATA[Pornichet Cyclisme]]></name>
    <trkseg>
      <trkpt lat="47.26295" lon="-2.31891">
        <ele>3.6</ele>
        <time>2021-03-18T08:13:42.000Z</time>
      </trkpt>
      <trkpt lat="47.26293" lon="-2.31893">
        <ele>3.6</ele>
        <time>2021-03-18T08:13:43.000Z</time>
      </trkpt>
      <trkpt lat="47.26286" lon="-2.319">
        <ele>3.3</ele>
        <time>2021-03-18T08:13:46.000Z</time>
      </trkpt>
      <trkpt lat="47.26284" lon="-2.31904">
        <ele>0.20000000298023</ele>
        <time>2021-03-18T08:13:47.000Z</time>
      </trkpt>
      <trkpt lat="47.26274" lon="-2.31915">
        <ele>0.20000000298023</ele>
        <time>2021-03-18T08:13:49.000Z</time>
      </trkpt>
      <trkpt lat="47.26269" lon="-2.3192">
        <ele>0.20000000298023</ele>
        <time>2021-03-18T08:13:50.000Z</time>
      </trkpt>
      <trkpt lat="47.26261" lon="-2.31929">
        <ele>0.20000000298023</ele>
        <time>2021-03-18T08:13:52.000Z</time>
      </trkpt>
      <trkpt lat="47.26255" lon="-2.31938">
        <ele>0.20000000298023</ele>
        <time>2021-03-18T08:13:54.000Z</time>
      </trkpt>
      <trkpt lat="47.26246" lon="-2.31956">
        <ele>0.20000000298023</ele>
        <time>2021-03-18T08:13:58.000Z</time>
      </trkpt>
      <trkpt lat="47.26243" lon="-2.31964">
        <ele>0.20000000298023</ele>
        <time>2021-03-18T08:14:00.000Z</time>
      </trkpt>
      <trkpt lat="47.26237" lon="-2.31969">
        <ele>0.20000000298023</ele>
        <time>2021-03-18T08:14:02.000Z</time>
      </trkpt>
      <trkpt lat="47.26224" lon="-2.31977">
        <ele>0.20000000298023</ele>
        <time>2021-03-18T08:14:06.000Z</time>
      </trkpt>
      <trkpt lat="47.26205" lon="-2.31994">
        <ele>0.20000000298023</ele>
        <time>2021-03-18T08:14:11.000Z</time>
      </trkpt>
      <trkpt lat="47.262" lon="-2.31998">
        <ele>0.20000000298023</ele>
        <time>2021-03-18T08:14:13.000Z</time>
      </trkpt>
      <trkpt lat="47.26197" lon="-2.32004">
        <ele>0.20000000298023</ele>
        <time>2021-03-18T08:14:15.000Z</time>
      </trkpt>
      <trkpt lat="47.26192" lon="-2.32013">
        <ele>0.20000000298023</ele>
        <time>2021-03-18T08:14:18.000Z</time>
      </trkpt>
      <trkpt lat="47.26189" lon="-2.32014">
        <ele>0.20000000298023</ele>
        <time>2021-03-18T08:14:19.000Z</time>
      </trkpt>
      <trkpt lat="47.26174" lon="-2.32015">
        <ele>0.20000000298023</ele>
        <time>2021-03-18T08:14:24.000Z</time>
      </trkpt>
      <trkpt lat="47.26164" lon="-2.3202">
        <ele>0.20000000298023</ele>
        <time>2021-03-18T08:14:27.000Z</time>
      </trkpt>
      <trkpt lat="47.26157" lon="-2.32027">
        <ele>0.20000000298023</ele>
        <time>2021-03-18T08:14:29.000Z</time>
      </trkpt>
      <trkpt lat="47.26152" lon="-2.32039">
        <ele>0.20000000298023</ele>
        <time>2021-03-18T08:14:31.000Z</time>
      </trkpt>
      <trkpt lat="47.26145" lon="-2.32058">
        <ele>0.20000000298023</ele>
        <time>2021-03-18T08:14:34.000Z</time>
      </trkpt>
      <trkpt lat="47.26143" lon="-2.32066">
        <ele>0.20000000298023</ele>
        <time>2021-03-18T08:14:35.000Z</time>
      </trkpt>
      <trkpt lat="47.26134" lon="-2.32095">
        <ele>0.20000000298023</ele>
        <time>2021-03-18T08:14:39.000Z</time>
      </trkpt>
      <trkpt lat="47.2612" lon="-2.32136">
        <ele>0.20000000298023</ele>
        <time>2021-03-18T08:14:45.000Z</time>
      </trkpt>
      <trkpt lat="47.26115" lon="-2.32148">
        <ele>0.20000000298023</ele>
        <time>2021-03-18T08:14:47.000Z</time>
      </trkpt>
      <trkpt lat="47.26109" lon="-2.32161">
        <ele>0.20000000298023</ele>
        <time>2021-03-18T08:14:49.000Z</time>
      </trkpt>
      <trkpt lat="47.26106" lon="-2.32168">
        <ele>0.20000000298023</ele>
        <time>2021-03-18T08:14:50.000Z</time>
      </trkpt>
      <trkpt lat="47.26089" lon="-2.32211">
        <ele>0.20000000298023</ele>
        <time>2021-03-18T08:14:57.000Z</time>
      </trkpt>
      <trkpt lat="47.26081" lon="-2.32222">
        <ele>0.20000000298023</ele>
        <time>2021-03-18T08:14:59.000Z</time>
      </trkpt>
      <trkpt lat="47.26069" lon="-2.32238">
        <ele>0.20000000298023</ele>
        <time>2021-03-18T08:15:02.000Z</time>
      </trkpt>
      <trkpt lat="47.26041" lon="-2.32269">
        <ele>0.20000000298023</ele>
        <time>2021-03-18T08:15:08.000Z</time>
      </trkpt>
      <trkpt lat="47.26005" lon="-2.32311">
        <ele>0.20000000298023</ele>
        <time>2021-03-18T08:15:16.000Z</time>
      </trkpt>
      <trkpt lat="47.25996" lon="-2.3232">
        <ele>0.20000000298023</ele>
        <time>2021-03-18T08:15:18.000Z</time>
      </trkpt>
      <trkpt lat="47.2598" lon="-2.32344">
        <ele>0.20000000298023</ele>
        <time>2021-03-18T08:15:22.000Z</time>
      </trkpt>
      <trkpt lat="47.25975" lon="-2.3235">
        <ele>0.20000000298023</ele>
        <time>2021-03-18T08:15:23.000Z</time>
      </trkpt>
      <trkpt lat="47.25954" lon="-2.32377">
        <ele>0.20000000298023</ele>
        <time>2021-03-18T08:15:28.000Z</time>
      </trkpt>
      <trkpt lat="47.25922" lon="-2.32421">
        <ele>0.20000000298023</ele>
        <time>2021-03-18T08:15:36.000Z</time>
      </trkpt>
      <trkpt lat="47.25899" lon="-2.3245">
        <ele>0.20000000298023</ele>
        <time>2021-03-18T08:15:42.000Z</time>
      </trkpt>
      <trkpt lat="47.25896" lon="-2.32455">
        <ele>0.20000000298023</ele>
        <time>2021-03-18T08:15:43.000Z</time>
      </trkpt>
      <trkpt lat="47.25898" lon="-2.32468">
        <ele>0.20000000298023</ele>
        <time>2021-03-18T08:15:46.000Z</time>
      </trkpt>
      <trkpt lat="47.25905" lon="-2.32472">
        <ele>0.20000000298023</ele>
        <time>2021-03-18T08:15:48.000Z</time>
      </trkpt>
      <trkpt lat="47.25909" lon="-2.32475">
        <ele>0.20000000298023</ele>
        <time>2021-03-18T08:15:49.000Z</time>
      </trkpt>
      <trkpt lat="47.25913" lon="-2.32479">
        <ele>0.20000000298023</ele>
        <time>2021-03-18T08:15:50.000Z</time>
      </trkpt>
      <trkpt lat="47.25921" lon="-2.32496">
        <ele>0.20000000298023</ele>
        <time>2021-03-18T08:15:53.000Z</time>
      </trkpt>
      <trkpt lat="47.25924" lon="-2.32504">
        <ele>0.20000000298023</ele>
        <time>2021-03-18T08:15:54.000Z</time>
      </trkpt>
      <trkpt lat="47.25929" lon="-2.32518">
        <ele>0.20000000298023</ele>
        <time>2021-03-18T08:15:56.000Z</time>
      </trkpt>
      <trkpt lat="47.25938" lon="-2.32546">
        <ele>0.20000000298023</ele>
        <time>2021-03-18T08:16:00.000Z</time>
      </trkpt>
      <trkpt lat="47.25954" lon="-2.32603">
        <ele>0.20000000298023</ele>
        <time>2021-03-18T08:16:08.000Z</time>
      </trkpt>
      <trkpt lat="47.25958" lon="-2.32647">
        <ele>0.20000000298023</ele>
        <time>2021-03-18T08:16:14.000Z</time>
      </trkpt>
      <trkpt lat="47.25959" lon="-2.32653">
        <ele>0.20000000298023</ele>
        <time>2021-03-18T08:16:15.000Z</time>
      </trkpt>
      <trkpt lat="47.25965" lon="-2.32655">
        <ele>0.20000000298023</ele>
        <time>2021-03-18T08:16:17.000Z</time>
      </trkpt>
      <trkpt lat="47.25969" lon="-2.32655">
        <ele>0.20000000298023</ele>
        <time>2021-03-18T08:16:18.000Z</time>
      </trkpt>
      <trkpt lat="47.25974" lon="-2.32655">
        <ele>0.20000000298023</ele>
        <time>2021-03-18T08:16:19.000Z</time>
      </trkpt>
      <trkpt lat="47.25987" lon="-2.32657">
        <ele>0.20000000298023</ele>
        <time>2021-03-18T08:16:22.000Z</time>
      </trkpt>
      <trkpt lat="47.25992" lon="-2.32656">
        <ele>0.20000000298023</ele>
        <time>2021-03-18T08:16:23.000Z</time>
      </trkpt>
      <trkpt lat="47.26009" lon="-2.32653">
        <ele>0.20000000298023</ele>
        <time>2021-03-18T08:16:27.000Z</time>
      </trkpt>
      <trkpt lat="47.26014" lon="-2.32652">
        <ele>0.20000000298023</ele>
        <time>2021-03-18T08:16:28.000Z</time>
      </trkpt>
      <trkpt lat="47.2605" lon="-2.32647">
        <ele>0.20000000298023</ele>
        <time>2021-03-18T08:16:36.000Z</time>
      </trkpt>
      <trkpt lat="47.26091" lon="-2.32641">
        <ele>0.20000000298023</ele>
        <time>2021-03-18T08:16:45.000Z</time>
      </trkpt>
      <trkpt lat="47.26117" lon="-2.32638">
        <ele>0.20000000298023</ele>
        <time>2021-03-18T08:16:51.000Z</time>
      </trkpt>
      <trkpt lat="47.26126" lon="-2.3264">
        <ele>0.60000002384186</ele>
        <time>2021-03-18T08:16:53.000Z</time>
      </trkpt>
      <trkpt lat="47.2613" lon="-2.3264">
        <ele>1</ele>
        <time>2021-03-18T08:16:54.000Z</time>
      </trkpt>
      <trkpt lat="47.26134" lon="-2.32641">
        <ele>1.3999999761581</ele>
        <time>2021-03-18T08:16:55.000Z</time>
      </trkpt>
      <trkpt lat="47.26139" lon="-2.32642">
        <ele>1.7999999523163</ele>
        <time>2021-03-18T08:16:56.000Z</time>
      </trkpt>
      <trkpt lat="47.26143" lon="-2.32644">
        <ele>2.2000000476837</ele>
        <time>2021-03-18T08:16:57.000Z</time>
      </trkpt>
      <trkpt lat="47.26157" lon="-2.32649">
        <ele>2.2000000476837</ele>
        <time>2021-03-18T08:17:00.000Z</time>
      </trkpt>
      <trkpt lat="47.26192" lon="-2.32672">
        <ele>2.2000000476837</ele>
        <time>2021-03-18T08:17:08.000Z</time>
      </trkpt>
      <trkpt lat="47.26218" lon="-2.32701">
        <ele>2.2000000476837</ele>
        <time>2021-03-18T08:17:15.000Z</time>
      </trkpt>
      <trkpt lat="47.26232" lon="-2.3272">
        <ele>2.2000000476837</ele>
        <time>2021-03-18T08:17:19.000Z</time>
      </trkpt>
      <trkpt lat="47.26239" lon="-2.32732">
        <ele>2.2000000476837</ele>
        <time>2021-03-18T08:17:21.000Z</time>
      </trkpt>
      <trkpt lat="47.26263" lon="-2.32768">
        <ele>2.2000000476837</ele>
        <time>2021-03-18T08:17:27.000Z</time>
      </trkpt>
      <trkpt lat="47.26267" lon="-2.32774">
        <ele>1.7999999523163</ele>
        <time>2021-03-18T08:17:28.000Z</time>
      </trkpt>
      <trkpt lat="47.2627" lon="-2.32781">
        <ele>1.2000000476837</ele>
        <time>2021-03-18T08:17:29.000Z</time>
      </trkpt>
      <trkpt lat="47.26274" lon="-2.32789">
        <ele>0.80000001192093</ele>
        <time>2021-03-18T08:17:30.000Z</time>
      </trkpt>
      <trkpt lat="47.26277" lon="-2.32796">
        <ele>0.40000000596046</ele>
        <time>2021-03-18T08:17:31.000Z</time>
      </trkpt>
      <trkpt lat="47.26279" lon="-2.32803">
        <ele>3.2</ele>
        <time>2021-03-18T08:17:32.000Z</time>
      </trkpt>
      <trkpt lat="47.26282" lon="-2.3281">
        <ele>3.2</ele>
        <time>2021-03-18T08:17:33.000Z</time>
      </trkpt>
      <trkpt lat="47.26286" lon="-2.32826">
        <ele>-0.40000000596046</ele>
        <time>2021-03-18T08:17:35.000Z</time>
      </trkpt>
      <trkpt lat="47.26288" lon="-2.32834">
        <ele>-1</ele>
        <time>2021-03-18T08:17:36.000Z</time>
      </trkpt>
      <trkpt lat="47.26289" lon="-2.32843">
        <ele>-1.7999999523163</ele>
        <time>2021-03-18T08:17:37.000Z</time>
      </trkpt>
      <trkpt lat="47.2629" lon="-2.3285">
        <ele>-2.2000000476837</ele>
        <time>2021-03-18T08:17:38.000Z</time>
      </trkpt>
      <trkpt lat="47.26302" lon="-2.32864">
        <ele>-2.2000000476837</ele>
        <time>2021-03-18T08:17:41.000Z</time>
      </trkpt>
      <trkpt lat="47.26321" lon="-2.32879">
        <ele>-2.2000000476837</ele>
        <time>2021-03-18T08:17:45.000Z</time>
      </trkpt>
      <trkpt lat="47.26328" lon="-2.329">
        <ele>-2.2000000476837</ele>
        <time>2021-03-18T08:17:48.000Z</time>
      </trkpt>
      <trkpt lat="47.26333" lon="-2.32915">
        <ele>-2.2000000476837</ele>
        <time>2021-03-18T08:17:50.000Z</time>
      </trkpt>
      <trkpt lat="47.26353" lon="-2.32972">
        <ele>-2.2000000476837</ele>
        <time>2021-03-18T08:17:58.000Z</time>
      </trkpt>
      <trkpt lat="47.26367" lon="-2.32993">
        <ele>-2.2000000476837</ele>
        <time>2021-03-18T08:18:02.000Z</time>
      </trkpt>
      <trkpt lat="47.26369" lon="-2.33015">
        <ele>-2.2000000476837</ele>
        <time>2021-03-18T08:18:05.000Z</time>
      </trkpt>
      <trkpt lat="47.26369" lon="-2.33022">
        <ele>-2.2000000476837</ele>
        <time>2021-03-18T08:18:06.000Z</time>
      </trkpt>
      <trkpt lat="47.26371" lon="-2.33085">
        <ele>-2.2000000476837</ele>
        <time>2021-03-18T08:18:14.000Z</time>
      </trkpt>
      <trkpt lat="47.26374" lon="-2.33139">
        <ele>-2.2000000476837</ele>
        <time>2021-03-18T08:18:21.000Z</time>
      </trkpt>
      <trkpt lat="47.26378" lon="-2.33215">
        <ele>-2.2000000476837</ele>
        <time>2021-03-18T08:18:31.000Z</time>
      </trkpt>
      <trkpt lat="47.26379" lon="-2.33238">
        <ele>-2.2000000476837</ele>
        <time>2021-03-18T08:18:34.000Z</time>
      </trkpt>
      <trkpt lat="47.26385" lon="-2.33258">
        <ele>-2.2000000476837</ele>
        <time>2021-03-18T08:18:37.000Z</time>
      </trkpt>
      <trkpt lat="47.26399" lon="-2.33267">
        <ele>-2.2000000476837</ele>
        <time>2021-03-18T08:18:40.000Z</time>
      </trkpt>
      <trkpt lat="47.26409" lon="-2.33268">
        <ele>-2.2000000476837</ele>
        <time>2021-03-18T08:18:42.000Z</time>
      </trkpt>
      <trkpt lat="47.26435" lon="-2.3327">
        <ele>-2.2000000476837</ele>
        <time>2021-03-18T08:18:47.000Z</time>
      </trkpt>
      <trkpt lat="47.26473" lon="-2.33276">
        <ele>-2.2000000476837</ele>
        <time>2021-03-18T08:18:55.000Z</time>
      </trkpt>
      <trkpt lat="47.26495" lon="-2.33281">
        <ele>-2.2000000476837</ele>
        <time>2021-03-18T08:19:00.000Z</time>
      </trkpt>
      <trkpt lat="47.26502" lon="-2.33283">
        <ele>-2.2000000476837</ele>
        <time>2021-03-18T08:19:02.000Z</time>
      </trkpt>
      <trkpt lat="47.26506" lon="-2.33285">
        <ele>-2.2000000476837</ele>
        <time>2021-03-18T08:19:05.000Z</time>
      </trkpt>
      <trkpt lat="47.26512" lon="-2.3329">
        <ele>-2.2000000476837</ele>
        <time>2021-03-18T08:19:09.000Z</time>
      </trkpt>
      <trkpt lat="47.26519" lon="-2.33291">
        <ele>-2.2000000476837</ele>
        <time>2021-03-18T08:19:11.000Z</time>
      </trkpt>
      <trkpt lat="47.26527" lon="-2.3329">
        <ele>-2.2000000476837</ele>
        <time>2021-03-18T08:19:13.000Z</time>
      </trkpt>
      <trkpt lat="47.26532" lon="-2.33292">
        <ele>-2.2000000476837</ele>
        <time>2021-03-18T08:19:15.000Z</time>
      </trkpt>
      <trkpt lat="47.26534" lon="-2.33295">
        <ele>-2.2000000476837</ele>
        <time>2021-03-18T08:19:16.000Z</time>
      </trkpt>
      <trkpt lat="47.26539" lon="-2.333">
        <ele>-2.2000000476837</ele>
        <time>2021-03-18T08:19:18.000Z</time>
      </trkpt>
      <trkpt lat="47.26546" lon="-2.33296">
        <ele>-2.2000000476837</ele>
        <time>2021-03-18T08:19:20.000Z</time>
      </trkpt>
      <trkpt lat="47.26552" lon="-2.33288">
        <ele>-2.2000000476837</ele>
        <time>2021-03-18T08:19:22.000Z</time>
      </trkpt>
      <trkpt lat="47.26567" lon="-2.33272">
        <ele>-2.2000000476837</ele>
        <time>2021-03-18T08:19:26.000Z</time>
      </trkpt>
      <trkpt lat="47.26599" lon="-2.33239">
        <ele>-2.2000000476837</ele>
        <time>2021-03-18T08:19:34.000Z</time>
      </trkpt>
      <trkpt lat="47.26626" lon="-2.3321">
        <ele>-2.2000000476837</ele>
        <time>2021-03-18T08:19:41.000Z</time>
      </trkpt>
      <trkpt lat="47.26649" lon="-2.33187">
        <ele>-2.2000000476837</ele>
        <time>2021-03-18T08:19:47.000Z</time>
      </trkpt>
      <trkpt lat="47.26653" lon="-2.33183">
        <ele>-2.2000000476837</ele>
        <time>2021-03-18T08:19:48.000Z</time>
      </trkpt>
      <trkpt lat="47.26685" lon="-2.33151">
        <ele>-2.2000000476837</ele>
        <time>2021-03-18T08:19:56.000Z</time>
      </trkpt>
      <trkpt lat="47.26693" lon="-2.33142">
        <ele>-2.2000000476837</ele>
        <time>2021-03-18T08:19:58.000Z</time>
      </trkpt>
      <trkpt lat="47.26708" lon="-2.33126">
        <ele>-2.2000000476837</ele>
        <time>2021-03-18T08:20:02.000Z</time>
      </trkpt>
      <trkpt lat="47.26734" lon="-2.33099">
        <ele>-2.2000000476837</ele>
        <time>2021-03-18T08:20:09.000Z</time>
      </trkpt>
      <trkpt lat="47.26747" lon="-2.33086">
        <ele>-2.2000000476837</ele>
        <time>2021-03-18T08:20:13.000Z</time>
      </trkpt>
      <trkpt lat="47.26755" lon="-2.33088">
        <ele>-2.2000000476837</ele>
        <time>2021-03-18T08:20:15.000Z</time>
      </trkpt>
      <trkpt lat="47.26764" lon="-2.33106">
        <ele>-2.2000000476837</ele>
        <time>2021-03-18T08:20:18.000Z</time>
      </trkpt>
      <trkpt lat="47.26767" lon="-2.33136">
        <ele>-2.2000000476837</ele>
        <time>2021-03-18T08:20:22.000Z</time>
      </trkpt>
      <trkpt lat="47.26763" lon="-2.33166">
        <ele>-2.2000000476837</ele>
        <time>2021-03-18T08:20:26.000Z</time>
      </trkpt>
      <trkpt lat="47.26761" lon="-2.33173">
        <ele>-2.2000000476837</ele>
        <time>2021-03-18T08:20:27.000Z</time>
      </trkpt>
      <trkpt lat="47.26747" lon="-2.33214">
        <ele>-2.2000000476837</ele>
        <time>2021-03-18T08:20:33.000Z</time>
      </trkpt>
      <trkpt lat="47.26736" lon="-2.33249">
        <ele>-2.5999999046326</ele>
        <time>2021-03-18T08:20:38.000Z</time>
      </trkpt>
      <trkpt lat="47.26735" lon="-2.33256">
        <ele>-3</ele>
        <time>2021-03-18T08:20:39.000Z</time>
      </trkpt>
      <trkpt lat="47.26734" lon="-2.33264">
        <ele>-3.4000000953674</ele>
        <time>2021-03-18T08:20:40.000Z</time>
      </trkpt>
      <trkpt lat="47.26733" lon="-2.33273">
        <ele>-3.7999999523163</ele>
        <time>2021-03-18T08:20:41.000Z</time>
      </trkpt>
      <trkpt lat="47.26733" lon="-2.3328">
        <ele>-4.1999998092651</ele>
        <time>2021-03-18T08:20:42.000Z</time>
      </trkpt>
      <trkpt lat="47.26736" lon="-2.33296">
        <ele>-4.1999998092651</ele>
        <time>2021-03-18T08:20:44.000Z</time>
      </trkpt>
      <trkpt lat="47.26738" lon="-2.33304">
        <ele>-4.1999998092651</ele>
        <time>2021-03-18T08:20:45.000Z</time>
      </trkpt>
      <trkpt lat="47.26745" lon="-2.33327">
        <ele>-4.1999998092651</ele>
        <time>2021-03-18T08:20:46.000Z</time>
      </trkpt>
      <trkpt lat="47.26749" lon="-2.33343">
        <ele>-4.1999998092651</ele>
        <time>2021-03-18T08:20:50.000Z</time>
      </trkpt>
      <trkpt lat="47.26751" lon="-2.3335">
        <ele>-4.1999998092651</ele>
        <time>2021-03-18T08:20:51.000Z</time>
      </trkpt>
      <trkpt lat="47.26754" lon="-2.33375">
        <ele>-4.1999998092651</ele>
        <time>2021-03-18T08:20:54.000Z</time>
      </trkpt>
      <trkpt lat="47.26756" lon="-2.33391">
        <ele>-4.1999998092651</ele>
        <time>2021-03-18T08:20:56.000Z</time>
      </trkpt>
      <trkpt lat="47.26761" lon="-2.33446">
        <ele>-4.1999998092651</ele>
        <time>2021-03-18T08:21:03.000Z</time>
      </trkpt>
      <trkpt lat="47.26763" lon="-2.33453">
        <ele>-4.1999998092651</ele>
        <time>2021-03-18T08:21:04.000Z</time>
      </trkpt>
      <trkpt lat="47.26771" lon="-2.3349">
        <ele>-4.1999998092651</ele>
        <time>2021-03-18T08:21:09.000Z</time>
      </trkpt>
      <trkpt lat="47.26772" lon="-2.33498">
        <ele>-4.1999998092651</ele>
        <time>2021-03-18T08:21:10.000Z</time>
      </trkpt>
      <trkpt lat="47.26778" lon="-2.33535">
        <ele>-4.1999998092651</ele>
        <time>2021-03-18T08:21:15.000Z</time>
      </trkpt>
      <trkpt lat="47.26781" lon="-2.33572">
        <ele>-4.1999998092651</ele>
        <time>2021-03-18T08:21:20.000Z</time>
      </trkpt>
      <trkpt lat="47.26782" lon="-2.33587">
        <ele>-4.1999998092651</ele>
        <time>2021-03-18T08:21:22.000Z</time>
      </trkpt>
      <trkpt lat="47.2678" lon="-2.3363">
        <ele>-4.1999998092651</ele>
        <time>2021-03-18T08:21:28.000Z</time>
      </trkpt>
      <trkpt lat="47.2678" lon="-2.33677">
        <ele>-4.1999998092651</ele>
        <time>2021-03-18T08:21:35.000Z</time>
      </trkpt>
      <trkpt lat="47.26788" lon="-2.33709">
        <ele>-4.1999998092651</ele>
        <time>2021-03-18T08:21:41.000Z</time>
      </trkpt>
      <trkpt lat="47.26794" lon="-2.33718">
        <ele>-3.7999999523163</ele>
        <time>2021-03-18T08:21:43.000Z</time>
      </trkpt>
      <trkpt lat="47.26797" lon="-2.33722">
        <ele>-3</ele>
        <time>2021-03-18T08:21:44.000Z</time>
      </trkpt>
      <trkpt lat="47.26801" lon="-2.33725">
        <ele>-2.4000000953674</ele>
        <time>2021-03-18T08:21:45.000Z</time>
      </trkpt>
      <trkpt lat="47.26804" lon="-2.33729">
        <ele>-2</ele>
        <time>2021-03-18T08:21:46.000Z</time>
      </trkpt>
      <trkpt lat="47.26811" lon="-2.33737">
        <ele>-2</ele>
        <time>2021-03-18T08:21:48.000Z</time>
      </trkpt>
      <trkpt lat="47.26841" lon="-2.3377">
        <ele>-2</ele>
        <time>2021-03-18T08:21:56.000Z</time>
      </trkpt>
      <trkpt lat="47.26845" lon="-2.33774">
        <ele>-2</ele>
        <time>2021-03-18T08:21:57.000Z</time>
      </trkpt>
      <trkpt lat="47.26863" lon="-2.33781">
        <ele>-2</ele>
        <time>2021-03-18T08:22:01.000Z</time>
      </trkpt>
      <trkpt lat="47.26888" lon="-2.33794">
        <ele>-2</ele>
        <time>2021-03-18T08:22:07.000Z</time>
      </trkpt>
      <trkpt lat="47.26892" lon="-2.33798">
        <ele>-2</ele>
        <time>2021-03-18T08:22:08.000Z</time>
      </trkpt>
      <trkpt lat="47.26901" lon="-2.3382">
        <ele>-2</ele>
        <time>2021-03-18T08:22:12.000Z</time>
      </trkpt>
      <trkpt lat="47.26903" lon="-2.33827">
        <ele>-2</ele>
        <time>2021-03-18T08:22:13.000Z</time>
      </trkpt>
      <trkpt lat="47.26913" lon="-2.33873">
        <ele>-2</ele>
        <time>2021-03-18T08:22:20.000Z</time>
      </trkpt>
      <trkpt lat="47.26923" lon="-2.33918">
        <ele>-2</ele>
        <time>2021-03-18T08:22:27.000Z</time>
      </trkpt>
      <trkpt lat="47.26937" lon="-2.33977">
        <ele>-2</ele>
        <time>2021-03-18T08:22:36.000Z</time>
      </trkpt>
      <trkpt lat="47.2695" lon="-2.34031">
        <ele>-2</ele>
        <time>2021-03-18T08:22:44.000Z</time>
      </trkpt>
      <trkpt lat="47.26965" lon="-2.34096">
        <ele>-2</ele>
        <time>2021-03-18T08:22:54.000Z</time>
      </trkpt>
      <trkpt lat="47.26974" lon="-2.34136">
        <ele>-2</ele>
        <time>2021-03-18T08:23:01.000Z</time>
      </trkpt>
      <trkpt lat="47.26976" lon="-2.34143">
        <ele>-2</ele>
        <time>2021-03-18T08:23:06.000Z</time>
      </trkpt>
      <trkpt lat="47.26979" lon="-2.34152">
        <ele>-2</ele>
        <time>2021-03-18T08:23:35.000Z</time>
      </trkpt>
      <trkpt lat="47.26979" lon="-2.34156">
        <ele>-2</ele>
        <time>2021-03-18T08:23:36.000Z</time>
      </trkpt>
      <trkpt lat="47.2698" lon="-2.34161">
        <ele>-2</ele>
        <time>2021-03-18T08:23:37.000Z</time>
      </trkpt>
      <trkpt lat="47.26986" lon="-2.34186">
        <ele>-2</ele>
        <time>2021-03-18T08:23:41.000Z</time>
      </trkpt>
      <trkpt lat="47.26996" lon="-2.34237">
        <ele>-2</ele>
        <time>2021-03-18T08:23:48.000Z</time>
      </trkpt>
      <trkpt lat="47.27007" lon="-2.34286">
        <ele>-2</ele>
        <time>2021-03-18T08:23:55.000Z</time>
      </trkpt>
      <trkpt lat="47.27009" lon="-2.34313">
        <ele>-2</ele>
        <time>2021-03-18T08:24:00.000Z</time>
      </trkpt>
      <trkpt lat="47.27013" lon="-2.34318">
        <ele>-2</ele>
        <time>2021-03-18T08:24:02.000Z</time>
      </trkpt>
      <trkpt lat="47.27019" lon="-2.34319">
        <ele>-2</ele>
        <time>2021-03-18T08:24:04.000Z</time>
      </trkpt>
      <trkpt lat="47.27026" lon="-2.34317">
        <ele>-2</ele>
        <time>2021-03-18T08:24:06.000Z</time>
      </trkpt>
      <trkpt lat="47.27031" lon="-2.34316">
        <ele>-2</ele>
        <time>2021-03-18T08:24:08.000Z</time>
      </trkpt>
      <trkpt lat="47.27034" lon="-2.34318">
        <ele>-2</ele>
        <time>2021-03-18T08:24:10.000Z</time>
      </trkpt>
      <trkpt lat="47.27037" lon="-2.34319">
        <ele>-2</ele>
        <time>2021-03-18T08:24:12.000Z</time>
      </trkpt>
      <trkpt lat="47.2704" lon="-2.34331">
        <ele>-2</ele>
        <time>2021-03-18T08:24:16.000Z</time>
      </trkpt>
      <trkpt lat="47.27045" lon="-2.34359">
        <ele>-2</ele>
        <time>2021-03-18T08:24:20.000Z</time>
      </trkpt>
      <trkpt lat="47.27063" lon="-2.34428">
        <ele>-1.6000000238419</ele>
        <time>2021-03-18T08:24:29.000Z</time>
      </trkpt>
      <trkpt lat="47.27064" lon="-2.34436">
        <ele>-1.2000000476837</ele>
        <time>2021-03-18T08:24:30.000Z</time>
      </trkpt>
      <trkpt lat="47.27066" lon="-2.34443">
        <ele>-0.80000001192093</ele>
        <time>2021-03-18T08:24:31.000Z</time>
      </trkpt>
      <trkpt lat="47.27067" lon="-2.34451">
        <ele>-0.40000000596046</ele>
        <time>2021-03-18T08:24:32.000Z</time>
      </trkpt>
      <trkpt lat="47.27069" lon="-2.34459">
        <ele>10.3</ele>
        <time>2021-03-18T08:24:33.000Z</time>
      </trkpt>
      <trkpt lat="47.27075" lon="-2.34483">
        <ele>10.3</ele>
        <time>2021-03-18T08:24:36.000Z</time>
      </trkpt>
      <trkpt lat="47.27089" lon="-2.34538">
        <ele>11</ele>
        <time>2021-03-18T08:24:43.000Z</time>
      </trkpt>
      <trkpt lat="47.27103" lon="-2.34597">
        <ele>10.5</ele>
        <time>2021-03-18T08:24:51.000Z</time>
      </trkpt>
      <trkpt lat="47.27114" lon="-2.34647">
        <ele>10</ele>
        <time>2021-03-18T08:24:57.000Z</time>
      </trkpt>
      <trkpt lat="47.27127" lon="-2.34706">
        <ele>10.2</ele>
        <time>2021-03-18T08:25:04.000Z</time>
      </trkpt>
      <trkpt lat="47.27137" lon="-2.34755">
        <ele>10.1</ele>
        <time>2021-03-18T08:25:10.000Z</time>
      </trkpt>
      <trkpt lat="47.27149" lon="-2.34818">
        <ele>11</ele>
        <time>2021-03-18T08:25:18.000Z</time>
      </trkpt>
      <trkpt lat="47.27162" lon="-2.34878">
        <ele>10.8</ele>
        <time>2021-03-18T08:25:26.000Z</time>
      </trkpt>
      <trkpt lat="47.27178" lon="-2.34928">
        <ele>11.4</ele>
        <time>2021-03-18T08:25:33.000Z</time>
      </trkpt>
      <trkpt lat="47.27196" lon="-2.34985">
        <ele>11.6</ele>
        <time>2021-03-18T08:25:41.000Z</time>
      </trkpt>
      <trkpt lat="47.27216" lon="-2.35036">
        <ele>11.8</ele>
        <time>2021-03-18T08:25:49.000Z</time>
      </trkpt>
      <trkpt lat="47.27239" lon="-2.35092">
        <ele>11.6</ele>
        <time>2021-03-18T08:25:57.000Z</time>
      </trkpt>
      <trkpt lat="47.27255" lon="-2.35123">
        <ele>12.2</ele>
        <time>2021-03-18T08:26:02.000Z</time>
      </trkpt>
      <trkpt lat="47.27259" lon="-2.35123">
        <ele>12.3</ele>
        <time>2021-03-18T08:26:03.000Z</time>
      </trkpt>
      <trkpt lat="47.27272" lon="-2.35117">
        <ele>12.8</ele>
        <time>2021-03-18T08:26:06.000Z</time>
      </trkpt>
      <trkpt lat="47.27295" lon="-2.35104">
        <ele>13.9</ele>
        <time>2021-03-18T08:26:13.000Z</time>
      </trkpt>
      <trkpt lat="47.27302" lon="-2.35103">
        <ele>14.2</ele>
        <time>2021-03-18T08:26:17.000Z</time>
      </trkpt>
      <trkpt lat="47.27316" lon="-2.35095">
        <ele>15.1</ele>
        <time>2021-03-18T08:26:22.000Z</time>
      </trkpt>
      <trkpt lat="47.27319" lon="-2.35093">
        <ele>0.40000000596046</ele>
        <time>2021-03-18T08:26:23.000Z</time>
      </trkpt>
      <trkpt lat="47.27322" lon="-2.35092">
        <ele>0.80000001192093</ele>
        <time>2021-03-18T08:26:24.000Z</time>
      </trkpt>
      <trkpt lat="47.27325" lon="-2.3509">
        <ele>1.3999999761581</ele>
        <time>2021-03-18T08:26:25.000Z</time>
      </trkpt>
      <trkpt lat="47.27329" lon="-2.35087">
        <ele>1.7999999523163</ele>
        <time>2021-03-18T08:26:26.000Z</time>
      </trkpt>
      <trkpt lat="47.27331" lon="-2.35085">
        <ele>2.2000000476837</ele>
        <time>2021-03-18T08:26:27.000Z</time>
      </trkpt>
      <trkpt lat="47.27339" lon="-2.35082">
        <ele>2.2000000476837</ele>
        <time>2021-03-18T08:26:29.000Z</time>
      </trkpt>
      <trkpt lat="47.27347" lon="-2.35078">
        <ele>2.5999999046326</ele>
        <time>2021-03-18T08:26:31.000Z</time>
      </trkpt>
      <trkpt lat="47.27351" lon="-2.35076">
        <ele>3</ele>
        <time>2021-03-18T08:26:32.000Z</time>
      </trkpt>
      <trkpt lat="47.27355" lon="-2.35074">
        <ele>3.5999999046326</ele>
        <time>2021-03-18T08:26:33.000Z</time>
      </trkpt>
      <trkpt lat="47.27359" lon="-2.35073">
        <ele>4</ele>
        <time>2021-03-18T08:26:34.000Z</time>
      </trkpt>
      <trkpt lat="47.27363" lon="-2.3507">
        <ele>4.4000000953674</ele>
        <time>2021-03-18T08:26:35.000Z</time>
      </trkpt>
      <trkpt lat="47.27367" lon="-2.35068">
        <ele>4.4000000953674</ele>
        <time>2021-03-18T08:26:36.000Z</time>
      </trkpt>
      <trkpt lat="47.27385" lon="-2.35057">
        <ele>4.8000001907349</ele>
        <time>2021-03-18T08:26:41.000Z</time>
      </trkpt>
      <trkpt lat="47.27389" lon="-2.35056">
        <ele>5.1999998092651</ele>
        <time>2021-03-18T08:26:42.000Z</time>
      </trkpt>
      <trkpt lat="47.27392" lon="-2.35055">
        <ele>5.8000001907349</ele>
        <time>2021-03-18T08:26:43.000Z</time>
      </trkpt>
      <trkpt lat="47.27395" lon="-2.35057">
        <ele>6.1999998092651</ele>
        <time>2021-03-18T08:26:44.000Z</time>
      </trkpt>
      <trkpt lat="47.27397" lon="-2.35061">
        <ele>6.5999999046326</ele>
        <time>2021-03-18T08:26:45.000Z</time>
      </trkpt>
      <trkpt lat="47.27398" lon="-2.35065">
        <ele>6.5999999046326</ele>
        <time>2021-03-18T08:26:46.000Z</time>
      </trkpt>
      <trkpt lat="47.27401" lon="-2.35075">
        <ele>6.5999999046326</ele>
        <time>2021-03-18T08:26:48.000Z</time>
      </trkpt>
      <trkpt lat="47.27409" lon="-2.35098">
        <ele>6.5999999046326</ele>
        <time>2021-03-18T08:26:52.000Z</time>
      </trkpt>
      <trkpt lat="47.27411" lon="-2.35104">
        <ele>6.5999999046326</ele>
        <time>2021-03-18T08:26:53.000Z</time>
      </trkpt>
      <trkpt lat="47.2742" lon="-2.35141">
        <ele>6.5999999046326</ele>
        <time>2021-03-18T08:26:59.000Z</time>
      </trkpt>
      <trkpt lat="47.27429" lon="-2.35172">
        <ele>6.5999999046326</ele>
        <time>2021-03-18T08:27:05.000Z</time>
      </trkpt>
      <trkpt lat="47.27436" lon="-2.35172">
        <ele>6.5999999046326</ele>
        <time>2021-03-18T08:27:09.000Z</time>
      </trkpt>
      <trkpt lat="47.27445" lon="-2.35166">
        <ele>6.5999999046326</ele>
        <time>2021-03-18T08:27:11.000Z</time>
      </trkpt>
      <trkpt lat="47.27457" lon="-2.35158">
        <ele>6.5999999046326</ele>
        <time>2021-03-18T08:27:13.000Z</time>
      </trkpt>
      <trkpt lat="47.27461" lon="-2.35156">
        <ele>7</ele>
        <time>2021-03-18T08:27:14.000Z</time>
      </trkpt>
      <trkpt lat="47.27466" lon="-2.35153">
        <ele>7.4000000953674</ele>
        <time>2021-03-18T08:27:15.000Z</time>
      </trkpt>
      <trkpt lat="47.2747" lon="-2.35151">
        <ele>7.8000001907349</ele>
        <time>2021-03-18T08:27:16.000Z</time>
      </trkpt>
      <trkpt lat="47.27475" lon="-2.35149">
        <ele>8.1999998092651</ele>
        <time>2021-03-18T08:27:17.000Z</time>
      </trkpt>
      <trkpt lat="47.27479" lon="-2.35147">
        <ele>8.6000003814697</ele>
        <time>2021-03-18T08:27:18.000Z</time>
      </trkpt>
      <trkpt lat="47.27483" lon="-2.35145">
        <ele>8.6000003814697</ele>
        <time>2021-03-18T08:27:19.000Z</time>
      </trkpt>
      <trkpt lat="47.27498" lon="-2.35135">
        <ele>8.6000003814697</ele>
        <time>2021-03-18T08:27:23.000Z</time>
      </trkpt>
      <trkpt lat="47.27504" lon="-2.35126">
        <ele>8.6000003814697</ele>
        <time>2021-03-18T08:27:25.000Z</time>
      </trkpt>
      <trkpt lat="47.27517" lon="-2.3513">
        <ele>8.6000003814697</ele>
        <time>2021-03-18T08:27:28.000Z</time>
      </trkpt>
      <trkpt lat="47.27521" lon="-2.35132">
        <ele>9</ele>
        <time>2021-03-18T08:27:29.000Z</time>
      </trkpt>
      <trkpt lat="47.27525" lon="-2.35133">
        <ele>9.6000003814697</ele>
        <time>2021-03-18T08:27:30.000Z</time>
      </trkpt>
      <trkpt lat="47.27529" lon="-2.35135">
        <ele>10</ele>
        <time>2021-03-18T08:27:31.000Z</time>
      </trkpt>
      <trkpt lat="47.27534" lon="-2.35137">
        <ele>10.39999961853</ele>
        <time>2021-03-18T08:27:32.000Z</time>
      </trkpt>
      <trkpt lat="47.27538" lon="-2.35138">
        <ele>10.800000190735</ele>
        <time>2021-03-18T08:27:33.000Z</time>
      </trkpt>
      <trkpt lat="47.27543" lon="-2.35138">
        <ele>10.800000190735</ele>
        <time>2021-03-18T08:27:34.000Z</time>
      </trkpt>
      <trkpt lat="47.27583" lon="-2.35134">
        <ele>10.800000190735</ele>
        <time>2021-03-18T08:27:42.000Z</time>
      </trkpt>
      <trkpt lat="47.27598" lon="-2.35133">
        <ele>10.800000190735</ele>
        <time>2021-03-18T08:27:45.000Z</time>
      </trkpt>
      <trkpt lat="47.27607" lon="-2.35141">
        <ele>10.800000190735</ele>
        <time>2021-03-18T08:27:47.000Z</time>
      </trkpt>
      <trkpt lat="47.27611" lon="-2.35164">
        <ele>10.800000190735</ele>
        <time>2021-03-18T08:27:50.000Z</time>
      </trkpt>
      <trkpt lat="47.27613" lon="-2.35171">
        <ele>10.800000190735</ele>
        <time>2021-03-18T08:27:51.000Z</time>
      </trkpt>
      <trkpt lat="47.27619" lon="-2.35178">
        <ele>10.800000190735</ele>
        <time>2021-03-18T08:27:53.000Z</time>
      </trkpt>
      <trkpt lat="47.27629" lon="-2.35172">
        <ele>10.800000190735</ele>
        <time>2021-03-18T08:27:56.000Z</time>
      </trkpt>
      <trkpt lat="47.27631" lon="-2.35167">
        <ele>10.39999961853</ele>
        <time>2021-03-18T08:27:57.000Z</time>
      </trkpt>
      <trkpt lat="47.27634" lon="-2.35164">
        <ele>10</ele>
        <time>2021-03-18T08:27:58.000Z</time>
      </trkpt>
      <trkpt lat="47.27637" lon="-2.35162">
        <ele>9.6000003814697</ele>
        <time>2021-03-18T08:27:59.000Z</time>
      </trkpt>
      <trkpt lat="47.27641" lon="-2.3516">
        <ele>9.1999998092651</ele>
        <time>2021-03-18T08:28:00.000Z</time>
      </trkpt>
      <trkpt lat="47.27646" lon="-2.35158">
        <ele>8.8000001907349</ele>
        <time>2021-03-18T08:28:01.000Z</time>
      </trkpt>
      <trkpt lat="47.27655" lon="-2.35157">
        <ele>8.8000001907349</ele>
        <time>2021-03-18T08:28:03.000Z</time>
      </trkpt>
      <trkpt lat="47.27659" lon="-2.35156">
        <ele>8.8000001907349</ele>
        <time>2021-03-18T08:28:04.000Z</time>
      </trkpt>
      <trkpt lat="47.27669" lon="-2.35161">
        <ele>8.8000001907349</ele>
        <time>2021-03-18T08:28:07.000Z</time>
      </trkpt>
      <trkpt lat="47.27671" lon="-2.35179">
        <ele>8.8000001907349</ele>
        <time>2021-03-18T08:28:10.000Z</time>
      </trkpt>
      <trkpt lat="47.27673" lon="-2.352">
        <ele>8.8000001907349</ele>
        <time>2021-03-18T08:28:13.000Z</time>
      </trkpt>
      <trkpt lat="47.27674" lon="-2.35208">
        <ele>8.3999996185303</ele>
        <time>2021-03-18T08:28:14.000Z</time>
      </trkpt>
      <trkpt lat="47.27674" lon="-2.35215">
        <ele>8</ele>
        <time>2021-03-18T08:28:15.000Z</time>
      </trkpt>
      <trkpt lat="47.27674" lon="-2.35219">
        <ele>7.4000000953674</ele>
        <time>2021-03-18T08:28:16.000Z</time>
      </trkpt>
      <trkpt lat="47.27674" lon="-2.35222">
        <ele>7</ele>
        <time>2021-03-18T08:28:17.000Z</time>
      </trkpt>
      <trkpt lat="47.27673" lon="-2.35224">
        <ele>6.5999999046326</ele>
        <time>2021-03-18T08:28:18.000Z</time>
      </trkpt>
      <trkpt lat="47.27672" lon="-2.35226">
        <ele>6.1999998092651</ele>
        <time>2021-03-18T08:28:19.000Z</time>
      </trkpt>
      <trkpt lat="47.2767" lon="-2.35228">
        <ele>5.8000001907349</ele>
        <time>2021-03-18T08:28:20.000Z</time>
      </trkpt>
      <trkpt lat="47.27668" lon="-2.3523">
        <ele>5.4000000953674</ele>
        <time>2021-03-18T08:28:21.000Z</time>
      </trkpt>
      <trkpt lat="47.27664" lon="-2.35232">
        <ele>5</ele>
        <time>2021-03-18T08:28:22.000Z</time>
      </trkpt>
      <trkpt lat="47.2766" lon="-2.35234">
        <ele>4.5999999046326</ele>
        <time>2021-03-18T08:28:23.000Z</time>
      </trkpt>
      <trkpt lat="47.27645" lon="-2.35239">
        <ele>4.5999999046326</ele>
        <time>2021-03-18T08:28:26.000Z</time>
      </trkpt>
      <trkpt lat="47.27624" lon="-2.35248">
        <ele>4.5999999046326</ele>
        <time>2021-03-18T08:28:30.000Z</time>
      </trkpt>
      <trkpt lat="47.27613" lon="-2.35255">
        <ele>4.5999999046326</ele>
        <time>2021-03-18T08:28:32.000Z</time>
      </trkpt>
      <trkpt lat="47.27603" lon="-2.35262">
        <ele>5</ele>
        <time>2021-03-18T08:28:34.000Z</time>
      </trkpt>
      <trkpt lat="47.27597" lon="-2.35265">
        <ele>5.4000000953674</ele>
        <time>2021-03-18T08:28:35.000Z</time>
      </trkpt>
      <trkpt lat="47.27592" lon="-2.35268">
        <ele>5.8000001907349</ele>
        <time>2021-03-18T08:28:36.000Z</time>
      </trkpt>
      <trkpt lat="47.27587" lon="-2.35272">
        <ele>6.1999998092651</ele>
        <time>2021-03-18T08:28:37.000Z</time>
      </trkpt>
      <trkpt lat="47.27581" lon="-2.35275">
        <ele>6.5999999046326</ele>
        <time>2021-03-18T08:28:38.000Z</time>
      </trkpt>
      <trkpt lat="47.2757" lon="-2.3528">
        <ele>6.5999999046326</ele>
        <time>2021-03-18T08:28:40.000Z</time>
      </trkpt>
      <trkpt lat="47.27536" lon="-2.35294">
        <ele>6.5999999046326</ele>
        <time>2021-03-18T08:28:46.000Z</time>
      </trkpt>
      <trkpt lat="47.2753" lon="-2.35295">
        <ele>6.5999999046326</ele>
        <time>2021-03-18T08:28:47.000Z</time>
      </trkpt>
      <trkpt lat="47.275" lon="-2.353">
        <ele>6.5999999046326</ele>
        <time>2021-03-18T08:28:52.000Z</time>
      </trkpt>
      <trkpt lat="47.27498" lon="-2.35302">
        <ele>6.1999998092651</ele>
        <time>2021-03-18T08:28:53.000Z</time>
      </trkpt>
      <trkpt lat="47.27496" lon="-2.35303">
        <ele>5.8000001907349</ele>
        <time>2021-03-18T08:28:54.000Z</time>
      </trkpt>
      <trkpt lat="47.27495" lon="-2.35302">
        <ele>5.4000000953674</ele>
        <time>2021-03-18T08:28:55.000Z</time>
      </trkpt>
      <trkpt lat="47.27494" lon="-2.353">
        <ele>4.8000001907349</ele>
        <time>2021-03-18T08:28:56.000Z</time>
      </trkpt>
      <trkpt lat="47.27494" lon="-2.35297">
        <ele>4.4000000953674</ele>
        <time>2021-03-18T08:28:57.000Z</time>
      </trkpt>
      <trkpt lat="47.27496" lon="-2.35291">
        <ele>4.4000000953674</ele>
        <time>2021-03-18T08:28:59.000Z</time>
      </trkpt>
      <trkpt lat="47.27502" lon="-2.35294">
        <ele>4.4000000953674</ele>
        <time>2021-03-18T08:29:01.000Z</time>
      </trkpt>
      <trkpt lat="47.27507" lon="-2.35294">
        <ele>4.4000000953674</ele>
        <time>2021-03-18T08:29:02.000Z</time>
      </trkpt>
      <trkpt lat="47.27534" lon="-2.3529">
        <ele>4.4000000953674</ele>
        <time>2021-03-18T08:29:07.000Z</time>
      </trkpt>
      <trkpt lat="47.27536" lon="-2.35292">
        <ele>4.4000000953674</ele>
        <time>2021-03-18T08:29:08.000Z</time>
      </trkpt>
      <trkpt lat="47.27538" lon="-2.35297">
        <ele>4.4000000953674</ele>
        <time>2021-03-18T08:29:09.000Z</time>
      </trkpt>
      <trkpt lat="47.27544" lon="-2.35314">
        <ele>4.4000000953674</ele>
        <time>2021-03-18T08:29:12.000Z</time>
      </trkpt>
      <trkpt lat="47.27548" lon="-2.35317">
        <ele>4.4000000953674</ele>
        <time>2021-03-18T08:29:13.000Z</time>
      </trkpt>
      <trkpt lat="47.27565" lon="-2.3532">
        <ele>4.4000000953674</ele>
        <time>2021-03-18T08:29:16.000Z</time>
      </trkpt>
      <trkpt lat="47.2757" lon="-2.3532">
        <ele>4.4000000953674</ele>
        <time>2021-03-18T08:29:17.000Z</time>
      </trkpt>
      <trkpt lat="47.27585" lon="-2.35321">
        <ele>4.4000000953674</ele>
        <time>2021-03-18T08:29:20.000Z</time>
      </trkpt>
      <trkpt lat="47.27595" lon="-2.35322">
        <ele>4.4000000953674</ele>
        <time>2021-03-18T08:29:22.000Z</time>
      </trkpt>
      <trkpt lat="47.27604" lon="-2.35329">
        <ele>4.4000000953674</ele>
        <time>2021-03-18T08:29:24.000Z</time>
      </trkpt>
      <trkpt lat="47.2762" lon="-2.35328">
        <ele>4.4000000953674</ele>
        <time>2021-03-18T08:29:27.000Z</time>
      </trkpt>
      <trkpt lat="47.27643" lon="-2.35324">
        <ele>4.4000000953674</ele>
        <time>2021-03-18T08:29:31.000Z</time>
      </trkpt>
      <trkpt lat="47.27654" lon="-2.35328">
        <ele>4.4000000953674</ele>
        <time>2021-03-18T08:29:33.000Z</time>
      </trkpt>
      <trkpt lat="47.27665" lon="-2.35333">
        <ele>4.4000000953674</ele>
        <time>2021-03-18T08:29:35.000Z</time>
      </trkpt>
      <trkpt lat="47.27669" lon="-2.35338">
        <ele>4.4000000953674</ele>
        <time>2021-03-18T08:29:36.000Z</time>
      </trkpt>
      <trkpt lat="47.27676" lon="-2.35346">
        <ele>4.4000000953674</ele>
        <time>2021-03-18T08:29:39.000Z</time>
      </trkpt>
      <trkpt lat="47.27676" lon="-2.35351">
        <ele>4.4000000953674</ele>
        <time>2021-03-18T08:29:41.000Z</time>
      </trkpt>
      <trkpt lat="47.27674" lon="-2.3535">
        <ele>4.4000000953674</ele>
        <time>2021-03-18T08:29:42.000Z</time>
      </trkpt>
      <trkpt lat="47.27669" lon="-2.35342">
        <ele>4.4000000953674</ele>
        <time>2021-03-18T08:29:45.000Z</time>
      </trkpt>
      <trkpt lat="47.27655" lon="-2.35328">
        <ele>4.4000000953674</ele>
        <time>2021-03-18T08:29:49.000Z</time>
      </trkpt>
      <trkpt lat="47.27636" lon="-2.35319">
        <ele>4.4000000953674</ele>
        <time>2021-03-18T08:29:53.000Z</time>
      </trkpt>
      <trkpt lat="47.27627" lon="-2.353">
        <ele>4.4000000953674</ele>
        <time>2021-03-18T08:29:56.000Z</time>
      </trkpt>
      <trkpt lat="47.27625" lon="-2.35286">
        <ele>4.4000000953674</ele>
        <time>2021-03-18T08:29:58.000Z</time>
      </trkpt>
      <trkpt lat="47.27622" lon="-2.35258">
        <ele>4.4000000953674</ele>
        <time>2021-03-18T08:30:02.000Z</time>
      </trkpt>
      <trkpt lat="47.27625" lon="-2.35243">
        <ele>5</ele>
        <time>2021-03-18T08:30:05.000Z</time>
      </trkpt>
      <trkpt lat="47.27628" lon="-2.3524">
        <ele>5.4000000953674</ele>
        <time>2021-03-18T08:30:06.000Z</time>
      </trkpt>
      <trkpt lat="47.27632" lon="-2.35237">
        <ele>5.8000001907349</ele>
        <time>2021-03-18T08:30:07.000Z</time>
      </trkpt>
      <trkpt lat="47.27636" lon="-2.35235">
        <ele>6.1999998092651</ele>
        <time>2021-03-18T08:30:08.000Z</time>
      </trkpt>
      <trkpt lat="47.27642" lon="-2.35232">
        <ele>6.5999999046326</ele>
        <time>2021-03-18T08:30:09.000Z</time>
      </trkpt>
      <trkpt lat="47.27649" lon="-2.35229">
        <ele>6.5999999046326</ele>
        <time>2021-03-18T08:30:10.000Z</time>
      </trkpt>
      <trkpt lat="47.27656" lon="-2.35226">
        <ele>6.5999999046326</ele>
        <time>2021-03-18T08:30:11.000Z</time>
      </trkpt>
      <trkpt lat="47.27702" lon="-2.35213">
        <ele>6.5999999046326</ele>
        <time>2021-03-18T08:30:18.000Z</time>
      </trkpt>
      <trkpt lat="47.27733" lon="-2.35204">
        <ele>6.1999998092651</ele>
        <time>2021-03-18T08:30:23.000Z</time>
      </trkpt>
      <trkpt lat="47.27739" lon="-2.35202">
        <ele>5.5999999046326</ele>
        <time>2021-03-18T08:30:24.000Z</time>
      </trkpt>
      <trkpt lat="47.27745" lon="-2.352">
        <ele>5.1999998092651</ele>
        <time>2021-03-18T08:30:25.000Z</time>
      </trkpt>
      <trkpt lat="47.27751" lon="-2.35199">
        <ele>4.5999999046326</ele>
        <time>2021-03-18T08:30:26.000Z</time>
      </trkpt>
      <trkpt lat="47.27757" lon="-2.35198">
        <ele>4.1999998092651</ele>
        <time>2021-03-18T08:30:27.000Z</time>
      </trkpt>
      <trkpt lat="47.27762" lon="-2.35198">
        <ele>4.1999998092651</ele>
        <time>2021-03-18T08:30:28.000Z</time>
      </trkpt>
      <trkpt lat="47.27766" lon="-2.35198">
        <ele>3.7999999523163</ele>
        <time>2021-03-18T08:30:29.000Z</time>
      </trkpt>
      <trkpt lat="47.27769" lon="-2.35202">
        <ele>3.4000000953674</ele>
        <time>2021-03-18T08:30:30.000Z</time>
      </trkpt>
      <trkpt lat="47.2777" lon="-2.35208">
        <ele>3</ele>
        <time>2021-03-18T08:30:31.000Z</time>
      </trkpt>
      <trkpt lat="47.27772" lon="-2.35214">
        <ele>2.4000000953674</ele>
        <time>2021-03-18T08:30:32.000Z</time>
      </trkpt>
      <trkpt lat="47.27774" lon="-2.35222">
        <ele>2</ele>
        <time>2021-03-18T08:30:33.000Z</time>
      </trkpt>
      <trkpt lat="47.27784" lon="-2.3527">
        <ele>2</ele>
        <time>2021-03-18T08:30:39.000Z</time>
      </trkpt>
      <trkpt lat="47.27798" lon="-2.35338">
        <ele>2</ele>
        <time>2021-03-18T08:30:47.000Z</time>
      </trkpt>
      <trkpt lat="47.27807" lon="-2.3536">
        <ele>2</ele>
        <time>2021-03-18T08:30:50.000Z</time>
      </trkpt>
      <trkpt lat="47.27813" lon="-2.35363">
        <ele>2</ele>
        <time>2021-03-18T08:30:51.000Z</time>
      </trkpt>
      <trkpt lat="47.27829" lon="-2.35363">
        <ele>2</ele>
        <time>2021-03-18T08:30:54.000Z</time>
      </trkpt>
      <trkpt lat="47.27834" lon="-2.35363">
        <ele>2</ele>
        <time>2021-03-18T08:30:55.000Z</time>
      </trkpt>
      <trkpt lat="47.27858" lon="-2.35359">
        <ele>2</ele>
        <time>2021-03-18T08:31:00.000Z</time>
      </trkpt>
      <trkpt lat="47.27862" lon="-2.3536">
        <ele>2</ele>
        <time>2021-03-18T08:31:01.000Z</time>
      </trkpt>
      <trkpt lat="47.27878" lon="-2.35369">
        <ele>2</ele>
        <time>2021-03-18T08:31:05.000Z</time>
      </trkpt>
      <trkpt lat="47.27889" lon="-2.35382">
        <ele>2</ele>
        <time>2021-03-18T08:31:08.000Z</time>
      </trkpt>
      <trkpt lat="47.279" lon="-2.35397">
        <ele>2</ele>
        <time>2021-03-18T08:31:11.000Z</time>
      </trkpt>
      <trkpt lat="47.27927" lon="-2.35432">
        <ele>2</ele>
        <time>2021-03-18T08:31:18.000Z</time>
      </trkpt>
      <trkpt lat="47.27948" lon="-2.35455">
        <ele>2</ele>
        <time>2021-03-18T08:31:23.000Z</time>
      </trkpt>
      <trkpt lat="47.27953" lon="-2.35459">
        <ele>2</ele>
        <time>2021-03-18T08:31:24.000Z</time>
      </trkpt>
      <trkpt lat="47.27972" lon="-2.35469">
        <ele>2</ele>
        <time>2021-03-18T08:31:28.000Z</time>
      </trkpt>
      <trkpt lat="47.27976" lon="-2.35474">
        <ele>2</ele>
        <time>2021-03-18T08:31:29.000Z</time>
      </trkpt>
      <trkpt lat="47.27993" lon="-2.35503">
        <ele>2</ele>
        <time>2021-03-18T08:31:34.000Z</time>
      </trkpt>
      <trkpt lat="47.28006" lon="-2.35536">
        <ele>2</ele>
        <time>2021-03-18T08:31:40.000Z</time>
      </trkpt>
      <trkpt lat="47.28012" lon="-2.3556">
        <ele>2</ele>
        <time>2021-03-18T08:31:45.000Z</time>
      </trkpt>
      <trkpt lat="47.28016" lon="-2.35566">
        <ele>2</ele>
        <time>2021-03-18T08:31:47.000Z</time>
      </trkpt>
      <trkpt lat="47.28023" lon="-2.35566">
        <ele>2</ele>
        <time>2021-03-18T08:31:49.000Z</time>
      </trkpt>
      <trkpt lat="47.28026" lon="-2.35567">
        <ele>2.4000000953674</ele>
        <time>2021-03-18T08:31:50.000Z</time>
      </trkpt>
      <trkpt lat="47.2803" lon="-2.35569">
        <ele>2.7999999523163</ele>
        <time>2021-03-18T08:31:51.000Z</time>
      </trkpt>
      <trkpt lat="47.28034" lon="-2.35571">
        <ele>3.2000000476837</ele>
        <time>2021-03-18T08:31:52.000Z</time>
      </trkpt>
      <trkpt lat="47.28037" lon="-2.35574">
        <ele>3.5999999046326</ele>
        <time>2021-03-18T08:31:53.000Z</time>
      </trkpt>
      <trkpt lat="47.28041" lon="-2.35576">
        <ele>4.1999998092651</ele>
        <time>2021-03-18T08:31:54.000Z</time>
      </trkpt>
      <trkpt lat="47.2806" lon="-2.35584">
        <ele>4.1999998092651</ele>
        <time>2021-03-18T08:32:00.000Z</time>
      </trkpt>
      <trkpt lat="47.28072" lon="-2.35594">
        <ele>4.1999998092651</ele>
        <time>2021-03-18T08:32:05.000Z</time>
      </trkpt>
      <trkpt lat="47.28085" lon="-2.3561">
        <ele>4.1999998092651</ele>
        <time>2021-03-18T08:32:11.000Z</time>
      </trkpt>
      <trkpt lat="47.28085" lon="-2.35609">
        <ele>4.1999998092651</ele>
        <time>2021-03-18T08:32:13.000Z</time>
      </trkpt>
      <trkpt lat="47.28081" lon="-2.35607">
        <ele>4.1999998092651</ele>
        <time>2021-03-18T08:35:13.000Z</time>
      </trkpt>
      <trkpt lat="47.28077" lon="-2.35613">
        <ele>4.1999998092651</ele>
        <time>2021-03-18T08:35:17.000Z</time>
      </trkpt>
      <trkpt lat="47.28078" lon="-2.35636">
        <ele>4.1999998092651</ele>
        <time>2021-03-18T08:35:22.000Z</time>
      </trkpt>
      <trkpt lat="47.28079" lon="-2.35639">
        <ele>4.5999999046326</ele>
        <time>2021-03-18T08:35:23.000Z</time>
      </trkpt>
      <trkpt lat="47.2808" lon="-2.35641">
        <ele>5</ele>
        <time>2021-03-18T08:35:24.000Z</time>
      </trkpt>
      <trkpt lat="47.28081" lon="-2.35644">
        <ele>5.4000000953674</ele>
        <time>2021-03-18T08:35:25.000Z</time>
      </trkpt>
      <trkpt lat="47.28082" lon="-2.35648">
        <ele>5.8000001907349</ele>
        <time>2021-03-18T08:35:26.000Z</time>
      </trkpt>
      <trkpt lat="47.28083" lon="-2.35651">
        <ele>6.1999998092651</ele>
        <time>2021-03-18T08:35:27.000Z</time>
      </trkpt>
      <trkpt lat="47.28085" lon="-2.35659">
        <ele>6.5999999046326</ele>
        <time>2021-03-18T08:35:30.000Z</time>
      </trkpt>
      <trkpt lat="47.28085" lon="-2.35662">
        <ele>7</ele>
        <time>2021-03-18T08:35:31.000Z</time>
      </trkpt>
      <trkpt lat="47.28086" lon="-2.35663">
        <ele>7.4000000953674</ele>
        <time>2021-03-18T08:35:32.000Z</time>
      </trkpt>
      <trkpt lat="47.28087" lon="-2.35666">
        <ele>7.8000001907349</ele>
        <time>2021-03-18T08:35:33.000Z</time>
      </trkpt>
      <trkpt lat="47.28087" lon="-2.35669">
        <ele>8.1999998092651</ele>
        <time>2021-03-18T08:35:34.000Z</time>
      </trkpt>
      <trkpt lat="47.28088" lon="-2.35674">
        <ele>8.1999998092651</ele>
        <time>2021-03-18T08:35:35.000Z</time>
      </trkpt>
      <trkpt lat="47.28093" lon="-2.35699">
        <ele>8.6000003814697</ele>
        <time>2021-03-18T08:35:42.000Z</time>
      </trkpt>
      <trkpt lat="47.28094" lon="-2.35702">
        <ele>9.6000003814697</ele>
        <time>2021-03-18T08:35:43.000Z</time>
      </trkpt>
      <trkpt lat="47.28095" lon="-2.35705">
        <ele>10</ele>
        <time>2021-03-18T08:35:44.000Z</time>
      </trkpt>
      <trkpt lat="47.28096" lon="-2.35708">
        <ele>10.39999961853</ele>
        <time>2021-03-18T08:35:45.000Z</time>
      </trkpt>
      <trkpt lat="47.28097" lon="-2.35717">
        <ele>10.39999961853</ele>
        <time>2021-03-18T08:35:47.000Z</time>
      </trkpt>
      <trkpt lat="47.281" lon="-2.35745">
        <ele>10.39999961853</ele>
        <time>2021-03-18T08:35:52.000Z</time>
      </trkpt>
      <trkpt lat="47.28101" lon="-2.35766">
        <ele>10.39999961853</ele>
        <time>2021-03-18T08:35:55.000Z</time>
      </trkpt>
      <trkpt lat="47.28096" lon="-2.35778">
        <ele>10.39999961853</ele>
        <time>2021-03-18T08:35:57.000Z</time>
      </trkpt>
      <trkpt lat="47.28094" lon="-2.35785">
        <ele>10</ele>
        <time>2021-03-18T08:35:58.000Z</time>
      </trkpt>
      <trkpt lat="47.28091" lon="-2.35792">
        <ele>9.3999996185303</ele>
        <time>2021-03-18T08:35:59.000Z</time>
      </trkpt>
      <trkpt lat="47.28089" lon="-2.35796">
        <ele>9</ele>
        <time>2021-03-18T08:36:00.000Z</time>
      </trkpt>
      <trkpt lat="47.28088" lon="-2.358">
        <ele>8.6000003814697</ele>
        <time>2021-03-18T08:36:01.000Z</time>
      </trkpt>
      <trkpt lat="47.28087" lon="-2.35803">
        <ele>8</ele>
        <time>2021-03-18T08:36:02.000Z</time>
      </trkpt>
      <trkpt lat="47.28088" lon="-2.35803">
        <ele>7.4000000953674</ele>
        <time>2021-03-18T08:36:03.000Z</time>
      </trkpt>
      <trkpt lat="47.2809" lon="-2.35805">
        <ele>6.8000001907349</ele>
        <time>2021-03-18T08:36:04.000Z</time>
      </trkpt>
      <trkpt lat="47.28092" lon="-2.35807">
        <ele>6.1999998092651</ele>
        <time>2021-03-18T08:36:05.000Z</time>
      </trkpt>
      <trkpt lat="47.28094" lon="-2.35808">
        <ele>5.5999999046326</ele>
        <time>2021-03-18T08:36:06.000Z</time>
      </trkpt>
      <trkpt lat="47.281" lon="-2.35813">
        <ele>5.5999999046326</ele>
        <time>2021-03-18T08:36:10.000Z</time>
      </trkpt>
      <trkpt lat="47.28102" lon="-2.35815">
        <ele>5.5999999046326</ele>
        <time>2021-03-18T08:36:12.000Z</time>
      </trkpt>
      <trkpt lat="47.28106" lon="-2.35819">
        <ele>5.5999999046326</ele>
        <time>2021-03-18T08:36:41.000Z</time>
      </trkpt>
      <trkpt lat="47.28108" lon="-2.3582">
        <ele>5.5999999046326</ele>
        <time>2021-03-18T08:36:42.000Z</time>
      </trkpt>
      <trkpt lat="47.28121" lon="-2.35829">
        <ele>5.5999999046326</ele>
        <time>2021-03-18T08:36:49.000Z</time>
      </trkpt>
      <trkpt lat="47.28124" lon="-2.35839">
        <ele>5.5999999046326</ele>
        <time>2021-03-18T08:36:53.000Z</time>
      </trkpt>
      <trkpt lat="47.28124" lon="-2.35842">
        <ele>5.5999999046326</ele>
        <time>2021-03-18T08:36:54.000Z</time>
      </trkpt>
      <trkpt lat="47.28125" lon="-2.35855">
        <ele>5.5999999046326</ele>
        <time>2021-03-18T08:36:57.000Z</time>
      </trkpt>
      <trkpt lat="47.2813" lon="-2.35866">
        <ele>5.5999999046326</ele>
        <time>2021-03-18T08:37:00.000Z</time>
      </trkpt>
      <trkpt lat="47.2814" lon="-2.35873">
        <ele>5.5999999046326</ele>
        <time>2021-03-18T08:37:05.000Z</time>
      </trkpt>
      <trkpt lat="47.28158" lon="-2.35893">
        <ele>5.5999999046326</ele>
        <time>2021-03-18T08:37:12.000Z</time>
      </trkpt>
      <trkpt lat="47.28174" lon="-2.35912">
        <ele>5.5999999046326</ele>
        <time>2021-03-18T08:37:18.000Z</time>
      </trkpt>
      <trkpt lat="47.28183" lon="-2.35933">
        <ele>5.5999999046326</ele>
        <time>2021-03-18T08:37:23.000Z</time>
      </trkpt>
      <trkpt lat="47.28187" lon="-2.35951">
        <ele>5.5999999046326</ele>
        <time>2021-03-18T08:37:26.000Z</time>
      </trkpt>
      <trkpt lat="47.2819" lon="-2.3597">
        <ele>5.5999999046326</ele>
        <time>2021-03-18T08:37:28.000Z</time>
      </trkpt>
      <trkpt lat="47.28192" lon="-2.35976">
        <ele>5.1999998092651</ele>
        <time>2021-03-18T08:37:29.000Z</time>
      </trkpt>
      <trkpt lat="47.28194" lon="-2.35982">
        <ele>4.8000001907349</ele>
        <time>2021-03-18T08:37:30.000Z</time>
      </trkpt>
      <trkpt lat="47.28195" lon="-2.35989">
        <ele>4.4000000953674</ele>
        <time>2021-03-18T08:37:31.000Z</time>
      </trkpt>
      <trkpt lat="47.28198" lon="-2.35995">
        <ele>4</ele>
        <time>2021-03-18T08:37:32.000Z</time>
      </trkpt>
      <trkpt lat="47.282" lon="-2.36001">
        <ele>3.4000000953674</ele>
        <time>2021-03-18T08:37:33.000Z</time>
      </trkpt>
      <trkpt lat="47.28208" lon="-2.36017">
        <ele>3.4000000953674</ele>
        <time>2021-03-18T08:37:37.000Z</time>
      </trkpt>
      <trkpt lat="47.28213" lon="-2.36021">
        <ele>3.4000000953674</ele>
        <time>2021-03-18T08:37:39.000Z</time>
      </trkpt>
      <trkpt lat="47.28219" lon="-2.36023">
        <ele>3.4000000953674</ele>
        <time>2021-03-18T08:37:41.000Z</time>
      </trkpt>
      <trkpt lat="47.28222" lon="-2.36022">
        <ele>3.4000000953674</ele>
        <time>2021-03-18T08:37:42.000Z</time>
      </trkpt>
      <trkpt lat="47.28229" lon="-2.36016">
        <ele>3.4000000953674</ele>
        <time>2021-03-18T08:37:45.000Z</time>
      </trkpt>
      <trkpt lat="47.28232" lon="-2.36015">
        <ele>3.4000000953674</ele>
        <time>2021-03-18T08:37:46.000Z</time>
      </trkpt>
      <trkpt lat="47.28248" lon="-2.36019">
        <ele>3.4000000953674</ele>
        <time>2021-03-18T08:37:51.000Z</time>
      </trkpt>
      <trkpt lat="47.28248" lon="-2.36031">
        <ele>3.4000000953674</ele>
        <time>2021-03-18T08:37:54.000Z</time>
      </trkpt>
      <trkpt lat="47.28247" lon="-2.36039">
        <ele>4</ele>
        <time>2021-03-18T08:37:56.000Z</time>
      </trkpt>
      <trkpt lat="47.28246" lon="-2.36043">
        <ele>4.4000000953674</ele>
        <time>2021-03-18T08:37:57.000Z</time>
      </trkpt>
      <trkpt lat="47.28245" lon="-2.36048">
        <ele>4.8000001907349</ele>
        <time>2021-03-18T08:37:58.000Z</time>
      </trkpt>
      <trkpt lat="47.28245" lon="-2.36053">
        <ele>5.1999998092651</ele>
        <time>2021-03-18T08:37:59.000Z</time>
      </trkpt>
      <trkpt lat="47.28245" lon="-2.36056">
        <ele>5.5999999046326</ele>
        <time>2021-03-18T08:38:00.000Z</time>
      </trkpt>
      <trkpt lat="47.28246" lon="-2.36073">
        <ele>5.5999999046326</ele>
        <time>2021-03-18T08:38:04.000Z</time>
      </trkpt>
      <trkpt lat="47.28244" lon="-2.3609">
        <ele>5.5999999046326</ele>
        <time>2021-03-18T08:38:08.000Z</time>
      </trkpt>
      <trkpt lat="47.28253" lon="-2.36118">
        <ele>5.5999999046326</ele>
        <time>2021-03-18T08:38:13.000Z</time>
      </trkpt>
      <trkpt lat="47.28256" lon="-2.36123">
        <ele>5.5999999046326</ele>
        <time>2021-03-18T08:38:14.000Z</time>
      </trkpt>
      <trkpt lat="47.28269" lon="-2.36142">
        <ele>5.5999999046326</ele>
        <time>2021-03-18T08:38:18.000Z</time>
      </trkpt>
      <trkpt lat="47.2828" lon="-2.36172">
        <ele>5.5999999046326</ele>
        <time>2021-03-18T08:38:24.000Z</time>
      </trkpt>
      <trkpt lat="47.28282" lon="-2.36211">
        <ele>5.5999999046326</ele>
        <time>2021-03-18T08:38:30.000Z</time>
      </trkpt>
      <trkpt lat="47.28282" lon="-2.36219">
        <ele>5.5999999046326</ele>
        <time>2021-03-18T08:38:31.000Z</time>
      </trkpt>
      <trkpt lat="47.28287" lon="-2.36239">
        <ele>5.1999998092651</ele>
        <time>2021-03-18T08:38:34.000Z</time>
      </trkpt>
      <trkpt lat="47.28291" lon="-2.36243">
        <ele>4.1999998092651</ele>
        <time>2021-03-18T08:38:35.000Z</time>
      </trkpt>
      <trkpt lat="47.28298" lon="-2.36243">
        <ele>3.7999999523163</ele>
        <time>2021-03-18T08:38:36.000Z</time>
      </trkpt>
      <trkpt lat="47.28303" lon="-2.36242">
        <ele>3.4000000953674</ele>
        <time>2021-03-18T08:38:37.000Z</time>
      </trkpt>
      <trkpt lat="47.28308" lon="-2.36244">
        <ele>3.4000000953674</ele>
        <time>2021-03-18T08:38:38.000Z</time>
      </trkpt>
      <trkpt lat="47.28317" lon="-2.36247">
        <ele>3.4000000953674</ele>
        <time>2021-03-18T08:38:40.000Z</time>
      </trkpt>
      <trkpt lat="47.28322" lon="-2.36249">
        <ele>3.4000000953674</ele>
        <time>2021-03-18T08:38:41.000Z</time>
      </trkpt>
      <trkpt lat="47.2833" lon="-2.36252">
        <ele>3.4000000953674</ele>
        <time>2021-03-18T08:38:43.000Z</time>
      </trkpt>
      <trkpt lat="47.28351" lon="-2.36261">
        <ele>3.4000000953674</ele>
        <time>2021-03-18T08:38:49.000Z</time>
      </trkpt>
      <trkpt lat="47.28358" lon="-2.36267">
        <ele>3.7999999523163</ele>
        <time>2021-03-18T08:38:52.000Z</time>
      </trkpt>
      <trkpt lat="47.2836" lon="-2.3627">
        <ele>4.1999998092651</ele>
        <time>2021-03-18T08:38:53.000Z</time>
      </trkpt>
      <trkpt lat="47.2836" lon="-2.36273">
        <ele>4.5999999046326</ele>
        <time>2021-03-18T08:38:54.000Z</time>
      </trkpt>
      <trkpt lat="47.2836" lon="-2.36276">
        <ele>5.1999998092651</ele>
        <time>2021-03-18T08:38:55.000Z</time>
      </trkpt>
      <trkpt lat="47.2836" lon="-2.36279">
        <ele>5.5999999046326</ele>
        <time>2021-03-18T08:38:56.000Z</time>
      </trkpt>
      <trkpt lat="47.2836" lon="-2.36286">
        <ele>5.5999999046326</ele>
        <time>2021-03-18T08:38:58.000Z</time>
      </trkpt>
      <trkpt lat="47.28362" lon="-2.36294">
        <ele>5.5999999046326</ele>
        <time>2021-03-18T08:39:00.000Z</time>
      </trkpt>
      <trkpt lat="47.28365" lon="-2.363">
        <ele>5.5999999046326</ele>
        <time>2021-03-18T08:39:03.000Z</time>
      </trkpt>
      <trkpt lat="47.28366" lon="-2.363">
        <ele>5.5999999046326</ele>
        <time>2021-03-18T08:39:04.000Z</time>
      </trkpt>
      <trkpt lat="47.28374" lon="-2.3631">
        <ele>6</ele>
        <time>2021-03-18T08:39:08.000Z</time>
      </trkpt>
      <trkpt lat="47.28376" lon="-2.36313">
        <ele>6.4000000953674</ele>
        <time>2021-03-18T08:39:09.000Z</time>
      </trkpt>
      <trkpt lat="47.2838" lon="-2.36317">
        <ele>6.8000001907349</ele>
        <time>2021-03-18T08:39:10.000Z</time>
      </trkpt>
      <trkpt lat="47.28384" lon="-2.3632">
        <ele>7.1999998092651</ele>
        <time>2021-03-18T08:39:11.000Z</time>
      </trkpt>
      <trkpt lat="47.28387" lon="-2.36323">
        <ele>7.5999999046326</ele>
        <time>2021-03-18T08:39:12.000Z</time>
      </trkpt>
      <trkpt lat="47.2839" lon="-2.36326">
        <ele>7.5999999046326</ele>
        <time>2021-03-18T08:39:13.000Z</time>
      </trkpt>
      <trkpt lat="47.28401" lon="-2.3634">
        <ele>7.5999999046326</ele>
        <time>2021-03-18T08:39:18.000Z</time>
      </trkpt>
      <trkpt lat="47.28423" lon="-2.36365">
        <ele>7.5999999046326</ele>
        <time>2021-03-18T08:39:24.000Z</time>
      </trkpt>
      <trkpt lat="47.28445" lon="-2.36382">
        <ele>7.5999999046326</ele>
        <time>2021-03-18T08:39:30.000Z</time>
      </trkpt>
      <trkpt lat="47.28451" lon="-2.36389">
        <ele>8</ele>
        <time>2021-03-18T08:39:32.000Z</time>
      </trkpt>
      <trkpt lat="47.28454" lon="-2.36391">
        <ele>8.3999996185303</ele>
        <time>2021-03-18T08:39:33.000Z</time>
      </trkpt>
      <trkpt lat="47.28456" lon="-2.36395">
        <ele>8.8000001907349</ele>
        <time>2021-03-18T08:39:34.000Z</time>
      </trkpt>
      <trkpt lat="47.2846" lon="-2.36399">
        <ele>9.1999998092651</ele>
        <time>2021-03-18T08:39:35.000Z</time>
      </trkpt>
      <trkpt lat="47.28462" lon="-2.36401">
        <ele>9.6000003814697</ele>
        <time>2021-03-18T08:39:36.000Z</time>
      </trkpt>
      <trkpt lat="47.28466" lon="-2.36406">
        <ele>10</ele>
        <time>2021-03-18T08:39:38.000Z</time>
      </trkpt>
      <trkpt lat="47.28468" lon="-2.36408">
        <ele>10.39999961853</ele>
        <time>2021-03-18T08:39:39.000Z</time>
      </trkpt>
      <trkpt lat="47.2847" lon="-2.36412">
        <ele>10.800000190735</ele>
        <time>2021-03-18T08:39:40.000Z</time>
      </trkpt>
      <trkpt lat="47.28472" lon="-2.36417">
        <ele>11.199999809265</ele>
        <time>2021-03-18T08:39:41.000Z</time>
      </trkpt>
      <trkpt lat="47.28475" lon="-2.36421">
        <ele>11.60000038147</ele>
        <time>2021-03-18T08:39:42.000Z</time>
      </trkpt>
      <trkpt lat="47.28486" lon="-2.36435">
        <ele>11.60000038147</ele>
        <time>2021-03-18T08:39:45.000Z</time>
      </trkpt>
      <trkpt lat="47.28496" lon="-2.36446">
        <ele>11.60000038147</ele>
        <time>2021-03-18T08:39:47.000Z</time>
      </trkpt>
      <trkpt lat="47.28511" lon="-2.36456">
        <ele>11.60000038147</ele>
        <time>2021-03-18T08:39:50.000Z</time>
      </trkpt>
      <trkpt lat="47.28515" lon="-2.3646">
        <ele>11.60000038147</ele>
        <time>2021-03-18T08:39:51.000Z</time>
      </trkpt>
      <trkpt lat="47.28527" lon="-2.36479">
        <ele>11.60000038147</ele>
        <time>2021-03-18T08:39:56.000Z</time>
      </trkpt>
      <trkpt lat="47.28531" lon="-2.36502">
        <ele>11.199999809265</ele>
        <time>2021-03-18T08:40:01.000Z</time>
      </trkpt>
      <trkpt lat="47.28529" lon="-2.36505">
        <ele>10.800000190735</ele>
        <time>2021-03-18T08:40:02.000Z</time>
      </trkpt>
      <trkpt lat="47.28525" lon="-2.3651">
        <ele>10.39999961853</ele>
        <time>2021-03-18T08:40:03.000Z</time>
      </trkpt>
      <trkpt lat="47.28522" lon="-2.36515">
        <ele>10</ele>
        <time>2021-03-18T08:40:04.000Z</time>
      </trkpt>
      <trkpt lat="47.28517" lon="-2.3652">
        <ele>9.6000003814697</ele>
        <time>2021-03-18T08:40:05.000Z</time>
      </trkpt>
      <trkpt lat="47.28491" lon="-2.36544">
        <ele>9.6000003814697</ele>
        <time>2021-03-18T08:40:09.000Z</time>
      </trkpt>
      <trkpt lat="47.28485" lon="-2.3655">
        <ele>9.1999998092651</ele>
        <time>2021-03-18T08:40:10.000Z</time>
      </trkpt>
      <trkpt lat="47.2848" lon="-2.36557">
        <ele>8.8000001907349</ele>
        <time>2021-03-18T08:40:11.000Z</time>
      </trkpt>
      <trkpt lat="47.28477" lon="-2.36564">
        <ele>8.3999996185303</ele>
        <time>2021-03-18T08:40:12.000Z</time>
      </trkpt>
      <trkpt lat="47.28476" lon="-2.36571">
        <ele>8</ele>
        <time>2021-03-18T08:40:13.000Z</time>
      </trkpt>
      <trkpt lat="47.28476" lon="-2.36579">
        <ele>7.5999999046326</ele>
        <time>2021-03-18T08:40:14.000Z</time>
      </trkpt>
      <trkpt lat="47.28479" lon="-2.36594">
        <ele>7.5999999046326</ele>
        <time>2021-03-18T08:40:16.000Z</time>
      </trkpt>
      <trkpt lat="47.28484" lon="-2.36613">
        <ele>7.5999999046326</ele>
        <time>2021-03-18T08:40:19.000Z</time>
      </trkpt>
      <trkpt lat="47.28489" lon="-2.3663">
        <ele>7.5999999046326</ele>
        <time>2021-03-18T08:40:22.000Z</time>
      </trkpt>
      <trkpt lat="47.28505" lon="-2.36671">
        <ele>7.5999999046326</ele>
        <time>2021-03-18T08:40:30.000Z</time>
      </trkpt>
      <trkpt lat="47.28509" lon="-2.36685">
        <ele>7</ele>
        <time>2021-03-18T08:40:34.000Z</time>
      </trkpt>
      <trkpt lat="47.28511" lon="-2.36688">
        <ele>6.5999999046326</ele>
        <time>2021-03-18T08:40:35.000Z</time>
      </trkpt>
      <trkpt lat="47.28512" lon="-2.36691">
        <ele>6.1999998092651</ele>
        <time>2021-03-18T08:40:36.000Z</time>
      </trkpt>
      <trkpt lat="47.28514" lon="-2.36695">
        <ele>5.8000001907349</ele>
        <time>2021-03-18T08:40:37.000Z</time>
      </trkpt>
      <trkpt lat="47.28517" lon="-2.36701">
        <ele>5.4000000953674</ele>
        <time>2021-03-18T08:40:38.000Z</time>
      </trkpt>
      <trkpt lat="47.28523" lon="-2.36713">
        <ele>5.4000000953674</ele>
        <time>2021-03-18T08:40:40.000Z</time>
      </trkpt>
      <trkpt lat="47.28546" lon="-2.36752">
        <ele>5</ele>
        <time>2021-03-18T08:40:45.000Z</time>
      </trkpt>
      <trkpt lat="47.28551" lon="-2.36761">
        <ele>4.5999999046326</ele>
        <time>2021-03-18T08:40:46.000Z</time>
      </trkpt>
      <trkpt lat="47.28555" lon="-2.3677">
        <ele>4.1999998092651</ele>
        <time>2021-03-18T08:40:47.000Z</time>
      </trkpt>
      <trkpt lat="47.28561" lon="-2.36777">
        <ele>3.7999999523163</ele>
        <time>2021-03-18T08:40:48.000Z</time>
      </trkpt>
      <trkpt lat="47.28565" lon="-2.36785">
        <ele>3.4000000953674</ele>
        <time>2021-03-18T08:40:49.000Z</time>
      </trkpt>
      <trkpt lat="47.28574" lon="-2.36801">
        <ele>3.4000000953674</ele>
        <time>2021-03-18T08:40:51.000Z</time>
      </trkpt>
      <trkpt lat="47.28588" lon="-2.36822">
        <ele>2.7999999523163</ele>
        <time>2021-03-18T08:40:54.000Z</time>
      </trkpt>
      <trkpt lat="47.28591" lon="-2.36828">
        <ele>2.4000000953674</ele>
        <time>2021-03-18T08:40:55.000Z</time>
      </trkpt>
      <trkpt lat="47.28594" lon="-2.36835">
        <ele>1.7999999523163</ele>
        <time>2021-03-18T08:40:56.000Z</time>
      </trkpt>
      <trkpt lat="47.28597" lon="-2.36841">
        <ele>1.3999999761581</ele>
        <time>2021-03-18T08:40:57.000Z</time>
      </trkpt>
      <trkpt lat="47.28599" lon="-2.36845">
        <ele>1</ele>
        <time>2021-03-18T08:40:58.000Z</time>
      </trkpt>
      <trkpt lat="47.28605" lon="-2.36848">
        <ele>1</ele>
        <time>2021-03-18T08:41:00.000Z</time>
      </trkpt>
      <trkpt lat="47.2861" lon="-2.36846">
        <ele>0.40000000596046</ele>
        <time>2021-03-18T08:41:01.000Z</time>
      </trkpt>
      <trkpt lat="47.28614" lon="-2.36843">
        <ele>18.6</ele>
        <time>2021-03-18T08:41:02.000Z</time>
      </trkpt>
      <trkpt lat="47.28617" lon="-2.3684">
        <ele>-0.40000000596046</ele>
        <time>2021-03-18T08:41:03.000Z</time>
      </trkpt>
      <trkpt lat="47.2862" lon="-2.36836">
        <ele>-1.2000000476837</ele>
        <time>2021-03-18T08:41:04.000Z</time>
      </trkpt>
      <trkpt lat="47.28623" lon="-2.36833">
        <ele>-1.2000000476837</ele>
        <time>2021-03-18T08:41:05.000Z</time>
      </trkpt>
      <trkpt lat="47.28636" lon="-2.36819">
        <ele>-1.2000000476837</ele>
        <time>2021-03-18T08:41:10.000Z</time>
      </trkpt>
      <trkpt lat="47.2864" lon="-2.36814">
        <ele>-1.2000000476837</ele>
        <time>2021-03-18T08:41:13.000Z</time>
      </trkpt>
      <trkpt lat="47.2864" lon="-2.36814">
        <ele>-1.2000000476837</ele>
        <time>2021-03-18T08:41:14.000Z</time>
      </trkpt>
      <trkpt lat="47.28642" lon="-2.36812">
        <ele>-1.2000000476837</ele>
        <time>2021-03-18T08:41:16.000Z</time>
      </trkpt>
      <trkpt lat="47.28647" lon="-2.36807">
        <ele>-1.2000000476837</ele>
        <time>2021-03-18T08:41:20.000Z</time>
      </trkpt>
      <trkpt lat="47.2865" lon="-2.36805">
        <ele>-1.2000000476837</ele>
        <time>2021-03-18T08:41:24.000Z</time>
      </trkpt>
      <trkpt lat="47.28657" lon="-2.36799">
        <ele>0.80000001192093</ele>
        <time>2021-03-18T08:42:00.000Z</time>
      </trkpt>
      <trkpt lat="47.28658" lon="-2.368">
        <ele>0.80000001192093</ele>
        <time>2021-03-18T08:42:02.000Z</time>
      </trkpt>
      <trkpt lat="47.28661" lon="-2.36804">
        <ele>0.80000001192093</ele>
        <time>2021-03-18T08:42:05.000Z</time>
      </trkpt>
      <trkpt lat="47.28669" lon="-2.36817">
        <ele>0.80000001192093</ele>
        <time>2021-03-18T08:42:09.000Z</time>
      </trkpt>
      <trkpt lat="47.28683" lon="-2.36845">
        <ele>0.80000001192093</ele>
        <time>2021-03-18T08:42:14.000Z</time>
      </trkpt>
      <trkpt lat="47.28703" lon="-2.3688">
        <ele>0.80000001192093</ele>
        <time>2021-03-18T08:42:21.000Z</time>
      </trkpt>
      <trkpt lat="47.28706" lon="-2.3688">
        <ele>0.80000001192093</ele>
        <time>2021-03-18T08:42:22.000Z</time>
      </trkpt>
      <trkpt lat="47.28713" lon="-2.36881">
        <ele>0.40000000596046</ele>
        <time>2021-03-18T08:42:24.000Z</time>
      </trkpt>
      <trkpt lat="47.28717" lon="-2.36883">
        <ele>17.6</ele>
        <time>2021-03-18T08:42:25.000Z</time>
      </trkpt>
      <trkpt lat="47.28721" lon="-2.3689">
        <ele>-0.40000000596046</ele>
        <time>2021-03-18T08:42:26.000Z</time>
      </trkpt>
      <trkpt lat="47.28725" lon="-2.36895">
        <ele>-0.80000001192093</ele>
        <time>2021-03-18T08:42:27.000Z</time>
      </trkpt>
      <trkpt lat="47.28728" lon="-2.36902">
        <ele>-1.3999999761581</ele>
        <time>2021-03-18T08:42:28.000Z</time>
      </trkpt>
      <trkpt lat="47.28732" lon="-2.36911">
        <ele>-1.7999999523163</ele>
        <time>2021-03-18T08:42:29.000Z</time>
      </trkpt>
      <trkpt lat="47.28735" lon="-2.36918">
        <ele>-2.2000000476837</ele>
        <time>2021-03-18T08:42:30.000Z</time>
      </trkpt>
      <trkpt lat="47.28738" lon="-2.36923">
        <ele>-2.7999999523163</ele>
        <time>2021-03-18T08:42:31.000Z</time>
      </trkpt>
      <trkpt lat="47.2874" lon="-2.36926">
        <ele>-3.2000000476837</ele>
        <time>2021-03-18T08:42:32.000Z</time>
      </trkpt>
      <trkpt lat="47.28741" lon="-2.36928">
        <ele>-3.5999999046326</ele>
        <time>2021-03-18T08:42:33.000Z</time>
      </trkpt>
      <trkpt lat="47.28743" lon="-2.36931">
        <ele>-3.5999999046326</ele>
        <time>2021-03-18T08:42:35.000Z</time>
      </trkpt>
      <trkpt lat="47.28748" lon="-2.36947">
        <ele>-3.5999999046326</ele>
        <time>2021-03-18T08:42:41.000Z</time>
      </trkpt>
      <trkpt lat="47.28748" lon="-2.36954">
        <ele>-3.2000000476837</ele>
        <time>2021-03-18T08:42:44.000Z</time>
      </trkpt>
      <trkpt lat="47.28749" lon="-2.36958">
        <ele>-2.5999999046326</ele>
        <time>2021-03-18T08:42:45.000Z</time>
      </trkpt>
      <trkpt lat="47.28749" lon="-2.36961">
        <ele>-2.2000000476837</ele>
        <time>2021-03-18T08:42:46.000Z</time>
      </trkpt>
      <trkpt lat="47.28749" lon="-2.36964">
        <ele>-1.6000000238419</ele>
        <time>2021-03-18T08:42:47.000Z</time>
      </trkpt>
      <trkpt lat="47.2875" lon="-2.36966">
        <ele>-1.2000000476837</ele>
        <time>2021-03-18T08:42:48.000Z</time>
      </trkpt>
      <trkpt lat="47.28751" lon="-2.36972">
        <ele>-0.80000001192093</ele>
        <time>2021-03-18T08:42:50.000Z</time>
      </trkpt>
      <trkpt lat="47.28753" lon="-2.36976">
        <ele>-0.40000000596046</ele>
        <time>2021-03-18T08:42:51.000Z</time>
      </trkpt>
      <trkpt lat="47.28756" lon="-2.3698">
        <ele>0.20000000298023</ele>
        <time>2021-03-18T08:42:52.000Z</time>
      </trkpt>
      <trkpt lat="47.28758" lon="-2.36984">
        <ele>0.60000002384186</ele>
        <time>2021-03-18T08:42:53.000Z</time>
      </trkpt>
      <trkpt lat="47.28759" lon="-2.36987">
        <ele>1</ele>
        <time>2021-03-18T08:42:54.000Z</time>
      </trkpt>
      <trkpt lat="47.28764" lon="-2.36991">
        <ele>1</ele>
        <time>2021-03-18T08:42:56.000Z</time>
      </trkpt>
      <trkpt lat="47.28777" lon="-2.37017">
        <ele>1</ele>
        <time>2021-03-18T08:43:02.000Z</time>
      </trkpt>
      <trkpt lat="47.28791" lon="-2.37057">
        <ele>0.60000002384186</ele>
        <time>2021-03-18T08:43:08.000Z</time>
      </trkpt>
      <trkpt lat="47.28794" lon="-2.37065">
        <ele>15.5</ele>
        <time>2021-03-18T08:43:09.000Z</time>
      </trkpt>
      <trkpt lat="47.28797" lon="-2.37073">
        <ele>-0.40000000596046</ele>
        <time>2021-03-18T08:43:10.000Z</time>
      </trkpt>
      <trkpt lat="47.28799" lon="-2.37083">
        <ele>-0.80000001192093</ele>
        <time>2021-03-18T08:43:11.000Z</time>
      </trkpt>
      <trkpt lat="47.28801" lon="-2.37091">
        <ele>-1.3999999761581</ele>
        <time>2021-03-18T08:43:12.000Z</time>
      </trkpt>
      <trkpt lat="47.28803" lon="-2.37098">
        <ele>-2</ele>
        <time>2021-03-18T08:43:13.000Z</time>
      </trkpt>
      <trkpt lat="47.28804" lon="-2.37103">
        <ele>-2.5999999046326</ele>
        <time>2021-03-18T08:43:14.000Z</time>
      </trkpt>
      <trkpt lat="47.28804" lon="-2.37107">
        <ele>-3</ele>
        <time>2021-03-18T08:43:15.000Z</time>
      </trkpt>
      <trkpt lat="47.28806" lon="-2.37108">
        <ele>-3.5999999046326</ele>
        <time>2021-03-18T08:43:16.000Z</time>
      </trkpt>
      <trkpt lat="47.28809" lon="-2.37109">
        <ele>-3.5999999046326</ele>
        <time>2021-03-18T08:43:17.000Z</time>
      </trkpt>
      <trkpt lat="47.28812" lon="-2.3711">
        <ele>-4</ele>
        <time>2021-03-18T08:43:18.000Z</time>
      </trkpt>
      <trkpt lat="47.28815" lon="-2.3711">
        <ele>-4.4000000953674</ele>
        <time>2021-03-18T08:43:19.000Z</time>
      </trkpt>
      <trkpt lat="47.28817" lon="-2.3711">
        <ele>-5</ele>
        <time>2021-03-18T08:43:20.000Z</time>
      </trkpt>
      <trkpt lat="47.28819" lon="-2.37109">
        <ele>-5.4000000953674</ele>
        <time>2021-03-18T08:43:21.000Z</time>
      </trkpt>
      <trkpt lat="47.28821" lon="-2.37107">
        <ele>-6</ele>
        <time>2021-03-18T08:43:22.000Z</time>
      </trkpt>
      <trkpt lat="47.28822" lon="-2.37105">
        <ele>-6.5999999046326</ele>
        <time>2021-03-18T08:43:23.000Z</time>
      </trkpt>
      <trkpt lat="47.28823" lon="-2.37104">
        <ele>-7</ele>
        <time>2021-03-18T08:43:24.000Z</time>
      </trkpt>
      <trkpt lat="47.28824" lon="-2.37105">
        <ele>-7.5999999046326</ele>
        <time>2021-03-18T08:43:25.000Z</time>
      </trkpt>
      <trkpt lat="47.28826" lon="-2.37109">
        <ele>-8.1999998092651</ele>
        <time>2021-03-18T08:43:26.000Z</time>
      </trkpt>
      <trkpt lat="47.28826" lon="-2.37113">
        <ele>-8.8000001907349</ele>
        <time>2021-03-18T08:43:27.000Z</time>
      </trkpt>
      <trkpt lat="47.28826" lon="-2.37118">
        <ele>-9.3999996185303</ele>
        <time>2021-03-18T08:43:28.000Z</time>
      </trkpt>
      <trkpt lat="47.28825" lon="-2.37123">
        <ele>-10</ele>
        <time>2021-03-18T08:43:29.000Z</time>
      </trkpt>
      <trkpt lat="47.28825" lon="-2.3713">
        <ele>-10.39999961853</ele>
        <time>2021-03-18T08:43:30.000Z</time>
      </trkpt>
      <trkpt lat="47.28828" lon="-2.3716">
        <ele>-10.39999961853</ele>
        <time>2021-03-18T08:43:34.000Z</time>
      </trkpt>
      <trkpt lat="47.2883" lon="-2.37168">
        <ele>-10.39999961853</ele>
        <time>2021-03-18T08:43:35.000Z</time>
      </trkpt>
      <trkpt lat="47.28832" lon="-2.37183">
        <ele>-10.39999961853</ele>
        <time>2021-03-18T08:43:37.000Z</time>
      </trkpt>
      <trkpt lat="47.28834" lon="-2.37199">
        <ele>-10.39999961853</ele>
        <time>2021-03-18T08:43:39.000Z</time>
      </trkpt>
      <trkpt lat="47.28839" lon="-2.37234">
        <ele>-10.39999961853</ele>
        <time>2021-03-18T08:43:44.000Z</time>
      </trkpt>
      <trkpt lat="47.28841" lon="-2.3724">
        <ele>-10.39999961853</ele>
        <time>2021-03-18T08:43:45.000Z</time>
      </trkpt>
      <trkpt lat="47.28852" lon="-2.37243">
        <ele>-10.39999961853</ele>
        <time>2021-03-18T08:43:47.000Z</time>
      </trkpt>
      <trkpt lat="47.28861" lon="-2.3724">
        <ele>-10.39999961853</ele>
        <time>2021-03-18T08:43:49.000Z</time>
      </trkpt>
      <trkpt lat="47.28871" lon="-2.37235">
        <ele>-10.39999961853</ele>
        <time>2021-03-18T08:43:51.000Z</time>
      </trkpt>
      <trkpt lat="47.28899" lon="-2.37221">
        <ele>-10.39999961853</ele>
        <time>2021-03-18T08:43:57.000Z</time>
      </trkpt>
      <trkpt lat="47.28925" lon="-2.37208">
        <ele>-10.39999961853</ele>
        <time>2021-03-18T08:44:03.000Z</time>
      </trkpt>
      <trkpt lat="47.28937" lon="-2.37205">
        <ele>-10.39999961853</ele>
        <time>2021-03-18T08:44:08.000Z</time>
      </trkpt>
      <trkpt lat="47.28945" lon="-2.37203">
        <ele>-10.39999961853</ele>
        <time>2021-03-18T08:44:15.000Z</time>
      </trkpt>
      <trkpt lat="47.28952" lon="-2.37199">
        <ele>-10.39999961853</ele>
        <time>2021-03-18T08:44:21.000Z</time>
      </trkpt>
      <trkpt lat="47.28957" lon="-2.37196">
        <ele>-10.39999961853</ele>
        <time>2021-03-18T08:44:26.000Z</time>
      </trkpt>
      <trkpt lat="47.28958" lon="-2.37194">
        <ele>-10.39999961853</ele>
        <time>2021-03-18T08:44:28.000Z</time>
      </trkpt>
      <trkpt lat="47.28965" lon="-2.37187">
        <ele>-10.39999961853</ele>
        <time>2021-03-18T08:44:34.000Z</time>
      </trkpt>
      <trkpt lat="47.2897" lon="-2.37185">
        <ele>-10</ele>
        <time>2021-03-18T08:44:36.000Z</time>
      </trkpt>
      <trkpt lat="47.28972" lon="-2.37183">
        <ele>-9.6000003814697</ele>
        <time>2021-03-18T08:44:37.000Z</time>
      </trkpt>
      <trkpt lat="47.28975" lon="-2.37181">
        <ele>-9.1999998092651</ele>
        <time>2021-03-18T08:44:38.000Z</time>
      </trkpt>
      <trkpt lat="47.28977" lon="-2.3718">
        <ele>-8.8000001907349</ele>
        <time>2021-03-18T08:44:39.000Z</time>
      </trkpt>
      <trkpt lat="47.2898" lon="-2.37178">
        <ele>-8.3999996185303</ele>
        <time>2021-03-18T08:44:40.000Z</time>
      </trkpt>
      <trkpt lat="47.28996" lon="-2.37169">
        <ele>-8.3999996185303</ele>
        <time>2021-03-18T08:44:47.000Z</time>
      </trkpt>
      <trkpt lat="47.28998" lon="-2.37169">
        <ele>-8</ele>
        <time>2021-03-18T08:44:48.000Z</time>
      </trkpt>
      <trkpt lat="47.29" lon="-2.37171">
        <ele>-7.4000000953674</ele>
        <time>2021-03-18T08:44:49.000Z</time>
      </trkpt>
      <trkpt lat="47.29002" lon="-2.37173">
        <ele>-7</ele>
        <time>2021-03-18T08:44:50.000Z</time>
      </trkpt>
      <trkpt lat="47.29004" lon="-2.37175">
        <ele>-6.5999999046326</ele>
        <time>2021-03-18T08:44:51.000Z</time>
      </trkpt>
      <trkpt lat="47.29006" lon="-2.37177">
        <ele>-6.1999998092651</ele>
        <time>2021-03-18T08:44:52.000Z</time>
      </trkpt>
      <trkpt lat="47.29018" lon="-2.37188">
        <ele>-6.1999998092651</ele>
        <time>2021-03-18T08:44:58.000Z</time>
      </trkpt>
      <trkpt lat="47.2902" lon="-2.37191">
        <ele>-5.8000001907349</ele>
        <time>2021-03-18T08:44:59.000Z</time>
      </trkpt>
      <trkpt lat="47.29023" lon="-2.37194">
        <ele>-5.4000000953674</ele>
        <time>2021-03-18T08:45:00.000Z</time>
      </trkpt>
      <trkpt lat="47.29025" lon="-2.37197">
        <ele>-4.8000001907349</ele>
        <time>2021-03-18T08:45:01.000Z</time>
      </trkpt>
      <trkpt lat="47.29027" lon="-2.372">
        <ele>-4.4000000953674</ele>
        <time>2021-03-18T08:45:02.000Z</time>
      </trkpt>
      <trkpt lat="47.29029" lon="-2.37202">
        <ele>-4</ele>
        <time>2021-03-18T08:45:03.000Z</time>
      </trkpt>
      <trkpt lat="47.29034" lon="-2.37207">
        <ele>-4</ele>
        <time>2021-03-18T08:45:05.000Z</time>
      </trkpt>
      <trkpt lat="47.29048" lon="-2.37219">
        <ele>-3.5999999046326</ele>
        <time>2021-03-18T08:45:11.000Z</time>
      </trkpt>
      <trkpt lat="47.2905" lon="-2.37221">
        <ele>-3.2000000476837</ele>
        <time>2021-03-18T08:45:12.000Z</time>
      </trkpt>
      <trkpt lat="47.29052" lon="-2.37224">
        <ele>-2.7999999523163</ele>
        <time>2021-03-18T08:45:13.000Z</time>
      </trkpt>
      <trkpt lat="47.29055" lon="-2.37226">
        <ele>-2.4000000953674</ele>
        <time>2021-03-18T08:45:14.000Z</time>
      </trkpt>
      <trkpt lat="47.29057" lon="-2.37228">
        <ele>-2</ele>
        <time>2021-03-18T08:45:15.000Z</time>
      </trkpt>
      <trkpt lat="47.29067" lon="-2.37237">
        <ele>-2</ele>
        <time>2021-03-18T08:45:19.000Z</time>
      </trkpt>
      <trkpt lat="47.29087" lon="-2.37258">
        <ele>-1.6000000238419</ele>
        <time>2021-03-18T08:45:27.000Z</time>
      </trkpt>
      <trkpt lat="47.29089" lon="-2.37261">
        <ele>-1.2000000476837</ele>
        <time>2021-03-18T08:45:28.000Z</time>
      </trkpt>
      <trkpt lat="47.29092" lon="-2.37263">
        <ele>-0.80000001192093</ele>
        <time>2021-03-18T08:45:29.000Z</time>
      </trkpt>
      <trkpt lat="47.29094" lon="-2.37266">
        <ele>-0.40000000596046</ele>
        <time>2021-03-18T08:45:30.000Z</time>
      </trkpt>
      <trkpt lat="47.29097" lon="-2.37268">
        <ele>21</ele>
        <time>2021-03-18T08:45:31.000Z</time>
      </trkpt>
      <trkpt lat="47.29109" lon="-2.3728">
        <ele>21.7</ele>
        <time>2021-03-18T08:45:35.000Z</time>
      </trkpt>
      <trkpt lat="47.29132" lon="-2.37301">
        <ele>22</ele>
        <time>2021-03-18T08:45:42.000Z</time>
      </trkpt>
      <trkpt lat="47.29153" lon="-2.37331">
        <ele>22.6</ele>
        <time>2021-03-18T08:45:49.000Z</time>
      </trkpt>
      <trkpt lat="47.29167" lon="-2.37362">
        <ele>21</ele>
        <time>2021-03-18T08:45:54.000Z</time>
      </trkpt>
      <trkpt lat="47.29185" lon="-2.37396">
        <ele>21.2</ele>
        <time>2021-03-18T08:46:00.000Z</time>
      </trkpt>
      <trkpt lat="47.29215" lon="-2.37446">
        <ele>19.4</ele>
        <time>2021-03-18T08:46:08.000Z</time>
      </trkpt>
      <trkpt lat="47.29228" lon="-2.37466">
        <ele>18.7</ele>
        <time>2021-03-18T08:46:11.000Z</time>
      </trkpt>
      <trkpt lat="47.29237" lon="-2.3748">
        <ele>-0.40000000596046</ele>
        <time>2021-03-18T08:46:13.000Z</time>
      </trkpt>
      <trkpt lat="47.29241" lon="-2.37487">
        <ele>-1</ele>
        <time>2021-03-18T08:46:14.000Z</time>
      </trkpt>
      <trkpt lat="47.29245" lon="-2.37494">
        <ele>-1.3999999761581</ele>
        <time>2021-03-18T08:46:15.000Z</time>
      </trkpt>
      <trkpt lat="47.2925" lon="-2.37501">
        <ele>-1.7999999523163</ele>
        <time>2021-03-18T08:46:16.000Z</time>
      </trkpt>
      <trkpt lat="47.29255" lon="-2.37507">
        <ele>-2.2000000476837</ele>
        <time>2021-03-18T08:46:17.000Z</time>
      </trkpt>
      <trkpt lat="47.29265" lon="-2.3752">
        <ele>-2.2000000476837</ele>
        <time>2021-03-18T08:46:19.000Z</time>
      </trkpt>
      <trkpt lat="47.2927" lon="-2.37527">
        <ele>-2.7999999523163</ele>
        <time>2021-03-18T08:46:20.000Z</time>
      </trkpt>
      <trkpt lat="47.29275" lon="-2.37534">
        <ele>-3.2000000476837</ele>
        <time>2021-03-18T08:46:21.000Z</time>
      </trkpt>
      <trkpt lat="47.29279" lon="-2.37542">
        <ele>-3.5999999046326</ele>
        <time>2021-03-18T08:46:22.000Z</time>
      </trkpt>
      <trkpt lat="47.29283" lon="-2.37551">
        <ele>-4</ele>
        <time>2021-03-18T08:46:23.000Z</time>
      </trkpt>
      <trkpt lat="47.29287" lon="-2.37559">
        <ele>-4.4000000953674</ele>
        <time>2021-03-18T08:46:24.000Z</time>
      </trkpt>
      <trkpt lat="47.29303" lon="-2.37587">
        <ele>-4.4000000953674</ele>
        <time>2021-03-18T08:46:28.000Z</time>
      </trkpt>
      <trkpt lat="47.29314" lon="-2.37605">
        <ele>-4.4000000953674</ele>
        <time>2021-03-18T08:46:31.000Z</time>
      </trkpt>
      <trkpt lat="47.29323" lon="-2.37625">
        <ele>-4.4000000953674</ele>
        <time>2021-03-18T08:46:34.000Z</time>
      </trkpt>
      <trkpt lat="47.29336" lon="-2.37671">
        <ele>-4.4000000953674</ele>
        <time>2021-03-18T08:46:40.000Z</time>
      </trkpt>
      <trkpt lat="47.29334" lon="-2.37699">
        <ele>-4.4000000953674</ele>
        <time>2021-03-18T08:46:43.000Z</time>
      </trkpt>
      <trkpt lat="47.29334" lon="-2.3771">
        <ele>-4.4000000953674</ele>
        <time>2021-03-18T08:46:44.000Z</time>
      </trkpt>
      <trkpt lat="47.29335" lon="-2.37744">
        <ele>-4.8000001907349</ele>
        <time>2021-03-18T08:46:47.000Z</time>
      </trkpt>
      <trkpt lat="47.29336" lon="-2.37756">
        <ele>-5.4000000953674</ele>
        <time>2021-03-18T08:46:48.000Z</time>
      </trkpt>
      <trkpt lat="47.29337" lon="-2.37769">
        <ele>-6.1999998092651</ele>
        <time>2021-03-18T08:46:49.000Z</time>
      </trkpt>
      <trkpt lat="47.29338" lon="-2.37782">
        <ele>-6.8000001907349</ele>
        <time>2021-03-18T08:46:50.000Z</time>
      </trkpt>
      <trkpt lat="47.29338" lon="-2.37794">
        <ele>-7.1999998092651</ele>
        <time>2021-03-18T08:46:51.000Z</time>
      </trkpt>
      <trkpt lat="47.29339" lon="-2.37807">
        <ele>-7.8000001907349</ele>
        <time>2021-03-18T08:46:52.000Z</time>
      </trkpt>
      <trkpt lat="47.2934" lon="-2.3782">
        <ele>-8.1999998092651</ele>
        <time>2021-03-18T08:46:53.000Z</time>
      </trkpt>
      <trkpt lat="47.29341" lon="-2.37833">
        <ele>-8.8000001907349</ele>
        <time>2021-03-18T08:46:54.000Z</time>
      </trkpt>
      <trkpt lat="47.29343" lon="-2.37846">
        <ele>-8.8000001907349</ele>
        <time>2021-03-18T08:46:55.000Z</time>
      </trkpt>
      <trkpt lat="47.29347" lon="-2.37858">
        <ele>-8.8000001907349</ele>
        <time>2021-03-18T08:46:56.000Z</time>
      </trkpt>
      <trkpt lat="47.2935" lon="-2.3787">
        <ele>-9.1999998092651</ele>
        <time>2021-03-18T08:46:57.000Z</time>
      </trkpt>
      <trkpt lat="47.29354" lon="-2.37881">
        <ele>-9.6000003814697</ele>
        <time>2021-03-18T08:46:58.000Z</time>
      </trkpt>
      <trkpt lat="47.29358" lon="-2.37892">
        <ele>-10</ele>
        <time>2021-03-18T08:46:59.000Z</time>
      </trkpt>
      <trkpt lat="47.29362" lon="-2.37903">
        <ele>-10.39999961853</ele>
        <time>2021-03-18T08:47:00.000Z</time>
      </trkpt>
      <trkpt lat="47.29366" lon="-2.37914">
        <ele>-10.800000190735</ele>
        <time>2021-03-18T08:47:01.000Z</time>
      </trkpt>
      <trkpt lat="47.29374" lon="-2.37936">
        <ele>-10.800000190735</ele>
        <time>2021-03-18T08:47:03.000Z</time>
      </trkpt>
      <trkpt lat="47.29378" lon="-2.37947">
        <ele>-11.199999809265</ele>
        <time>2021-03-18T08:47:04.000Z</time>
      </trkpt>
      <trkpt lat="47.29381" lon="-2.37957">
        <ele>-11.800000190735</ele>
        <time>2021-03-18T08:47:05.000Z</time>
      </trkpt>
      <trkpt lat="47.29385" lon="-2.37967">
        <ele>-12.199999809265</ele>
        <time>2021-03-18T08:47:06.000Z</time>
      </trkpt>
      <trkpt lat="47.29389" lon="-2.37977">
        <ele>-12.60000038147</ele>
        <time>2021-03-18T08:47:07.000Z</time>
      </trkpt>
      <trkpt lat="47.29392" lon="-2.37988">
        <ele>-13.199999809265</ele>
        <time>2021-03-18T08:47:08.000Z</time>
      </trkpt>
      <trkpt lat="47.29404" lon="-2.3802">
        <ele>-13.199999809265</ele>
        <time>2021-03-18T08:47:11.000Z</time>
      </trkpt>
      <trkpt lat="47.29407" lon="-2.38031">
        <ele>-13.60000038147</ele>
        <time>2021-03-18T08:47:12.000Z</time>
      </trkpt>
      <trkpt lat="47.29411" lon="-2.38041">
        <ele>-14</ele>
        <time>2021-03-18T08:47:13.000Z</time>
      </trkpt>
      <trkpt lat="47.29415" lon="-2.38052">
        <ele>-14.800000190735</ele>
        <time>2021-03-18T08:47:14.000Z</time>
      </trkpt>
      <trkpt lat="47.29419" lon="-2.38062">
        <ele>-15.199999809265</ele>
        <time>2021-03-18T08:47:15.000Z</time>
      </trkpt>
      <trkpt lat="47.29432" lon="-2.381">
        <ele>-15.199999809265</ele>
        <time>2021-03-18T08:47:19.000Z</time>
      </trkpt>
      <trkpt lat="47.29435" lon="-2.38109">
        <ele>-15.800000190735</ele>
        <time>2021-03-18T08:47:20.000Z</time>
      </trkpt>
      <trkpt lat="47.29438" lon="-2.38118">
        <ele>-16.200000762939</ele>
        <time>2021-03-18T08:47:21.000Z</time>
      </trkpt>
      <trkpt lat="47.2944" lon="-2.38126">
        <ele>-16.60000038147</ele>
        <time>2021-03-18T08:47:22.000Z</time>
      </trkpt>
      <trkpt lat="47.29442" lon="-2.38133">
        <ele>-17</ele>
        <time>2021-03-18T08:47:23.000Z</time>
      </trkpt>
      <trkpt lat="47.29444" lon="-2.3814">
        <ele>-17.39999961853</ele>
        <time>2021-03-18T08:47:24.000Z</time>
      </trkpt>
      <trkpt lat="47.29449" lon="-2.38149">
        <ele>-17.39999961853</ele>
        <time>2021-03-18T08:47:26.000Z</time>
      </trkpt>
      <trkpt lat="47.29452" lon="-2.38151">
        <ele>-17.39999961853</ele>
        <time>2021-03-18T08:47:27.000Z</time>
      </trkpt>
      <trkpt lat="47.29462" lon="-2.38148">
        <ele>-17.39999961853</ele>
        <time>2021-03-18T08:47:31.000Z</time>
      </trkpt>
      <trkpt lat="47.29468" lon="-2.38142">
        <ele>-17.39999961853</ele>
        <time>2021-03-18T08:47:33.000Z</time>
      </trkpt>
      <trkpt lat="47.29479" lon="-2.38134">
        <ele>-17.39999961853</ele>
        <time>2021-03-18T08:47:36.000Z</time>
      </trkpt>
      <trkpt lat="47.29496" lon="-2.38124">
        <ele>-17.39999961853</ele>
        <time>2021-03-18T08:47:40.000Z</time>
      </trkpt>
      <trkpt lat="47.29501" lon="-2.38124">
        <ele>-17.39999961853</ele>
        <time>2021-03-18T08:47:41.000Z</time>
      </trkpt>
      <trkpt lat="47.29521" lon="-2.38126">
        <ele>-17.39999961853</ele>
        <time>2021-03-18T08:47:45.000Z</time>
      </trkpt>
      <trkpt lat="47.29529" lon="-2.38127">
        <ele>-17.39999961853</ele>
        <time>2021-03-18T08:47:47.000Z</time>
      </trkpt>
      <trkpt lat="47.29534" lon="-2.38127">
        <ele>-17</ele>
        <time>2021-03-18T08:47:48.000Z</time>
      </trkpt>
      <trkpt lat="47.29538" lon="-2.38126">
        <ele>-16.60000038147</ele>
        <time>2021-03-18T08:47:49.000Z</time>
      </trkpt>
      <trkpt lat="47.29542" lon="-2.38126">
        <ele>-16.200000762939</ele>
        <time>2021-03-18T08:47:50.000Z</time>
      </trkpt>
      <trkpt lat="47.29546" lon="-2.38126">
        <ele>-15.800000190735</ele>
        <time>2021-03-18T08:47:51.000Z</time>
      </trkpt>
      <trkpt lat="47.2955" lon="-2.38126">
        <ele>-15.39999961853</ele>
        <time>2021-03-18T08:47:52.000Z</time>
      </trkpt>
      <trkpt lat="47.29554" lon="-2.38125">
        <ele>-15.39999961853</ele>
        <time>2021-03-18T08:47:53.000Z</time>
      </trkpt>
      <trkpt lat="47.29577" lon="-2.38119">
        <ele>-15.39999961853</ele>
        <time>2021-03-18T08:47:59.000Z</time>
      </trkpt>
      <trkpt lat="47.29581" lon="-2.38118">
        <ele>-15</ele>
        <time>2021-03-18T08:48:00.000Z</time>
      </trkpt>
      <trkpt lat="47.29585" lon="-2.38118">
        <ele>-14.60000038147</ele>
        <time>2021-03-18T08:48:01.000Z</time>
      </trkpt>
      <trkpt lat="47.29589" lon="-2.38117">
        <ele>-14.199999809265</ele>
        <time>2021-03-18T08:48:02.000Z</time>
      </trkpt>
      <trkpt lat="47.29594" lon="-2.38117">
        <ele>-13.39999961853</ele>
        <time>2021-03-18T08:48:03.000Z</time>
      </trkpt>
      <trkpt lat="47.29605" lon="-2.38114">
        <ele>-13.39999961853</ele>
        <time>2021-03-18T08:48:06.000Z</time>
      </trkpt>
      <trkpt lat="47.29609" lon="-2.38113">
        <ele>-13.39999961853</ele>
        <time>2021-03-18T08:48:07.000Z</time>
      </trkpt>
      <trkpt lat="47.29633" lon="-2.38104">
        <ele>-13</ele>
        <time>2021-03-18T08:48:13.000Z</time>
      </trkpt>
      <trkpt lat="47.29637" lon="-2.38102">
        <ele>-12.60000038147</ele>
        <time>2021-03-18T08:48:14.000Z</time>
      </trkpt>
      <trkpt lat="47.2964" lon="-2.381">
        <ele>-12.199999809265</ele>
        <time>2021-03-18T08:48:15.000Z</time>
      </trkpt>
      <trkpt lat="47.29644" lon="-2.38098">
        <ele>-11.800000190735</ele>
        <time>2021-03-18T08:48:16.000Z</time>
      </trkpt>
      <trkpt lat="47.29647" lon="-2.38096">
        <ele>-11.39999961853</ele>
        <time>2021-03-18T08:48:17.000Z</time>
      </trkpt>
      <trkpt lat="47.29664" lon="-2.38087">
        <ele>-11.39999961853</ele>
        <time>2021-03-18T08:48:22.000Z</time>
      </trkpt>
      <trkpt lat="47.29674" lon="-2.38081">
        <ele>-11</ele>
        <time>2021-03-18T08:48:25.000Z</time>
      </trkpt>
      <trkpt lat="47.29677" lon="-2.38079">
        <ele>-10.60000038147</ele>
        <time>2021-03-18T08:48:26.000Z</time>
      </trkpt>
      <trkpt lat="47.2968" lon="-2.38077">
        <ele>-9.8000001907349</ele>
        <time>2021-03-18T08:48:27.000Z</time>
      </trkpt>
      <trkpt lat="47.29683" lon="-2.38075">
        <ele>-9.3999996185303</ele>
        <time>2021-03-18T08:48:28.000Z</time>
      </trkpt>
      <trkpt lat="47.29685" lon="-2.38073">
        <ele>-9.3999996185303</ele>
        <time>2021-03-18T08:48:29.000Z</time>
      </trkpt>
      <trkpt lat="47.2969" lon="-2.3807">
        <ele>-9</ele>
        <time>2021-03-18T08:48:31.000Z</time>
      </trkpt>
      <trkpt lat="47.29693" lon="-2.38068">
        <ele>-8.6000003814697</ele>
        <time>2021-03-18T08:48:32.000Z</time>
      </trkpt>
      <trkpt lat="47.29695" lon="-2.38066">
        <ele>-8.1999998092651</ele>
        <time>2021-03-18T08:48:33.000Z</time>
      </trkpt>
      <trkpt lat="47.29698" lon="-2.38065">
        <ele>-7.8000001907349</ele>
        <time>2021-03-18T08:48:34.000Z</time>
      </trkpt>
      <trkpt lat="47.297" lon="-2.38063">
        <ele>-7.4000000953674</ele>
        <time>2021-03-18T08:48:35.000Z</time>
      </trkpt>
      <trkpt lat="47.29702" lon="-2.38062">
        <ele>-7.4000000953674</ele>
        <time>2021-03-18T08:48:36.000Z</time>
      </trkpt>
      <trkpt lat="47.29706" lon="-2.38058">
        <ele>-6.8000001907349</ele>
        <time>2021-03-18T08:48:38.000Z</time>
      </trkpt>
      <trkpt lat="47.29708" lon="-2.38056">
        <ele>-6.4000000953674</ele>
        <time>2021-03-18T08:48:39.000Z</time>
      </trkpt>
      <trkpt lat="47.29711" lon="-2.38054">
        <ele>-6</ele>
        <time>2021-03-18T08:48:40.000Z</time>
      </trkpt>
      <trkpt lat="47.29713" lon="-2.38052">
        <ele>-5.5999999046326</ele>
        <time>2021-03-18T08:48:41.000Z</time>
      </trkpt>
      <trkpt lat="47.29715" lon="-2.3805">
        <ele>-5.1999998092651</ele>
        <time>2021-03-18T08:48:42.000Z</time>
      </trkpt>
      <trkpt lat="47.29717" lon="-2.38048">
        <ele>-5.1999998092651</ele>
        <time>2021-03-18T08:48:43.000Z</time>
      </trkpt>
      <trkpt lat="47.29721" lon="-2.38046">
        <ele>-4.8000001907349</ele>
        <time>2021-03-18T08:48:45.000Z</time>
      </trkpt>
      <trkpt lat="47.29722" lon="-2.38045">
        <ele>-4.4000000953674</ele>
        <time>2021-03-18T08:48:46.000Z</time>
      </trkpt>
      <trkpt lat="47.29724" lon="-2.38043">
        <ele>-4</ele>
        <time>2021-03-18T08:48:47.000Z</time>
      </trkpt>
      <trkpt lat="47.29726" lon="-2.38042">
        <ele>-3.4000000953674</ele>
        <time>2021-03-18T08:48:48.000Z</time>
      </trkpt>
      <trkpt lat="47.29727" lon="-2.38041">
        <ele>-3</ele>
        <time>2021-03-18T08:48:49.000Z</time>
      </trkpt>
      <trkpt lat="47.29732" lon="-2.38035">
        <ele>-2.2000000476837</ele>
        <time>2021-03-18T08:48:52.000Z</time>
      </trkpt>
      <trkpt lat="47.29733" lon="-2.38033">
        <ele>-1.7999999523163</ele>
        <time>2021-03-18T08:48:53.000Z</time>
      </trkpt>
      <trkpt lat="47.29734" lon="-2.3803">
        <ele>-1.3999999761581</ele>
        <time>2021-03-18T08:48:54.000Z</time>
      </trkpt>
      <trkpt lat="47.29734" lon="-2.38028">
        <ele>-0.80000001192093</ele>
        <time>2021-03-18T08:48:55.000Z</time>
      </trkpt>
      <trkpt lat="47.29734" lon="-2.38019">
        <ele>-0.40000000596046</ele>
        <time>2021-03-18T08:48:58.000Z</time>
      </trkpt>
      <trkpt lat="47.29734" lon="-2.38017">
        <ele>27.9</ele>
        <time>2021-03-18T08:48:59.000Z</time>
      </trkpt>
      <trkpt lat="47.29733" lon="-2.38014">
        <ele>0.40000000596046</ele>
        <time>2021-03-18T08:49:00.000Z</time>
      </trkpt>
      <trkpt lat="47.29733" lon="-2.38012">
        <ele>1</ele>
        <time>2021-03-18T08:49:01.000Z</time>
      </trkpt>
      <trkpt lat="47.29732" lon="-2.3801">
        <ele>1.3999999761581</ele>
        <time>2021-03-18T08:49:02.000Z</time>
      </trkpt>
      <trkpt lat="47.29732" lon="-2.38003">
        <ele>1.7999999523163</ele>
        <time>2021-03-18T08:49:05.000Z</time>
      </trkpt>
      <trkpt lat="47.29731" lon="-2.38001">
        <ele>2.2000000476837</ele>
        <time>2021-03-18T08:49:06.000Z</time>
      </trkpt>
      <trkpt lat="47.29731" lon="-2.37998">
        <ele>2.7999999523163</ele>
        <time>2021-03-18T08:49:07.000Z</time>
      </trkpt>
      <trkpt lat="47.29731" lon="-2.37995">
        <ele>3.2000000476837</ele>
        <time>2021-03-18T08:49:08.000Z</time>
      </trkpt>
      <trkpt lat="47.29732" lon="-2.37993">
        <ele>3.5999999046326</ele>
        <time>2021-03-18T08:49:09.000Z</time>
      </trkpt>
      <trkpt lat="47.29733" lon="-2.37985">
        <ele>4</ele>
        <time>2021-03-18T08:49:12.000Z</time>
      </trkpt>
      <trkpt lat="47.29734" lon="-2.37983">
        <ele>4.4000000953674</ele>
        <time>2021-03-18T08:49:13.000Z</time>
      </trkpt>
      <trkpt lat="47.29735" lon="-2.3798">
        <ele>4.8000001907349</ele>
        <time>2021-03-18T08:49:14.000Z</time>
      </trkpt>
      <trkpt lat="47.29735" lon="-2.37978">
        <ele>5.1999998092651</ele>
        <time>2021-03-18T08:49:15.000Z</time>
      </trkpt>
      <trkpt lat="47.29736" lon="-2.37976">
        <ele>5.5999999046326</ele>
        <time>2021-03-18T08:49:16.000Z</time>
      </trkpt>
      <trkpt lat="47.29739" lon="-2.37969">
        <ele>6</ele>
        <time>2021-03-18T08:49:19.000Z</time>
      </trkpt>
      <trkpt lat="47.2974" lon="-2.37967">
        <ele>6.4000000953674</ele>
        <time>2021-03-18T08:49:20.000Z</time>
      </trkpt>
      <trkpt lat="47.29741" lon="-2.37965">
        <ele>6.8000001907349</ele>
        <time>2021-03-18T08:49:21.000Z</time>
      </trkpt>
      <trkpt lat="47.29742" lon="-2.37963">
        <ele>7.1999998092651</ele>
        <time>2021-03-18T08:49:22.000Z</time>
      </trkpt>
      <trkpt lat="47.29743" lon="-2.3796">
        <ele>7.5999999046326</ele>
        <time>2021-03-18T08:49:23.000Z</time>
      </trkpt>
      <trkpt lat="47.29748" lon="-2.37947">
        <ele>8</ele>
        <time>2021-03-18T08:49:28.000Z</time>
      </trkpt>
      <trkpt lat="47.29749" lon="-2.37945">
        <ele>8.3999996185303</ele>
        <time>2021-03-18T08:49:29.000Z</time>
      </trkpt>
      <trkpt lat="47.29751" lon="-2.37943">
        <ele>9</ele>
        <time>2021-03-18T08:49:30.000Z</time>
      </trkpt>
      <trkpt lat="47.29752" lon="-2.37941">
        <ele>9.3999996185303</ele>
        <time>2021-03-18T08:49:31.000Z</time>
      </trkpt>
      <trkpt lat="47.29754" lon="-2.37939">
        <ele>9.8000001907349</ele>
        <time>2021-03-18T08:49:32.000Z</time>
      </trkpt>
      <trkpt lat="47.29761" lon="-2.37931">
        <ele>9.8000001907349</ele>
        <time>2021-03-18T08:49:36.000Z</time>
      </trkpt>
      <trkpt lat="47.29773" lon="-2.3792">
        <ele>10.199999809265</ele>
        <time>2021-03-18T08:49:42.000Z</time>
      </trkpt>
      <trkpt lat="47.29775" lon="-2.37918">
        <ele>10.60000038147</ele>
        <time>2021-03-18T08:49:43.000Z</time>
      </trkpt>
      <trkpt lat="47.29777" lon="-2.37917">
        <ele>11</ele>
        <time>2021-03-18T08:49:44.000Z</time>
      </trkpt>
      <trkpt lat="47.29779" lon="-2.37915">
        <ele>11.39999961853</ele>
        <time>2021-03-18T08:49:45.000Z</time>
      </trkpt>
      <trkpt lat="47.29782" lon="-2.37913">
        <ele>11.800000190735</ele>
        <time>2021-03-18T08:49:46.000Z</time>
      </trkpt>
      <trkpt lat="47.29787" lon="-2.37909">
        <ele>11.800000190735</ele>
        <time>2021-03-18T08:49:48.000Z</time>
      </trkpt>
      <trkpt lat="47.29796" lon="-2.37902">
        <ele>11.800000190735</ele>
        <time>2021-03-18T08:49:53.000Z</time>
      </trkpt>
      <trkpt lat="47.29815" lon="-2.37891">
        <ele>11.800000190735</ele>
        <time>2021-03-18T08:49:58.000Z</time>
      </trkpt>
      <trkpt lat="47.29836" lon="-2.37878">
        <ele>11.800000190735</ele>
        <time>2021-03-18T08:50:03.000Z</time>
      </trkpt>
      <trkpt lat="47.29844" lon="-2.3787">
        <ele>11.800000190735</ele>
        <time>2021-03-18T08:50:05.000Z</time>
      </trkpt>
      <trkpt lat="47.29855" lon="-2.37848">
        <ele>11.800000190735</ele>
        <time>2021-03-18T08:50:09.000Z</time>
      </trkpt>
      <trkpt lat="47.29858" lon="-2.37843">
        <ele>11.800000190735</ele>
        <time>2021-03-18T08:50:10.000Z</time>
      </trkpt>
      <trkpt lat="47.29867" lon="-2.37819">
        <ele>11.800000190735</ele>
        <time>2021-03-18T08:50:15.000Z</time>
      </trkpt>
      <trkpt lat="47.29868" lon="-2.37807">
        <ele>11.800000190735</ele>
        <time>2021-03-18T08:50:19.000Z</time>
      </trkpt>
      <trkpt lat="47.29864" lon="-2.37794">
        <ele>11.800000190735</ele>
        <time>2021-03-18T08:50:24.000Z</time>
      </trkpt>
      <trkpt lat="47.29865" lon="-2.37792">
        <ele>11.800000190735</ele>
        <time>2021-03-18T08:50:25.000Z</time>
      </trkpt>
      <trkpt lat="47.29869" lon="-2.37788">
        <ele>11.800000190735</ele>
        <time>2021-03-18T08:50:28.000Z</time>
      </trkpt>
      <trkpt lat="47.29873" lon="-2.37786">
        <ele>11.800000190735</ele>
        <time>2021-03-18T08:50:30.000Z</time>
      </trkpt>
      <trkpt lat="47.29874" lon="-2.37787">
        <ele>11.800000190735</ele>
        <time>2021-03-18T08:50:31.000Z</time>
      </trkpt>
      <trkpt lat="47.29877" lon="-2.37793">
        <ele>11.800000190735</ele>
        <time>2021-03-18T08:50:34.000Z</time>
      </trkpt>
      <trkpt lat="47.29874" lon="-2.37806">
        <ele>11.800000190735</ele>
        <time>2021-03-18T08:50:39.000Z</time>
      </trkpt>
      <trkpt lat="47.29873" lon="-2.37808">
        <ele>11.800000190735</ele>
        <time>2021-03-18T08:50:40.000Z</time>
      </trkpt>
      <trkpt lat="47.29867" lon="-2.37802">
        <ele>11.800000190735</ele>
        <time>2021-03-18T08:50:44.000Z</time>
      </trkpt>
      <trkpt lat="47.29865" lon="-2.37797">
        <ele>11.800000190735</ele>
        <time>2021-03-18T08:50:46.000Z</time>
      </trkpt>
      <trkpt lat="47.29867" lon="-2.37793">
        <ele>11.800000190735</ele>
        <time>2021-03-18T08:50:48.000Z</time>
      </trkpt>
      <trkpt lat="47.29874" lon="-2.37796">
        <ele>11.800000190735</ele>
        <time>2021-03-18T08:50:53.000Z</time>
      </trkpt>
      <trkpt lat="47.29876" lon="-2.37802">
        <ele>11.800000190735</ele>
        <time>2021-03-18T08:50:56.000Z</time>
      </trkpt>
      <trkpt lat="47.29878" lon="-2.37809">
        <ele>11.800000190735</ele>
        <time>2021-03-18T08:50:59.000Z</time>
      </trkpt>
      <trkpt lat="47.29879" lon="-2.37811">
        <ele>11.800000190735</ele>
        <time>2021-03-18T08:51:02.000Z</time>
      </trkpt>
      <trkpt lat="47.29881" lon="-2.37814">
        <ele>9.6000003814697</ele>
        <time>2021-03-18T08:51:35.000Z</time>
      </trkpt>
      <trkpt lat="47.29892" lon="-2.3783">
        <ele>9.6000003814697</ele>
        <time>2021-03-18T08:51:39.000Z</time>
      </trkpt>
      <trkpt lat="47.29913" lon="-2.37856">
        <ele>9.6000003814697</ele>
        <time>2021-03-18T08:51:43.000Z</time>
      </trkpt>
      <trkpt lat="47.2992" lon="-2.37864">
        <ele>9.1999998092651</ele>
        <time>2021-03-18T08:51:44.000Z</time>
      </trkpt>
      <trkpt lat="47.29926" lon="-2.37872">
        <ele>8.1999998092651</ele>
        <time>2021-03-18T08:51:45.000Z</time>
      </trkpt>
      <trkpt lat="47.29933" lon="-2.3788">
        <ele>7.5999999046326</ele>
        <time>2021-03-18T08:51:46.000Z</time>
      </trkpt>
      <trkpt lat="47.29939" lon="-2.37887">
        <ele>7.1999998092651</ele>
        <time>2021-03-18T08:51:47.000Z</time>
      </trkpt>
      <trkpt lat="47.29945" lon="-2.37895">
        <ele>6.5999999046326</ele>
        <time>2021-03-18T08:51:48.000Z</time>
      </trkpt>
      <trkpt lat="47.29952" lon="-2.37902">
        <ele>6</ele>
        <time>2021-03-18T08:51:49.000Z</time>
      </trkpt>
      <trkpt lat="47.29958" lon="-2.37909">
        <ele>5.5999999046326</ele>
        <time>2021-03-18T08:51:50.000Z</time>
      </trkpt>
      <trkpt lat="47.29964" lon="-2.37916">
        <ele>5</ele>
        <time>2021-03-18T08:51:51.000Z</time>
      </trkpt>
      <trkpt lat="47.29975" lon="-2.37931">
        <ele>4.5999999046326</ele>
        <time>2021-03-18T08:51:53.000Z</time>
      </trkpt>
      <trkpt lat="47.29981" lon="-2.37938">
        <ele>4.1999998092651</ele>
        <time>2021-03-18T08:51:54.000Z</time>
      </trkpt>
      <trkpt lat="47.29985" lon="-2.37945">
        <ele>3.7999999523163</ele>
        <time>2021-03-18T08:51:55.000Z</time>
      </trkpt>
      <trkpt lat="47.29989" lon="-2.37954">
        <ele>3.4000000953674</ele>
        <time>2021-03-18T08:51:56.000Z</time>
      </trkpt>
      <trkpt lat="47.29991" lon="-2.37963">
        <ele>3</ele>
        <time>2021-03-18T08:51:57.000Z</time>
      </trkpt>
      <trkpt lat="47.29991" lon="-2.37971">
        <ele>3</ele>
        <time>2021-03-18T08:51:58.000Z</time>
      </trkpt>
      <trkpt lat="47.2999" lon="-2.37989">
        <ele>3</ele>
        <time>2021-03-18T08:52:00.000Z</time>
      </trkpt>
      <trkpt lat="47.2999" lon="-2.38016">
        <ele>3</ele>
        <time>2021-03-18T08:52:03.000Z</time>
      </trkpt>
      <trkpt lat="47.29988" lon="-2.38088">
        <ele>3</ele>
        <time>2021-03-18T08:52:11.000Z</time>
      </trkpt>
      <trkpt lat="47.29989" lon="-2.38126">
        <ele>3</ele>
        <time>2021-03-18T08:52:16.000Z</time>
      </trkpt>
      <trkpt lat="47.2999" lon="-2.38141">
        <ele>3.4000000953674</ele>
        <time>2021-03-18T08:52:18.000Z</time>
      </trkpt>
      <trkpt lat="47.2999" lon="-2.38148">
        <ele>3.7999999523163</ele>
        <time>2021-03-18T08:52:19.000Z</time>
      </trkpt>
      <trkpt lat="47.29991" lon="-2.38156">
        <ele>4.1999998092651</ele>
        <time>2021-03-18T08:52:20.000Z</time>
      </trkpt>
      <trkpt lat="47.29991" lon="-2.38163">
        <ele>4.5999999046326</ele>
        <time>2021-03-18T08:52:21.000Z</time>
      </trkpt>
      <trkpt lat="47.29991" lon="-2.3817">
        <ele>5</ele>
        <time>2021-03-18T08:52:22.000Z</time>
      </trkpt>
      <trkpt lat="47.29994" lon="-2.38205">
        <ele>5</ele>
        <time>2021-03-18T08:52:27.000Z</time>
      </trkpt>
      <trkpt lat="47.29996" lon="-2.38262">
        <ele>5.4000000953674</ele>
        <time>2021-03-18T08:52:35.000Z</time>
      </trkpt>
      <trkpt lat="47.29997" lon="-2.3827">
        <ele>5.8000001907349</ele>
        <time>2021-03-18T08:52:36.000Z</time>
      </trkpt>
      <trkpt lat="47.29997" lon="-2.38277">
        <ele>6.1999998092651</ele>
        <time>2021-03-18T08:52:37.000Z</time>
      </trkpt>
      <trkpt lat="47.29997" lon="-2.38285">
        <ele>6.5999999046326</ele>
        <time>2021-03-18T08:52:38.000Z</time>
      </trkpt>
      <trkpt lat="47.29997" lon="-2.38293">
        <ele>7.1999998092651</ele>
        <time>2021-03-18T08:52:39.000Z</time>
      </trkpt>
      <trkpt lat="47.29998" lon="-2.38333">
        <ele>7.1999998092651</ele>
        <time>2021-03-18T08:52:44.000Z</time>
      </trkpt>
      <trkpt lat="47.30001" lon="-2.38392">
        <ele>7.1999998092651</ele>
        <time>2021-03-18T08:52:51.000Z</time>
      </trkpt>
      <trkpt lat="47.30002" lon="-2.384">
        <ele>7.1999998092651</ele>
        <time>2021-03-18T08:52:52.000Z</time>
      </trkpt>
      <trkpt lat="47.30006" lon="-2.3844">
        <ele>7.1999998092651</ele>
        <time>2021-03-18T08:52:57.000Z</time>
      </trkpt>
      <trkpt lat="47.30009" lon="-2.38455">
        <ele>8</ele>
        <time>2021-03-18T08:52:59.000Z</time>
      </trkpt>
      <trkpt lat="47.3001" lon="-2.38462">
        <ele>8.3999996185303</ele>
        <time>2021-03-18T08:53:00.000Z</time>
      </trkpt>
      <trkpt lat="47.30011" lon="-2.3847">
        <ele>8.8000001907349</ele>
        <time>2021-03-18T08:53:01.000Z</time>
      </trkpt>
      <trkpt lat="47.30013" lon="-2.38477">
        <ele>9.1999998092651</ele>
        <time>2021-03-18T08:53:02.000Z</time>
      </trkpt>
      <trkpt lat="47.30016" lon="-2.38491">
        <ele>9.1999998092651</ele>
        <time>2021-03-18T08:53:04.000Z</time>
      </trkpt>
      <trkpt lat="47.30025" lon="-2.38543">
        <ele>9.1999998092651</ele>
        <time>2021-03-18T08:53:10.000Z</time>
      </trkpt>
      <trkpt lat="47.30027" lon="-2.38563">
        <ele>8.8000001907349</ele>
        <time>2021-03-18T08:53:12.000Z</time>
      </trkpt>
      <trkpt lat="47.30028" lon="-2.38572">
        <ele>8.3999996185303</ele>
        <time>2021-03-18T08:53:13.000Z</time>
      </trkpt>
      <trkpt lat="47.30029" lon="-2.38581">
        <ele>8</ele>
        <time>2021-03-18T08:53:14.000Z</time>
      </trkpt>
      <trkpt lat="47.30029" lon="-2.38589">
        <ele>7.5999999046326</ele>
        <time>2021-03-18T08:53:15.000Z</time>
      </trkpt>
      <trkpt lat="47.3003" lon="-2.38596">
        <ele>7</ele>
        <time>2021-03-18T08:53:16.000Z</time>
      </trkpt>
      <trkpt lat="47.30031" lon="-2.38601">
        <ele>6.4000000953674</ele>
        <time>2021-03-18T08:53:17.000Z</time>
      </trkpt>
      <trkpt lat="47.30031" lon="-2.38604">
        <ele>5.8000001907349</ele>
        <time>2021-03-18T08:53:18.000Z</time>
      </trkpt>
      <trkpt lat="47.3003" lon="-2.38609">
        <ele>5.1999998092651</ele>
        <time>2021-03-18T08:53:19.000Z</time>
      </trkpt>
      <trkpt lat="47.30029" lon="-2.38614">
        <ele>4.8000001907349</ele>
        <time>2021-03-18T08:53:20.000Z</time>
      </trkpt>
      <trkpt lat="47.30028" lon="-2.3862">
        <ele>4.1999998092651</ele>
        <time>2021-03-18T08:53:21.000Z</time>
      </trkpt>
      <trkpt lat="47.30028" lon="-2.38628">
        <ele>3.5999999046326</ele>
        <time>2021-03-18T08:53:22.000Z</time>
      </trkpt>
      <trkpt lat="47.30028" lon="-2.38636">
        <ele>3</ele>
        <time>2021-03-18T08:53:23.000Z</time>
      </trkpt>
      <trkpt lat="47.30029" lon="-2.38644">
        <ele>2.4000000953674</ele>
        <time>2021-03-18T08:53:24.000Z</time>
      </trkpt>
      <trkpt lat="47.3003" lon="-2.38652">
        <ele>2.4000000953674</ele>
        <time>2021-03-18T08:53:25.000Z</time>
      </trkpt>
      <trkpt lat="47.30031" lon="-2.38696">
        <ele>2.4000000953674</ele>
        <time>2021-03-18T08:53:30.000Z</time>
      </trkpt>
      <trkpt lat="47.30028" lon="-2.38716">
        <ele>2</ele>
        <time>2021-03-18T08:53:32.000Z</time>
      </trkpt>
      <trkpt lat="47.30026" lon="-2.38727">
        <ele>1.6000000238419</ele>
        <time>2021-03-18T08:53:33.000Z</time>
      </trkpt>
      <trkpt lat="47.30024" lon="-2.38737">
        <ele>1.2000000476837</ele>
        <time>2021-03-18T08:53:34.000Z</time>
      </trkpt>
      <trkpt lat="47.30022" lon="-2.38748">
        <ele>0.80000001192093</ele>
        <time>2021-03-18T08:53:35.000Z</time>
      </trkpt>
      <trkpt lat="47.3002" lon="-2.3876">
        <ele>0.20000000298023</ele>
        <time>2021-03-18T08:53:36.000Z</time>
      </trkpt>
      <trkpt lat="47.30017" lon="-2.38784">
        <ele>-0.20000000298023</ele>
        <time>2021-03-18T08:53:38.000Z</time>
      </trkpt>
      <trkpt lat="47.30015" lon="-2.38797">
        <ele>-0.60000002384186</ele>
        <time>2021-03-18T08:53:39.000Z</time>
      </trkpt>
      <trkpt lat="47.30013" lon="-2.3881">
        <ele>-1</ele>
        <time>2021-03-18T08:53:40.000Z</time>
      </trkpt>
      <trkpt lat="47.30012" lon="-2.38823">
        <ele>-1.3999999761581</ele>
        <time>2021-03-18T08:53:41.000Z</time>
      </trkpt>
      <trkpt lat="47.30011" lon="-2.38836">
        <ele>-1.7999999523163</ele>
        <time>2021-03-18T08:53:42.000Z</time>
      </trkpt>
      <trkpt lat="47.3001" lon="-2.38849">
        <ele>-2.2000000476837</ele>
        <time>2021-03-18T08:53:43.000Z</time>
      </trkpt>
      <trkpt lat="47.30009" lon="-2.38862">
        <ele>-2.5999999046326</ele>
        <time>2021-03-18T08:53:44.000Z</time>
      </trkpt>
      <trkpt lat="47.30009" lon="-2.38875">
        <ele>-3</ele>
        <time>2021-03-18T08:53:45.000Z</time>
      </trkpt>
      <trkpt lat="47.30008" lon="-2.38888">
        <ele>-3.4000000953674</ele>
        <time>2021-03-18T08:53:46.000Z</time>
      </trkpt>
      <trkpt lat="47.30008" lon="-2.38899">
        <ele>-3.7999999523163</ele>
        <time>2021-03-18T08:53:47.000Z</time>
      </trkpt>
      <trkpt lat="47.30009" lon="-2.38911">
        <ele>-4.8000001907349</ele>
        <time>2021-03-18T08:53:48.000Z</time>
      </trkpt>
      <trkpt lat="47.30009" lon="-2.38922">
        <ele>-5.1999998092651</ele>
        <time>2021-03-18T08:53:49.000Z</time>
      </trkpt>
      <trkpt lat="47.30009" lon="-2.38934">
        <ele>-5.5999999046326</ele>
        <time>2021-03-18T08:53:50.000Z</time>
      </trkpt>
      <trkpt lat="47.30009" lon="-2.38944">
        <ele>-6.1999998092651</ele>
        <time>2021-03-18T08:53:51.000Z</time>
      </trkpt>
      <trkpt lat="47.30009" lon="-2.38954">
        <ele>-6.8000001907349</ele>
        <time>2021-03-18T08:53:52.000Z</time>
      </trkpt>
      <trkpt lat="47.3001" lon="-2.38964">
        <ele>-7.1999998092651</ele>
        <time>2021-03-18T08:53:53.000Z</time>
      </trkpt>
      <trkpt lat="47.30011" lon="-2.38971">
        <ele>-7.8000001907349</ele>
        <time>2021-03-18T08:53:54.000Z</time>
      </trkpt>
      <trkpt lat="47.30014" lon="-2.38977">
        <ele>-8.6000003814697</ele>
        <time>2021-03-18T08:53:55.000Z</time>
      </trkpt>
      <trkpt lat="47.30019" lon="-2.38979">
        <ele>-9.1999998092651</ele>
        <time>2021-03-18T08:53:56.000Z</time>
      </trkpt>
      <trkpt lat="47.30024" lon="-2.38978">
        <ele>-9.8000001907349</ele>
        <time>2021-03-18T08:53:57.000Z</time>
      </trkpt>
      <trkpt lat="47.3003" lon="-2.38977">
        <ele>-10.39999961853</ele>
        <time>2021-03-18T08:53:58.000Z</time>
      </trkpt>
      <trkpt lat="47.30036" lon="-2.38973">
        <ele>-10.39999961853</ele>
        <time>2021-03-18T08:53:59.000Z</time>
      </trkpt>
      <trkpt lat="47.30056" lon="-2.38951">
        <ele>-10.39999961853</ele>
        <time>2021-03-18T08:54:03.000Z</time>
      </trkpt>
      <trkpt lat="47.30065" lon="-2.38942">
        <ele>-10.39999961853</ele>
        <time>2021-03-18T08:54:05.000Z</time>
      </trkpt>
      <trkpt lat="47.3008" lon="-2.38932">
        <ele>-10.39999961853</ele>
        <time>2021-03-18T08:54:08.000Z</time>
      </trkpt>
      <trkpt lat="47.30089" lon="-2.38925">
        <ele>-10.39999961853</ele>
        <time>2021-03-18T08:54:10.000Z</time>
      </trkpt>
      <trkpt lat="47.30102" lon="-2.38913">
        <ele>-10</ele>
        <time>2021-03-18T08:54:13.000Z</time>
      </trkpt>
      <trkpt lat="47.30105" lon="-2.38909">
        <ele>-9.3999996185303</ele>
        <time>2021-03-18T08:54:14.000Z</time>
      </trkpt>
      <trkpt lat="47.30109" lon="-2.38906">
        <ele>-9</ele>
        <time>2021-03-18T08:54:15.000Z</time>
      </trkpt>
      <trkpt lat="47.30113" lon="-2.38901">
        <ele>-8.6000003814697</ele>
        <time>2021-03-18T08:54:16.000Z</time>
      </trkpt>
      <trkpt lat="47.30116" lon="-2.38896">
        <ele>-8</ele>
        <time>2021-03-18T08:54:17.000Z</time>
      </trkpt>
      <trkpt lat="47.30121" lon="-2.38886">
        <ele>-8</ele>
        <time>2021-03-18T08:54:19.000Z</time>
      </trkpt>
      <trkpt lat="47.30124" lon="-2.38881">
        <ele>-8</ele>
        <time>2021-03-18T08:54:20.000Z</time>
      </trkpt>
      <trkpt lat="47.30129" lon="-2.38871">
        <ele>-7.5999999046326</ele>
        <time>2021-03-18T08:54:22.000Z</time>
      </trkpt>
      <trkpt lat="47.30132" lon="-2.38866">
        <ele>-7.1999998092651</ele>
        <time>2021-03-18T08:54:23.000Z</time>
      </trkpt>
      <trkpt lat="47.30135" lon="-2.38862">
        <ele>-6.8000001907349</ele>
        <time>2021-03-18T08:54:24.000Z</time>
      </trkpt>
      <trkpt lat="47.30138" lon="-2.38857">
        <ele>-6.4000000953674</ele>
        <time>2021-03-18T08:54:25.000Z</time>
      </trkpt>
      <trkpt lat="47.30141" lon="-2.38853">
        <ele>-6</ele>
        <time>2021-03-18T08:54:26.000Z</time>
      </trkpt>
      <trkpt lat="47.30155" lon="-2.38829">
        <ele>-5.5999999046326</ele>
        <time>2021-03-18T08:54:31.000Z</time>
      </trkpt>
      <trkpt lat="47.30158" lon="-2.38824">
        <ele>-5.1999998092651</ele>
        <time>2021-03-18T08:54:32.000Z</time>
      </trkpt>
      <trkpt lat="47.30161" lon="-2.3882">
        <ele>-4.8000001907349</ele>
        <time>2021-03-18T08:54:33.000Z</time>
      </trkpt>
      <trkpt lat="47.30164" lon="-2.38816">
        <ele>-4.4000000953674</ele>
        <time>2021-03-18T08:54:34.000Z</time>
      </trkpt>
      <trkpt lat="47.30167" lon="-2.38811">
        <ele>-4</ele>
        <time>2021-03-18T08:54:35.000Z</time>
      </trkpt>
      <trkpt lat="47.3018" lon="-2.38796">
        <ele>-3.5999999046326</ele>
        <time>2021-03-18T08:54:39.000Z</time>
      </trkpt>
      <trkpt lat="47.30183" lon="-2.38793">
        <ele>-3</ele>
        <time>2021-03-18T08:54:40.000Z</time>
      </trkpt>
      <trkpt lat="47.30187" lon="-2.38789">
        <ele>-2.5999999046326</ele>
        <time>2021-03-18T08:54:41.000Z</time>
      </trkpt>
      <trkpt lat="47.30189" lon="-2.38785">
        <ele>-2.2000000476837</ele>
        <time>2021-03-18T08:54:42.000Z</time>
      </trkpt>
      <trkpt lat="47.30192" lon="-2.38782">
        <ele>-1.7999999523163</ele>
        <time>2021-03-18T08:54:43.000Z</time>
      </trkpt>
      <trkpt lat="47.30201" lon="-2.38774">
        <ele>-1.7999999523163</ele>
        <time>2021-03-18T08:54:46.000Z</time>
      </trkpt>
      <trkpt lat="47.30205" lon="-2.38772">
        <ele>-1.3999999761581</ele>
        <time>2021-03-18T08:54:47.000Z</time>
      </trkpt>
      <trkpt lat="47.30208" lon="-2.38772">
        <ele>-1</ele>
        <time>2021-03-18T08:54:48.000Z</time>
      </trkpt>
      <trkpt lat="47.30212" lon="-2.38772">
        <ele>-0.60000002384186</ele>
        <time>2021-03-18T08:54:49.000Z</time>
      </trkpt>
      <trkpt lat="47.30215" lon="-2.38772">
        <ele>26.9</ele>
        <time>2021-03-18T08:54:50.000Z</time>
      </trkpt>
      <trkpt lat="47.30218" lon="-2.38774">
        <ele>0.40000000596046</ele>
        <time>2021-03-18T08:54:51.000Z</time>
      </trkpt>
      <trkpt lat="47.30221" lon="-2.38777">
        <ele>0.80000001192093</ele>
        <time>2021-03-18T08:54:52.000Z</time>
      </trkpt>
      <trkpt lat="47.30223" lon="-2.3878">
        <ele>1.2000000476837</ele>
        <time>2021-03-18T08:54:53.000Z</time>
      </trkpt>
      <trkpt lat="47.30226" lon="-2.38783">
        <ele>1.7999999523163</ele>
        <time>2021-03-18T08:54:54.000Z</time>
      </trkpt>
      <trkpt lat="47.30228" lon="-2.38786">
        <ele>2.2000000476837</ele>
        <time>2021-03-18T08:54:55.000Z</time>
      </trkpt>
      <trkpt lat="47.30231" lon="-2.38789">
        <ele>2.5999999046326</ele>
        <time>2021-03-18T08:54:56.000Z</time>
      </trkpt>
      <trkpt lat="47.30237" lon="-2.38796">
        <ele>3</ele>
        <time>2021-03-18T08:54:59.000Z</time>
      </trkpt>
      <trkpt lat="47.3024" lon="-2.38798">
        <ele>3.5999999046326</ele>
        <time>2021-03-18T08:55:00.000Z</time>
      </trkpt>
      <trkpt lat="47.30242" lon="-2.38802">
        <ele>4</ele>
        <time>2021-03-18T08:55:01.000Z</time>
      </trkpt>
      <trkpt lat="47.30245" lon="-2.38805">
        <ele>4.4000000953674</ele>
        <time>2021-03-18T08:55:02.000Z</time>
      </trkpt>
      <trkpt lat="47.30247" lon="-2.38808">
        <ele>5</ele>
        <time>2021-03-18T08:55:03.000Z</time>
      </trkpt>
      <trkpt lat="47.30255" lon="-2.38817">
        <ele>5.4000000953674</ele>
        <time>2021-03-18T08:55:06.000Z</time>
      </trkpt>
      <trkpt lat="47.30257" lon="-2.3882">
        <ele>5.8000001907349</ele>
        <time>2021-03-18T08:55:07.000Z</time>
      </trkpt>
      <trkpt lat="47.30259" lon="-2.38824">
        <ele>6.1999998092651</ele>
        <time>2021-03-18T08:55:08.000Z</time>
      </trkpt>
      <trkpt lat="47.30262" lon="-2.38827">
        <ele>6.5999999046326</ele>
        <time>2021-03-18T08:55:09.000Z</time>
      </trkpt>
      <trkpt lat="47.30263" lon="-2.38831">
        <ele>7.1999998092651</ele>
        <time>2021-03-18T08:55:10.000Z</time>
      </trkpt>
      <trkpt lat="47.3027" lon="-2.38848">
        <ele>7.1999998092651</ele>
        <time>2021-03-18T08:55:15.000Z</time>
      </trkpt>
      <trkpt lat="47.30277" lon="-2.38864">
        <ele>7.5999999046326</ele>
        <time>2021-03-18T08:55:19.000Z</time>
      </trkpt>
      <trkpt lat="47.30278" lon="-2.38868">
        <ele>8</ele>
        <time>2021-03-18T08:55:20.000Z</time>
      </trkpt>
      <trkpt lat="47.3028" lon="-2.38872">
        <ele>8.3999996185303</ele>
        <time>2021-03-18T08:55:21.000Z</time>
      </trkpt>
      <trkpt lat="47.30282" lon="-2.38876">
        <ele>8.8000001907349</ele>
        <time>2021-03-18T08:55:22.000Z</time>
      </trkpt>
      <trkpt lat="47.30283" lon="-2.3888">
        <ele>9.1999998092651</ele>
        <time>2021-03-18T08:55:23.000Z</time>
      </trkpt>
      <trkpt lat="47.30285" lon="-2.38885">
        <ele>9.1999998092651</ele>
        <time>2021-03-18T08:55:24.000Z</time>
      </trkpt>
      <trkpt lat="47.30299" lon="-2.38922">
        <ele>9.1999998092651</ele>
        <time>2021-03-18T08:55:32.000Z</time>
      </trkpt>
      <trkpt lat="47.3031" lon="-2.38947">
        <ele>9.1999998092651</ele>
        <time>2021-03-18T08:55:37.000Z</time>
      </trkpt>
      <trkpt lat="47.30316" lon="-2.38956">
        <ele>9.1999998092651</ele>
        <time>2021-03-18T08:55:39.000Z</time>
      </trkpt>
      <trkpt lat="47.30326" lon="-2.38967">
        <ele>9.1999998092651</ele>
        <time>2021-03-18T08:55:43.000Z</time>
      </trkpt>
      <trkpt lat="47.30328" lon="-2.3897">
        <ele>9.1999998092651</ele>
        <time>2021-03-18T08:55:44.000Z</time>
      </trkpt>
      <trkpt lat="47.30332" lon="-2.38977">
        <ele>9.6000003814697</ele>
        <time>2021-03-18T08:55:46.000Z</time>
      </trkpt>
      <trkpt lat="47.30334" lon="-2.38982">
        <ele>10</ele>
        <time>2021-03-18T08:55:47.000Z</time>
      </trkpt>
      <trkpt lat="47.30336" lon="-2.38987">
        <ele>10.39999961853</ele>
        <time>2021-03-18T08:55:48.000Z</time>
      </trkpt>
      <trkpt lat="47.30338" lon="-2.38992">
        <ele>10.800000190735</ele>
        <time>2021-03-18T08:55:49.000Z</time>
      </trkpt>
      <trkpt lat="47.30339" lon="-2.38997">
        <ele>11.199999809265</ele>
        <time>2021-03-18T08:55:50.000Z</time>
      </trkpt>
      <trkpt lat="47.30349" lon="-2.39031">
        <ele>11.60000038147</ele>
        <time>2021-03-18T08:55:56.000Z</time>
      </trkpt>
      <trkpt lat="47.30351" lon="-2.39037">
        <ele>12</ele>
        <time>2021-03-18T08:55:57.000Z</time>
      </trkpt>
      <trkpt lat="47.30352" lon="-2.39042">
        <ele>12.39999961853</ele>
        <time>2021-03-18T08:55:58.000Z</time>
      </trkpt>
      <trkpt lat="47.30354" lon="-2.39048">
        <ele>12.800000190735</ele>
        <time>2021-03-18T08:55:59.000Z</time>
      </trkpt>
      <trkpt lat="47.30355" lon="-2.39054">
        <ele>13.199999809265</ele>
        <time>2021-03-18T08:56:00.000Z</time>
      </trkpt>
      <trkpt lat="47.30361" lon="-2.39081">
        <ele>13.199999809265</ele>
        <time>2021-03-18T08:56:04.000Z</time>
      </trkpt>
      <trkpt lat="47.30372" lon="-2.3912">
        <ele>13.199999809265</ele>
        <time>2021-03-18T08:56:09.000Z</time>
      </trkpt>
      <trkpt lat="47.30375" lon="-2.39128">
        <ele>13.199999809265</ele>
        <time>2021-03-18T08:56:10.000Z</time>
      </trkpt>
      <trkpt lat="47.30382" lon="-2.39144">
        <ele>13.199999809265</ele>
        <time>2021-03-18T08:56:12.000Z</time>
      </trkpt>
      <trkpt lat="47.30396" lon="-2.39163">
        <ele>13.199999809265</ele>
        <time>2021-03-18T08:56:15.000Z</time>
      </trkpt>
      <trkpt lat="47.30419" lon="-2.3917">
        <ele>13.199999809265</ele>
        <time>2021-03-18T08:56:19.000Z</time>
      </trkpt>
      <trkpt lat="47.30439" lon="-2.39161">
        <ele>13.199999809265</ele>
        <time>2021-03-18T08:56:23.000Z</time>
      </trkpt>
      <trkpt lat="47.30447" lon="-2.39152">
        <ele>13.199999809265</ele>
        <time>2021-03-18T08:56:25.000Z</time>
      </trkpt>
      <trkpt lat="47.30459" lon="-2.39139">
        <ele>13.199999809265</ele>
        <time>2021-03-18T08:56:28.000Z</time>
      </trkpt>
      <trkpt lat="47.30466" lon="-2.3913">
        <ele>13.199999809265</ele>
        <time>2021-03-18T08:56:30.000Z</time>
      </trkpt>
      <trkpt lat="47.30481" lon="-2.39113">
        <ele>13.199999809265</ele>
        <time>2021-03-18T08:56:34.000Z</time>
      </trkpt>
      <trkpt lat="47.3051" lon="-2.39084">
        <ele>14.199999809265</ele>
        <time>2021-03-18T08:56:41.000Z</time>
      </trkpt>
      <trkpt lat="47.30514" lon="-2.3908">
        <ele>14.60000038147</ele>
        <time>2021-03-18T08:56:42.000Z</time>
      </trkpt>
      <trkpt lat="47.30518" lon="-2.39077">
        <ele>15</ele>
        <time>2021-03-18T08:56:43.000Z</time>
      </trkpt>
      <trkpt lat="47.30522" lon="-2.39073">
        <ele>15.39999961853</ele>
        <time>2021-03-18T08:56:44.000Z</time>
      </trkpt>
      <trkpt lat="47.3054" lon="-2.39055">
        <ele>15.39999961853</ele>
        <time>2021-03-18T08:56:49.000Z</time>
      </trkpt>
      <trkpt lat="47.30561" lon="-2.3903">
        <ele>15.39999961853</ele>
        <time>2021-03-18T08:56:55.000Z</time>
      </trkpt>
      <trkpt lat="47.30565" lon="-2.39026">
        <ele>15.800000190735</ele>
        <time>2021-03-18T08:56:56.000Z</time>
      </trkpt>
      <trkpt lat="47.30569" lon="-2.39021">
        <ele>16.200000762939</ele>
        <time>2021-03-18T08:56:57.000Z</time>
      </trkpt>
      <trkpt lat="47.30572" lon="-2.39016">
        <ele>16.60000038147</ele>
        <time>2021-03-18T08:56:58.000Z</time>
      </trkpt>
      <trkpt lat="47.30576" lon="-2.39011">
        <ele>17</ele>
        <time>2021-03-18T08:56:59.000Z</time>
      </trkpt>
      <trkpt lat="47.3058" lon="-2.39006">
        <ele>17.39999961853</ele>
        <time>2021-03-18T08:57:00.000Z</time>
      </trkpt>
      <trkpt lat="47.30587" lon="-2.38996">
        <ele>17.39999961853</ele>
        <time>2021-03-18T08:57:02.000Z</time>
      </trkpt>
      <trkpt lat="47.30615" lon="-2.38968">
        <ele>17.39999961853</ele>
        <time>2021-03-18T08:57:09.000Z</time>
      </trkpt>
      <trkpt lat="47.3063" lon="-2.38953">
        <ele>17.799999237061</ele>
        <time>2021-03-18T08:57:13.000Z</time>
      </trkpt>
      <trkpt lat="47.30634" lon="-2.38949">
        <ele>18.200000762939</ele>
        <time>2021-03-18T08:57:14.000Z</time>
      </trkpt>
      <trkpt lat="47.30638" lon="-2.38945">
        <ele>18.799999237061</ele>
        <time>2021-03-18T08:57:15.000Z</time>
      </trkpt>
      <trkpt lat="47.30643" lon="-2.38941">
        <ele>19.200000762939</ele>
        <time>2021-03-18T08:57:16.000Z</time>
      </trkpt>
      <trkpt lat="47.30647" lon="-2.38938">
        <ele>19.60000038147</ele>
        <time>2021-03-18T08:57:17.000Z</time>
      </trkpt>
      <trkpt lat="47.3067" lon="-2.38917">
        <ele>19.60000038147</ele>
        <time>2021-03-18T08:57:23.000Z</time>
      </trkpt>
      <trkpt lat="47.30691" lon="-2.38904">
        <ele>19.60000038147</ele>
        <time>2021-03-18T08:57:29.000Z</time>
      </trkpt>
      <trkpt lat="47.30694" lon="-2.38906">
        <ele>19.60000038147</ele>
        <time>2021-03-18T08:57:30.000Z</time>
      </trkpt>
      <trkpt lat="47.30701" lon="-2.38912">
        <ele>19.60000038147</ele>
        <time>2021-03-18T08:57:32.000Z</time>
      </trkpt>
      <trkpt lat="47.30703" lon="-2.38917">
        <ele>19.60000038147</ele>
        <time>2021-03-18T08:57:33.000Z</time>
      </trkpt>
      <trkpt lat="47.30703" lon="-2.38929">
        <ele>19.60000038147</ele>
        <time>2021-03-18T08:57:35.000Z</time>
      </trkpt>
      <trkpt lat="47.30702" lon="-2.38955">
        <ele>19.60000038147</ele>
        <time>2021-03-18T08:57:39.000Z</time>
      </trkpt>
      <trkpt lat="47.3071" lon="-2.38962">
        <ele>19.60000038147</ele>
        <time>2021-03-18T08:57:42.000Z</time>
      </trkpt>
      <trkpt lat="47.30712" lon="-2.38963">
        <ele>19</ele>
        <time>2021-03-18T08:57:44.000Z</time>
      </trkpt>
      <trkpt lat="47.30714" lon="-2.38963">
        <ele>18.60000038147</ele>
        <time>2021-03-18T08:57:45.000Z</time>
      </trkpt>
      <trkpt lat="47.30715" lon="-2.38963">
        <ele>18.200000762939</ele>
        <time>2021-03-18T08:57:46.000Z</time>
      </trkpt>
      <trkpt lat="47.30717" lon="-2.38962">
        <ele>17.799999237061</ele>
        <time>2021-03-18T08:57:47.000Z</time>
      </trkpt>
      <trkpt lat="47.3072" lon="-2.3896">
        <ele>17.39999961853</ele>
        <time>2021-03-18T08:57:48.000Z</time>
      </trkpt>
      <trkpt lat="47.30734" lon="-2.38954">
        <ele>17.39999961853</ele>
        <time>2021-03-18T08:57:51.000Z</time>
      </trkpt>
      <trkpt lat="47.30755" lon="-2.38953">
        <ele>17.39999961853</ele>
        <time>2021-03-18T08:57:55.000Z</time>
      </trkpt>
      <trkpt lat="47.30761" lon="-2.38951">
        <ele>17.39999961853</ele>
        <time>2021-03-18T08:57:56.000Z</time>
      </trkpt>
      <trkpt lat="47.30785" lon="-2.38934">
        <ele>17.39999961853</ele>
        <time>2021-03-18T08:58:00.000Z</time>
      </trkpt>
      <trkpt lat="47.30803" lon="-2.3892">
        <ele>17</ele>
        <time>2021-03-18T08:58:03.000Z</time>
      </trkpt>
      <trkpt lat="47.30809" lon="-2.38916">
        <ele>16.60000038147</ele>
        <time>2021-03-18T08:58:04.000Z</time>
      </trkpt>
      <trkpt lat="47.30815" lon="-2.38911">
        <ele>16.200000762939</ele>
        <time>2021-03-18T08:58:05.000Z</time>
      </trkpt>
      <trkpt lat="47.30821" lon="-2.38906">
        <ele>15.800000190735</ele>
        <time>2021-03-18T08:58:06.000Z</time>
      </trkpt>
      <trkpt lat="47.30826" lon="-2.38903">
        <ele>15.39999961853</ele>
        <time>2021-03-18T08:58:07.000Z</time>
      </trkpt>
      <trkpt lat="47.30832" lon="-2.38899">
        <ele>15.39999961853</ele>
        <time>2021-03-18T08:58:08.000Z</time>
      </trkpt>
      <trkpt lat="47.30853" lon="-2.38881">
        <ele>15.39999961853</ele>
        <time>2021-03-18T08:58:13.000Z</time>
      </trkpt>
      <trkpt lat="47.30863" lon="-2.38869">
        <ele>15.39999961853</ele>
        <time>2021-03-18T08:58:16.000Z</time>
      </trkpt>
      <trkpt lat="47.30865" lon="-2.38864">
        <ele>15.800000190735</ele>
        <time>2021-03-18T08:58:17.000Z</time>
      </trkpt>
      <trkpt lat="47.30867" lon="-2.38858">
        <ele>16.39999961853</ele>
        <time>2021-03-18T08:58:18.000Z</time>
      </trkpt>
      <trkpt lat="47.30869" lon="-2.38852">
        <ele>16.799999237061</ele>
        <time>2021-03-18T08:58:19.000Z</time>
      </trkpt>
      <trkpt lat="47.30872" lon="-2.38846">
        <ele>17.799999237061</ele>
        <time>2021-03-18T08:58:20.000Z</time>
      </trkpt>
      <trkpt lat="47.30883" lon="-2.38837">
        <ele>17.799999237061</ele>
        <time>2021-03-18T08:58:23.000Z</time>
      </trkpt>
      <trkpt lat="47.30896" lon="-2.38842">
        <ele>17.799999237061</ele>
        <time>2021-03-18T08:58:26.000Z</time>
      </trkpt>
      <trkpt lat="47.30905" lon="-2.38866">
        <ele>17.799999237061</ele>
        <time>2021-03-18T08:58:30.000Z</time>
      </trkpt>
      <trkpt lat="47.30918" lon="-2.38891">
        <ele>17.799999237061</ele>
        <time>2021-03-18T08:58:34.000Z</time>
      </trkpt>
      <trkpt lat="47.30922" lon="-2.38896">
        <ele>17.799999237061</ele>
        <time>2021-03-18T08:58:35.000Z</time>
      </trkpt>
      <trkpt lat="47.30926" lon="-2.38902">
        <ele>18.200000762939</ele>
        <time>2021-03-18T08:58:36.000Z</time>
      </trkpt>
      <trkpt lat="47.30929" lon="-2.3891">
        <ele>18.60000038147</ele>
        <time>2021-03-18T08:58:37.000Z</time>
      </trkpt>
      <trkpt lat="47.3093" lon="-2.38918">
        <ele>19</ele>
        <time>2021-03-18T08:58:38.000Z</time>
      </trkpt>
      <trkpt lat="47.3093" lon="-2.38927">
        <ele>19.39999961853</ele>
        <time>2021-03-18T08:58:39.000Z</time>
      </trkpt>
      <trkpt lat="47.30928" lon="-2.38935">
        <ele>19.799999237061</ele>
        <time>2021-03-18T08:58:40.000Z</time>
      </trkpt>
      <trkpt lat="47.30925" lon="-2.38942">
        <ele>19.799999237061</ele>
        <time>2021-03-18T08:58:41.000Z</time>
      </trkpt>
      <trkpt lat="47.30919" lon="-2.38956">
        <ele>19.799999237061</ele>
        <time>2021-03-18T08:58:43.000Z</time>
      </trkpt>
      <trkpt lat="47.30909" lon="-2.38978">
        <ele>19.799999237061</ele>
        <time>2021-03-18T08:58:46.000Z</time>
      </trkpt>
      <trkpt lat="47.30904" lon="-2.39013">
        <ele>19.799999237061</ele>
        <time>2021-03-18T08:58:50.000Z</time>
      </trkpt>
      <trkpt lat="47.30903" lon="-2.39022">
        <ele>19.799999237061</ele>
        <time>2021-03-18T08:58:51.000Z</time>
      </trkpt>
      <trkpt lat="47.30902" lon="-2.39078">
        <ele>19.799999237061</ele>
        <time>2021-03-18T08:58:57.000Z</time>
      </trkpt>
      <trkpt lat="47.30903" lon="-2.39087">
        <ele>19.799999237061</ele>
        <time>2021-03-18T08:58:58.000Z</time>
      </trkpt>
      <trkpt lat="47.30917" lon="-2.3914">
        <ele>19.799999237061</ele>
        <time>2021-03-18T08:59:04.000Z</time>
      </trkpt>
      <trkpt lat="47.30945" lon="-2.39206">
        <ele>19.799999237061</ele>
        <time>2021-03-18T08:59:12.000Z</time>
      </trkpt>
      <trkpt lat="47.30977" lon="-2.39277">
        <ele>19.799999237061</ele>
        <time>2021-03-18T08:59:21.000Z</time>
      </trkpt>
      <trkpt lat="47.31" lon="-2.39343">
        <ele>19.799999237061</ele>
        <time>2021-03-18T08:59:29.000Z</time>
      </trkpt>
      <trkpt lat="47.31023" lon="-2.39409">
        <ele>19.799999237061</ele>
        <time>2021-03-18T08:59:37.000Z</time>
      </trkpt>
      <trkpt lat="47.31044" lon="-2.39475">
        <ele>19.799999237061</ele>
        <time>2021-03-18T08:59:44.000Z</time>
      </trkpt>
      <trkpt lat="47.31051" lon="-2.39493">
        <ele>19.39999961853</ele>
        <time>2021-03-18T08:59:46.000Z</time>
      </trkpt>
      <trkpt lat="47.31053" lon="-2.39502">
        <ele>19</ele>
        <time>2021-03-18T08:59:47.000Z</time>
      </trkpt>
      <trkpt lat="47.31056" lon="-2.3951">
        <ele>18.60000038147</ele>
        <time>2021-03-18T08:59:48.000Z</time>
      </trkpt>
      <trkpt lat="47.31059" lon="-2.39518">
        <ele>18.200000762939</ele>
        <time>2021-03-18T08:59:49.000Z</time>
      </trkpt>
      <trkpt lat="47.31061" lon="-2.39526">
        <ele>17.799999237061</ele>
        <time>2021-03-18T08:59:50.000Z</time>
      </trkpt>
      <trkpt lat="47.31064" lon="-2.39534">
        <ele>17.799999237061</ele>
        <time>2021-03-18T08:59:51.000Z</time>
      </trkpt>
      <trkpt lat="47.31082" lon="-2.39587">
        <ele>18.200000762939</ele>
        <time>2021-03-18T08:59:58.000Z</time>
      </trkpt>
      <trkpt lat="47.31085" lon="-2.39594">
        <ele>19</ele>
        <time>2021-03-18T08:59:59.000Z</time>
      </trkpt>
      <trkpt lat="47.31088" lon="-2.39602">
        <ele>19.39999961853</ele>
        <time>2021-03-18T09:00:00.000Z</time>
      </trkpt>
      <trkpt lat="47.31091" lon="-2.3961">
        <ele>19.799999237061</ele>
        <time>2021-03-18T09:00:01.000Z</time>
      </trkpt>
      <trkpt lat="47.31099" lon="-2.39634">
        <ele>19.799999237061</ele>
        <time>2021-03-18T09:00:04.000Z</time>
      </trkpt>
      <trkpt lat="47.31119" lon="-2.39692">
        <ele>19.799999237061</ele>
        <time>2021-03-18T09:00:11.000Z</time>
      </trkpt>
      <trkpt lat="47.31145" lon="-2.39761">
        <ele>19.799999237061</ele>
        <time>2021-03-18T09:00:19.000Z</time>
      </trkpt>
      <trkpt lat="47.31157" lon="-2.39795">
        <ele>19.39999961853</ele>
        <time>2021-03-18T09:00:23.000Z</time>
      </trkpt>
      <trkpt lat="47.31159" lon="-2.39803">
        <ele>18.60000038147</ele>
        <time>2021-03-18T09:00:24.000Z</time>
      </trkpt>
      <trkpt lat="47.31162" lon="-2.3981">
        <ele>18.200000762939</ele>
        <time>2021-03-18T09:00:25.000Z</time>
      </trkpt>
      <trkpt lat="47.31165" lon="-2.39817">
        <ele>17.799999237061</ele>
        <time>2021-03-18T09:00:26.000Z</time>
      </trkpt>
      <trkpt lat="47.31175" lon="-2.3984">
        <ele>17.799999237061</ele>
        <time>2021-03-18T09:00:30.000Z</time>
      </trkpt>
      <trkpt lat="47.31182" lon="-2.3986">
        <ele>17.200000762939</ele>
        <time>2021-03-18T09:00:35.000Z</time>
      </trkpt>
      <trkpt lat="47.31183" lon="-2.39867">
        <ele>16.799999237061</ele>
        <time>2021-03-18T09:00:36.000Z</time>
      </trkpt>
      <trkpt lat="47.31184" lon="-2.39873">
        <ele>16.39999961853</ele>
        <time>2021-03-18T09:00:37.000Z</time>
      </trkpt>
      <trkpt lat="47.31185" lon="-2.39876">
        <ele>16</ele>
        <time>2021-03-18T09:00:38.000Z</time>
      </trkpt>
      <trkpt lat="47.31185" lon="-2.39878">
        <ele>15.39999961853</ele>
        <time>2021-03-18T09:00:39.000Z</time>
      </trkpt>
      <trkpt lat="47.31188" lon="-2.39884">
        <ele>15.39999961853</ele>
        <time>2021-03-18T09:00:45.000Z</time>
      </trkpt>
      <trkpt lat="47.31193" lon="-2.39898">
        <ele>15.39999961853</ele>
        <time>2021-03-18T09:00:49.000Z</time>
      </trkpt>
      <trkpt lat="47.312" lon="-2.39916">
        <ele>15.39999961853</ele>
        <time>2021-03-18T09:00:55.000Z</time>
      </trkpt>
      <trkpt lat="47.31206" lon="-2.39933">
        <ele>15.39999961853</ele>
        <time>2021-03-18T09:01:00.000Z</time>
      </trkpt>
      <trkpt lat="47.31209" lon="-2.3994">
        <ele>15</ele>
        <time>2021-03-18T09:01:02.000Z</time>
      </trkpt>
      <trkpt lat="47.3121" lon="-2.39944">
        <ele>14.60000038147</ele>
        <time>2021-03-18T09:01:03.000Z</time>
      </trkpt>
      <trkpt lat="47.31211" lon="-2.39947">
        <ele>14.199999809265</ele>
        <time>2021-03-18T09:01:04.000Z</time>
      </trkpt>
      <trkpt lat="47.31213" lon="-2.39951">
        <ele>13.800000190735</ele>
        <time>2021-03-18T09:01:05.000Z</time>
      </trkpt>
      <trkpt lat="47.31214" lon="-2.39954">
        <ele>13.39999961853</ele>
        <time>2021-03-18T09:01:06.000Z</time>
      </trkpt>
      <trkpt lat="47.31222" lon="-2.39972">
        <ele>13.39999961853</ele>
        <time>2021-03-18T09:01:11.000Z</time>
      </trkpt>
      <trkpt lat="47.31228" lon="-2.39991">
        <ele>13</ele>
        <time>2021-03-18T09:01:15.000Z</time>
      </trkpt>
      <trkpt lat="47.3123" lon="-2.39996">
        <ele>12.60000038147</ele>
        <time>2021-03-18T09:01:16.000Z</time>
      </trkpt>
      <trkpt lat="47.31231" lon="-2.40001">
        <ele>12.199999809265</ele>
        <time>2021-03-18T09:01:17.000Z</time>
      </trkpt>
      <trkpt lat="47.31232" lon="-2.40007">
        <ele>11.800000190735</ele>
        <time>2021-03-18T09:01:18.000Z</time>
      </trkpt>
      <trkpt lat="47.31233" lon="-2.40013">
        <ele>11.39999961853</ele>
        <time>2021-03-18T09:01:19.000Z</time>
      </trkpt>
      <trkpt lat="47.31238" lon="-2.40031">
        <ele>11.39999961853</ele>
        <time>2021-03-18T09:01:23.000Z</time>
      </trkpt>
      <trkpt lat="47.31238" lon="-2.40037">
        <ele>11</ele>
        <time>2021-03-18T09:01:25.000Z</time>
      </trkpt>
      <trkpt lat="47.3124" lon="-2.4004">
        <ele>10.39999961853</ele>
        <time>2021-03-18T09:01:26.000Z</time>
      </trkpt>
      <trkpt lat="47.31241" lon="-2.40041">
        <ele>10</ele>
        <time>2021-03-18T09:01:27.000Z</time>
      </trkpt>
      <trkpt lat="47.31243" lon="-2.40042">
        <ele>9.6000003814697</ele>
        <time>2021-03-18T09:01:28.000Z</time>
      </trkpt>
      <trkpt lat="47.31245" lon="-2.40041">
        <ele>9.1999998092651</ele>
        <time>2021-03-18T09:01:29.000Z</time>
      </trkpt>
      <trkpt lat="47.31248" lon="-2.40047">
        <ele>9.1999998092651</ele>
        <time>2021-03-18T09:01:31.000Z</time>
      </trkpt>
      <trkpt lat="47.3125" lon="-2.4005">
        <ele>9.6000003814697</ele>
        <time>2021-03-18T09:01:32.000Z</time>
      </trkpt>
      <trkpt lat="47.31254" lon="-2.40053">
        <ele>10</ele>
        <time>2021-03-18T09:01:33.000Z</time>
      </trkpt>
      <trkpt lat="47.3126" lon="-2.40057">
        <ele>10.39999961853</ele>
        <time>2021-03-18T09:01:34.000Z</time>
      </trkpt>
      <trkpt lat="47.31266" lon="-2.4006">
        <ele>10.800000190735</ele>
        <time>2021-03-18T09:01:35.000Z</time>
      </trkpt>
      <trkpt lat="47.31272" lon="-2.40062">
        <ele>11.199999809265</ele>
        <time>2021-03-18T09:01:36.000Z</time>
      </trkpt>
      <trkpt lat="47.31281" lon="-2.40063">
        <ele>11.199999809265</ele>
        <time>2021-03-18T09:01:38.000Z</time>
      </trkpt>
      <trkpt lat="47.31288" lon="-2.40064">
        <ele>10.800000190735</ele>
        <time>2021-03-18T09:01:41.000Z</time>
      </trkpt>
      <trkpt lat="47.31291" lon="-2.40064">
        <ele>10.39999961853</ele>
        <time>2021-03-18T09:01:42.000Z</time>
      </trkpt>
      <trkpt lat="47.31293" lon="-2.40065">
        <ele>10</ele>
        <time>2021-03-18T09:01:43.000Z</time>
      </trkpt>
      <trkpt lat="47.31296" lon="-2.40066">
        <ele>9.3999996185303</ele>
        <time>2021-03-18T09:01:44.000Z</time>
      </trkpt>
      <trkpt lat="47.31299" lon="-2.40068">
        <ele>9</ele>
        <time>2021-03-18T09:01:45.000Z</time>
      </trkpt>
      <trkpt lat="47.31303" lon="-2.40069">
        <ele>9</ele>
        <time>2021-03-18T09:01:46.000Z</time>
      </trkpt>
      <trkpt lat="47.31326" lon="-2.40081">
        <ele>9</ele>
        <time>2021-03-18T09:01:52.000Z</time>
      </trkpt>
      <trkpt lat="47.31353" lon="-2.40093">
        <ele>9</ele>
        <time>2021-03-18T09:01:58.000Z</time>
      </trkpt>
      <trkpt lat="47.31382" lon="-2.40108">
        <ele>9</ele>
        <time>2021-03-18T09:02:05.000Z</time>
      </trkpt>
      <trkpt lat="47.31386" lon="-2.4011">
        <ele>9.3999996185303</ele>
        <time>2021-03-18T09:02:06.000Z</time>
      </trkpt>
      <trkpt lat="47.31389" lon="-2.40112">
        <ele>9.8000001907349</ele>
        <time>2021-03-18T09:02:07.000Z</time>
      </trkpt>
      <trkpt lat="47.31393" lon="-2.40114">
        <ele>10.39999961853</ele>
        <time>2021-03-18T09:02:08.000Z</time>
      </trkpt>
      <trkpt lat="47.31397" lon="-2.40116">
        <ele>10.800000190735</ele>
        <time>2021-03-18T09:02:09.000Z</time>
      </trkpt>
      <trkpt lat="47.314" lon="-2.40118">
        <ele>11.199999809265</ele>
        <time>2021-03-18T09:02:10.000Z</time>
      </trkpt>
      <trkpt lat="47.31411" lon="-2.40126">
        <ele>11.199999809265</ele>
        <time>2021-03-18T09:02:13.000Z</time>
      </trkpt>
      <trkpt lat="47.31435" lon="-2.40142">
        <ele>11.199999809265</ele>
        <time>2021-03-18T09:02:20.000Z</time>
      </trkpt>
      <trkpt lat="47.31456" lon="-2.40158">
        <ele>11.199999809265</ele>
        <time>2021-03-18T09:02:26.000Z</time>
      </trkpt>
      <trkpt lat="47.31475" lon="-2.40173">
        <ele>11.199999809265</ele>
        <time>2021-03-18T09:02:31.000Z</time>
      </trkpt>
      <trkpt lat="47.31495" lon="-2.40187">
        <ele>11.199999809265</ele>
        <time>2021-03-18T09:02:37.000Z</time>
      </trkpt>
      <trkpt lat="47.3151" lon="-2.402">
        <ele>11.60000038147</ele>
        <time>2021-03-18T09:02:41.000Z</time>
      </trkpt>
      <trkpt lat="47.31514" lon="-2.40203">
        <ele>12</ele>
        <time>2021-03-18T09:02:42.000Z</time>
      </trkpt>
      <trkpt lat="47.31518" lon="-2.40206">
        <ele>12.39999961853</ele>
        <time>2021-03-18T09:02:43.000Z</time>
      </trkpt>
      <trkpt lat="47.31522" lon="-2.40208">
        <ele>12.800000190735</ele>
        <time>2021-03-18T09:02:44.000Z</time>
      </trkpt>
      <trkpt lat="47.31526" lon="-2.4021">
        <ele>13.199999809265</ele>
        <time>2021-03-18T09:02:45.000Z</time>
      </trkpt>
      <trkpt lat="47.31546" lon="-2.40224">
        <ele>13.199999809265</ele>
        <time>2021-03-18T09:02:51.000Z</time>
      </trkpt>
      <trkpt lat="47.31566" lon="-2.4024">
        <ele>13.199999809265</ele>
        <time>2021-03-18T09:02:57.000Z</time>
      </trkpt>
      <trkpt lat="47.31589" lon="-2.40258">
        <ele>13.199999809265</ele>
        <time>2021-03-18T09:03:04.000Z</time>
      </trkpt>
      <trkpt lat="47.31612" lon="-2.40276">
        <ele>13.199999809265</ele>
        <time>2021-03-18T09:03:11.000Z</time>
      </trkpt>
      <trkpt lat="47.31622" lon="-2.40283">
        <ele>13.60000038147</ele>
        <time>2021-03-18T09:03:14.000Z</time>
      </trkpt>
      <trkpt lat="47.31625" lon="-2.40286">
        <ele>14</ele>
        <time>2021-03-18T09:03:15.000Z</time>
      </trkpt>
      <trkpt lat="47.31628" lon="-2.40288">
        <ele>14.39999961853</ele>
        <time>2021-03-18T09:03:16.000Z</time>
      </trkpt>
      <trkpt lat="47.31631" lon="-2.4029">
        <ele>15.199999809265</ele>
        <time>2021-03-18T09:03:17.000Z</time>
      </trkpt>
      <trkpt lat="47.3165" lon="-2.40305">
        <ele>15.199999809265</ele>
        <time>2021-03-18T09:03:23.000Z</time>
      </trkpt>
      <trkpt lat="47.31669" lon="-2.40321">
        <ele>15.199999809265</ele>
        <time>2021-03-18T09:03:29.000Z</time>
      </trkpt>
      <trkpt lat="47.31678" lon="-2.40331">
        <ele>15.60000038147</ele>
        <time>2021-03-18T09:03:33.000Z</time>
      </trkpt>
      <trkpt lat="47.31681" lon="-2.40333">
        <ele>16</ele>
        <time>2021-03-18T09:03:34.000Z</time>
      </trkpt>
      <trkpt lat="47.31685" lon="-2.40335">
        <ele>16.39999961853</ele>
        <time>2021-03-18T09:03:35.000Z</time>
      </trkpt>
      <trkpt lat="47.31689" lon="-2.40338">
        <ele>16.799999237061</ele>
        <time>2021-03-18T09:03:36.000Z</time>
      </trkpt>
      <trkpt lat="47.31694" lon="-2.40342">
        <ele>17.200000762939</ele>
        <time>2021-03-18T09:03:37.000Z</time>
      </trkpt>
      <trkpt lat="47.31699" lon="-2.40344">
        <ele>17.200000762939</ele>
        <time>2021-03-18T09:03:38.000Z</time>
      </trkpt>
      <trkpt lat="47.31738" lon="-2.40368">
        <ele>17.200000762939</ele>
        <time>2021-03-18T09:03:46.000Z</time>
      </trkpt>
      <trkpt lat="47.31762" lon="-2.40388">
        <ele>17.200000762939</ele>
        <time>2021-03-18T09:03:51.000Z</time>
      </trkpt>
      <trkpt lat="47.31797" lon="-2.40417">
        <ele>17.60000038147</ele>
        <time>2021-03-18T09:03:58.000Z</time>
      </trkpt>
      <trkpt lat="47.31802" lon="-2.40421">
        <ele>18.200000762939</ele>
        <time>2021-03-18T09:03:59.000Z</time>
      </trkpt>
      <trkpt lat="47.31808" lon="-2.40425">
        <ele>18.60000038147</ele>
        <time>2021-03-18T09:04:00.000Z</time>
      </trkpt>
      <trkpt lat="47.31813" lon="-2.40429">
        <ele>19</ele>
        <time>2021-03-18T09:04:01.000Z</time>
      </trkpt>
      <trkpt lat="47.31818" lon="-2.40433">
        <ele>19.39999961853</ele>
        <time>2021-03-18T09:04:02.000Z</time>
      </trkpt>
      <trkpt lat="47.31829" lon="-2.40441">
        <ele>19.39999961853</ele>
        <time>2021-03-18T09:04:04.000Z</time>
      </trkpt>
      <trkpt lat="47.31864" lon="-2.40468">
        <ele>19.39999961853</ele>
        <time>2021-03-18T09:04:11.000Z</time>
      </trkpt>
      <trkpt lat="47.31886" lon="-2.40484">
        <ele>19.39999961853</ele>
        <time>2021-03-18T09:04:16.000Z</time>
      </trkpt>
      <trkpt lat="47.31905" lon="-2.40497">
        <ele>19.799999237061</ele>
        <time>2021-03-18T09:04:20.000Z</time>
      </trkpt>
      <trkpt lat="47.31909" lon="-2.40501">
        <ele>20.200000762939</ele>
        <time>2021-03-18T09:04:21.000Z</time>
      </trkpt>
      <trkpt lat="47.31913" lon="-2.40505">
        <ele>20.60000038147</ele>
        <time>2021-03-18T09:04:22.000Z</time>
      </trkpt>
      <trkpt lat="47.31918" lon="-2.40508">
        <ele>21</ele>
        <time>2021-03-18T09:04:23.000Z</time>
      </trkpt>
      <trkpt lat="47.31922" lon="-2.40512">
        <ele>21.39999961853</ele>
        <time>2021-03-18T09:04:24.000Z</time>
      </trkpt>
      <trkpt lat="47.31951" lon="-2.40532">
        <ele>21.39999961853</ele>
        <time>2021-03-18T09:04:30.000Z</time>
      </trkpt>
      <trkpt lat="47.31976" lon="-2.40549">
        <ele>21.799999237061</ele>
        <time>2021-03-18T09:04:35.000Z</time>
      </trkpt>
      <trkpt lat="47.31981" lon="-2.40553">
        <ele>22.200000762939</ele>
        <time>2021-03-18T09:04:36.000Z</time>
      </trkpt>
      <trkpt lat="47.31987" lon="-2.40557">
        <ele>22.60000038147</ele>
        <time>2021-03-18T09:04:37.000Z</time>
      </trkpt>
      <trkpt lat="47.31992" lon="-2.40562">
        <ele>23</ele>
        <time>2021-03-18T09:04:38.000Z</time>
      </trkpt>
      <trkpt lat="47.31997" lon="-2.40566">
        <ele>23.39999961853</ele>
        <time>2021-03-18T09:04:39.000Z</time>
      </trkpt>
      <trkpt lat="47.32019" lon="-2.40586">
        <ele>23.39999961853</ele>
        <time>2021-03-18T09:04:43.000Z</time>
      </trkpt>
      <trkpt lat="47.32057" lon="-2.4062">
        <ele>23.799999237061</ele>
        <time>2021-03-18T09:04:50.000Z</time>
      </trkpt>
      <trkpt lat="47.32063" lon="-2.40625">
        <ele>24.200000762939</ele>
        <time>2021-03-18T09:04:51.000Z</time>
      </trkpt>
      <trkpt lat="47.32068" lon="-2.4063">
        <ele>24.60000038147</ele>
        <time>2021-03-18T09:04:52.000Z</time>
      </trkpt>
      <trkpt lat="47.32073" lon="-2.40635">
        <ele>25</ele>
        <time>2021-03-18T09:04:53.000Z</time>
      </trkpt>
      <trkpt lat="47.32078" lon="-2.4064">
        <ele>25.39999961853</ele>
        <time>2021-03-18T09:04:54.000Z</time>
      </trkpt>
      <trkpt lat="47.32099" lon="-2.40661">
        <ele>25.39999961853</ele>
        <time>2021-03-18T09:04:58.000Z</time>
      </trkpt>
      <trkpt lat="47.32134" lon="-2.407">
        <ele>25.39999961853</ele>
        <time>2021-03-18T09:05:05.000Z</time>
      </trkpt>
      <trkpt lat="47.32173" lon="-2.40746">
        <ele>25.39999961853</ele>
        <time>2021-03-18T09:05:13.000Z</time>
      </trkpt>
      <trkpt lat="47.32195" lon="-2.40776">
        <ele>25.39999961853</ele>
        <time>2021-03-18T09:05:19.000Z</time>
      </trkpt>
      <trkpt lat="47.32205" lon="-2.4079">
        <ele>25.39999961853</ele>
        <time>2021-03-18T09:05:24.000Z</time>
      </trkpt>
      <trkpt lat="47.32211" lon="-2.40797">
        <ele>25.39999961853</ele>
        <time>2021-03-18T09:05:29.000Z</time>
      </trkpt>
      <trkpt lat="47.32219" lon="-2.40812">
        <ele>25.39999961853</ele>
        <time>2021-03-18T09:05:34.000Z</time>
      </trkpt>
      <trkpt lat="47.32224" lon="-2.40818">
        <ele>25.39999961853</ele>
        <time>2021-03-18T09:05:37.000Z</time>
      </trkpt>
      <trkpt lat="47.3223" lon="-2.40826">
        <ele>25.39999961853</ele>
        <time>2021-03-18T09:05:39.000Z</time>
      </trkpt>
      <trkpt lat="47.32239" lon="-2.40843">
        <ele>25.39999961853</ele>
        <time>2021-03-18T09:05:42.000Z</time>
      </trkpt>
      <trkpt lat="47.32246" lon="-2.40855">
        <ele>25.39999961853</ele>
        <time>2021-03-18T09:05:44.000Z</time>
      </trkpt>
      <trkpt lat="47.32277" lon="-2.40908">
        <ele>25.39999961853</ele>
        <time>2021-03-18T09:05:52.000Z</time>
      </trkpt>
      <trkpt lat="47.32306" lon="-2.40963">
        <ele>25.39999961853</ele>
        <time>2021-03-18T09:06:00.000Z</time>
      </trkpt>
      <trkpt lat="47.32326" lon="-2.41001">
        <ele>26</ele>
        <time>2021-03-18T09:06:06.000Z</time>
      </trkpt>
      <trkpt lat="47.3233" lon="-2.41007">
        <ele>26.39999961853</ele>
        <time>2021-03-18T09:06:07.000Z</time>
      </trkpt>
      <trkpt lat="47.32333" lon="-2.41014">
        <ele>27.200000762939</ele>
        <time>2021-03-18T09:06:08.000Z</time>
      </trkpt>
      <trkpt lat="47.32336" lon="-2.4102">
        <ele>27.60000038147</ele>
        <time>2021-03-18T09:06:09.000Z</time>
      </trkpt>
      <trkpt lat="47.3234" lon="-2.41026">
        <ele>27.60000038147</ele>
        <time>2021-03-18T09:06:10.000Z</time>
      </trkpt>
      <trkpt lat="47.32365" lon="-2.41072">
        <ele>27.60000038147</ele>
        <time>2021-03-18T09:06:18.000Z</time>
      </trkpt>
      <trkpt lat="47.32372" lon="-2.41086">
        <ele>27.60000038147</ele>
        <time>2021-03-18T09:06:21.000Z</time>
      </trkpt>
      <trkpt lat="47.32375" lon="-2.41092">
        <ele>27.60000038147</ele>
        <time>2021-03-18T09:06:22.000Z</time>
      </trkpt>
      <trkpt lat="47.32397" lon="-2.41135">
        <ele>27.60000038147</ele>
        <time>2021-03-18T09:06:30.000Z</time>
      </trkpt>
      <trkpt lat="47.32412" lon="-2.41161">
        <ele>27.60000038147</ele>
        <time>2021-03-18T09:06:36.000Z</time>
      </trkpt>
      <trkpt lat="47.32414" lon="-2.41166">
        <ele>27.60000038147</ele>
        <time>2021-03-18T09:06:41.000Z</time>
      </trkpt>
      <trkpt lat="47.32414" lon="-2.41167">
        <ele>27.60000038147</ele>
        <time>2021-03-18T09:06:44.000Z</time>
      </trkpt>
      <trkpt lat="47.32422" lon="-2.41183">
        <ele>27.60000038147</ele>
        <time>2021-03-18T09:06:48.000Z</time>
      </trkpt>
      <trkpt lat="47.32432" lon="-2.412">
        <ele>27.60000038147</ele>
        <time>2021-03-18T09:06:52.000Z</time>
      </trkpt>
      <trkpt lat="47.32448" lon="-2.41235">
        <ele>27.60000038147</ele>
        <time>2021-03-18T09:06:57.000Z</time>
      </trkpt>
      <trkpt lat="47.32476" lon="-2.41289">
        <ele>27.60000038147</ele>
        <time>2021-03-18T09:07:05.000Z</time>
      </trkpt>
      <trkpt lat="47.32487" lon="-2.41309">
        <ele>28</ele>
        <time>2021-03-18T09:07:08.000Z</time>
      </trkpt>
      <trkpt lat="47.32491" lon="-2.41315">
        <ele>28.60000038147</ele>
        <time>2021-03-18T09:07:09.000Z</time>
      </trkpt>
      <trkpt lat="47.32494" lon="-2.41322">
        <ele>29</ele>
        <time>2021-03-18T09:07:10.000Z</time>
      </trkpt>
      <trkpt lat="47.32498" lon="-2.41328">
        <ele>29.39999961853</ele>
        <time>2021-03-18T09:07:11.000Z</time>
      </trkpt>
      <trkpt lat="47.32501" lon="-2.41335">
        <ele>30</ele>
        <time>2021-03-18T09:07:12.000Z</time>
      </trkpt>
      <trkpt lat="47.32512" lon="-2.41356">
        <ele>29.39999961853</ele>
        <time>2021-03-18T09:07:15.000Z</time>
      </trkpt>
      <trkpt lat="47.32516" lon="-2.41363">
        <ele>29</ele>
        <time>2021-03-18T09:07:16.000Z</time>
      </trkpt>
      <trkpt lat="47.3252" lon="-2.4137">
        <ele>28.60000038147</ele>
        <time>2021-03-18T09:07:17.000Z</time>
      </trkpt>
      <trkpt lat="47.32524" lon="-2.41377">
        <ele>28.200000762939</ele>
        <time>2021-03-18T09:07:18.000Z</time>
      </trkpt>
      <trkpt lat="47.32528" lon="-2.41384">
        <ele>27.799999237061</ele>
        <time>2021-03-18T09:07:19.000Z</time>
      </trkpt>
      <trkpt lat="47.32536" lon="-2.41399">
        <ele>27.799999237061</ele>
        <time>2021-03-18T09:07:21.000Z</time>
      </trkpt>
      <trkpt lat="47.3255" lon="-2.41425">
        <ele>27.799999237061</ele>
        <time>2021-03-18T09:07:25.000Z</time>
      </trkpt>
      <trkpt lat="47.32557" lon="-2.41438">
        <ele>27.799999237061</ele>
        <time>2021-03-18T09:07:27.000Z</time>
      </trkpt>
      <trkpt lat="47.32567" lon="-2.41458">
        <ele>27.799999237061</ele>
        <time>2021-03-18T09:07:31.000Z</time>
      </trkpt>
      <trkpt lat="47.32573" lon="-2.41462">
        <ele>27.799999237061</ele>
        <time>2021-03-18T09:07:34.000Z</time>
      </trkpt>
      <trkpt lat="47.32577" lon="-2.41447">
        <ele>27.799999237061</ele>
        <time>2021-03-18T09:07:37.000Z</time>
      </trkpt>
      <trkpt lat="47.32577" lon="-2.41418">
        <ele>27.799999237061</ele>
        <time>2021-03-18T09:07:41.000Z</time>
      </trkpt>
      <trkpt lat="47.32579" lon="-2.41392">
        <ele>27.799999237061</ele>
        <time>2021-03-18T09:07:45.000Z</time>
      </trkpt>
      <trkpt lat="47.32582" lon="-2.41387">
        <ele>27.799999237061</ele>
        <time>2021-03-18T09:07:46.000Z</time>
      </trkpt>
      <trkpt lat="47.32591" lon="-2.41381">
        <ele>27.39999961853</ele>
        <time>2021-03-18T09:07:48.000Z</time>
      </trkpt>
      <trkpt lat="47.32596" lon="-2.41379">
        <ele>27</ele>
        <time>2021-03-18T09:07:49.000Z</time>
      </trkpt>
      <trkpt lat="47.32601" lon="-2.41377">
        <ele>26.39999961853</ele>
        <time>2021-03-18T09:07:50.000Z</time>
      </trkpt>
      <trkpt lat="47.32606" lon="-2.41374">
        <ele>26</ele>
        <time>2021-03-18T09:07:51.000Z</time>
      </trkpt>
      <trkpt lat="47.32612" lon="-2.41371">
        <ele>25.60000038147</ele>
        <time>2021-03-18T09:07:52.000Z</time>
      </trkpt>
      <trkpt lat="47.32633" lon="-2.41357">
        <ele>25.60000038147</ele>
        <time>2021-03-18T09:07:56.000Z</time>
      </trkpt>
      <trkpt lat="47.32672" lon="-2.41333">
        <ele>25.60000038147</ele>
        <time>2021-03-18T09:08:03.000Z</time>
      </trkpt>
      <trkpt lat="47.32699" lon="-2.41313">
        <ele>25.60000038147</ele>
        <time>2021-03-18T09:08:09.000Z</time>
      </trkpt>
      <trkpt lat="47.32701" lon="-2.41311">
        <ele>25</ele>
        <time>2021-03-18T09:08:10.000Z</time>
      </trkpt>
      <trkpt lat="47.32703" lon="-2.41309">
        <ele>24.60000038147</ele>
        <time>2021-03-18T09:08:11.000Z</time>
      </trkpt>
      <trkpt lat="47.32705" lon="-2.41308">
        <ele>23.60000038147</ele>
        <time>2021-03-18T09:08:12.000Z</time>
      </trkpt>
      <trkpt lat="47.32706" lon="-2.41306">
        <ele>23.200000762939</ele>
        <time>2021-03-18T09:08:13.000Z</time>
      </trkpt>
      <trkpt lat="47.32709" lon="-2.413">
        <ele>23.200000762939</ele>
        <time>2021-03-18T09:08:15.000Z</time>
      </trkpt>
      <trkpt lat="47.32713" lon="-2.41292">
        <ele>23.200000762939</ele>
        <time>2021-03-18T09:08:17.000Z</time>
      </trkpt>
      <trkpt lat="47.3273" lon="-2.41282">
        <ele>23.200000762939</ele>
        <time>2021-03-18T09:08:21.000Z</time>
      </trkpt>
      <trkpt lat="47.32746" lon="-2.41278">
        <ele>23.200000762939</ele>
        <time>2021-03-18T09:08:24.000Z</time>
      </trkpt>
      <trkpt lat="47.32757" lon="-2.41275">
        <ele>23.200000762939</ele>
        <time>2021-03-18T09:08:26.000Z</time>
      </trkpt>
      <trkpt lat="47.32802" lon="-2.41267">
        <ele>23.200000762939</ele>
        <time>2021-03-18T09:08:34.000Z</time>
      </trkpt>
      <trkpt lat="47.32813" lon="-2.41263">
        <ele>23.200000762939</ele>
        <time>2021-03-18T09:08:36.000Z</time>
      </trkpt>
      <trkpt lat="47.3282" lon="-2.41256">
        <ele>23.200000762939</ele>
        <time>2021-03-18T09:08:38.000Z</time>
      </trkpt>
      <trkpt lat="47.32825" lon="-2.41252">
        <ele>23.200000762939</ele>
        <time>2021-03-18T09:08:40.000Z</time>
      </trkpt>
      <trkpt lat="47.32831" lon="-2.41252">
        <ele>23.200000762939</ele>
        <time>2021-03-18T09:08:42.000Z</time>
      </trkpt>
      <trkpt lat="47.32835" lon="-2.41255">
        <ele>22.799999237061</ele>
        <time>2021-03-18T09:08:43.000Z</time>
      </trkpt>
      <trkpt lat="47.3284" lon="-2.41258">
        <ele>22.39999961853</ele>
        <time>2021-03-18T09:08:44.000Z</time>
      </trkpt>
      <trkpt lat="47.32845" lon="-2.41259">
        <ele>21.799999237061</ele>
        <time>2021-03-18T09:08:45.000Z</time>
      </trkpt>
      <trkpt lat="47.3285" lon="-2.41258">
        <ele>21.39999961853</ele>
        <time>2021-03-18T09:08:46.000Z</time>
      </trkpt>
      <trkpt lat="47.32856" lon="-2.41257">
        <ele>21</ele>
        <time>2021-03-18T09:08:47.000Z</time>
      </trkpt>
      <trkpt lat="47.32868" lon="-2.41256">
        <ele>21</ele>
        <time>2021-03-18T09:08:49.000Z</time>
      </trkpt>
      <trkpt lat="47.32908" lon="-2.41252">
        <ele>21</ele>
        <time>2021-03-18T09:08:56.000Z</time>
      </trkpt>
      <trkpt lat="47.32912" lon="-2.41252">
        <ele>21</ele>
        <time>2021-03-18T09:08:57.000Z</time>
      </trkpt>
      <trkpt lat="47.32926" lon="-2.41253">
        <ele>21</ele>
        <time>2021-03-18T09:09:00.000Z</time>
      </trkpt>
      <trkpt lat="47.3293" lon="-2.41254">
        <ele>21</ele>
        <time>2021-03-18T09:09:01.000Z</time>
      </trkpt>
      <trkpt lat="47.32946" lon="-2.41259">
        <ele>21</ele>
        <time>2021-03-18T09:09:04.000Z</time>
      </trkpt>
      <trkpt lat="47.32952" lon="-2.41258">
        <ele>21</ele>
        <time>2021-03-18T09:09:05.000Z</time>
      </trkpt>
      <trkpt lat="47.32977" lon="-2.41247">
        <ele>21</ele>
        <time>2021-03-18T09:09:10.000Z</time>
      </trkpt>
      <trkpt lat="47.32982" lon="-2.41243">
        <ele>21</ele>
        <time>2021-03-18T09:09:11.000Z</time>
      </trkpt>
      <trkpt lat="47.32986" lon="-2.41239">
        <ele>21</ele>
        <time>2021-03-18T09:09:12.000Z</time>
      </trkpt>
      <trkpt lat="47.32999" lon="-2.41227">
        <ele>21</ele>
        <time>2021-03-18T09:09:15.000Z</time>
      </trkpt>
      <trkpt lat="47.3302" lon="-2.41216">
        <ele>21</ele>
        <time>2021-03-18T09:09:19.000Z</time>
      </trkpt>
      <trkpt lat="47.33032" lon="-2.41196">
        <ele>21</ele>
        <time>2021-03-18T09:09:22.000Z</time>
      </trkpt>
      <trkpt lat="47.33036" lon="-2.4119">
        <ele>21</ele>
        <time>2021-03-18T09:09:23.000Z</time>
      </trkpt>
      <trkpt lat="47.33052" lon="-2.41156">
        <ele>20.60000038147</ele>
        <time>2021-03-18T09:09:28.000Z</time>
      </trkpt>
      <trkpt lat="47.33054" lon="-2.41148">
        <ele>20.200000762939</ele>
        <time>2021-03-18T09:09:29.000Z</time>
      </trkpt>
      <trkpt lat="47.33058" lon="-2.41141">
        <ele>19.799999237061</ele>
        <time>2021-03-18T09:09:30.000Z</time>
      </trkpt>
      <trkpt lat="47.33061" lon="-2.41134">
        <ele>19.39999961853</ele>
        <time>2021-03-18T09:09:31.000Z</time>
      </trkpt>
      <trkpt lat="47.33064" lon="-2.41127">
        <ele>18.799999237061</ele>
        <time>2021-03-18T09:09:32.000Z</time>
      </trkpt>
      <trkpt lat="47.33075" lon="-2.411">
        <ele>18.799999237061</ele>
        <time>2021-03-18T09:09:36.000Z</time>
      </trkpt>
      <trkpt lat="47.33089" lon="-2.41058">
        <ele>18.799999237061</ele>
        <time>2021-03-18T09:09:42.000Z</time>
      </trkpt>
      <trkpt lat="47.33108" lon="-2.40999">
        <ele>18.799999237061</ele>
        <time>2021-03-18T09:09:50.000Z</time>
      </trkpt>
      <trkpt lat="47.33137" lon="-2.4093">
        <ele>18.799999237061</ele>
        <time>2021-03-18T09:10:00.000Z</time>
      </trkpt>
      <trkpt lat="47.33144" lon="-2.40916">
        <ele>18.39999961853</ele>
        <time>2021-03-18T09:10:02.000Z</time>
      </trkpt>
      <trkpt lat="47.33148" lon="-2.4091">
        <ele>18</ele>
        <time>2021-03-18T09:10:03.000Z</time>
      </trkpt>
      <trkpt lat="47.33152" lon="-2.40903">
        <ele>17.60000038147</ele>
        <time>2021-03-18T09:10:04.000Z</time>
      </trkpt>
      <trkpt lat="47.33156" lon="-2.40897">
        <ele>17.200000762939</ele>
        <time>2021-03-18T09:10:05.000Z</time>
      </trkpt>
      <trkpt lat="47.33159" lon="-2.4089">
        <ele>16.799999237061</ele>
        <time>2021-03-18T09:10:06.000Z</time>
      </trkpt>
      <trkpt lat="47.33184" lon="-2.4085">
        <ele>16.799999237061</ele>
        <time>2021-03-18T09:10:13.000Z</time>
      </trkpt>
      <trkpt lat="47.33204" lon="-2.40821">
        <ele>16.39999961853</ele>
        <time>2021-03-18T09:10:18.000Z</time>
      </trkpt>
      <trkpt lat="47.33208" lon="-2.40815">
        <ele>16</ele>
        <time>2021-03-18T09:10:19.000Z</time>
      </trkpt>
      <trkpt lat="47.33212" lon="-2.40809">
        <ele>15.60000038147</ele>
        <time>2021-03-18T09:10:20.000Z</time>
      </trkpt>
      <trkpt lat="47.33216" lon="-2.40802">
        <ele>15</ele>
        <time>2021-03-18T09:10:21.000Z</time>
      </trkpt>
      <trkpt lat="47.33219" lon="-2.40796">
        <ele>14.60000038147</ele>
        <time>2021-03-18T09:10:22.000Z</time>
      </trkpt>
      <trkpt lat="47.33226" lon="-2.40781">
        <ele>14.60000038147</ele>
        <time>2021-03-18T09:10:24.000Z</time>
      </trkpt>
      <trkpt lat="47.33233" lon="-2.40752">
        <ele>14.60000038147</ele>
        <time>2021-03-18T09:10:27.000Z</time>
      </trkpt>
      <trkpt lat="47.33234" lon="-2.40732">
        <ele>14.199999809265</ele>
        <time>2021-03-18T09:10:29.000Z</time>
      </trkpt>
      <trkpt lat="47.33235" lon="-2.40721">
        <ele>13.800000190735</ele>
        <time>2021-03-18T09:10:30.000Z</time>
      </trkpt>
      <trkpt lat="47.33237" lon="-2.4071">
        <ele>13.39999961853</ele>
        <time>2021-03-18T09:10:31.000Z</time>
      </trkpt>
      <trkpt lat="47.33238" lon="-2.407">
        <ele>13</ele>
        <time>2021-03-18T09:10:32.000Z</time>
      </trkpt>
      <trkpt lat="47.3324" lon="-2.40689">
        <ele>12.60000038147</ele>
        <time>2021-03-18T09:10:33.000Z</time>
      </trkpt>
      <trkpt lat="47.33251" lon="-2.40649">
        <ele>12.60000038147</ele>
        <time>2021-03-18T09:10:37.000Z</time>
      </trkpt>
      <trkpt lat="47.33269" lon="-2.40587">
        <ele>12</ele>
        <time>2021-03-18T09:10:43.000Z</time>
      </trkpt>
      <trkpt lat="47.33271" lon="-2.40576">
        <ele>11.60000038147</ele>
        <time>2021-03-18T09:10:44.000Z</time>
      </trkpt>
      <trkpt lat="47.33274" lon="-2.40566">
        <ele>11.199999809265</ele>
        <time>2021-03-18T09:10:45.000Z</time>
      </trkpt>
      <trkpt lat="47.33277" lon="-2.40556">
        <ele>10.800000190735</ele>
        <time>2021-03-18T09:10:46.000Z</time>
      </trkpt>
      <trkpt lat="47.3328" lon="-2.40546">
        <ele>10.39999961853</ele>
        <time>2021-03-18T09:10:47.000Z</time>
      </trkpt>
      <trkpt lat="47.33292" lon="-2.40519">
        <ele>10.39999961853</ele>
        <time>2021-03-18T09:10:50.000Z</time>
      </trkpt>
      <trkpt lat="47.333" lon="-2.40503">
        <ele>10.39999961853</ele>
        <time>2021-03-18T09:10:52.000Z</time>
      </trkpt>
      <trkpt lat="47.33306" lon="-2.40485">
        <ele>10.39999961853</ele>
        <time>2021-03-18T09:10:54.000Z</time>
      </trkpt>
      <trkpt lat="47.33309" lon="-2.40456">
        <ele>10.39999961853</ele>
        <time>2021-03-18T09:10:57.000Z</time>
      </trkpt>
      <trkpt lat="47.3331" lon="-2.40447">
        <ele>10.39999961853</ele>
        <time>2021-03-18T09:10:58.000Z</time>
      </trkpt>
      <trkpt lat="47.33313" lon="-2.40394">
        <ele>10.39999961853</ele>
        <time>2021-03-18T09:11:04.000Z</time>
      </trkpt>
      <trkpt lat="47.33313" lon="-2.40386">
        <ele>10.39999961853</ele>
        <time>2021-03-18T09:11:05.000Z</time>
      </trkpt>
      <trkpt lat="47.33311" lon="-2.40378">
        <ele>10.39999961853</ele>
        <time>2021-03-18T09:11:06.000Z</time>
      </trkpt>
      <trkpt lat="47.33313" lon="-2.40357">
        <ele>10.39999961853</ele>
        <time>2021-03-18T09:11:09.000Z</time>
      </trkpt>
      <trkpt lat="47.33317" lon="-2.40345">
        <ele>10.800000190735</ele>
        <time>2021-03-18T09:11:11.000Z</time>
      </trkpt>
      <trkpt lat="47.33319" lon="-2.40339">
        <ele>11.199999809265</ele>
        <time>2021-03-18T09:11:12.000Z</time>
      </trkpt>
      <trkpt lat="47.33321" lon="-2.40332">
        <ele>11.60000038147</ele>
        <time>2021-03-18T09:11:13.000Z</time>
      </trkpt>
      <trkpt lat="47.33324" lon="-2.40326">
        <ele>12</ele>
        <time>2021-03-18T09:11:14.000Z</time>
      </trkpt>
      <trkpt lat="47.33327" lon="-2.4032">
        <ele>12.39999961853</ele>
        <time>2021-03-18T09:11:15.000Z</time>
      </trkpt>
      <trkpt lat="47.33328" lon="-2.40313">
        <ele>12.39999961853</ele>
        <time>2021-03-18T09:11:16.000Z</time>
      </trkpt>
      <trkpt lat="47.3333" lon="-2.40305">
        <ele>12.800000190735</ele>
        <time>2021-03-18T09:11:17.000Z</time>
      </trkpt>
      <trkpt lat="47.3333" lon="-2.40298">
        <ele>13.199999809265</ele>
        <time>2021-03-18T09:11:18.000Z</time>
      </trkpt>
      <trkpt lat="47.33331" lon="-2.40291">
        <ele>13.800000190735</ele>
        <time>2021-03-18T09:11:19.000Z</time>
      </trkpt>
      <trkpt lat="47.33332" lon="-2.40283">
        <ele>14.199999809265</ele>
        <time>2021-03-18T09:11:20.000Z</time>
      </trkpt>
      <trkpt lat="47.33332" lon="-2.40276">
        <ele>14.60000038147</ele>
        <time>2021-03-18T09:11:21.000Z</time>
      </trkpt>
      <trkpt lat="47.33334" lon="-2.40253">
        <ele>14.60000038147</ele>
        <time>2021-03-18T09:11:24.000Z</time>
      </trkpt>
      <trkpt lat="47.33338" lon="-2.40221">
        <ele>15</ele>
        <time>2021-03-18T09:11:28.000Z</time>
      </trkpt>
      <trkpt lat="47.3334" lon="-2.40214">
        <ele>15.39999961853</ele>
        <time>2021-03-18T09:11:29.000Z</time>
      </trkpt>
      <trkpt lat="47.33341" lon="-2.40206">
        <ele>16.39999961853</ele>
        <time>2021-03-18T09:11:30.000Z</time>
      </trkpt>
      <trkpt lat="47.33341" lon="-2.40198">
        <ele>16.799999237061</ele>
        <time>2021-03-18T09:11:31.000Z</time>
      </trkpt>
      <trkpt lat="47.33346" lon="-2.40153">
        <ele>16.799999237061</ele>
        <time>2021-03-18T09:11:37.000Z</time>
      </trkpt>
      <trkpt lat="47.33349" lon="-2.40121">
        <ele>16.799999237061</ele>
        <time>2021-03-18T09:11:41.000Z</time>
      </trkpt>
      <trkpt lat="47.33349" lon="-2.40105">
        <ele>16.799999237061</ele>
        <time>2021-03-18T09:11:43.000Z</time>
      </trkpt>
      <trkpt lat="47.33356" lon="-2.40048">
        <ele>16.799999237061</ele>
        <time>2021-03-18T09:11:50.000Z</time>
      </trkpt>
      <trkpt lat="47.33359" lon="-2.4004">
        <ele>16.799999237061</ele>
        <time>2021-03-18T09:11:51.000Z</time>
      </trkpt>
      <trkpt lat="47.33371" lon="-2.40017">
        <ele>16.799999237061</ele>
        <time>2021-03-18T09:11:54.000Z</time>
      </trkpt>
      <trkpt lat="47.33375" lon="-2.4001">
        <ele>16.799999237061</ele>
        <time>2021-03-18T09:11:55.000Z</time>
      </trkpt>
      <trkpt lat="47.33394" lon="-2.39982">
        <ele>16.39999961853</ele>
        <time>2021-03-18T09:11:59.000Z</time>
      </trkpt>
      <trkpt lat="47.33399" lon="-2.39975">
        <ele>16</ele>
        <time>2021-03-18T09:12:00.000Z</time>
      </trkpt>
      <trkpt lat="47.33404" lon="-2.39968">
        <ele>15.60000038147</ele>
        <time>2021-03-18T09:12:01.000Z</time>
      </trkpt>
      <trkpt lat="47.33408" lon="-2.39961">
        <ele>15.199999809265</ele>
        <time>2021-03-18T09:12:02.000Z</time>
      </trkpt>
      <trkpt lat="47.33413" lon="-2.39953">
        <ele>14.60000038147</ele>
        <time>2021-03-18T09:12:03.000Z</time>
      </trkpt>
      <trkpt lat="47.33446" lon="-2.39904">
        <ele>14.60000038147</ele>
        <time>2021-03-18T09:12:10.000Z</time>
      </trkpt>
      <trkpt lat="47.33467" lon="-2.39876">
        <ele>14.199999809265</ele>
        <time>2021-03-18T09:12:14.000Z</time>
      </trkpt>
      <trkpt lat="47.33473" lon="-2.39869">
        <ele>13.800000190735</ele>
        <time>2021-03-18T09:12:15.000Z</time>
      </trkpt>
      <trkpt lat="47.33478" lon="-2.39862">
        <ele>13.39999961853</ele>
        <time>2021-03-18T09:12:16.000Z</time>
      </trkpt>
      <trkpt lat="47.33483" lon="-2.39855">
        <ele>13</ele>
        <time>2021-03-18T09:12:17.000Z</time>
      </trkpt>
      <trkpt lat="47.33489" lon="-2.39848">
        <ele>12.60000038147</ele>
        <time>2021-03-18T09:12:18.000Z</time>
      </trkpt>
      <trkpt lat="47.33494" lon="-2.3984">
        <ele>12.199999809265</ele>
        <time>2021-03-18T09:12:19.000Z</time>
      </trkpt>
      <trkpt lat="47.33499" lon="-2.39832">
        <ele>11.39999961853</ele>
        <time>2021-03-18T09:12:20.000Z</time>
      </trkpt>
      <trkpt lat="47.33505" lon="-2.39824">
        <ele>11</ele>
        <time>2021-03-18T09:12:21.000Z</time>
      </trkpt>
      <trkpt lat="47.3351" lon="-2.39816">
        <ele>10.60000038147</ele>
        <time>2021-03-18T09:12:22.000Z</time>
      </trkpt>
      <trkpt lat="47.33516" lon="-2.39808">
        <ele>10.60000038147</ele>
        <time>2021-03-18T09:12:23.000Z</time>
      </trkpt>
      <trkpt lat="47.33548" lon="-2.39765">
        <ele>10.60000038147</ele>
        <time>2021-03-18T09:12:29.000Z</time>
      </trkpt>
      <trkpt lat="47.33563" lon="-2.39749">
        <ele>10</ele>
        <time>2021-03-18T09:12:32.000Z</time>
      </trkpt>
      <trkpt lat="47.33568" lon="-2.39744">
        <ele>9.6000003814697</ele>
        <time>2021-03-18T09:12:33.000Z</time>
      </trkpt>
      <trkpt lat="47.33573" lon="-2.39739">
        <ele>9.1999998092651</ele>
        <time>2021-03-18T09:12:34.000Z</time>
      </trkpt>
      <trkpt lat="47.33579" lon="-2.39733">
        <ele>8.8000001907349</ele>
        <time>2021-03-18T09:12:35.000Z</time>
      </trkpt>
      <trkpt lat="47.33584" lon="-2.39726">
        <ele>8.1999998092651</ele>
        <time>2021-03-18T09:12:36.000Z</time>
      </trkpt>
      <trkpt lat="47.33605" lon="-2.39686">
        <ele>8.1999998092651</ele>
        <time>2021-03-18T09:12:41.000Z</time>
      </trkpt>
      <trkpt lat="47.33633" lon="-2.39644">
        <ele>8.1999998092651</ele>
        <time>2021-03-18T09:12:47.000Z</time>
      </trkpt>
      <trkpt lat="47.33648" lon="-2.39607">
        <ele>8.1999998092651</ele>
        <time>2021-03-18T09:12:52.000Z</time>
      </trkpt>
      <trkpt lat="47.33665" lon="-2.39558">
        <ele>8.1999998092651</ele>
        <time>2021-03-18T09:12:59.000Z</time>
      </trkpt>
      <trkpt lat="47.33672" lon="-2.39537">
        <ele>8.6000003814697</ele>
        <time>2021-03-18T09:13:02.000Z</time>
      </trkpt>
      <trkpt lat="47.33674" lon="-2.39529">
        <ele>9.1999998092651</ele>
        <time>2021-03-18T09:13:03.000Z</time>
      </trkpt>
      <trkpt lat="47.33676" lon="-2.39522">
        <ele>9.6000003814697</ele>
        <time>2021-03-18T09:13:04.000Z</time>
      </trkpt>
      <trkpt lat="47.33679" lon="-2.39515">
        <ele>10</ele>
        <time>2021-03-18T09:13:05.000Z</time>
      </trkpt>
      <trkpt lat="47.33681" lon="-2.39508">
        <ele>10.39999961853</ele>
        <time>2021-03-18T09:13:06.000Z</time>
      </trkpt>
      <trkpt lat="47.33697" lon="-2.39456">
        <ele>10.39999961853</ele>
        <time>2021-03-18T09:13:13.000Z</time>
      </trkpt>
      <trkpt lat="47.337" lon="-2.3944">
        <ele>10.39999961853</ele>
        <time>2021-03-18T09:13:15.000Z</time>
      </trkpt>
      <trkpt lat="47.33704" lon="-2.39406">
        <ele>10.39999961853</ele>
        <time>2021-03-18T09:13:19.000Z</time>
      </trkpt>
      <trkpt lat="47.33706" lon="-2.39379">
        <ele>10.39999961853</ele>
        <time>2021-03-18T09:13:22.000Z</time>
      </trkpt>
      <trkpt lat="47.33709" lon="-2.39353">
        <ele>10.39999961853</ele>
        <time>2021-03-18T09:13:25.000Z</time>
      </trkpt>
      <trkpt lat="47.33711" lon="-2.39345">
        <ele>10.39999961853</ele>
        <time>2021-03-18T09:13:26.000Z</time>
      </trkpt>
      <trkpt lat="47.33712" lon="-2.39318">
        <ele>10.39999961853</ele>
        <time>2021-03-18T09:13:29.000Z</time>
      </trkpt>
      <trkpt lat="47.33714" lon="-2.39311">
        <ele>10.39999961853</ele>
        <time>2021-03-18T09:13:30.000Z</time>
      </trkpt>
      <trkpt lat="47.3372" lon="-2.39302">
        <ele>10.39999961853</ele>
        <time>2021-03-18T09:13:32.000Z</time>
      </trkpt>
      <trkpt lat="47.33735" lon="-2.393">
        <ele>10</ele>
        <time>2021-03-18T09:13:35.000Z</time>
      </trkpt>
      <trkpt lat="47.3374" lon="-2.393">
        <ele>9.6000003814697</ele>
        <time>2021-03-18T09:13:36.000Z</time>
      </trkpt>
      <trkpt lat="47.33745" lon="-2.39299">
        <ele>9.1999998092651</ele>
        <time>2021-03-18T09:13:37.000Z</time>
      </trkpt>
      <trkpt lat="47.3375" lon="-2.39299">
        <ele>8.8000001907349</ele>
        <time>2021-03-18T09:13:38.000Z</time>
      </trkpt>
      <trkpt lat="47.33756" lon="-2.39299">
        <ele>8.3999996185303</ele>
        <time>2021-03-18T09:13:39.000Z</time>
      </trkpt>
      <trkpt lat="47.33762" lon="-2.39299">
        <ele>8.3999996185303</ele>
        <time>2021-03-18T09:13:40.000Z</time>
      </trkpt>
      <trkpt lat="47.33804" lon="-2.39293">
        <ele>8.3999996185303</ele>
        <time>2021-03-18T09:13:46.000Z</time>
      </trkpt>
      <trkpt lat="47.33848" lon="-2.39287">
        <ele>8.3999996185303</ele>
        <time>2021-03-18T09:13:52.000Z</time>
      </trkpt>
      <trkpt lat="47.33856" lon="-2.39285">
        <ele>8.3999996185303</ele>
        <time>2021-03-18T09:13:53.000Z</time>
      </trkpt>
      <trkpt lat="47.3387" lon="-2.39284">
        <ele>8.3999996185303</ele>
        <time>2021-03-18T09:13:55.000Z</time>
      </trkpt>
      <trkpt lat="47.33892" lon="-2.3928">
        <ele>8.3999996185303</ele>
        <time>2021-03-18T09:13:58.000Z</time>
      </trkpt>
      <trkpt lat="47.33913" lon="-2.39274">
        <ele>8</ele>
        <time>2021-03-18T09:14:01.000Z</time>
      </trkpt>
      <trkpt lat="47.3392" lon="-2.39273">
        <ele>7.4000000953674</ele>
        <time>2021-03-18T09:14:02.000Z</time>
      </trkpt>
      <trkpt lat="47.33927" lon="-2.39272">
        <ele>7</ele>
        <time>2021-03-18T09:14:03.000Z</time>
      </trkpt>
      <trkpt lat="47.33934" lon="-2.3927">
        <ele>6.5999999046326</ele>
        <time>2021-03-18T09:14:04.000Z</time>
      </trkpt>
      <trkpt lat="47.33941" lon="-2.39269">
        <ele>6.1999998092651</ele>
        <time>2021-03-18T09:14:05.000Z</time>
      </trkpt>
      <trkpt lat="47.33984" lon="-2.39262">
        <ele>6.1999998092651</ele>
        <time>2021-03-18T09:14:11.000Z</time>
      </trkpt>
      <trkpt lat="47.34006" lon="-2.39259">
        <ele>5.8000001907349</ele>
        <time>2021-03-18T09:14:14.000Z</time>
      </trkpt>
      <trkpt lat="47.34013" lon="-2.39258">
        <ele>5.4000000953674</ele>
        <time>2021-03-18T09:14:15.000Z</time>
      </trkpt>
      <trkpt lat="47.3402" lon="-2.39257">
        <ele>5</ele>
        <time>2021-03-18T09:14:16.000Z</time>
      </trkpt>
      <trkpt lat="47.34027" lon="-2.39255">
        <ele>4.5999999046326</ele>
        <time>2021-03-18T09:14:17.000Z</time>
      </trkpt>
      <trkpt lat="47.34034" lon="-2.39254">
        <ele>4.1999998092651</ele>
        <time>2021-03-18T09:14:18.000Z</time>
      </trkpt>
      <trkpt lat="47.34041" lon="-2.39255">
        <ele>4.1999998092651</ele>
        <time>2021-03-18T09:14:19.000Z</time>
      </trkpt>
      <trkpt lat="47.3406" lon="-2.39257">
        <ele>4.1999998092651</ele>
        <time>2021-03-18T09:14:22.000Z</time>
      </trkpt>
      <trkpt lat="47.34065" lon="-2.3926">
        <ele>3.7999999523163</ele>
        <time>2021-03-18T09:14:23.000Z</time>
      </trkpt>
      <trkpt lat="47.34067" lon="-2.39266">
        <ele>3.4000000953674</ele>
        <time>2021-03-18T09:14:24.000Z</time>
      </trkpt>
      <trkpt lat="47.34069" lon="-2.39272">
        <ele>3</ele>
        <time>2021-03-18T09:14:25.000Z</time>
      </trkpt>
      <trkpt lat="47.34071" lon="-2.3928">
        <ele>2.5999999046326</ele>
        <time>2021-03-18T09:14:26.000Z</time>
      </trkpt>
      <trkpt lat="47.34072" lon="-2.39288">
        <ele>2</ele>
        <time>2021-03-18T09:14:27.000Z</time>
      </trkpt>
      <trkpt lat="47.34075" lon="-2.39305">
        <ele>2</ele>
        <time>2021-03-18T09:14:29.000Z</time>
      </trkpt>
      <trkpt lat="47.34081" lon="-2.39358">
        <ele>2</ele>
        <time>2021-03-18T09:14:35.000Z</time>
      </trkpt>
      <trkpt lat="47.34088" lon="-2.39416">
        <ele>2</ele>
        <time>2021-03-18T09:14:42.000Z</time>
      </trkpt>
      <trkpt lat="47.34099" lon="-2.39432">
        <ele>2</ele>
        <time>2021-03-18T09:14:45.000Z</time>
      </trkpt>
      <trkpt lat="47.34114" lon="-2.39424">
        <ele>2</ele>
        <time>2021-03-18T09:14:48.000Z</time>
      </trkpt>
      <trkpt lat="47.3412" lon="-2.3942">
        <ele>2</ele>
        <time>2021-03-18T09:14:49.000Z</time>
      </trkpt>
      <trkpt lat="47.34136" lon="-2.39409">
        <ele>2.4000000953674</ele>
        <time>2021-03-18T09:14:52.000Z</time>
      </trkpt>
      <trkpt lat="47.34142" lon="-2.39406">
        <ele>2.7999999523163</ele>
        <time>2021-03-18T09:14:53.000Z</time>
      </trkpt>
      <trkpt lat="47.34147" lon="-2.39403">
        <ele>3.2000000476837</ele>
        <time>2021-03-18T09:14:54.000Z</time>
      </trkpt>
      <trkpt lat="47.34152" lon="-2.39399">
        <ele>3.5999999046326</ele>
        <time>2021-03-18T09:14:55.000Z</time>
      </trkpt>
      <trkpt lat="47.34156" lon="-2.39395">
        <ele>4.1999998092651</ele>
        <time>2021-03-18T09:14:56.000Z</time>
      </trkpt>
      <trkpt lat="47.34187" lon="-2.39373">
        <ele>4.1999998092651</ele>
        <time>2021-03-18T09:15:02.000Z</time>
      </trkpt>
      <trkpt lat="47.34222" lon="-2.39352">
        <ele>4.1999998092651</ele>
        <time>2021-03-18T09:15:08.000Z</time>
      </trkpt>
      <trkpt lat="47.34259" lon="-2.39328">
        <ele>4.1999998092651</ele>
        <time>2021-03-18T09:15:14.000Z</time>
      </trkpt>
      <trkpt lat="47.34298" lon="-2.39309">
        <ele>4.1999998092651</ele>
        <time>2021-03-18T09:15:21.000Z</time>
      </trkpt>
      <trkpt lat="47.34341" lon="-2.39286">
        <ele>3.5999999046326</ele>
        <time>2021-03-18T09:15:28.000Z</time>
      </trkpt>
      <trkpt lat="47.34347" lon="-2.39282">
        <ele>3.2000000476837</ele>
        <time>2021-03-18T09:15:29.000Z</time>
      </trkpt>
      <trkpt lat="47.34354" lon="-2.39279">
        <ele>2.7999999523163</ele>
        <time>2021-03-18T09:15:30.000Z</time>
      </trkpt>
      <trkpt lat="47.3436" lon="-2.39275">
        <ele>2.4000000953674</ele>
        <time>2021-03-18T09:15:31.000Z</time>
      </trkpt>
      <trkpt lat="47.34367" lon="-2.39272">
        <ele>2</ele>
        <time>2021-03-18T09:15:32.000Z</time>
      </trkpt>
      <trkpt lat="47.34374" lon="-2.39269">
        <ele>1.6000000238419</ele>
        <time>2021-03-18T09:15:33.000Z</time>
      </trkpt>
      <trkpt lat="47.34381" lon="-2.39266">
        <ele>1.2000000476837</ele>
        <time>2021-03-18T09:15:34.000Z</time>
      </trkpt>
      <trkpt lat="47.34387" lon="-2.39263">
        <ele>0.80000001192093</ele>
        <time>2021-03-18T09:15:35.000Z</time>
      </trkpt>
      <trkpt lat="47.34394" lon="-2.3926">
        <ele>0.40000000596046</ele>
        <time>2021-03-18T09:15:36.000Z</time>
      </trkpt>
      <trkpt lat="47.34401" lon="-2.39257">
        <ele>26.2</ele>
        <time>2021-03-18T09:15:37.000Z</time>
      </trkpt>
      <trkpt lat="47.34416" lon="-2.39253">
        <ele>-0.40000000596046</ele>
        <time>2021-03-18T09:15:39.000Z</time>
      </trkpt>
      <trkpt lat="47.34423" lon="-2.39251">
        <ele>-1</ele>
        <time>2021-03-18T09:15:40.000Z</time>
      </trkpt>
      <trkpt lat="47.3443" lon="-2.39249">
        <ele>-1.3999999761581</ele>
        <time>2021-03-18T09:15:41.000Z</time>
      </trkpt>
      <trkpt lat="47.34438" lon="-2.39248">
        <ele>-1.7999999523163</ele>
        <time>2021-03-18T09:15:42.000Z</time>
      </trkpt>
      <trkpt lat="47.34445" lon="-2.39246">
        <ele>-2.2000000476837</ele>
        <time>2021-03-18T09:15:43.000Z</time>
      </trkpt>
      <trkpt lat="47.34488" lon="-2.39234">
        <ele>-2.5999999046326</ele>
        <time>2021-03-18T09:15:49.000Z</time>
      </trkpt>
      <trkpt lat="47.34495" lon="-2.39232">
        <ele>-3</ele>
        <time>2021-03-18T09:15:50.000Z</time>
      </trkpt>
      <trkpt lat="47.34502" lon="-2.39229">
        <ele>-3.4000000953674</ele>
        <time>2021-03-18T09:15:51.000Z</time>
      </trkpt>
      <trkpt lat="47.34509" lon="-2.39228">
        <ele>-3.7999999523163</ele>
        <time>2021-03-18T09:15:52.000Z</time>
      </trkpt>
      <trkpt lat="47.34517" lon="-2.39227">
        <ele>-4.1999998092651</ele>
        <time>2021-03-18T09:15:53.000Z</time>
      </trkpt>
      <trkpt lat="47.34531" lon="-2.39226">
        <ele>-4.1999998092651</ele>
        <time>2021-03-18T09:15:55.000Z</time>
      </trkpt>
      <trkpt lat="47.34546" lon="-2.39228">
        <ele>-4.5999999046326</ele>
        <time>2021-03-18T09:15:57.000Z</time>
      </trkpt>
      <trkpt lat="47.34553" lon="-2.39229">
        <ele>-5</ele>
        <time>2021-03-18T09:15:58.000Z</time>
      </trkpt>
      <trkpt lat="47.3456" lon="-2.39231">
        <ele>-5.4000000953674</ele>
        <time>2021-03-18T09:15:59.000Z</time>
      </trkpt>
      <trkpt lat="47.34567" lon="-2.39234">
        <ele>-6</ele>
        <time>2021-03-18T09:16:00.000Z</time>
      </trkpt>
      <trkpt lat="47.34574" lon="-2.39238">
        <ele>-6.4000000953674</ele>
        <time>2021-03-18T09:16:01.000Z</time>
      </trkpt>
      <trkpt lat="47.3458" lon="-2.39242">
        <ele>-6.8000001907349</ele>
        <time>2021-03-18T09:16:02.000Z</time>
      </trkpt>
      <trkpt lat="47.34587" lon="-2.39246">
        <ele>-7.1999998092651</ele>
        <time>2021-03-18T09:16:03.000Z</time>
      </trkpt>
      <trkpt lat="47.34593" lon="-2.3925">
        <ele>-7.5999999046326</ele>
        <time>2021-03-18T09:16:04.000Z</time>
      </trkpt>
      <trkpt lat="47.34599" lon="-2.39255">
        <ele>-8</ele>
        <time>2021-03-18T09:16:05.000Z</time>
      </trkpt>
      <trkpt lat="47.34606" lon="-2.39259">
        <ele>-8.3999996185303</ele>
        <time>2021-03-18T09:16:06.000Z</time>
      </trkpt>
      <trkpt lat="47.34646" lon="-2.3929">
        <ele>-8.3999996185303</ele>
        <time>2021-03-18T09:16:13.000Z</time>
      </trkpt>
      <trkpt lat="47.34659" lon="-2.39305">
        <ele>-8.3999996185303</ele>
        <time>2021-03-18T09:16:16.000Z</time>
      </trkpt>
      <trkpt lat="47.34661" lon="-2.39318">
        <ele>-8.3999996185303</ele>
        <time>2021-03-18T09:16:18.000Z</time>
      </trkpt>
      <trkpt lat="47.34659" lon="-2.39323">
        <ele>-8.8000001907349</ele>
        <time>2021-03-18T09:16:19.000Z</time>
      </trkpt>
      <trkpt lat="47.34656" lon="-2.39328">
        <ele>-9.3999996185303</ele>
        <time>2021-03-18T09:16:20.000Z</time>
      </trkpt>
      <trkpt lat="47.34652" lon="-2.39332">
        <ele>-9.8000001907349</ele>
        <time>2021-03-18T09:16:21.000Z</time>
      </trkpt>
      <trkpt lat="47.34649" lon="-2.39336">
        <ele>-10.199999809265</ele>
        <time>2021-03-18T09:16:22.000Z</time>
      </trkpt>
      <trkpt lat="47.34645" lon="-2.39342">
        <ele>-10.60000038147</ele>
        <time>2021-03-18T09:16:23.000Z</time>
      </trkpt>
      <trkpt lat="47.34635" lon="-2.39359">
        <ele>-10.60000038147</ele>
        <time>2021-03-18T09:16:26.000Z</time>
      </trkpt>
      <trkpt lat="47.34613" lon="-2.39395">
        <ele>-10.60000038147</ele>
        <time>2021-03-18T09:16:32.000Z</time>
      </trkpt>
      <trkpt lat="47.34609" lon="-2.39401">
        <ele>-10.199999809265</ele>
        <time>2021-03-18T09:16:33.000Z</time>
      </trkpt>
      <trkpt lat="47.34606" lon="-2.39407">
        <ele>-9.8000001907349</ele>
        <time>2021-03-18T09:16:34.000Z</time>
      </trkpt>
      <trkpt lat="47.34603" lon="-2.39413">
        <ele>-9.3999996185303</ele>
        <time>2021-03-18T09:16:35.000Z</time>
      </trkpt>
      <trkpt lat="47.34599" lon="-2.39418">
        <ele>-9</ele>
        <time>2021-03-18T09:16:36.000Z</time>
      </trkpt>
      <trkpt lat="47.34596" lon="-2.39424">
        <ele>-8.6000003814697</ele>
        <time>2021-03-18T09:16:37.000Z</time>
      </trkpt>
      <trkpt lat="47.34592" lon="-2.39429">
        <ele>-8.6000003814697</ele>
        <time>2021-03-18T09:16:38.000Z</time>
      </trkpt>
      <trkpt lat="47.34568" lon="-2.39456">
        <ele>-8.6000003814697</ele>
        <time>2021-03-18T09:16:44.000Z</time>
      </trkpt>
      <trkpt lat="47.34564" lon="-2.39461">
        <ele>-8.6000003814697</ele>
        <time>2021-03-18T09:16:45.000Z</time>
      </trkpt>
      <trkpt lat="47.3456" lon="-2.39466">
        <ele>-8.6000003814697</ele>
        <time>2021-03-18T09:16:46.000Z</time>
      </trkpt>
      <trkpt lat="47.34554" lon="-2.39486">
        <ele>-8.1999998092651</ele>
        <time>2021-03-18T09:16:49.000Z</time>
      </trkpt>
      <trkpt lat="47.34553" lon="-2.39492">
        <ele>-7.4000000953674</ele>
        <time>2021-03-18T09:16:50.000Z</time>
      </trkpt>
      <trkpt lat="47.34552" lon="-2.395">
        <ele>-6.8000001907349</ele>
        <time>2021-03-18T09:16:51.000Z</time>
      </trkpt>
      <trkpt lat="47.34551" lon="-2.39507">
        <ele>-6.4000000953674</ele>
        <time>2021-03-18T09:16:52.000Z</time>
      </trkpt>
      <trkpt lat="47.3455" lon="-2.3952">
        <ele>-6.4000000953674</ele>
        <time>2021-03-18T09:16:54.000Z</time>
      </trkpt>
      <trkpt lat="47.34543" lon="-2.39553">
        <ele>-6.4000000953674</ele>
        <time>2021-03-18T09:16:59.000Z</time>
      </trkpt>
      <trkpt lat="47.34541" lon="-2.39559">
        <ele>-6.4000000953674</ele>
        <time>2021-03-18T09:17:00.000Z</time>
      </trkpt>
      <trkpt lat="47.34532" lon="-2.39584">
        <ele>-6.4000000953674</ele>
        <time>2021-03-18T09:17:04.000Z</time>
      </trkpt>
      <trkpt lat="47.34526" lon="-2.39596">
        <ele>-6</ele>
        <time>2021-03-18T09:17:06.000Z</time>
      </trkpt>
      <trkpt lat="47.34523" lon="-2.39602">
        <ele>-5.5999999046326</ele>
        <time>2021-03-18T09:17:07.000Z</time>
      </trkpt>
      <trkpt lat="47.3452" lon="-2.39608">
        <ele>-5.1999998092651</ele>
        <time>2021-03-18T09:17:08.000Z</time>
      </trkpt>
      <trkpt lat="47.34517" lon="-2.39615">
        <ele>-4.8000001907349</ele>
        <time>2021-03-18T09:17:09.000Z</time>
      </trkpt>
      <trkpt lat="47.34515" lon="-2.39622">
        <ele>-4.4000000953674</ele>
        <time>2021-03-18T09:17:10.000Z</time>
      </trkpt>
      <trkpt lat="47.34509" lon="-2.39634">
        <ele>-4.4000000953674</ele>
        <time>2021-03-18T09:17:12.000Z</time>
      </trkpt>
      <trkpt lat="47.34487" lon="-2.39674">
        <ele>-4.4000000953674</ele>
        <time>2021-03-18T09:17:18.000Z</time>
      </trkpt>
      <trkpt lat="47.3448" lon="-2.39689">
        <ele>-4.4000000953674</ele>
        <time>2021-03-18T09:17:20.000Z</time>
      </trkpt>
      <trkpt lat="47.34475" lon="-2.39707">
        <ele>-4.4000000953674</ele>
        <time>2021-03-18T09:17:22.000Z</time>
      </trkpt>
      <trkpt lat="47.34474" lon="-2.39716">
        <ele>-4.4000000953674</ele>
        <time>2021-03-18T09:17:23.000Z</time>
      </trkpt>
      <trkpt lat="47.34469" lon="-2.39752">
        <ele>-4.4000000953674</ele>
        <time>2021-03-18T09:17:27.000Z</time>
      </trkpt>
      <trkpt lat="47.34472" lon="-2.39766">
        <ele>-4.4000000953674</ele>
        <time>2021-03-18T09:17:29.000Z</time>
      </trkpt>
      <trkpt lat="47.34476" lon="-2.39771">
        <ele>-4.4000000953674</ele>
        <time>2021-03-18T09:17:30.000Z</time>
      </trkpt>
      <trkpt lat="47.3451" lon="-2.39783">
        <ele>-4.4000000953674</ele>
        <time>2021-03-18T09:17:37.000Z</time>
      </trkpt>
      <trkpt lat="47.34539" lon="-2.39805">
        <ele>-4.4000000953674</ele>
        <time>2021-03-18T09:17:43.000Z</time>
      </trkpt>
      <trkpt lat="47.34574" lon="-2.39839">
        <ele>-4.4000000953674</ele>
        <time>2021-03-18T09:17:51.000Z</time>
      </trkpt>
      <trkpt lat="47.34608" lon="-2.39859">
        <ele>-4.4000000953674</ele>
        <time>2021-03-18T09:17:58.000Z</time>
      </trkpt>
      <trkpt lat="47.34612" lon="-2.39862">
        <ele>-4.4000000953674</ele>
        <time>2021-03-18T09:17:59.000Z</time>
      </trkpt>
      <trkpt lat="47.34619" lon="-2.39874">
        <ele>-4.8000001907349</ele>
        <time>2021-03-18T09:18:01.000Z</time>
      </trkpt>
      <trkpt lat="47.34619" lon="-2.39879">
        <ele>-5.4000000953674</ele>
        <time>2021-03-18T09:18:02.000Z</time>
      </trkpt>
      <trkpt lat="47.34618" lon="-2.39885">
        <ele>-5.8000001907349</ele>
        <time>2021-03-18T09:18:03.000Z</time>
      </trkpt>
      <trkpt lat="47.34616" lon="-2.39892">
        <ele>-6.8000001907349</ele>
        <time>2021-03-18T09:18:04.000Z</time>
      </trkpt>
      <trkpt lat="47.34614" lon="-2.39898">
        <ele>-6.8000001907349</ele>
        <time>2021-03-18T09:18:05.000Z</time>
      </trkpt>
      <trkpt lat="47.34604" lon="-2.39917">
        <ele>-6.8000001907349</ele>
        <time>2021-03-18T09:18:09.000Z</time>
      </trkpt>
      <trkpt lat="47.34597" lon="-2.39937">
        <ele>-6.8000001907349</ele>
        <time>2021-03-18T09:18:15.000Z</time>
      </trkpt>
      <trkpt lat="47.34597" lon="-2.39942">
        <ele>-6.8000001907349</ele>
        <time>2021-03-18T09:18:18.000Z</time>
      </trkpt>
      <trkpt lat="47.34596" lon="-2.39948">
        <ele>-6.8000001907349</ele>
        <time>2021-03-18T09:18:21.000Z</time>
      </trkpt>
      <trkpt lat="47.34596" lon="-2.39963">
        <ele>-6.8000001907349</ele>
        <time>2021-03-18T09:18:27.000Z</time>
      </trkpt>
      <trkpt lat="47.34595" lon="-2.39969">
        <ele>-6.8000001907349</ele>
        <time>2021-03-18T09:18:29.000Z</time>
      </trkpt>
      <trkpt lat="47.34592" lon="-2.39976">
        <ele>-6.8000001907349</ele>
        <time>2021-03-18T09:18:32.000Z</time>
      </trkpt>
      <trkpt lat="47.34591" lon="-2.39978">
        <ele>-6.8000001907349</ele>
        <time>2021-03-18T09:18:34.000Z</time>
      </trkpt>
      <trkpt lat="47.34588" lon="-2.39987">
        <ele>-6.8000001907349</ele>
        <time>2021-03-18T09:18:46.000Z</time>
      </trkpt>
      <trkpt lat="47.34587" lon="-2.39989">
        <ele>-6.8000001907349</ele>
        <time>2021-03-18T09:18:47.000Z</time>
      </trkpt>
      <trkpt lat="47.34581" lon="-2.39996">
        <ele>-6.8000001907349</ele>
        <time>2021-03-18T09:18:53.000Z</time>
      </trkpt>
      <trkpt lat="47.34581" lon="-2.39996">
        <ele>-6.8000001907349</ele>
        <time>2021-03-18T09:18:54.000Z</time>
      </trkpt>
      <trkpt lat="47.34581" lon="-2.39994">
        <ele>-6.8000001907349</ele>
        <time>2021-03-18T09:19:07.000Z</time>
      </trkpt>
      <trkpt lat="47.34584" lon="-2.39995">
        <ele>-6.8000001907349</ele>
        <time>2021-03-18T09:19:09.000Z</time>
      </trkpt>
      <trkpt lat="47.34596" lon="-2.40007">
        <ele>-6.8000001907349</ele>
        <time>2021-03-18T09:19:16.000Z</time>
      </trkpt>
      <trkpt lat="47.34607" lon="-2.40022">
        <ele>-6.8000001907349</ele>
        <time>2021-03-18T09:19:21.000Z</time>
      </trkpt>
      <trkpt lat="47.34625" lon="-2.40051">
        <ele>-6.8000001907349</ele>
        <time>2021-03-18T09:19:27.000Z</time>
      </trkpt>
      <trkpt lat="47.34652" lon="-2.40095">
        <ele>-6.8000001907349</ele>
        <time>2021-03-18T09:19:35.000Z</time>
      </trkpt>
      <trkpt lat="47.34655" lon="-2.40101">
        <ele>-6.8000001907349</ele>
        <time>2021-03-18T09:19:36.000Z</time>
      </trkpt>
      <trkpt lat="47.34667" lon="-2.40114">
        <ele>-6.8000001907349</ele>
        <time>2021-03-18T09:19:39.000Z</time>
      </trkpt>
      <trkpt lat="47.34671" lon="-2.40117">
        <ele>-6.8000001907349</ele>
        <time>2021-03-18T09:19:40.000Z</time>
      </trkpt>
      <trkpt lat="47.34679" lon="-2.40122">
        <ele>-6.8000001907349</ele>
        <time>2021-03-18T09:19:42.000Z</time>
      </trkpt>
      <trkpt lat="47.34693" lon="-2.40126">
        <ele>-6.8000001907349</ele>
        <time>2021-03-18T09:19:45.000Z</time>
      </trkpt>
      <trkpt lat="47.34698" lon="-2.40127">
        <ele>-6.8000001907349</ele>
        <time>2021-03-18T09:19:46.000Z</time>
      </trkpt>
      <trkpt lat="47.34733" lon="-2.4014">
        <ele>-6.8000001907349</ele>
        <time>2021-03-18T09:19:54.000Z</time>
      </trkpt>
      <trkpt lat="47.34751" lon="-2.40164">
        <ele>-6.8000001907349</ele>
        <time>2021-03-18T09:20:00.000Z</time>
      </trkpt>
      <trkpt lat="47.34774" lon="-2.402">
        <ele>-6.8000001907349</ele>
        <time>2021-03-18T09:20:08.000Z</time>
      </trkpt>
      <trkpt lat="47.34782" lon="-2.40207">
        <ele>-6.8000001907349</ele>
        <time>2021-03-18T09:20:10.000Z</time>
      </trkpt>
      <trkpt lat="47.34794" lon="-2.40214">
        <ele>-6.8000001907349</ele>
        <time>2021-03-18T09:20:13.000Z</time>
      </trkpt>
      <trkpt lat="47.34798" lon="-2.40216">
        <ele>-6.8000001907349</ele>
        <time>2021-03-18T09:20:14.000Z</time>
      </trkpt>
      <trkpt lat="47.34804" lon="-2.40226">
        <ele>-7.1999998092651</ele>
        <time>2021-03-18T09:20:16.000Z</time>
      </trkpt>
      <trkpt lat="47.34806" lon="-2.40233">
        <ele>-7.8000001907349</ele>
        <time>2021-03-18T09:20:17.000Z</time>
      </trkpt>
      <trkpt lat="47.34809" lon="-2.4024">
        <ele>-8.1999998092651</ele>
        <time>2021-03-18T09:20:18.000Z</time>
      </trkpt>
      <trkpt lat="47.34812" lon="-2.40246">
        <ele>-8.8000001907349</ele>
        <time>2021-03-18T09:20:19.000Z</time>
      </trkpt>
      <trkpt lat="47.34815" lon="-2.40253">
        <ele>-9.1999998092651</ele>
        <time>2021-03-18T09:20:20.000Z</time>
      </trkpt>
      <trkpt lat="47.34824" lon="-2.40271">
        <ele>-9.1999998092651</ele>
        <time>2021-03-18T09:20:23.000Z</time>
      </trkpt>
      <trkpt lat="47.34851" lon="-2.40321">
        <ele>-10</ele>
        <time>2021-03-18T09:20:32.000Z</time>
      </trkpt>
      <trkpt lat="47.34854" lon="-2.40328">
        <ele>-10.39999961853</ele>
        <time>2021-03-18T09:20:33.000Z</time>
      </trkpt>
      <trkpt lat="47.34857" lon="-2.40334">
        <ele>-10.800000190735</ele>
        <time>2021-03-18T09:20:34.000Z</time>
      </trkpt>
      <trkpt lat="47.34859" lon="-2.4034">
        <ele>-11.199999809265</ele>
        <time>2021-03-18T09:20:35.000Z</time>
      </trkpt>
      <trkpt lat="47.34865" lon="-2.40367">
        <ele>-11.199999809265</ele>
        <time>2021-03-18T09:20:39.000Z</time>
      </trkpt>
      <trkpt lat="47.34874" lon="-2.40432">
        <ele>-11.800000190735</ele>
        <time>2021-03-18T09:20:48.000Z</time>
      </trkpt>
      <trkpt lat="47.34875" lon="-2.40439">
        <ele>-12.199999809265</ele>
        <time>2021-03-18T09:20:49.000Z</time>
      </trkpt>
      <trkpt lat="47.34876" lon="-2.40447">
        <ele>-12.60000038147</ele>
        <time>2021-03-18T09:20:50.000Z</time>
      </trkpt>
      <trkpt lat="47.34877" lon="-2.40455">
        <ele>-13</ele>
        <time>2021-03-18T09:20:51.000Z</time>
      </trkpt>
      <trkpt lat="47.34878" lon="-2.40463">
        <ele>-13.39999961853</ele>
        <time>2021-03-18T09:20:52.000Z</time>
      </trkpt>
      <trkpt lat="47.34884" lon="-2.40496">
        <ele>-13.39999961853</ele>
        <time>2021-03-18T09:20:56.000Z</time>
      </trkpt>
      <trkpt lat="47.34889" lon="-2.40523">
        <ele>-13.800000190735</ele>
        <time>2021-03-18T09:20:59.000Z</time>
      </trkpt>
      <trkpt lat="47.3489" lon="-2.40532">
        <ele>-14.199999809265</ele>
        <time>2021-03-18T09:21:00.000Z</time>
      </trkpt>
      <trkpt lat="47.3489" lon="-2.40541">
        <ele>-14.60000038147</ele>
        <time>2021-03-18T09:21:01.000Z</time>
      </trkpt>
      <trkpt lat="47.34889" lon="-2.40549">
        <ele>-15.199999809265</ele>
        <time>2021-03-18T09:21:02.000Z</time>
      </trkpt>
      <trkpt lat="47.34887" lon="-2.40556">
        <ele>-15.60000038147</ele>
        <time>2021-03-18T09:21:03.000Z</time>
      </trkpt>
      <trkpt lat="47.34884" lon="-2.40562">
        <ele>-15.60000038147</ele>
        <time>2021-03-18T09:21:04.000Z</time>
      </trkpt>
      <trkpt lat="47.34868" lon="-2.40584">
        <ele>-15.60000038147</ele>
        <time>2021-03-18T09:21:08.000Z</time>
      </trkpt>
      <trkpt lat="47.34864" lon="-2.40589">
        <ele>-15.60000038147</ele>
        <time>2021-03-18T09:21:09.000Z</time>
      </trkpt>
      <trkpt lat="47.34842" lon="-2.40615">
        <ele>-15.60000038147</ele>
        <time>2021-03-18T09:21:14.000Z</time>
      </trkpt>
      <trkpt lat="47.3484" lon="-2.40621">
        <ele>-15.60000038147</ele>
        <time>2021-03-18T09:21:15.000Z</time>
      </trkpt>
      <trkpt lat="47.34826" lon="-2.40673">
        <ele>-15.60000038147</ele>
        <time>2021-03-18T09:21:22.000Z</time>
      </trkpt>
      <trkpt lat="47.34822" lon="-2.40717">
        <ele>-15.60000038147</ele>
        <time>2021-03-18T09:21:28.000Z</time>
      </trkpt>
      <trkpt lat="47.34823" lon="-2.40725">
        <ele>-15.60000038147</ele>
        <time>2021-03-18T09:21:29.000Z</time>
      </trkpt>
      <trkpt lat="47.34826" lon="-2.40745">
        <ele>-15.199999809265</ele>
        <time>2021-03-18T09:21:32.000Z</time>
      </trkpt>
      <trkpt lat="47.34827" lon="-2.40752">
        <ele>-14.800000190735</ele>
        <time>2021-03-18T09:21:33.000Z</time>
      </trkpt>
      <trkpt lat="47.34829" lon="-2.40758">
        <ele>-14.39999961853</ele>
        <time>2021-03-18T09:21:34.000Z</time>
      </trkpt>
      <trkpt lat="47.34831" lon="-2.40764">
        <ele>-14</ele>
        <time>2021-03-18T09:21:35.000Z</time>
      </trkpt>
      <trkpt lat="47.34834" lon="-2.40769">
        <ele>-13.60000038147</ele>
        <time>2021-03-18T09:21:36.000Z</time>
      </trkpt>
      <trkpt lat="47.34843" lon="-2.40775">
        <ele>-13.60000038147</ele>
        <time>2021-03-18T09:21:38.000Z</time>
      </trkpt>
      <trkpt lat="47.34858" lon="-2.40777">
        <ele>-13.60000038147</ele>
        <time>2021-03-18T09:21:41.000Z</time>
      </trkpt>
      <trkpt lat="47.34868" lon="-2.40776">
        <ele>-13.60000038147</ele>
        <time>2021-03-18T09:21:43.000Z</time>
      </trkpt>
      <trkpt lat="47.34892" lon="-2.40779">
        <ele>-13.60000038147</ele>
        <time>2021-03-18T09:21:49.000Z</time>
      </trkpt>
      <trkpt lat="47.34905" lon="-2.40799">
        <ele>-13.60000038147</ele>
        <time>2021-03-18T09:21:53.000Z</time>
      </trkpt>
      <trkpt lat="47.34923" lon="-2.40838">
        <ele>-13.60000038147</ele>
        <time>2021-03-18T09:21:59.000Z</time>
      </trkpt>
      <trkpt lat="47.3493" lon="-2.40858">
        <ele>-13.60000038147</ele>
        <time>2021-03-18T09:22:02.000Z</time>
      </trkpt>
      <trkpt lat="47.34935" lon="-2.4088">
        <ele>-13.60000038147</ele>
        <time>2021-03-18T09:22:05.000Z</time>
      </trkpt>
      <trkpt lat="47.34938" lon="-2.40895">
        <ele>-13.60000038147</ele>
        <time>2021-03-18T09:22:07.000Z</time>
      </trkpt>
      <trkpt lat="47.3494" lon="-2.40926">
        <ele>-13.60000038147</ele>
        <time>2021-03-18T09:22:11.000Z</time>
      </trkpt>
      <trkpt lat="47.34941" lon="-2.40934">
        <ele>-13.60000038147</ele>
        <time>2021-03-18T09:22:12.000Z</time>
      </trkpt>
      <trkpt lat="47.34938" lon="-2.4098">
        <ele>-13.60000038147</ele>
        <time>2021-03-18T09:22:18.000Z</time>
      </trkpt>
      <trkpt lat="47.34933" lon="-2.41028">
        <ele>-13.60000038147</ele>
        <time>2021-03-18T09:22:24.000Z</time>
      </trkpt>
      <trkpt lat="47.34933" lon="-2.41037">
        <ele>-13.60000038147</ele>
        <time>2021-03-18T09:22:25.000Z</time>
      </trkpt>
      <trkpt lat="47.34941" lon="-2.41069">
        <ele>-13.60000038147</ele>
        <time>2021-03-18T09:22:29.000Z</time>
      </trkpt>
      <trkpt lat="47.34944" lon="-2.41077">
        <ele>-13.60000038147</ele>
        <time>2021-03-18T09:22:30.000Z</time>
      </trkpt>
      <trkpt lat="47.34963" lon="-2.41127">
        <ele>-13.60000038147</ele>
        <time>2021-03-18T09:22:36.000Z</time>
      </trkpt>
      <trkpt lat="47.34987" lon="-2.4118">
        <ele>-13.60000038147</ele>
        <time>2021-03-18T09:22:43.000Z</time>
      </trkpt>
      <trkpt lat="47.35005" lon="-2.41223">
        <ele>-13.60000038147</ele>
        <time>2021-03-18T09:22:49.000Z</time>
      </trkpt>
      <trkpt lat="47.35008" lon="-2.4123">
        <ele>-13.60000038147</ele>
        <time>2021-03-18T09:22:50.000Z</time>
      </trkpt>
      <trkpt lat="47.35027" lon="-2.41272">
        <ele>-13.60000038147</ele>
        <time>2021-03-18T09:22:56.000Z</time>
      </trkpt>
      <trkpt lat="47.3505" lon="-2.41332">
        <ele>-13.60000038147</ele>
        <time>2021-03-18T09:23:04.000Z</time>
      </trkpt>
      <trkpt lat="47.35068" lon="-2.41376">
        <ele>-13.60000038147</ele>
        <time>2021-03-18T09:23:10.000Z</time>
      </trkpt>
      <trkpt lat="47.35076" lon="-2.41397">
        <ele>-13.60000038147</ele>
        <time>2021-03-18T09:23:13.000Z</time>
      </trkpt>
      <trkpt lat="47.35084" lon="-2.41404">
        <ele>-13.60000038147</ele>
        <time>2021-03-18T09:23:15.000Z</time>
      </trkpt>
      <trkpt lat="47.35098" lon="-2.41398">
        <ele>-13.60000038147</ele>
        <time>2021-03-18T09:23:18.000Z</time>
      </trkpt>
      <trkpt lat="47.35119" lon="-2.41386">
        <ele>-13.60000038147</ele>
        <time>2021-03-18T09:23:22.000Z</time>
      </trkpt>
      <trkpt lat="47.35125" lon="-2.41383">
        <ele>-13.60000038147</ele>
        <time>2021-03-18T09:23:23.000Z</time>
      </trkpt>
      <trkpt lat="47.3516" lon="-2.41361">
        <ele>-13.60000038147</ele>
        <time>2021-03-18T09:23:29.000Z</time>
      </trkpt>
      <trkpt lat="47.35178" lon="-2.41354">
        <ele>-13.60000038147</ele>
        <time>2021-03-18T09:23:32.000Z</time>
      </trkpt>
      <trkpt lat="47.3519" lon="-2.41356">
        <ele>-13.60000038147</ele>
        <time>2021-03-18T09:23:34.000Z</time>
      </trkpt>
      <trkpt lat="47.35195" lon="-2.4136">
        <ele>-14</ele>
        <time>2021-03-18T09:23:35.000Z</time>
      </trkpt>
      <trkpt lat="47.352" lon="-2.41366">
        <ele>-14.39999961853</ele>
        <time>2021-03-18T09:23:36.000Z</time>
      </trkpt>
      <trkpt lat="47.35204" lon="-2.41372">
        <ele>-14.800000190735</ele>
        <time>2021-03-18T09:23:37.000Z</time>
      </trkpt>
      <trkpt lat="47.35209" lon="-2.41379">
        <ele>-15.39999961853</ele>
        <time>2021-03-18T09:23:38.000Z</time>
      </trkpt>
      <trkpt lat="47.35213" lon="-2.41385">
        <ele>-15.800000190735</ele>
        <time>2021-03-18T09:23:39.000Z</time>
      </trkpt>
      <trkpt lat="47.35229" lon="-2.41412">
        <ele>-15.800000190735</ele>
        <time>2021-03-18T09:23:43.000Z</time>
      </trkpt>
      <trkpt lat="47.3525" lon="-2.41442">
        <ele>-15.800000190735</ele>
        <time>2021-03-18T09:23:48.000Z</time>
      </trkpt>
      <trkpt lat="47.35255" lon="-2.41445">
        <ele>-15.800000190735</ele>
        <time>2021-03-18T09:23:49.000Z</time>
      </trkpt>
      <trkpt lat="47.35269" lon="-2.41444">
        <ele>-15.800000190735</ele>
        <time>2021-03-18T09:23:52.000Z</time>
      </trkpt>
      <trkpt lat="47.35284" lon="-2.41434">
        <ele>-15.800000190735</ele>
        <time>2021-03-18T09:23:55.000Z</time>
      </trkpt>
      <trkpt lat="47.35289" lon="-2.41429">
        <ele>-15.800000190735</ele>
        <time>2021-03-18T09:23:56.000Z</time>
      </trkpt>
      <trkpt lat="47.35308" lon="-2.41397">
        <ele>-15.800000190735</ele>
        <time>2021-03-18T09:24:01.000Z</time>
      </trkpt>
      <trkpt lat="47.35343" lon="-2.41342">
        <ele>-15.800000190735</ele>
        <time>2021-03-18T09:24:09.000Z</time>
      </trkpt>
      <trkpt lat="47.35356" lon="-2.41323">
        <ele>-15.800000190735</ele>
        <time>2021-03-18T09:24:12.000Z</time>
      </trkpt>
      <trkpt lat="47.35367" lon="-2.41306">
        <ele>-15.800000190735</ele>
        <time>2021-03-18T09:24:15.000Z</time>
      </trkpt>
      <trkpt lat="47.35384" lon="-2.41287">
        <ele>-15.800000190735</ele>
        <time>2021-03-18T09:24:20.000Z</time>
      </trkpt>
      <trkpt lat="47.3539" lon="-2.41283">
        <ele>-15.800000190735</ele>
        <time>2021-03-18T09:24:23.000Z</time>
      </trkpt>
      <trkpt lat="47.35391" lon="-2.41283">
        <ele>-15.800000190735</ele>
        <time>2021-03-18T09:24:24.000Z</time>
      </trkpt>
      <trkpt lat="47.35391" lon="-2.41283">
        <ele>-15.800000190735</ele>
        <time>2021-03-18T09:24:25.000Z</time>
      </trkpt>
      <trkpt lat="47.35394" lon="-2.41281">
        <ele>-15.800000190735</ele>
        <time>2021-03-18T09:30:02.000Z</time>
      </trkpt>
      <trkpt lat="47.35398" lon="-2.41278">
        <ele>-15.800000190735</ele>
        <time>2021-03-18T09:30:05.000Z</time>
      </trkpt>
      <trkpt lat="47.35411" lon="-2.41266">
        <ele>-15.800000190735</ele>
        <time>2021-03-18T09:30:10.000Z</time>
      </trkpt>
      <trkpt lat="47.35422" lon="-2.41251">
        <ele>-15.800000190735</ele>
        <time>2021-03-18T09:30:13.000Z</time>
      </trkpt>
      <trkpt lat="47.3543" lon="-2.41238">
        <ele>-15.800000190735</ele>
        <time>2021-03-18T09:30:15.000Z</time>
      </trkpt>
      <trkpt lat="47.35452" lon="-2.41206">
        <ele>-15.800000190735</ele>
        <time>2021-03-18T09:30:21.000Z</time>
      </trkpt>
      <trkpt lat="47.35457" lon="-2.41201">
        <ele>-15.800000190735</ele>
        <time>2021-03-18T09:30:22.000Z</time>
      </trkpt>
      <trkpt lat="47.35497" lon="-2.41171">
        <ele>-15.800000190735</ele>
        <time>2021-03-18T09:30:30.000Z</time>
      </trkpt>
      <trkpt lat="47.35527" lon="-2.41148">
        <ele>-15.800000190735</ele>
        <time>2021-03-18T09:30:36.000Z</time>
      </trkpt>
      <trkpt lat="47.35532" lon="-2.41145">
        <ele>-15.800000190735</ele>
        <time>2021-03-18T09:30:37.000Z</time>
      </trkpt>
      <trkpt lat="47.35569" lon="-2.41119">
        <ele>-15.800000190735</ele>
        <time>2021-03-18T09:30:44.000Z</time>
      </trkpt>
      <trkpt lat="47.3558" lon="-2.41109">
        <ele>-15.800000190735</ele>
        <time>2021-03-18T09:30:46.000Z</time>
      </trkpt>
      <trkpt lat="47.35589" lon="-2.41098">
        <ele>-15.800000190735</ele>
        <time>2021-03-18T09:30:48.000Z</time>
      </trkpt>
      <trkpt lat="47.35625" lon="-2.41056">
        <ele>-15.800000190735</ele>
        <time>2021-03-18T09:30:56.000Z</time>
      </trkpt>
      <trkpt lat="47.35653" lon="-2.41021">
        <ele>-15.800000190735</ele>
        <time>2021-03-18T09:31:02.000Z</time>
      </trkpt>
      <trkpt lat="47.3567" lon="-2.40997">
        <ele>-15.800000190735</ele>
        <time>2021-03-18T09:31:06.000Z</time>
      </trkpt>
      <trkpt lat="47.35678" lon="-2.40985">
        <ele>-15.800000190735</ele>
        <time>2021-03-18T09:31:08.000Z</time>
      </trkpt>
      <trkpt lat="47.35703" lon="-2.40948">
        <ele>-15.800000190735</ele>
        <time>2021-03-18T09:31:15.000Z</time>
      </trkpt>
      <trkpt lat="47.35726" lon="-2.40913">
        <ele>-15.800000190735</ele>
        <time>2021-03-18T09:31:21.000Z</time>
      </trkpt>
      <trkpt lat="47.35761" lon="-2.40866">
        <ele>-15.800000190735</ele>
        <time>2021-03-18T09:31:29.000Z</time>
      </trkpt>
      <trkpt lat="47.35789" lon="-2.40822">
        <ele>-15.800000190735</ele>
        <time>2021-03-18T09:31:36.000Z</time>
      </trkpt>
      <trkpt lat="47.35813" lon="-2.40786">
        <ele>-15.800000190735</ele>
        <time>2021-03-18T09:31:42.000Z</time>
      </trkpt>
      <trkpt lat="47.35843" lon="-2.40742">
        <ele>-15.800000190735</ele>
        <time>2021-03-18T09:31:50.000Z</time>
      </trkpt>
      <trkpt lat="47.3585" lon="-2.40728">
        <ele>-15.800000190735</ele>
        <time>2021-03-18T09:31:52.000Z</time>
      </trkpt>
      <trkpt lat="47.35853" lon="-2.40712">
        <ele>-15.800000190735</ele>
        <time>2021-03-18T09:31:54.000Z</time>
      </trkpt>
      <trkpt lat="47.35855" lon="-2.40696">
        <ele>-15.800000190735</ele>
        <time>2021-03-18T09:31:56.000Z</time>
      </trkpt>
      <trkpt lat="47.35862" lon="-2.40674">
        <ele>-15.800000190735</ele>
        <time>2021-03-18T09:31:59.000Z</time>
      </trkpt>
      <trkpt lat="47.35865" lon="-2.40668">
        <ele>-15.800000190735</ele>
        <time>2021-03-18T09:32:00.000Z</time>
      </trkpt>
      <trkpt lat="47.35885" lon="-2.40629">
        <ele>-15.800000190735</ele>
        <time>2021-03-18T09:32:06.000Z</time>
      </trkpt>
      <trkpt lat="47.35911" lon="-2.40586">
        <ele>-15.800000190735</ele>
        <time>2021-03-18T09:32:13.000Z</time>
      </trkpt>
      <trkpt lat="47.35946" lon="-2.40539">
        <ele>-15.800000190735</ele>
        <time>2021-03-18T09:32:21.000Z</time>
      </trkpt>
      <trkpt lat="47.3595" lon="-2.40533">
        <ele>-15.800000190735</ele>
        <time>2021-03-18T09:32:22.000Z</time>
      </trkpt>
      <trkpt lat="47.35972" lon="-2.40502">
        <ele>-15.800000190735</ele>
        <time>2021-03-18T09:32:27.000Z</time>
      </trkpt>
      <trkpt lat="47.35998" lon="-2.40469">
        <ele>-15.800000190735</ele>
        <time>2021-03-18T09:32:33.000Z</time>
      </trkpt>
      <trkpt lat="47.36018" lon="-2.4044">
        <ele>-15.800000190735</ele>
        <time>2021-03-18T09:32:39.000Z</time>
      </trkpt>
      <trkpt lat="47.3602" lon="-2.40433">
        <ele>-16.200000762939</ele>
        <time>2021-03-18T09:32:41.000Z</time>
      </trkpt>
      <trkpt lat="47.36021" lon="-2.4043">
        <ele>-16.60000038147</ele>
        <time>2021-03-18T09:32:42.000Z</time>
      </trkpt>
      <trkpt lat="47.36023" lon="-2.40428">
        <ele>-17</ele>
        <time>2021-03-18T09:32:43.000Z</time>
      </trkpt>
      <trkpt lat="47.36023" lon="-2.40425">
        <ele>-17.39999961853</ele>
        <time>2021-03-18T09:32:44.000Z</time>
      </trkpt>
      <trkpt lat="47.36024" lon="-2.40421">
        <ele>-17.799999237061</ele>
        <time>2021-03-18T09:32:45.000Z</time>
      </trkpt>
      <trkpt lat="47.36025" lon="-2.40403">
        <ele>-17.799999237061</ele>
        <time>2021-03-18T09:32:50.000Z</time>
      </trkpt>
      <trkpt lat="47.36024" lon="-2.40373">
        <ele>-17.799999237061</ele>
        <time>2021-03-18T09:32:55.000Z</time>
      </trkpt>
      <trkpt lat="47.36025" lon="-2.40366">
        <ele>-17.799999237061</ele>
        <time>2021-03-18T09:32:56.000Z</time>
      </trkpt>
      <trkpt lat="47.3603" lon="-2.40339">
        <ele>-17.799999237061</ele>
        <time>2021-03-18T09:33:00.000Z</time>
      </trkpt>
      <trkpt lat="47.36032" lon="-2.40333">
        <ele>-17.799999237061</ele>
        <time>2021-03-18T09:33:01.000Z</time>
      </trkpt>
      <trkpt lat="47.36042" lon="-2.40314">
        <ele>-17.799999237061</ele>
        <time>2021-03-18T09:33:05.000Z</time>
      </trkpt>
      <trkpt lat="47.36068" lon="-2.40285">
        <ele>-17.799999237061</ele>
        <time>2021-03-18T09:33:12.000Z</time>
      </trkpt>
      <trkpt lat="47.36089" lon="-2.40264">
        <ele>-17.799999237061</ele>
        <time>2021-03-18T09:33:17.000Z</time>
      </trkpt>
      <trkpt lat="47.36107" lon="-2.40252">
        <ele>-17.799999237061</ele>
        <time>2021-03-18T09:33:21.000Z</time>
      </trkpt>
      <trkpt lat="47.36111" lon="-2.40248">
        <ele>-17.799999237061</ele>
        <time>2021-03-18T09:33:22.000Z</time>
      </trkpt>
      <trkpt lat="47.3612" lon="-2.40242">
        <ele>-17.799999237061</ele>
        <time>2021-03-18T09:33:24.000Z</time>
      </trkpt>
      <trkpt lat="47.36129" lon="-2.40236">
        <ele>-17.799999237061</ele>
        <time>2021-03-18T09:33:26.000Z</time>
      </trkpt>
      <trkpt lat="47.36133" lon="-2.40232">
        <ele>-17.39999961853</ele>
        <time>2021-03-18T09:33:27.000Z</time>
      </trkpt>
      <trkpt lat="47.36137" lon="-2.40229">
        <ele>-17</ele>
        <time>2021-03-18T09:33:28.000Z</time>
      </trkpt>
      <trkpt lat="47.36141" lon="-2.40225">
        <ele>-16.39999961853</ele>
        <time>2021-03-18T09:33:29.000Z</time>
      </trkpt>
      <trkpt lat="47.36145" lon="-2.40222">
        <ele>-16</ele>
        <time>2021-03-18T09:33:30.000Z</time>
      </trkpt>
      <trkpt lat="47.36149" lon="-2.40219">
        <ele>-15.60000038147</ele>
        <time>2021-03-18T09:33:31.000Z</time>
      </trkpt>
      <trkpt lat="47.36161" lon="-2.40209">
        <ele>-15.60000038147</ele>
        <time>2021-03-18T09:33:34.000Z</time>
      </trkpt>
      <trkpt lat="47.36185" lon="-2.4019">
        <ele>-15.60000038147</ele>
        <time>2021-03-18T09:33:39.000Z</time>
      </trkpt>
      <trkpt lat="47.36189" lon="-2.40186">
        <ele>-15.60000038147</ele>
        <time>2021-03-18T09:33:40.000Z</time>
      </trkpt>
      <trkpt lat="47.36215" lon="-2.40156">
        <ele>-15.60000038147</ele>
        <time>2021-03-18T09:33:46.000Z</time>
      </trkpt>
      <trkpt lat="47.36236" lon="-2.40143">
        <ele>-15.60000038147</ele>
        <time>2021-03-18T09:33:50.000Z</time>
      </trkpt>
      <trkpt lat="47.36246" lon="-2.40136">
        <ele>-16</ele>
        <time>2021-03-18T09:33:52.000Z</time>
      </trkpt>
      <trkpt lat="47.36251" lon="-2.40133">
        <ele>-16.39999961853</ele>
        <time>2021-03-18T09:33:53.000Z</time>
      </trkpt>
      <trkpt lat="47.36255" lon="-2.40129">
        <ele>-16.799999237061</ele>
        <time>2021-03-18T09:33:54.000Z</time>
      </trkpt>
      <trkpt lat="47.36261" lon="-2.40126">
        <ele>-17.200000762939</ele>
        <time>2021-03-18T09:33:55.000Z</time>
      </trkpt>
      <trkpt lat="47.36267" lon="-2.40123">
        <ele>-17.60000038147</ele>
        <time>2021-03-18T09:33:56.000Z</time>
      </trkpt>
      <trkpt lat="47.36273" lon="-2.40121">
        <ele>-17.60000038147</ele>
        <time>2021-03-18T09:33:57.000Z</time>
      </trkpt>
      <trkpt lat="47.36278" lon="-2.40119">
        <ele>-17.60000038147</ele>
        <time>2021-03-18T09:33:58.000Z</time>
      </trkpt>
      <trkpt lat="47.36301" lon="-2.4011">
        <ele>-17.60000038147</ele>
        <time>2021-03-18T09:34:02.000Z</time>
      </trkpt>
      <trkpt lat="47.3635" lon="-2.40089">
        <ele>-17.60000038147</ele>
        <time>2021-03-18T09:34:11.000Z</time>
      </trkpt>
      <trkpt lat="47.36389" lon="-2.40078">
        <ele>-17.60000038147</ele>
        <time>2021-03-18T09:34:18.000Z</time>
      </trkpt>
      <trkpt lat="47.36416" lon="-2.4007">
        <ele>-17.60000038147</ele>
        <time>2021-03-18T09:34:23.000Z</time>
      </trkpt>
      <trkpt lat="47.36421" lon="-2.4007">
        <ele>-17.60000038147</ele>
        <time>2021-03-18T09:34:24.000Z</time>
      </trkpt>
      <trkpt lat="47.36435" lon="-2.40067">
        <ele>-17.60000038147</ele>
        <time>2021-03-18T09:34:28.000Z</time>
      </trkpt>
      <trkpt lat="47.36445" lon="-2.40062">
        <ele>-17.60000038147</ele>
        <time>2021-03-18T09:34:31.000Z</time>
      </trkpt>
      <trkpt lat="47.36452" lon="-2.40056">
        <ele>-17.60000038147</ele>
        <time>2021-03-18T09:34:33.000Z</time>
      </trkpt>
      <trkpt lat="47.3646" lon="-2.40051">
        <ele>-17.60000038147</ele>
        <time>2021-03-18T09:34:35.000Z</time>
      </trkpt>
      <trkpt lat="47.36464" lon="-2.40048">
        <ele>-18</ele>
        <time>2021-03-18T09:34:36.000Z</time>
      </trkpt>
      <trkpt lat="47.36468" lon="-2.40044">
        <ele>-18.39999961853</ele>
        <time>2021-03-18T09:34:37.000Z</time>
      </trkpt>
      <trkpt lat="47.36473" lon="-2.40041">
        <ele>-18.799999237061</ele>
        <time>2021-03-18T09:34:38.000Z</time>
      </trkpt>
      <trkpt lat="47.36477" lon="-2.40038">
        <ele>-19.200000762939</ele>
        <time>2021-03-18T09:34:39.000Z</time>
      </trkpt>
      <trkpt lat="47.36482" lon="-2.40034">
        <ele>-19.60000038147</ele>
        <time>2021-03-18T09:34:40.000Z</time>
      </trkpt>
      <trkpt lat="47.36491" lon="-2.40026">
        <ele>-19.60000038147</ele>
        <time>2021-03-18T09:34:42.000Z</time>
      </trkpt>
      <trkpt lat="47.36504" lon="-2.40013">
        <ele>-19.60000038147</ele>
        <time>2021-03-18T09:34:45.000Z</time>
      </trkpt>
      <trkpt lat="47.36536" lon="-2.39983">
        <ele>-19.60000038147</ele>
        <time>2021-03-18T09:34:52.000Z</time>
      </trkpt>
      <trkpt lat="47.36539" lon="-2.39978">
        <ele>-19.60000038147</ele>
        <time>2021-03-18T09:34:53.000Z</time>
      </trkpt>
      <trkpt lat="47.36547" lon="-2.39968">
        <ele>-19.60000038147</ele>
        <time>2021-03-18T09:34:55.000Z</time>
      </trkpt>
      <trkpt lat="47.36555" lon="-2.39958">
        <ele>-19.60000038147</ele>
        <time>2021-03-18T09:34:57.000Z</time>
      </trkpt>
      <trkpt lat="47.3658" lon="-2.39922">
        <ele>-19.60000038147</ele>
        <time>2021-03-18T09:35:04.000Z</time>
      </trkpt>
      <trkpt lat="47.36587" lon="-2.39909">
        <ele>-19.60000038147</ele>
        <time>2021-03-18T09:35:06.000Z</time>
      </trkpt>
      <trkpt lat="47.36588" lon="-2.39896">
        <ele>-19.60000038147</ele>
        <time>2021-03-18T09:35:08.000Z</time>
      </trkpt>
      <trkpt lat="47.36578" lon="-2.3988">
        <ele>-19.60000038147</ele>
        <time>2021-03-18T09:35:11.000Z</time>
      </trkpt>
      <trkpt lat="47.3657" lon="-2.39874">
        <ele>-19.60000038147</ele>
        <time>2021-03-18T09:35:13.000Z</time>
      </trkpt>
      <trkpt lat="47.36558" lon="-2.39865">
        <ele>-19.60000038147</ele>
        <time>2021-03-18T09:35:16.000Z</time>
      </trkpt>
      <trkpt lat="47.36551" lon="-2.39858">
        <ele>-20</ele>
        <time>2021-03-18T09:35:18.000Z</time>
      </trkpt>
      <trkpt lat="47.36547" lon="-2.39854">
        <ele>-20.39999961853</ele>
        <time>2021-03-18T09:35:19.000Z</time>
      </trkpt>
      <trkpt lat="47.36543" lon="-2.3985">
        <ele>-20.799999237061</ele>
        <time>2021-03-18T09:35:20.000Z</time>
      </trkpt>
      <trkpt lat="47.3654" lon="-2.39846">
        <ele>-21.799999237061</ele>
        <time>2021-03-18T09:35:21.000Z</time>
      </trkpt>
      <trkpt lat="47.36538" lon="-2.39841">
        <ele>-21.799999237061</ele>
        <time>2021-03-18T09:35:22.000Z</time>
      </trkpt>
      <trkpt lat="47.36531" lon="-2.39823">
        <ele>-21.799999237061</ele>
        <time>2021-03-18T09:35:25.000Z</time>
      </trkpt>
      <trkpt lat="47.36527" lon="-2.3981">
        <ele>-21.799999237061</ele>
        <time>2021-03-18T09:35:27.000Z</time>
      </trkpt>
      <trkpt lat="47.3652" lon="-2.39791">
        <ele>-21.799999237061</ele>
        <time>2021-03-18T09:35:30.000Z</time>
      </trkpt>
      <trkpt lat="47.36513" lon="-2.39781">
        <ele>-21.799999237061</ele>
        <time>2021-03-18T09:35:32.000Z</time>
      </trkpt>
      <trkpt lat="47.36504" lon="-2.39774">
        <ele>-21.799999237061</ele>
        <time>2021-03-18T09:35:34.000Z</time>
      </trkpt>
      <trkpt lat="47.36494" lon="-2.3977">
        <ele>-21.799999237061</ele>
        <time>2021-03-18T09:35:36.000Z</time>
      </trkpt>
      <trkpt lat="47.36484" lon="-2.39764">
        <ele>-21.799999237061</ele>
        <time>2021-03-18T09:35:38.000Z</time>
      </trkpt>
      <trkpt lat="47.36477" lon="-2.39753">
        <ele>-21.799999237061</ele>
        <time>2021-03-18T09:35:40.000Z</time>
      </trkpt>
      <trkpt lat="47.36473" lon="-2.39739">
        <ele>-21.799999237061</ele>
        <time>2021-03-18T09:35:42.000Z</time>
      </trkpt>
      <trkpt lat="47.36469" lon="-2.39725">
        <ele>-21.799999237061</ele>
        <time>2021-03-18T09:35:44.000Z</time>
      </trkpt>
      <trkpt lat="47.36454" lon="-2.39669">
        <ele>-21.799999237061</ele>
        <time>2021-03-18T09:35:52.000Z</time>
      </trkpt>
      <trkpt lat="47.36452" lon="-2.39662">
        <ele>-21.799999237061</ele>
        <time>2021-03-18T09:35:53.000Z</time>
      </trkpt>
      <trkpt lat="47.3646" lon="-2.39645">
        <ele>-21.799999237061</ele>
        <time>2021-03-18T09:35:56.000Z</time>
      </trkpt>
      <trkpt lat="47.36469" lon="-2.39643">
        <ele>-21.200000762939</ele>
        <time>2021-03-18T09:35:58.000Z</time>
      </trkpt>
      <trkpt lat="47.36475" lon="-2.39642">
        <ele>-20.799999237061</ele>
        <time>2021-03-18T09:35:59.000Z</time>
      </trkpt>
      <trkpt lat="47.3648" lon="-2.39641">
        <ele>-20.39999961853</ele>
        <time>2021-03-18T09:36:00.000Z</time>
      </trkpt>
      <trkpt lat="47.36485" lon="-2.39639">
        <ele>-20</ele>
        <time>2021-03-18T09:36:01.000Z</time>
      </trkpt>
      <trkpt lat="47.3649" lon="-2.39636">
        <ele>-19.60000038147</ele>
        <time>2021-03-18T09:36:02.000Z</time>
      </trkpt>
      <trkpt lat="47.36504" lon="-2.39627">
        <ele>-19.60000038147</ele>
        <time>2021-03-18T09:36:05.000Z</time>
      </trkpt>
      <trkpt lat="47.36508" lon="-2.39623">
        <ele>-19.60000038147</ele>
        <time>2021-03-18T09:36:06.000Z</time>
      </trkpt>
      <trkpt lat="47.36526" lon="-2.39613">
        <ele>-19.60000038147</ele>
        <time>2021-03-18T09:36:10.000Z</time>
      </trkpt>
      <trkpt lat="47.36562" lon="-2.396">
        <ele>-19.60000038147</ele>
        <time>2021-03-18T09:36:17.000Z</time>
      </trkpt>
      <trkpt lat="47.36567" lon="-2.39599">
        <ele>-19.200000762939</ele>
        <time>2021-03-18T09:36:18.000Z</time>
      </trkpt>
      <trkpt lat="47.36573" lon="-2.39598">
        <ele>-18.799999237061</ele>
        <time>2021-03-18T09:36:19.000Z</time>
      </trkpt>
      <trkpt lat="47.36578" lon="-2.39599">
        <ele>-18.39999961853</ele>
        <time>2021-03-18T09:36:20.000Z</time>
      </trkpt>
      <trkpt lat="47.36584" lon="-2.39599">
        <ele>-17.799999237061</ele>
        <time>2021-03-18T09:36:21.000Z</time>
      </trkpt>
      <trkpt lat="47.36589" lon="-2.39599">
        <ele>-17.39999961853</ele>
        <time>2021-03-18T09:36:22.000Z</time>
      </trkpt>
      <trkpt lat="47.36595" lon="-2.396">
        <ele>-17.39999961853</ele>
        <time>2021-03-18T09:36:23.000Z</time>
      </trkpt>
      <trkpt lat="47.36632" lon="-2.39611">
        <ele>-17.39999961853</ele>
        <time>2021-03-18T09:36:30.000Z</time>
      </trkpt>
      <trkpt lat="47.36655" lon="-2.39619">
        <ele>-17.799999237061</ele>
        <time>2021-03-18T09:36:34.000Z</time>
      </trkpt>
      <trkpt lat="47.3666" lon="-2.39624">
        <ele>-18.200000762939</ele>
        <time>2021-03-18T09:36:35.000Z</time>
      </trkpt>
      <trkpt lat="47.36665" lon="-2.3963">
        <ele>-18.60000038147</ele>
        <time>2021-03-18T09:36:36.000Z</time>
      </trkpt>
      <trkpt lat="47.3667" lon="-2.39637">
        <ele>-19.200000762939</ele>
        <time>2021-03-18T09:36:37.000Z</time>
      </trkpt>
      <trkpt lat="47.36675" lon="-2.39642">
        <ele>-19.60000038147</ele>
        <time>2021-03-18T09:36:38.000Z</time>
      </trkpt>
      <trkpt lat="47.36679" lon="-2.39647">
        <ele>-20</ele>
        <time>2021-03-18T09:36:39.000Z</time>
      </trkpt>
      <trkpt lat="47.36685" lon="-2.39652">
        <ele>-20.39999961853</ele>
        <time>2021-03-18T09:36:40.000Z</time>
      </trkpt>
      <trkpt lat="47.3669" lon="-2.39656">
        <ele>-20.799999237061</ele>
        <time>2021-03-18T09:36:41.000Z</time>
      </trkpt>
      <trkpt lat="47.36695" lon="-2.3966">
        <ele>-21.200000762939</ele>
        <time>2021-03-18T09:36:42.000Z</time>
      </trkpt>
      <trkpt lat="47.367" lon="-2.39663">
        <ele>-21.60000038147</ele>
        <time>2021-03-18T09:36:43.000Z</time>
      </trkpt>
      <trkpt lat="47.36706" lon="-2.39666">
        <ele>-21.60000038147</ele>
        <time>2021-03-18T09:36:44.000Z</time>
      </trkpt>
      <trkpt lat="47.36712" lon="-2.39669">
        <ele>-21.60000038147</ele>
        <time>2021-03-18T09:36:45.000Z</time>
      </trkpt>
      <trkpt lat="47.36718" lon="-2.3967">
        <ele>-21.60000038147</ele>
        <time>2021-03-18T09:36:46.000Z</time>
      </trkpt>
      <trkpt lat="47.36736" lon="-2.39672">
        <ele>-21.60000038147</ele>
        <time>2021-03-18T09:36:49.000Z</time>
      </trkpt>
      <trkpt lat="47.36745" lon="-2.39673">
        <ele>-21.60000038147</ele>
        <time>2021-03-18T09:36:51.000Z</time>
      </trkpt>
      <trkpt lat="47.36758" lon="-2.39675">
        <ele>-21.60000038147</ele>
        <time>2021-03-18T09:36:54.000Z</time>
      </trkpt>
      <trkpt lat="47.36773" lon="-2.39673">
        <ele>-21.60000038147</ele>
        <time>2021-03-18T09:36:58.000Z</time>
      </trkpt>
      <trkpt lat="47.36786" lon="-2.3967">
        <ele>-21.60000038147</ele>
        <time>2021-03-18T09:37:01.000Z</time>
      </trkpt>
      <trkpt lat="47.36797" lon="-2.39661">
        <ele>-21.60000038147</ele>
        <time>2021-03-18T09:37:04.000Z</time>
      </trkpt>
      <trkpt lat="47.36808" lon="-2.39655">
        <ele>-21.60000038147</ele>
        <time>2021-03-18T09:37:07.000Z</time>
      </trkpt>
      <trkpt lat="47.36816" lon="-2.39652">
        <ele>-21.60000038147</ele>
        <time>2021-03-18T09:37:09.000Z</time>
      </trkpt>
      <trkpt lat="47.36829" lon="-2.39643">
        <ele>-21.60000038147</ele>
        <time>2021-03-18T09:37:12.000Z</time>
      </trkpt>
      <trkpt lat="47.36833" lon="-2.39639">
        <ele>-21.60000038147</ele>
        <time>2021-03-18T09:37:13.000Z</time>
      </trkpt>
      <trkpt lat="47.36855" lon="-2.39616">
        <ele>-21.60000038147</ele>
        <time>2021-03-18T09:37:19.000Z</time>
      </trkpt>
      <trkpt lat="47.36877" lon="-2.39591">
        <ele>-21.60000038147</ele>
        <time>2021-03-18T09:37:25.000Z</time>
      </trkpt>
      <trkpt lat="47.36895" lon="-2.39571">
        <ele>-21.60000038147</ele>
        <time>2021-03-18T09:37:30.000Z</time>
      </trkpt>
      <trkpt lat="47.36915" lon="-2.39545">
        <ele>-21.60000038147</ele>
        <time>2021-03-18T09:37:36.000Z</time>
      </trkpt>
      <trkpt lat="47.36926" lon="-2.39532">
        <ele>-21.200000762939</ele>
        <time>2021-03-18T09:37:39.000Z</time>
      </trkpt>
      <trkpt lat="47.36929" lon="-2.39527">
        <ele>-20.799999237061</ele>
        <time>2021-03-18T09:37:40.000Z</time>
      </trkpt>
      <trkpt lat="47.36932" lon="-2.39523">
        <ele>-20.39999961853</ele>
        <time>2021-03-18T09:37:41.000Z</time>
      </trkpt>
      <trkpt lat="47.36935" lon="-2.39518">
        <ele>-20</ele>
        <time>2021-03-18T09:37:42.000Z</time>
      </trkpt>
      <trkpt lat="47.36938" lon="-2.39514">
        <ele>-19.60000038147</ele>
        <time>2021-03-18T09:37:43.000Z</time>
      </trkpt>
      <trkpt lat="47.36948" lon="-2.39504">
        <ele>-19.60000038147</ele>
        <time>2021-03-18T09:37:46.000Z</time>
      </trkpt>
      <trkpt lat="47.36974" lon="-2.39481">
        <ele>-19.60000038147</ele>
        <time>2021-03-18T09:37:53.000Z</time>
      </trkpt>
      <trkpt lat="47.37001" lon="-2.39456">
        <ele>-19</ele>
        <time>2021-03-18T09:38:00.000Z</time>
      </trkpt>
      <trkpt lat="47.37005" lon="-2.39453">
        <ele>-18.60000038147</ele>
        <time>2021-03-18T09:38:01.000Z</time>
      </trkpt>
      <trkpt lat="47.37009" lon="-2.3945">
        <ele>-18.200000762939</ele>
        <time>2021-03-18T09:38:02.000Z</time>
      </trkpt>
      <trkpt lat="47.37012" lon="-2.39446">
        <ele>-17.60000038147</ele>
        <time>2021-03-18T09:38:03.000Z</time>
      </trkpt>
      <trkpt lat="47.37016" lon="-2.39443">
        <ele>-17.200000762939</ele>
        <time>2021-03-18T09:38:04.000Z</time>
      </trkpt>
      <trkpt lat="47.3702" lon="-2.39439">
        <ele>-17.200000762939</ele>
        <time>2021-03-18T09:38:05.000Z</time>
      </trkpt>
      <trkpt lat="47.3704" lon="-2.39411">
        <ele>-17.200000762939</ele>
        <time>2021-03-18T09:38:11.000Z</time>
      </trkpt>
      <trkpt lat="47.37064" lon="-2.39383">
        <ele>-17.200000762939</ele>
        <time>2021-03-18T09:38:17.000Z</time>
      </trkpt>
      <trkpt lat="47.37072" lon="-2.39375">
        <ele>-17.200000762939</ele>
        <time>2021-03-18T09:38:19.000Z</time>
      </trkpt>
      <trkpt lat="47.37087" lon="-2.39363">
        <ele>-17.200000762939</ele>
        <time>2021-03-18T09:38:22.000Z</time>
      </trkpt>
      <trkpt lat="47.37117" lon="-2.39336">
        <ele>-17.200000762939</ele>
        <time>2021-03-18T09:38:28.000Z</time>
      </trkpt>
      <trkpt lat="47.37147" lon="-2.39308">
        <ele>-17.200000762939</ele>
        <time>2021-03-18T09:38:34.000Z</time>
      </trkpt>
      <trkpt lat="47.37153" lon="-2.39304">
        <ele>-17.200000762939</ele>
        <time>2021-03-18T09:38:35.000Z</time>
      </trkpt>
      <trkpt lat="47.37183" lon="-2.39276">
        <ele>-17.200000762939</ele>
        <time>2021-03-18T09:38:41.000Z</time>
      </trkpt>
      <trkpt lat="47.37188" lon="-2.3927">
        <ele>-17.200000762939</ele>
        <time>2021-03-18T09:38:42.000Z</time>
      </trkpt>
      <trkpt lat="47.37207" lon="-2.39253">
        <ele>-17.200000762939</ele>
        <time>2021-03-18T09:38:46.000Z</time>
      </trkpt>
      <trkpt lat="47.37234" lon="-2.3923">
        <ele>-17.200000762939</ele>
        <time>2021-03-18T09:38:51.000Z</time>
      </trkpt>
      <trkpt lat="47.37238" lon="-2.39225">
        <ele>-17.200000762939</ele>
        <time>2021-03-18T09:38:52.000Z</time>
      </trkpt>
      <trkpt lat="47.37254" lon="-2.3921">
        <ele>-17.200000762939</ele>
        <time>2021-03-18T09:38:55.000Z</time>
      </trkpt>
      <trkpt lat="47.37284" lon="-2.39184">
        <ele>-17.200000762939</ele>
        <time>2021-03-18T09:39:01.000Z</time>
      </trkpt>
      <trkpt lat="47.37303" lon="-2.39167">
        <ele>-17.200000762939</ele>
        <time>2021-03-18T09:39:05.000Z</time>
      </trkpt>
      <trkpt lat="47.3731" lon="-2.39159">
        <ele>-17.200000762939</ele>
        <time>2021-03-18T09:39:07.000Z</time>
      </trkpt>
      <trkpt lat="47.37313" lon="-2.39154">
        <ele>-17.200000762939</ele>
        <time>2021-03-18T09:39:08.000Z</time>
      </trkpt>
      <trkpt lat="47.37314" lon="-2.39143">
        <ele>-17.200000762939</ele>
        <time>2021-03-18T09:39:10.000Z</time>
      </trkpt>
      <trkpt lat="47.37312" lon="-2.3912">
        <ele>-17.200000762939</ele>
        <time>2021-03-18T09:39:13.000Z</time>
      </trkpt>
      <trkpt lat="47.37311" lon="-2.39112">
        <ele>-17.200000762939</ele>
        <time>2021-03-18T09:39:14.000Z</time>
      </trkpt>
      <trkpt lat="47.37307" lon="-2.39049">
        <ele>-17.200000762939</ele>
        <time>2021-03-18T09:39:21.000Z</time>
      </trkpt>
      <trkpt lat="47.373" lon="-2.3897">
        <ele>-17.200000762939</ele>
        <time>2021-03-18T09:39:29.000Z</time>
      </trkpt>
      <trkpt lat="47.37299" lon="-2.38959">
        <ele>-16.60000038147</ele>
        <time>2021-03-18T09:39:30.000Z</time>
      </trkpt>
      <trkpt lat="47.37298" lon="-2.38949">
        <ele>-16.200000762939</ele>
        <time>2021-03-18T09:39:31.000Z</time>
      </trkpt>
      <trkpt lat="47.37296" lon="-2.38939">
        <ele>-15.60000038147</ele>
        <time>2021-03-18T09:39:32.000Z</time>
      </trkpt>
      <trkpt lat="47.37294" lon="-2.38929">
        <ele>-15.199999809265</ele>
        <time>2021-03-18T09:39:33.000Z</time>
      </trkpt>
      <trkpt lat="47.37291" lon="-2.38919">
        <ele>-14.60000038147</ele>
        <time>2021-03-18T09:39:34.000Z</time>
      </trkpt>
      <trkpt lat="47.37288" lon="-2.38909">
        <ele>-14.60000038147</ele>
        <time>2021-03-18T09:39:35.000Z</time>
      </trkpt>
      <trkpt lat="47.3727" lon="-2.38849">
        <ele>-14.60000038147</ele>
        <time>2021-03-18T09:39:41.000Z</time>
      </trkpt>
      <trkpt lat="47.37267" lon="-2.38838">
        <ele>-14.60000038147</ele>
        <time>2021-03-18T09:39:42.000Z</time>
      </trkpt>
      <trkpt lat="47.37239" lon="-2.38757">
        <ele>-14.60000038147</ele>
        <time>2021-03-18T09:39:50.000Z</time>
      </trkpt>
      <trkpt lat="47.37228" lon="-2.38728">
        <ele>-15</ele>
        <time>2021-03-18T09:39:53.000Z</time>
      </trkpt>
      <trkpt lat="47.37224" lon="-2.38718">
        <ele>-16</ele>
        <time>2021-03-18T09:39:54.000Z</time>
      </trkpt>
      <trkpt lat="47.3722" lon="-2.38708">
        <ele>-16.39999961853</ele>
        <time>2021-03-18T09:39:55.000Z</time>
      </trkpt>
      <trkpt lat="47.37217" lon="-2.38699">
        <ele>-16.799999237061</ele>
        <time>2021-03-18T09:39:56.000Z</time>
      </trkpt>
      <trkpt lat="47.37213" lon="-2.38689">
        <ele>-16.799999237061</ele>
        <time>2021-03-18T09:39:57.000Z</time>
      </trkpt>
      <trkpt lat="47.37189" lon="-2.38628">
        <ele>-16.799999237061</ele>
        <time>2021-03-18T09:40:04.000Z</time>
      </trkpt>
      <trkpt lat="47.37167" lon="-2.38577">
        <ele>-16.799999237061</ele>
        <time>2021-03-18T09:40:11.000Z</time>
      </trkpt>
      <trkpt lat="47.37147" lon="-2.38535">
        <ele>-17.200000762939</ele>
        <time>2021-03-18T09:40:17.000Z</time>
      </trkpt>
      <trkpt lat="47.37142" lon="-2.3853">
        <ele>-17.60000038147</ele>
        <time>2021-03-18T09:40:18.000Z</time>
      </trkpt>
      <trkpt lat="47.37137" lon="-2.38525">
        <ele>-18.60000038147</ele>
        <time>2021-03-18T09:40:19.000Z</time>
      </trkpt>
      <trkpt lat="47.37132" lon="-2.3852">
        <ele>-19</ele>
        <time>2021-03-18T09:40:20.000Z</time>
      </trkpt>
      <trkpt lat="47.37122" lon="-2.38511">
        <ele>-19</ele>
        <time>2021-03-18T09:40:22.000Z</time>
      </trkpt>
      <trkpt lat="47.37093" lon="-2.3849">
        <ele>-19.39999961853</ele>
        <time>2021-03-18T09:40:27.000Z</time>
      </trkpt>
      <trkpt lat="47.37087" lon="-2.38485">
        <ele>-19.799999237061</ele>
        <time>2021-03-18T09:40:28.000Z</time>
      </trkpt>
      <trkpt lat="47.37081" lon="-2.38481">
        <ele>-20.200000762939</ele>
        <time>2021-03-18T09:40:29.000Z</time>
      </trkpt>
      <trkpt lat="47.37076" lon="-2.38478">
        <ele>-20.60000038147</ele>
        <time>2021-03-18T09:40:30.000Z</time>
      </trkpt>
      <trkpt lat="47.3707" lon="-2.38474">
        <ele>-21.200000762939</ele>
        <time>2021-03-18T09:40:31.000Z</time>
      </trkpt>
      <trkpt lat="47.37061" lon="-2.38468">
        <ele>-21.60000038147</ele>
        <time>2021-03-18T09:40:33.000Z</time>
      </trkpt>
      <trkpt lat="47.37058" lon="-2.38464">
        <ele>-22</ele>
        <time>2021-03-18T09:40:34.000Z</time>
      </trkpt>
      <trkpt lat="47.37057" lon="-2.38459">
        <ele>-22.39999961853</ele>
        <time>2021-03-18T09:40:35.000Z</time>
      </trkpt>
      <trkpt lat="47.37058" lon="-2.38453">
        <ele>-23</ele>
        <time>2021-03-18T09:40:36.000Z</time>
      </trkpt>
      <trkpt lat="47.3706" lon="-2.38448">
        <ele>-23.39999961853</ele>
        <time>2021-03-18T09:40:37.000Z</time>
      </trkpt>
      <trkpt lat="47.37066" lon="-2.38439">
        <ele>-23.39999961853</ele>
        <time>2021-03-18T09:40:39.000Z</time>
      </trkpt>
      <trkpt lat="47.3707" lon="-2.3843">
        <ele>-23.39999961853</ele>
        <time>2021-03-18T09:40:41.000Z</time>
      </trkpt>
      <trkpt lat="47.37085" lon="-2.38404">
        <ele>-23.39999961853</ele>
        <time>2021-03-18T09:40:48.000Z</time>
      </trkpt>
      <trkpt lat="47.37095" lon="-2.38393">
        <ele>-23.39999961853</ele>
        <time>2021-03-18T09:40:53.000Z</time>
      </trkpt>
      <trkpt lat="47.37112" lon="-2.38381">
        <ele>-23.39999961853</ele>
        <time>2021-03-18T09:40:58.000Z</time>
      </trkpt>
      <trkpt lat="47.37124" lon="-2.38374">
        <ele>-23.39999961853</ele>
        <time>2021-03-18T09:41:02.000Z</time>
      </trkpt>
      <trkpt lat="47.37149" lon="-2.38364">
        <ele>-23.39999961853</ele>
        <time>2021-03-18T09:41:09.000Z</time>
      </trkpt>
      <trkpt lat="47.37157" lon="-2.38362">
        <ele>-23</ele>
        <time>2021-03-18T09:41:11.000Z</time>
      </trkpt>
      <trkpt lat="47.37161" lon="-2.3836">
        <ele>-22.60000038147</ele>
        <time>2021-03-18T09:41:12.000Z</time>
      </trkpt>
      <trkpt lat="47.37165" lon="-2.38358">
        <ele>-22.200000762939</ele>
        <time>2021-03-18T09:41:13.000Z</time>
      </trkpt>
      <trkpt lat="47.37169" lon="-2.38357">
        <ele>-21.799999237061</ele>
        <time>2021-03-18T09:41:14.000Z</time>
      </trkpt>
      <trkpt lat="47.37174" lon="-2.38356">
        <ele>-21.39999961853</ele>
        <time>2021-03-18T09:41:15.000Z</time>
      </trkpt>
      <trkpt lat="47.37178" lon="-2.38354">
        <ele>-21.39999961853</ele>
        <time>2021-03-18T09:41:16.000Z</time>
      </trkpt>
      <trkpt lat="47.37199" lon="-2.38353">
        <ele>-21.39999961853</ele>
        <time>2021-03-18T09:41:21.000Z</time>
      </trkpt>
      <trkpt lat="47.37215" lon="-2.38351">
        <ele>-21.39999961853</ele>
        <time>2021-03-18T09:41:25.000Z</time>
      </trkpt>
      <trkpt lat="47.3723" lon="-2.38347">
        <ele>-21</ele>
        <time>2021-03-18T09:41:28.000Z</time>
      </trkpt>
      <trkpt lat="47.37235" lon="-2.38345">
        <ele>-20.60000038147</ele>
        <time>2021-03-18T09:41:29.000Z</time>
      </trkpt>
      <trkpt lat="47.3724" lon="-2.38343">
        <ele>-20.200000762939</ele>
        <time>2021-03-18T09:41:30.000Z</time>
      </trkpt>
      <trkpt lat="47.37245" lon="-2.38341">
        <ele>-19.799999237061</ele>
        <time>2021-03-18T09:41:31.000Z</time>
      </trkpt>
      <trkpt lat="47.3725" lon="-2.38338">
        <ele>-19.39999961853</ele>
        <time>2021-03-18T09:41:32.000Z</time>
      </trkpt>
      <trkpt lat="47.37269" lon="-2.38327">
        <ele>-19.39999961853</ele>
        <time>2021-03-18T09:41:36.000Z</time>
      </trkpt>
      <trkpt lat="47.37303" lon="-2.38306">
        <ele>-19.39999961853</ele>
        <time>2021-03-18T09:41:43.000Z</time>
      </trkpt>
      <trkpt lat="47.37331" lon="-2.38291">
        <ele>-19.39999961853</ele>
        <time>2021-03-18T09:41:49.000Z</time>
      </trkpt>
      <trkpt lat="47.37335" lon="-2.38288">
        <ele>-19.39999961853</ele>
        <time>2021-03-18T09:41:50.000Z</time>
      </trkpt>
      <trkpt lat="47.37358" lon="-2.38274">
        <ele>-19.39999961853</ele>
        <time>2021-03-18T09:41:55.000Z</time>
      </trkpt>
      <trkpt lat="47.37392" lon="-2.38253">
        <ele>-19.39999961853</ele>
        <time>2021-03-18T09:42:02.000Z</time>
      </trkpt>
      <trkpt lat="47.37428" lon="-2.3823">
        <ele>-19.39999961853</ele>
        <time>2021-03-18T09:42:09.000Z</time>
      </trkpt>
      <trkpt lat="47.37464" lon="-2.38208">
        <ele>-19.39999961853</ele>
        <time>2021-03-18T09:42:16.000Z</time>
      </trkpt>
      <trkpt lat="47.37503" lon="-2.38187">
        <ele>-19.39999961853</ele>
        <time>2021-03-18T09:42:23.000Z</time>
      </trkpt>
      <trkpt lat="47.37535" lon="-2.38169">
        <ele>-19.39999961853</ele>
        <time>2021-03-18T09:42:29.000Z</time>
      </trkpt>
      <trkpt lat="47.3758" lon="-2.38141">
        <ele>-19.39999961853</ele>
        <time>2021-03-18T09:42:37.000Z</time>
      </trkpt>
      <trkpt lat="47.3762" lon="-2.38118">
        <ele>-19.39999961853</ele>
        <time>2021-03-18T09:42:44.000Z</time>
      </trkpt>
      <trkpt lat="47.37662" lon="-2.38089">
        <ele>-19.39999961853</ele>
        <time>2021-03-18T09:42:52.000Z</time>
      </trkpt>
      <trkpt lat="47.37689" lon="-2.38063">
        <ele>-19.39999961853</ele>
        <time>2021-03-18T09:42:59.000Z</time>
      </trkpt>
      <trkpt lat="47.37702" lon="-2.38048">
        <ele>-19.39999961853</ele>
        <time>2021-03-18T09:43:05.000Z</time>
      </trkpt>
      <trkpt lat="47.37714" lon="-2.38035">
        <ele>-19.39999961853</ele>
        <time>2021-03-18T09:43:10.000Z</time>
      </trkpt>
      <trkpt lat="47.37726" lon="-2.38028">
        <ele>-19</ele>
        <time>2021-03-18T09:43:13.000Z</time>
      </trkpt>
      <trkpt lat="47.3773" lon="-2.38026">
        <ele>-18.60000038147</ele>
        <time>2021-03-18T09:43:14.000Z</time>
      </trkpt>
      <trkpt lat="47.37733" lon="-2.38023">
        <ele>-18.200000762939</ele>
        <time>2021-03-18T09:43:15.000Z</time>
      </trkpt>
      <trkpt lat="47.37737" lon="-2.38021">
        <ele>-17.799999237061</ele>
        <time>2021-03-18T09:43:16.000Z</time>
      </trkpt>
      <trkpt lat="47.37741" lon="-2.38018">
        <ele>-17.200000762939</ele>
        <time>2021-03-18T09:43:17.000Z</time>
      </trkpt>
      <trkpt lat="47.37756" lon="-2.38009">
        <ele>-17.200000762939</ele>
        <time>2021-03-18T09:43:21.000Z</time>
      </trkpt>
      <trkpt lat="47.37764" lon="-2.38003">
        <ele>-17.200000762939</ele>
        <time>2021-03-18T09:43:23.000Z</time>
      </trkpt>
      <trkpt lat="47.37772" lon="-2.37998">
        <ele>-17.200000762939</ele>
        <time>2021-03-18T09:43:25.000Z</time>
      </trkpt>
      <trkpt lat="47.37793" lon="-2.37983">
        <ele>-17.200000762939</ele>
        <time>2021-03-18T09:43:30.000Z</time>
      </trkpt>
      <trkpt lat="47.37829" lon="-2.37959">
        <ele>-17.200000762939</ele>
        <time>2021-03-18T09:43:38.000Z</time>
      </trkpt>
      <trkpt lat="47.37838" lon="-2.37953">
        <ele>-16.799999237061</ele>
        <time>2021-03-18T09:43:40.000Z</time>
      </trkpt>
      <trkpt lat="47.37843" lon="-2.3795">
        <ele>-16.39999961853</ele>
        <time>2021-03-18T09:43:41.000Z</time>
      </trkpt>
      <trkpt lat="47.37847" lon="-2.37946">
        <ele>-16</ele>
        <time>2021-03-18T09:43:42.000Z</time>
      </trkpt>
      <trkpt lat="47.37852" lon="-2.37943">
        <ele>-15.60000038147</ele>
        <time>2021-03-18T09:43:43.000Z</time>
      </trkpt>
      <trkpt lat="47.37857" lon="-2.3794">
        <ele>-15.199999809265</ele>
        <time>2021-03-18T09:43:44.000Z</time>
      </trkpt>
      <trkpt lat="47.37875" lon="-2.37927">
        <ele>-15.199999809265</ele>
        <time>2021-03-18T09:43:48.000Z</time>
      </trkpt>
      <trkpt lat="47.37909" lon="-2.37902">
        <ele>-15.199999809265</ele>
        <time>2021-03-18T09:43:55.000Z</time>
      </trkpt>
      <trkpt lat="47.3795" lon="-2.37873">
        <ele>-15.199999809265</ele>
        <time>2021-03-18T09:44:03.000Z</time>
      </trkpt>
      <trkpt lat="47.37985" lon="-2.37846">
        <ele>-15.199999809265</ele>
        <time>2021-03-18T09:44:10.000Z</time>
      </trkpt>
      <trkpt lat="47.38016" lon="-2.37823">
        <ele>-15.199999809265</ele>
        <time>2021-03-18T09:44:16.000Z</time>
      </trkpt>
      <trkpt lat="47.38062" lon="-2.37787">
        <ele>-15.199999809265</ele>
        <time>2021-03-18T09:44:25.000Z</time>
      </trkpt>
      <trkpt lat="47.38072" lon="-2.37778">
        <ele>-16.200000762939</ele>
        <time>2021-03-18T09:44:27.000Z</time>
      </trkpt>
      <trkpt lat="47.38078" lon="-2.37774">
        <ele>-16.60000038147</ele>
        <time>2021-03-18T09:44:28.000Z</time>
      </trkpt>
      <trkpt lat="47.38082" lon="-2.37769">
        <ele>-17</ele>
        <time>2021-03-18T09:44:29.000Z</time>
      </trkpt>
      <trkpt lat="47.38087" lon="-2.37764">
        <ele>-17.39999961853</ele>
        <time>2021-03-18T09:44:30.000Z</time>
      </trkpt>
      <trkpt lat="47.38103" lon="-2.37751">
        <ele>-17.39999961853</ele>
        <time>2021-03-18T09:44:33.000Z</time>
      </trkpt>
      <trkpt lat="47.38138" lon="-2.37722">
        <ele>-17.799999237061</ele>
        <time>2021-03-18T09:44:39.000Z</time>
      </trkpt>
      <trkpt lat="47.38144" lon="-2.37717">
        <ele>-18.200000762939</ele>
        <time>2021-03-18T09:44:40.000Z</time>
      </trkpt>
      <trkpt lat="47.3815" lon="-2.37711">
        <ele>-18.60000038147</ele>
        <time>2021-03-18T09:44:41.000Z</time>
      </trkpt>
      <trkpt lat="47.38156" lon="-2.37706">
        <ele>-19</ele>
        <time>2021-03-18T09:44:42.000Z</time>
      </trkpt>
      <trkpt lat="47.38162" lon="-2.37701">
        <ele>-19.39999961853</ele>
        <time>2021-03-18T09:44:43.000Z</time>
      </trkpt>
      <trkpt lat="47.38186" lon="-2.37681">
        <ele>-19.39999961853</ele>
        <time>2021-03-18T09:44:47.000Z</time>
      </trkpt>
      <trkpt lat="47.38205" lon="-2.37664">
        <ele>-20</ele>
        <time>2021-03-18T09:44:51.000Z</time>
      </trkpt>
      <trkpt lat="47.38211" lon="-2.37661">
        <ele>-20.39999961853</ele>
        <time>2021-03-18T09:44:52.000Z</time>
      </trkpt>
      <trkpt lat="47.38215" lon="-2.37656">
        <ele>-20.799999237061</ele>
        <time>2021-03-18T09:44:53.000Z</time>
      </trkpt>
      <trkpt lat="47.38221" lon="-2.37652">
        <ele>-21.200000762939</ele>
        <time>2021-03-18T09:44:54.000Z</time>
      </trkpt>
      <trkpt lat="47.38226" lon="-2.37648">
        <ele>-21.799999237061</ele>
        <time>2021-03-18T09:44:55.000Z</time>
      </trkpt>
      <trkpt lat="47.38236" lon="-2.37638">
        <ele>-21.799999237061</ele>
        <time>2021-03-18T09:44:58.000Z</time>
      </trkpt>
      <trkpt lat="47.3825" lon="-2.3763">
        <ele>-21.799999237061</ele>
        <time>2021-03-18T09:45:03.000Z</time>
      </trkpt>
      <trkpt lat="47.38254" lon="-2.37629">
        <ele>-22.200000762939</ele>
        <time>2021-03-18T09:45:05.000Z</time>
      </trkpt>
      <trkpt lat="47.38255" lon="-2.37629">
        <ele>-22.60000038147</ele>
        <time>2021-03-18T09:45:06.000Z</time>
      </trkpt>
      <trkpt lat="47.38256" lon="-2.37628">
        <ele>-23</ele>
        <time>2021-03-18T09:45:07.000Z</time>
      </trkpt>
      <trkpt lat="47.38257" lon="-2.37628">
        <ele>-23.39999961853</ele>
        <time>2021-03-18T09:45:08.000Z</time>
      </trkpt>
      <trkpt lat="47.38257" lon="-2.37628">
        <ele>-23.799999237061</ele>
        <time>2021-03-18T09:45:09.000Z</time>
      </trkpt>
      <trkpt lat="47.3826" lon="-2.37627">
        <ele>-23.799999237061</ele>
        <time>2021-03-18T09:45:13.000Z</time>
      </trkpt>
      <trkpt lat="47.38273" lon="-2.37622">
        <ele>-23.799999237061</ele>
        <time>2021-03-18T09:45:53.000Z</time>
      </trkpt>
      <trkpt lat="47.38274" lon="-2.37622">
        <ele>-23.799999237061</ele>
        <time>2021-03-18T09:45:55.000Z</time>
      </trkpt>
      <trkpt lat="47.38278" lon="-2.37622">
        <ele>-23.799999237061</ele>
        <time>2021-03-18T09:46:03.000Z</time>
      </trkpt>
      <trkpt lat="47.38281" lon="-2.37622">
        <ele>-23.799999237061</ele>
        <time>2021-03-18T09:46:04.000Z</time>
      </trkpt>
      <trkpt lat="47.38296" lon="-2.37614">
        <ele>-23.799999237061</ele>
        <time>2021-03-18T09:46:09.000Z</time>
      </trkpt>
      <trkpt lat="47.38312" lon="-2.37607">
        <ele>-23.799999237061</ele>
        <time>2021-03-18T09:46:14.000Z</time>
      </trkpt>
      <trkpt lat="47.3832" lon="-2.37603">
        <ele>-23.799999237061</ele>
        <time>2021-03-18T09:46:19.000Z</time>
      </trkpt>
      <trkpt lat="47.38334" lon="-2.37597">
        <ele>-23.799999237061</ele>
        <time>2021-03-18T09:46:25.000Z</time>
      </trkpt>
      <trkpt lat="47.38348" lon="-2.37591">
        <ele>-23.799999237061</ele>
        <time>2021-03-18T09:46:31.000Z</time>
      </trkpt>
      <trkpt lat="47.38349" lon="-2.3759">
        <ele>-24.200000762939</ele>
        <time>2021-03-18T09:46:32.000Z</time>
      </trkpt>
      <trkpt lat="47.38351" lon="-2.37588">
        <ele>-24.60000038147</ele>
        <time>2021-03-18T09:46:33.000Z</time>
      </trkpt>
      <trkpt lat="47.38353" lon="-2.37586">
        <ele>-25</ele>
        <time>2021-03-18T09:46:34.000Z</time>
      </trkpt>
      <trkpt lat="47.38354" lon="-2.37582">
        <ele>-25.39999961853</ele>
        <time>2021-03-18T09:46:35.000Z</time>
      </trkpt>
      <trkpt lat="47.38355" lon="-2.37577">
        <ele>-25.799999237061</ele>
        <time>2021-03-18T09:46:36.000Z</time>
      </trkpt>
      <trkpt lat="47.38356" lon="-2.37574">
        <ele>-25.799999237061</ele>
        <time>2021-03-18T09:46:37.000Z</time>
      </trkpt>
      <trkpt lat="47.38358" lon="-2.37554">
        <ele>-25.799999237061</ele>
        <time>2021-03-18T09:46:43.000Z</time>
      </trkpt>
      <trkpt lat="47.38359" lon="-2.37529">
        <ele>-25.799999237061</ele>
        <time>2021-03-18T09:46:49.000Z</time>
      </trkpt>
      <trkpt lat="47.3836" lon="-2.37509">
        <ele>-25.799999237061</ele>
        <time>2021-03-18T09:46:55.000Z</time>
      </trkpt>
      <trkpt lat="47.3836" lon="-2.37489">
        <ele>-25.799999237061</ele>
        <time>2021-03-18T09:47:03.000Z</time>
      </trkpt>
      <trkpt lat="47.38356" lon="-2.37466">
        <ele>-25.799999237061</ele>
        <time>2021-03-18T09:47:09.000Z</time>
      </trkpt>
      <trkpt lat="47.38356" lon="-2.37463">
        <ele>-26.200000762939</ele>
        <time>2021-03-18T09:47:10.000Z</time>
      </trkpt>
      <trkpt lat="47.38356" lon="-2.37461">
        <ele>-26.60000038147</ele>
        <time>2021-03-18T09:47:11.000Z</time>
      </trkpt>
      <trkpt lat="47.38355" lon="-2.37459">
        <ele>-27</ele>
        <time>2021-03-18T09:47:12.000Z</time>
      </trkpt>
      <trkpt lat="47.38355" lon="-2.37455">
        <ele>-27.39999961853</ele>
        <time>2021-03-18T09:47:13.000Z</time>
      </trkpt>
      <trkpt lat="47.38355" lon="-2.37453">
        <ele>-27.799999237061</ele>
        <time>2021-03-18T09:47:14.000Z</time>
      </trkpt>
      <trkpt lat="47.38355" lon="-2.37451">
        <ele>-27.799999237061</ele>
        <time>2021-03-18T09:47:15.000Z</time>
      </trkpt>
      <trkpt lat="47.38352" lon="-2.37445">
        <ele>-27.799999237061</ele>
        <time>2021-03-18T09:47:18.000Z</time>
      </trkpt>
      <trkpt lat="47.38348" lon="-2.37442">
        <ele>-27.799999237061</ele>
        <time>2021-03-18T09:47:21.000Z</time>
      </trkpt>
      <trkpt lat="47.38344" lon="-2.37436">
        <ele>-27.799999237061</ele>
        <time>2021-03-18T09:47:25.000Z</time>
      </trkpt>
      <trkpt lat="47.38345" lon="-2.37412">
        <ele>-27.799999237061</ele>
        <time>2021-03-18T09:47:46.000Z</time>
      </trkpt>
      <trkpt lat="47.38344" lon="-2.37403">
        <ele>-27.799999237061</ele>
        <time>2021-03-18T09:47:51.000Z</time>
      </trkpt>
      <trkpt lat="47.3834" lon="-2.37388">
        <ele>-27.799999237061</ele>
        <time>2021-03-18T09:47:57.000Z</time>
      </trkpt>
      <trkpt lat="47.38341" lon="-2.37383">
        <ele>-27.799999237061</ele>
        <time>2021-03-18T09:48:00.000Z</time>
      </trkpt>
      <trkpt lat="47.38328" lon="-2.37296">
        <ele>-27.799999237061</ele>
        <time>2021-03-18T09:49:31.000Z</time>
      </trkpt>
      <trkpt lat="47.38327" lon="-2.37292">
        <ele>-27.799999237061</ele>
        <time>2021-03-18T09:49:32.000Z</time>
      </trkpt>
      <trkpt lat="47.38322" lon="-2.37277">
        <ele>-27.799999237061</ele>
        <time>2021-03-18T09:49:37.000Z</time>
      </trkpt>
      <trkpt lat="47.3832" lon="-2.37274">
        <ele>-27.799999237061</ele>
        <time>2021-03-18T09:49:38.000Z</time>
      </trkpt>
      <trkpt lat="47.38313" lon="-2.3726">
        <ele>-27.799999237061</ele>
        <time>2021-03-18T09:49:42.000Z</time>
      </trkpt>
      <trkpt lat="47.38309" lon="-2.37257">
        <ele>-27.799999237061</ele>
        <time>2021-03-18T09:49:44.000Z</time>
      </trkpt>
      <trkpt lat="47.38301" lon="-2.37256">
        <ele>-27.799999237061</ele>
        <time>2021-03-18T09:49:48.000Z</time>
      </trkpt>
      <trkpt lat="47.38289" lon="-2.37248">
        <ele>-27.799999237061</ele>
        <time>2021-03-18T09:49:54.000Z</time>
      </trkpt>
      <trkpt lat="47.38275" lon="-2.3724">
        <ele>-27.799999237061</ele>
        <time>2021-03-18T09:50:00.000Z</time>
      </trkpt>
      <trkpt lat="47.38261" lon="-2.37233">
        <ele>-27.799999237061</ele>
        <time>2021-03-18T09:50:06.000Z</time>
      </trkpt>
      <trkpt lat="47.38258" lon="-2.37232">
        <ele>-27.799999237061</ele>
        <time>2021-03-18T09:50:10.000Z</time>
      </trkpt>
      <trkpt lat="47.38244" lon="-2.37212">
        <ele>-27.799999237061</ele>
        <time>2021-03-18T09:50:38.000Z</time>
      </trkpt>
      <trkpt lat="47.38243" lon="-2.37211">
        <ele>-27.799999237061</ele>
        <time>2021-03-18T09:50:39.000Z</time>
      </trkpt>
      <trkpt lat="47.38236" lon="-2.37199">
        <ele>-27.799999237061</ele>
        <time>2021-03-18T09:50:44.000Z</time>
      </trkpt>
      <trkpt lat="47.38227" lon="-2.37176">
        <ele>-27.799999237061</ele>
        <time>2021-03-18T09:50:51.000Z</time>
      </trkpt>
      <trkpt lat="47.38216" lon="-2.37155">
        <ele>-27.799999237061</ele>
        <time>2021-03-18T09:50:56.000Z</time>
      </trkpt>
      <trkpt lat="47.38205" lon="-2.37136">
        <ele>-27.799999237061</ele>
        <time>2021-03-18T09:51:02.000Z</time>
      </trkpt>
      <trkpt lat="47.38203" lon="-2.37132">
        <ele>-27.39999961853</ele>
        <time>2021-03-18T09:51:03.000Z</time>
      </trkpt>
      <trkpt lat="47.382" lon="-2.37128">
        <ele>-26.799999237061</ele>
        <time>2021-03-18T09:51:04.000Z</time>
      </trkpt>
      <trkpt lat="47.38198" lon="-2.37124">
        <ele>-26.39999961853</ele>
        <time>2021-03-18T09:51:05.000Z</time>
      </trkpt>
      <trkpt lat="47.38196" lon="-2.37119">
        <ele>-26</ele>
        <time>2021-03-18T09:51:06.000Z</time>
      </trkpt>
      <trkpt lat="47.38193" lon="-2.37112">
        <ele>-25.60000038147</ele>
        <time>2021-03-18T09:51:07.000Z</time>
      </trkpt>
      <trkpt lat="47.38191" lon="-2.37106">
        <ele>-25.60000038147</ele>
        <time>2021-03-18T09:51:08.000Z</time>
      </trkpt>
      <trkpt lat="47.38175" lon="-2.37067">
        <ele>-25.200000762939</ele>
        <time>2021-03-18T09:51:15.000Z</time>
      </trkpt>
      <trkpt lat="47.38173" lon="-2.37063">
        <ele>-24.799999237061</ele>
        <time>2021-03-18T09:51:16.000Z</time>
      </trkpt>
      <trkpt lat="47.3817" lon="-2.37059">
        <ele>-24.200000762939</ele>
        <time>2021-03-18T09:51:17.000Z</time>
      </trkpt>
      <trkpt lat="47.38168" lon="-2.37053">
        <ele>-23.799999237061</ele>
        <time>2021-03-18T09:51:18.000Z</time>
      </trkpt>
      <trkpt lat="47.38165" lon="-2.37048">
        <ele>-23.39999961853</ele>
        <time>2021-03-18T09:51:19.000Z</time>
      </trkpt>
      <trkpt lat="47.38162" lon="-2.37039">
        <ele>-23.39999961853</ele>
        <time>2021-03-18T09:51:21.000Z</time>
      </trkpt>
      <trkpt lat="47.38147" lon="-2.37006">
        <ele>-23.39999961853</ele>
        <time>2021-03-18T09:51:28.000Z</time>
      </trkpt>
      <trkpt lat="47.38137" lon="-2.36978">
        <ele>-23.39999961853</ele>
        <time>2021-03-18T09:51:34.000Z</time>
      </trkpt>
      <trkpt lat="47.38125" lon="-2.3695">
        <ele>-23.39999961853</ele>
        <time>2021-03-18T09:51:40.000Z</time>
      </trkpt>
      <trkpt lat="47.3812" lon="-2.36936">
        <ele>-23</ele>
        <time>2021-03-18T09:51:43.000Z</time>
      </trkpt>
      <trkpt lat="47.38118" lon="-2.36931">
        <ele>-22.60000038147</ele>
        <time>2021-03-18T09:51:44.000Z</time>
      </trkpt>
      <trkpt lat="47.38116" lon="-2.36924">
        <ele>-22.200000762939</ele>
        <time>2021-03-18T09:51:45.000Z</time>
      </trkpt>
      <trkpt lat="47.38114" lon="-2.36918">
        <ele>-21.799999237061</ele>
        <time>2021-03-18T09:51:46.000Z</time>
      </trkpt>
      <trkpt lat="47.38111" lon="-2.36912">
        <ele>-21.39999961853</ele>
        <time>2021-03-18T09:51:47.000Z</time>
      </trkpt>
      <trkpt lat="47.38109" lon="-2.36909">
        <ele>-21.39999961853</ele>
        <time>2021-03-18T09:51:48.000Z</time>
      </trkpt>
      <trkpt lat="47.38105" lon="-2.36899">
        <ele>-21.39999961853</ele>
        <time>2021-03-18T09:51:53.000Z</time>
      </trkpt>
      <trkpt lat="47.38105" lon="-2.36899">
        <ele>-21.39999961853</ele>
        <time>2021-03-18T09:51:54.000Z</time>
      </trkpt>
      <trkpt lat="47.38108" lon="-2.36902">
        <ele>-21.39999961853</ele>
        <time>2021-03-18T09:52:12.000Z</time>
      </trkpt>
      <trkpt lat="47.38112" lon="-2.36902">
        <ele>-21.39999961853</ele>
        <time>2021-03-18T09:52:14.000Z</time>
      </trkpt>
      <trkpt lat="47.38133" lon="-2.36889">
        <ele>-21.39999961853</ele>
        <time>2021-03-18T09:52:20.000Z</time>
      </trkpt>
      <trkpt lat="47.38165" lon="-2.36867">
        <ele>-21.39999961853</ele>
        <time>2021-03-18T09:52:28.000Z</time>
      </trkpt>
      <trkpt lat="47.38175" lon="-2.3686">
        <ele>-21.799999237061</ele>
        <time>2021-03-18T09:52:30.000Z</time>
      </trkpt>
      <trkpt lat="47.38181" lon="-2.36857">
        <ele>-22.200000762939</ele>
        <time>2021-03-18T09:52:31.000Z</time>
      </trkpt>
      <trkpt lat="47.38187" lon="-2.36853">
        <ele>-22.60000038147</ele>
        <time>2021-03-18T09:52:32.000Z</time>
      </trkpt>
      <trkpt lat="47.38192" lon="-2.3685">
        <ele>-23</ele>
        <time>2021-03-18T09:52:33.000Z</time>
      </trkpt>
      <trkpt lat="47.38197" lon="-2.36847">
        <ele>-23.39999961853</ele>
        <time>2021-03-18T09:52:34.000Z</time>
      </trkpt>
      <trkpt lat="47.38233" lon="-2.36826">
        <ele>-23.39999961853</ele>
        <time>2021-03-18T09:52:40.000Z</time>
      </trkpt>
      <trkpt lat="47.38238" lon="-2.36823">
        <ele>-24.39999961853</ele>
        <time>2021-03-18T09:52:41.000Z</time>
      </trkpt>
      <trkpt lat="47.38244" lon="-2.3682">
        <ele>-24.799999237061</ele>
        <time>2021-03-18T09:52:42.000Z</time>
      </trkpt>
      <trkpt lat="47.38251" lon="-2.36816">
        <ele>-25.200000762939</ele>
        <time>2021-03-18T09:52:43.000Z</time>
      </trkpt>
      <trkpt lat="47.38255" lon="-2.36813">
        <ele>-25.60000038147</ele>
        <time>2021-03-18T09:52:44.000Z</time>
      </trkpt>
      <trkpt lat="47.38259" lon="-2.36814">
        <ele>-25.60000038147</ele>
        <time>2021-03-18T09:52:45.000Z</time>
      </trkpt>
      <trkpt lat="47.38267" lon="-2.3681">
        <ele>-26.200000762939</ele>
        <time>2021-03-18T09:52:47.000Z</time>
      </trkpt>
      <trkpt lat="47.3827" lon="-2.36809">
        <ele>-26.60000038147</ele>
        <time>2021-03-18T09:52:48.000Z</time>
      </trkpt>
      <trkpt lat="47.38273" lon="-2.36808">
        <ele>-27</ele>
        <time>2021-03-18T09:52:49.000Z</time>
      </trkpt>
      <trkpt lat="47.38275" lon="-2.36808">
        <ele>-27.39999961853</ele>
        <time>2021-03-18T09:52:50.000Z</time>
      </trkpt>
      <trkpt lat="47.38278" lon="-2.36808">
        <ele>-28</ele>
        <time>2021-03-18T09:52:51.000Z</time>
      </trkpt>
      <trkpt lat="47.38284" lon="-2.36806">
        <ele>-28</ele>
        <time>2021-03-18T09:52:53.000Z</time>
      </trkpt>
      <trkpt lat="47.38293" lon="-2.36804">
        <ele>-28</ele>
        <time>2021-03-18T09:52:57.000Z</time>
      </trkpt>
      <trkpt lat="47.38311" lon="-2.36798">
        <ele>-28</ele>
        <time>2021-03-18T09:53:02.000Z</time>
      </trkpt>
      <trkpt lat="47.38332" lon="-2.36787">
        <ele>-28</ele>
        <time>2021-03-18T09:53:07.000Z</time>
      </trkpt>
      <trkpt lat="47.3835" lon="-2.36776">
        <ele>-28</ele>
        <time>2021-03-18T09:53:11.000Z</time>
      </trkpt>
      <trkpt lat="47.38357" lon="-2.36768">
        <ele>-28</ele>
        <time>2021-03-18T09:53:13.000Z</time>
      </trkpt>
      <trkpt lat="47.38368" lon="-2.36742">
        <ele>-28</ele>
        <time>2021-03-18T09:53:18.000Z</time>
      </trkpt>
      <trkpt lat="47.3837" lon="-2.36735">
        <ele>-28</ele>
        <time>2021-03-18T09:53:19.000Z</time>
      </trkpt>
      <trkpt lat="47.38377" lon="-2.36709">
        <ele>-28</ele>
        <time>2021-03-18T09:53:23.000Z</time>
      </trkpt>
      <trkpt lat="47.38386" lon="-2.36679">
        <ele>-28</ele>
        <time>2021-03-18T09:53:28.000Z</time>
      </trkpt>
      <trkpt lat="47.38388" lon="-2.36669">
        <ele>-28</ele>
        <time>2021-03-18T09:53:30.000Z</time>
      </trkpt>
      <trkpt lat="47.38397" lon="-2.36649">
        <ele>-28</ele>
        <time>2021-03-18T09:53:35.000Z</time>
      </trkpt>
      <trkpt lat="47.38408" lon="-2.3662">
        <ele>-28</ele>
        <time>2021-03-18T09:53:42.000Z</time>
      </trkpt>
      <trkpt lat="47.38422" lon="-2.36595">
        <ele>-28</ele>
        <time>2021-03-18T09:53:48.000Z</time>
      </trkpt>
      <trkpt lat="47.38443" lon="-2.36578">
        <ele>-28</ele>
        <time>2021-03-18T09:53:53.000Z</time>
      </trkpt>
      <trkpt lat="47.38472" lon="-2.36561">
        <ele>-28</ele>
        <time>2021-03-18T09:54:00.000Z</time>
      </trkpt>
      <trkpt lat="47.38507" lon="-2.36546">
        <ele>-28</ele>
        <time>2021-03-18T09:54:06.000Z</time>
      </trkpt>
      <trkpt lat="47.3852" lon="-2.36535">
        <ele>-28</ele>
        <time>2021-03-18T09:54:09.000Z</time>
      </trkpt>
      <trkpt lat="47.38531" lon="-2.36523">
        <ele>-28</ele>
        <time>2021-03-18T09:54:12.000Z</time>
      </trkpt>
      <trkpt lat="47.38535" lon="-2.36518">
        <ele>-28</ele>
        <time>2021-03-18T09:54:13.000Z</time>
      </trkpt>
      <trkpt lat="47.38545" lon="-2.36498">
        <ele>-28</ele>
        <time>2021-03-18T09:54:17.000Z</time>
      </trkpt>
      <trkpt lat="47.38548" lon="-2.36493">
        <ele>-28</ele>
        <time>2021-03-18T09:54:18.000Z</time>
      </trkpt>
      <trkpt lat="47.38561" lon="-2.36465">
        <ele>-28</ele>
        <time>2021-03-18T09:54:23.000Z</time>
      </trkpt>
      <trkpt lat="47.38573" lon="-2.36437">
        <ele>-28</ele>
        <time>2021-03-18T09:54:28.000Z</time>
      </trkpt>
      <trkpt lat="47.38594" lon="-2.36396">
        <ele>-28</ele>
        <time>2021-03-18T09:54:35.000Z</time>
      </trkpt>
      <trkpt lat="47.38608" lon="-2.36362">
        <ele>-28</ele>
        <time>2021-03-18T09:54:41.000Z</time>
      </trkpt>
      <trkpt lat="47.38612" lon="-2.36349">
        <ele>-28</ele>
        <time>2021-03-18T09:54:43.000Z</time>
      </trkpt>
      <trkpt lat="47.38621" lon="-2.36312">
        <ele>-28</ele>
        <time>2021-03-18T09:54:49.000Z</time>
      </trkpt>
      <trkpt lat="47.3862" lon="-2.36287">
        <ele>-28</ele>
        <time>2021-03-18T09:54:53.000Z</time>
      </trkpt>
      <trkpt lat="47.38616" lon="-2.36276">
        <ele>-28</ele>
        <time>2021-03-18T09:54:55.000Z</time>
      </trkpt>
      <trkpt lat="47.38604" lon="-2.36265">
        <ele>-28</ele>
        <time>2021-03-18T09:54:59.000Z</time>
      </trkpt>
      <trkpt lat="47.38601" lon="-2.36264">
        <ele>-28</ele>
        <time>2021-03-18T09:55:00.000Z</time>
      </trkpt>
      <trkpt lat="47.38594" lon="-2.3626">
        <ele>-28</ele>
        <time>2021-03-18T09:55:04.000Z</time>
      </trkpt>
      <trkpt lat="47.38592" lon="-2.36258">
        <ele>-28</ele>
        <time>2021-03-18T09:55:06.000Z</time>
      </trkpt>
      <trkpt lat="47.3859" lon="-2.3626">
        <ele>-28</ele>
        <time>2021-03-18T09:55:08.000Z</time>
      </trkpt>
      <trkpt lat="47.38579" lon="-2.36261">
        <ele>-28</ele>
        <time>2021-03-18T09:55:12.000Z</time>
      </trkpt>
      <trkpt lat="47.38559" lon="-2.36261">
        <ele>-28</ele>
        <time>2021-03-18T09:55:17.000Z</time>
      </trkpt>
      <trkpt lat="47.38543" lon="-2.3626">
        <ele>-28</ele>
        <time>2021-03-18T09:55:22.000Z</time>
      </trkpt>
      <trkpt lat="47.38529" lon="-2.36259">
        <ele>-28</ele>
        <time>2021-03-18T09:55:27.000Z</time>
      </trkpt>
      <trkpt lat="47.38514" lon="-2.36256">
        <ele>-28</ele>
        <time>2021-03-18T09:55:31.000Z</time>
      </trkpt>
      <trkpt lat="47.38487" lon="-2.36252">
        <ele>-28</ele>
        <time>2021-03-18T09:55:38.000Z</time>
      </trkpt>
      <trkpt lat="47.38478" lon="-2.36252">
        <ele>-28</ele>
        <time>2021-03-18T09:55:40.000Z</time>
      </trkpt>
      <trkpt lat="47.38472" lon="-2.3626">
        <ele>-28</ele>
        <time>2021-03-18T09:55:42.000Z</time>
      </trkpt>
      <trkpt lat="47.38459" lon="-2.36269">
        <ele>-28</ele>
        <time>2021-03-18T09:55:46.000Z</time>
      </trkpt>
      <trkpt lat="47.38455" lon="-2.36268">
        <ele>-28</ele>
        <time>2021-03-18T09:55:47.000Z</time>
      </trkpt>
      <trkpt lat="47.38438" lon="-2.36262">
        <ele>-28</ele>
        <time>2021-03-18T09:55:52.000Z</time>
      </trkpt>
      <trkpt lat="47.38436" lon="-2.36259">
        <ele>-28</ele>
        <time>2021-03-18T09:55:53.000Z</time>
      </trkpt>
      <trkpt lat="47.38426" lon="-2.36243">
        <ele>-28</ele>
        <time>2021-03-18T09:55:58.000Z</time>
      </trkpt>
      <trkpt lat="47.38424" lon="-2.36225">
        <ele>-28</ele>
        <time>2021-03-18T09:56:03.000Z</time>
      </trkpt>
      <trkpt lat="47.38421" lon="-2.3622">
        <ele>-28</ele>
        <time>2021-03-18T09:56:06.000Z</time>
      </trkpt>
      <trkpt lat="47.38419" lon="-2.36218">
        <ele>-28</ele>
        <time>2021-03-18T09:56:07.000Z</time>
      </trkpt>
      <trkpt lat="47.38404" lon="-2.3621">
        <ele>-28</ele>
        <time>2021-03-18T09:56:12.000Z</time>
      </trkpt>
      <trkpt lat="47.38392" lon="-2.36197">
        <ele>-28</ele>
        <time>2021-03-18T09:56:16.000Z</time>
      </trkpt>
      <trkpt lat="47.38379" lon="-2.36192">
        <ele>-28</ele>
        <time>2021-03-18T09:56:20.000Z</time>
      </trkpt>
      <trkpt lat="47.38366" lon="-2.36178">
        <ele>-28</ele>
        <time>2021-03-18T09:56:24.000Z</time>
      </trkpt>
      <trkpt lat="47.38363" lon="-2.36173">
        <ele>-28</ele>
        <time>2021-03-18T09:56:25.000Z</time>
      </trkpt>
      <trkpt lat="47.38359" lon="-2.36154">
        <ele>-28</ele>
        <time>2021-03-18T09:56:28.000Z</time>
      </trkpt>
      <trkpt lat="47.38356" lon="-2.36142">
        <ele>-28</ele>
        <time>2021-03-18T09:56:30.000Z</time>
      </trkpt>
      <trkpt lat="47.38354" lon="-2.36137">
        <ele>-28</ele>
        <time>2021-03-18T09:56:31.000Z</time>
      </trkpt>
      <trkpt lat="47.38347" lon="-2.36122">
        <ele>-28</ele>
        <time>2021-03-18T09:56:34.000Z</time>
      </trkpt>
      <trkpt lat="47.38344" lon="-2.36117">
        <ele>-28</ele>
        <time>2021-03-18T09:56:35.000Z</time>
      </trkpt>
      <trkpt lat="47.38334" lon="-2.36088">
        <ele>-28</ele>
        <time>2021-03-18T09:56:40.000Z</time>
      </trkpt>
      <trkpt lat="47.3833" lon="-2.36075">
        <ele>-28</ele>
        <time>2021-03-18T09:56:42.000Z</time>
      </trkpt>
      <trkpt lat="47.3832" lon="-2.3605">
        <ele>-28</ele>
        <time>2021-03-18T09:56:46.000Z</time>
      </trkpt>
      <trkpt lat="47.38313" lon="-2.36023">
        <ele>-28</ele>
        <time>2021-03-18T09:56:50.000Z</time>
      </trkpt>
      <trkpt lat="47.38312" lon="-2.36017">
        <ele>-28</ele>
        <time>2021-03-18T09:56:51.000Z</time>
      </trkpt>
      <trkpt lat="47.38309" lon="-2.35998">
        <ele>-28</ele>
        <time>2021-03-18T09:56:54.000Z</time>
      </trkpt>
      <trkpt lat="47.38308" lon="-2.35992">
        <ele>-28</ele>
        <time>2021-03-18T09:56:55.000Z</time>
      </trkpt>
      <trkpt lat="47.38307" lon="-2.35985">
        <ele>-28</ele>
        <time>2021-03-18T09:56:56.000Z</time>
      </trkpt>
      <trkpt lat="47.38298" lon="-2.35951">
        <ele>-28</ele>
        <time>2021-03-18T09:57:01.000Z</time>
      </trkpt>
      <trkpt lat="47.38295" lon="-2.35938">
        <ele>-28</ele>
        <time>2021-03-18T09:57:03.000Z</time>
      </trkpt>
      <trkpt lat="47.38289" lon="-2.35927">
        <ele>-28</ele>
        <time>2021-03-18T09:57:05.000Z</time>
      </trkpt>
      <trkpt lat="47.38276" lon="-2.35927">
        <ele>-28</ele>
        <time>2021-03-18T09:57:08.000Z</time>
      </trkpt>
      <trkpt lat="47.38267" lon="-2.35933">
        <ele>-28</ele>
        <time>2021-03-18T09:57:10.000Z</time>
      </trkpt>
      <trkpt lat="47.38255" lon="-2.35942">
        <ele>-27.60000038147</ele>
        <time>2021-03-18T09:57:13.000Z</time>
      </trkpt>
      <trkpt lat="47.38251" lon="-2.35944">
        <ele>-27.200000762939</ele>
        <time>2021-03-18T09:57:14.000Z</time>
      </trkpt>
      <trkpt lat="47.38246" lon="-2.35948">
        <ele>-26.799999237061</ele>
        <time>2021-03-18T09:57:15.000Z</time>
      </trkpt>
      <trkpt lat="47.38242" lon="-2.35951">
        <ele>-26.39999961853</ele>
        <time>2021-03-18T09:57:16.000Z</time>
      </trkpt>
      <trkpt lat="47.38238" lon="-2.35954">
        <ele>-26</ele>
        <time>2021-03-18T09:57:17.000Z</time>
      </trkpt>
      <trkpt lat="47.3822" lon="-2.35966">
        <ele>-26</ele>
        <time>2021-03-18T09:57:21.000Z</time>
      </trkpt>
      <trkpt lat="47.38186" lon="-2.3599">
        <ele>-26</ele>
        <time>2021-03-18T09:57:28.000Z</time>
      </trkpt>
      <trkpt lat="47.38135" lon="-2.36025">
        <ele>-26</ele>
        <time>2021-03-18T09:57:37.000Z</time>
      </trkpt>
      <trkpt lat="47.381" lon="-2.36042">
        <ele>-26</ele>
        <time>2021-03-18T09:57:43.000Z</time>
      </trkpt>
      <trkpt lat="47.38053" lon="-2.36058">
        <ele>-26</ele>
        <time>2021-03-18T09:57:51.000Z</time>
      </trkpt>
      <trkpt lat="47.38006" lon="-2.36074">
        <ele>-25.39999961853</ele>
        <time>2021-03-18T09:57:59.000Z</time>
      </trkpt>
      <trkpt lat="47.38" lon="-2.36076">
        <ele>-25</ele>
        <time>2021-03-18T09:58:00.000Z</time>
      </trkpt>
      <trkpt lat="47.37995" lon="-2.36078">
        <ele>-24.60000038147</ele>
        <time>2021-03-18T09:58:01.000Z</time>
      </trkpt>
      <trkpt lat="47.37989" lon="-2.36081">
        <ele>-23.799999237061</ele>
        <time>2021-03-18T09:58:02.000Z</time>
      </trkpt>
      <trkpt lat="47.37956" lon="-2.36097">
        <ele>-23.799999237061</ele>
        <time>2021-03-18T09:58:08.000Z</time>
      </trkpt>
      <trkpt lat="47.3792" lon="-2.36116">
        <ele>-23.799999237061</ele>
        <time>2021-03-18T09:58:15.000Z</time>
      </trkpt>
      <trkpt lat="47.37894" lon="-2.36126">
        <ele>-23.799999237061</ele>
        <time>2021-03-18T09:58:20.000Z</time>
      </trkpt>
      <trkpt lat="47.37889" lon="-2.36126">
        <ele>-23.39999961853</ele>
        <time>2021-03-18T09:58:21.000Z</time>
      </trkpt>
      <trkpt lat="47.37884" lon="-2.36125">
        <ele>-23</ele>
        <time>2021-03-18T09:58:22.000Z</time>
      </trkpt>
      <trkpt lat="47.3788" lon="-2.36124">
        <ele>-22.60000038147</ele>
        <time>2021-03-18T09:58:23.000Z</time>
      </trkpt>
      <trkpt lat="47.37875" lon="-2.36121">
        <ele>-22.200000762939</ele>
        <time>2021-03-18T09:58:24.000Z</time>
      </trkpt>
      <trkpt lat="47.3787" lon="-2.36117">
        <ele>-21.799999237061</ele>
        <time>2021-03-18T09:58:25.000Z</time>
      </trkpt>
      <trkpt lat="47.37859" lon="-2.36111">
        <ele>-21.799999237061</ele>
        <time>2021-03-18T09:58:27.000Z</time>
      </trkpt>
      <trkpt lat="47.37853" lon="-2.36108">
        <ele>-21.799999237061</ele>
        <time>2021-03-18T09:58:28.000Z</time>
      </trkpt>
      <trkpt lat="47.37818" lon="-2.36091">
        <ele>-21.799999237061</ele>
        <time>2021-03-18T09:58:34.000Z</time>
      </trkpt>
      <trkpt lat="47.37781" lon="-2.36072">
        <ele>-21.799999237061</ele>
        <time>2021-03-18T09:58:40.000Z</time>
      </trkpt>
      <trkpt lat="47.37738" lon="-2.36046">
        <ele>-21.799999237061</ele>
        <time>2021-03-18T09:58:47.000Z</time>
      </trkpt>
      <trkpt lat="47.37702" lon="-2.36023">
        <ele>-21.799999237061</ele>
        <time>2021-03-18T09:58:53.000Z</time>
      </trkpt>
      <trkpt lat="47.37659" lon="-2.36007">
        <ele>-21.799999237061</ele>
        <time>2021-03-18T09:59:00.000Z</time>
      </trkpt>
      <trkpt lat="47.37649" lon="-2.36004">
        <ele>-21.799999237061</ele>
        <time>2021-03-18T09:59:02.000Z</time>
      </trkpt>
      <trkpt lat="47.37641" lon="-2.36012">
        <ele>-21.799999237061</ele>
        <time>2021-03-18T09:59:04.000Z</time>
      </trkpt>
      <trkpt lat="47.37638" lon="-2.36034">
        <ele>-21.799999237061</ele>
        <time>2021-03-18T09:59:07.000Z</time>
      </trkpt>
      <trkpt lat="47.37628" lon="-2.36049">
        <ele>-21.799999237061</ele>
        <time>2021-03-18T09:59:10.000Z</time>
      </trkpt>
      <trkpt lat="47.37613" lon="-2.36051">
        <ele>-21.799999237061</ele>
        <time>2021-03-18T09:59:13.000Z</time>
      </trkpt>
      <trkpt lat="47.37603" lon="-2.36051">
        <ele>-21.799999237061</ele>
        <time>2021-03-18T09:59:15.000Z</time>
      </trkpt>
      <trkpt lat="47.37576" lon="-2.36058">
        <ele>-21.799999237061</ele>
        <time>2021-03-18T09:59:20.000Z</time>
      </trkpt>
      <trkpt lat="47.3757" lon="-2.36059">
        <ele>-21.799999237061</ele>
        <time>2021-03-18T09:59:21.000Z</time>
      </trkpt>
      <trkpt lat="47.37551" lon="-2.36067">
        <ele>-21.799999237061</ele>
        <time>2021-03-18T09:59:24.000Z</time>
      </trkpt>
      <trkpt lat="47.37533" lon="-2.36073">
        <ele>-21.799999237061</ele>
        <time>2021-03-18T09:59:27.000Z</time>
      </trkpt>
      <trkpt lat="47.37496" lon="-2.36091">
        <ele>-21.799999237061</ele>
        <time>2021-03-18T09:59:33.000Z</time>
      </trkpt>
      <trkpt lat="47.3749" lon="-2.36094">
        <ele>-21.799999237061</ele>
        <time>2021-03-18T09:59:34.000Z</time>
      </trkpt>
      <trkpt lat="47.37465" lon="-2.36108">
        <ele>-21.799999237061</ele>
        <time>2021-03-18T09:59:38.000Z</time>
      </trkpt>
      <trkpt lat="47.37451" lon="-2.36117">
        <ele>-22.200000762939</ele>
        <time>2021-03-18T09:59:40.000Z</time>
      </trkpt>
      <trkpt lat="47.37444" lon="-2.36121">
        <ele>-22.799999237061</ele>
        <time>2021-03-18T09:59:41.000Z</time>
      </trkpt>
      <trkpt lat="47.37437" lon="-2.36126">
        <ele>-23.200000762939</ele>
        <time>2021-03-18T09:59:42.000Z</time>
      </trkpt>
      <trkpt lat="47.37431" lon="-2.36131">
        <ele>-23.60000038147</ele>
        <time>2021-03-18T09:59:43.000Z</time>
      </trkpt>
      <trkpt lat="47.37424" lon="-2.36136">
        <ele>-24.200000762939</ele>
        <time>2021-03-18T09:59:44.000Z</time>
      </trkpt>
      <trkpt lat="47.37419" lon="-2.3614">
        <ele>-24.799999237061</ele>
        <time>2021-03-18T09:59:45.000Z</time>
      </trkpt>
      <trkpt lat="47.37415" lon="-2.36141">
        <ele>-25.200000762939</ele>
        <time>2021-03-18T09:59:46.000Z</time>
      </trkpt>
      <trkpt lat="47.37411" lon="-2.36137">
        <ele>-25.799999237061</ele>
        <time>2021-03-18T09:59:47.000Z</time>
      </trkpt>
      <trkpt lat="47.37407" lon="-2.36132">
        <ele>-26.39999961853</ele>
        <time>2021-03-18T09:59:48.000Z</time>
      </trkpt>
      <trkpt lat="47.37395" lon="-2.36115">
        <ele>-26.39999961853</ele>
        <time>2021-03-18T09:59:51.000Z</time>
      </trkpt>
      <trkpt lat="47.37392" lon="-2.3611">
        <ele>-26.39999961853</ele>
        <time>2021-03-18T09:59:52.000Z</time>
      </trkpt>
      <trkpt lat="47.37388" lon="-2.36107">
        <ele>-26.39999961853</ele>
        <time>2021-03-18T09:59:53.000Z</time>
      </trkpt>
      <trkpt lat="47.37381" lon="-2.36107">
        <ele>-26.39999961853</ele>
        <time>2021-03-18T09:59:55.000Z</time>
      </trkpt>
      <trkpt lat="47.37373" lon="-2.36113">
        <ele>-26.39999961853</ele>
        <time>2021-03-18T09:59:57.000Z</time>
      </trkpt>
      <trkpt lat="47.3737" lon="-2.36117">
        <ele>-26.799999237061</ele>
        <time>2021-03-18T09:59:58.000Z</time>
      </trkpt>
      <trkpt lat="47.37366" lon="-2.36121">
        <ele>-27.200000762939</ele>
        <time>2021-03-18T09:59:59.000Z</time>
      </trkpt>
      <trkpt lat="47.37361" lon="-2.36125">
        <ele>-27.60000038147</ele>
        <time>2021-03-18T10:00:00.000Z</time>
      </trkpt>
      <trkpt lat="47.37357" lon="-2.36128">
        <ele>-28</ele>
        <time>2021-03-18T10:00:01.000Z</time>
      </trkpt>
      <trkpt lat="47.37353" lon="-2.36128">
        <ele>-28.60000038147</ele>
        <time>2021-03-18T10:00:02.000Z</time>
      </trkpt>
      <trkpt lat="47.37349" lon="-2.36127">
        <ele>-28.60000038147</ele>
        <time>2021-03-18T10:00:03.000Z</time>
      </trkpt>
      <trkpt lat="47.3733" lon="-2.36118">
        <ele>-28.60000038147</ele>
        <time>2021-03-18T10:00:07.000Z</time>
      </trkpt>
      <trkpt lat="47.37315" lon="-2.36118">
        <ele>-28.60000038147</ele>
        <time>2021-03-18T10:00:10.000Z</time>
      </trkpt>
      <trkpt lat="47.37306" lon="-2.36119">
        <ele>-28.60000038147</ele>
        <time>2021-03-18T10:00:12.000Z</time>
      </trkpt>
      <trkpt lat="47.37296" lon="-2.36123">
        <ele>-28.60000038147</ele>
        <time>2021-03-18T10:00:17.000Z</time>
      </trkpt>
      <trkpt lat="47.37293" lon="-2.36127">
        <ele>-28.60000038147</ele>
        <time>2021-03-18T10:00:22.000Z</time>
      </trkpt>
      <trkpt lat="47.37293" lon="-2.36129">
        <ele>-28.60000038147</ele>
        <time>2021-03-18T10:00:23.000Z</time>
      </trkpt>
      <trkpt lat="47.37292" lon="-2.3613">
        <ele>-28.60000038147</ele>
        <time>2021-03-18T10:00:25.000Z</time>
      </trkpt>
      <trkpt lat="47.3722" lon="-2.36085">
        <ele>-28.60000038147</ele>
        <time>2021-03-18T10:12:09.000Z</time>
      </trkpt>
      <trkpt lat="47.37219" lon="-2.36086">
        <ele>-28.60000038147</ele>
        <time>2021-03-18T10:12:10.000Z</time>
      </trkpt>
      <trkpt lat="47.37215" lon="-2.36088">
        <ele>-28.60000038147</ele>
        <time>2021-03-18T10:12:15.000Z</time>
      </trkpt>
      <trkpt lat="47.37214" lon="-2.36088">
        <ele>-28.60000038147</ele>
        <time>2021-03-18T10:12:18.000Z</time>
      </trkpt>
      <trkpt lat="47.37203" lon="-2.36096">
        <ele>-28.60000038147</ele>
        <time>2021-03-18T10:12:24.000Z</time>
      </trkpt>
      <trkpt lat="47.37198" lon="-2.36104">
        <ele>-27.60000038147</ele>
        <time>2021-03-18T10:12:26.000Z</time>
      </trkpt>
      <trkpt lat="47.37196" lon="-2.36108">
        <ele>-27.200000762939</ele>
        <time>2021-03-18T10:12:27.000Z</time>
      </trkpt>
      <trkpt lat="47.37194" lon="-2.36113">
        <ele>-26.799999237061</ele>
        <time>2021-03-18T10:12:28.000Z</time>
      </trkpt>
      <trkpt lat="47.37192" lon="-2.36117">
        <ele>-26.39999961853</ele>
        <time>2021-03-18T10:12:29.000Z</time>
      </trkpt>
      <trkpt lat="47.37176" lon="-2.36152">
        <ele>-26.39999961853</ele>
        <time>2021-03-18T10:12:36.000Z</time>
      </trkpt>
      <trkpt lat="47.37161" lon="-2.36179">
        <ele>-26.39999961853</ele>
        <time>2021-03-18T10:12:42.000Z</time>
      </trkpt>
      <trkpt lat="47.3715" lon="-2.36201">
        <ele>-26.39999961853</ele>
        <time>2021-03-18T10:12:47.000Z</time>
      </trkpt>
      <trkpt lat="47.37138" lon="-2.36231">
        <ele>-26.39999961853</ele>
        <time>2021-03-18T10:12:53.000Z</time>
      </trkpt>
      <trkpt lat="47.37119" lon="-2.36269">
        <ele>-26.39999961853</ele>
        <time>2021-03-18T10:13:01.000Z</time>
      </trkpt>
      <trkpt lat="47.37117" lon="-2.36274">
        <ele>-26</ele>
        <time>2021-03-18T10:13:02.000Z</time>
      </trkpt>
      <trkpt lat="47.37114" lon="-2.36279">
        <ele>-25.60000038147</ele>
        <time>2021-03-18T10:13:03.000Z</time>
      </trkpt>
      <trkpt lat="47.37112" lon="-2.36284">
        <ele>-25.200000762939</ele>
        <time>2021-03-18T10:13:04.000Z</time>
      </trkpt>
      <trkpt lat="47.3711" lon="-2.36288">
        <ele>-24.799999237061</ele>
        <time>2021-03-18T10:13:05.000Z</time>
      </trkpt>
      <trkpt lat="47.37107" lon="-2.36293">
        <ele>-24.39999961853</ele>
        <time>2021-03-18T10:13:06.000Z</time>
      </trkpt>
      <trkpt lat="47.371" lon="-2.36307">
        <ele>-24.39999961853</ele>
        <time>2021-03-18T10:13:09.000Z</time>
      </trkpt>
      <trkpt lat="47.37083" lon="-2.36346">
        <ele>-24.39999961853</ele>
        <time>2021-03-18T10:13:17.000Z</time>
      </trkpt>
      <trkpt lat="47.37074" lon="-2.36361">
        <ele>-24.39999961853</ele>
        <time>2021-03-18T10:13:20.000Z</time>
      </trkpt>
      <trkpt lat="47.37066" lon="-2.36366">
        <ele>-24.39999961853</ele>
        <time>2021-03-18T10:13:22.000Z</time>
      </trkpt>
      <trkpt lat="47.37041" lon="-2.36367">
        <ele>-24.39999961853</ele>
        <time>2021-03-18T10:13:27.000Z</time>
      </trkpt>
      <trkpt lat="47.37005" lon="-2.36367">
        <ele>-24.39999961853</ele>
        <time>2021-03-18T10:13:34.000Z</time>
      </trkpt>
      <trkpt lat="47.3697" lon="-2.36368">
        <ele>-24.39999961853</ele>
        <time>2021-03-18T10:13:41.000Z</time>
      </trkpt>
      <trkpt lat="47.36928" lon="-2.36368">
        <ele>-24.39999961853</ele>
        <time>2021-03-18T10:13:49.000Z</time>
      </trkpt>
      <trkpt lat="47.36888" lon="-2.36369">
        <ele>-24</ele>
        <time>2021-03-18T10:13:56.000Z</time>
      </trkpt>
      <trkpt lat="47.36882" lon="-2.36369">
        <ele>-23.60000038147</ele>
        <time>2021-03-18T10:13:57.000Z</time>
      </trkpt>
      <trkpt lat="47.36876" lon="-2.3637">
        <ele>-23.200000762939</ele>
        <time>2021-03-18T10:13:58.000Z</time>
      </trkpt>
      <trkpt lat="47.36871" lon="-2.3637">
        <ele>-22.799999237061</ele>
        <time>2021-03-18T10:13:59.000Z</time>
      </trkpt>
      <trkpt lat="47.36865" lon="-2.3637">
        <ele>-22.39999961853</ele>
        <time>2021-03-18T10:14:00.000Z</time>
      </trkpt>
      <trkpt lat="47.36848" lon="-2.36371">
        <ele>-22.39999961853</ele>
        <time>2021-03-18T10:14:03.000Z</time>
      </trkpt>
      <trkpt lat="47.36842" lon="-2.3637">
        <ele>-22.39999961853</ele>
        <time>2021-03-18T10:14:04.000Z</time>
      </trkpt>
      <trkpt lat="47.3682" lon="-2.36371">
        <ele>-22.39999961853</ele>
        <time>2021-03-18T10:14:08.000Z</time>
      </trkpt>
      <trkpt lat="47.36776" lon="-2.36372">
        <ele>-22.39999961853</ele>
        <time>2021-03-18T10:14:16.000Z</time>
      </trkpt>
      <trkpt lat="47.36745" lon="-2.3638">
        <ele>-22.39999961853</ele>
        <time>2021-03-18T10:14:22.000Z</time>
      </trkpt>
      <trkpt lat="47.36741" lon="-2.36384">
        <ele>-22.39999961853</ele>
        <time>2021-03-18T10:14:23.000Z</time>
      </trkpt>
      <trkpt lat="47.36725" lon="-2.36404">
        <ele>-22.39999961853</ele>
        <time>2021-03-18T10:14:27.000Z</time>
      </trkpt>
      <trkpt lat="47.36722" lon="-2.3641">
        <ele>-22.39999961853</ele>
        <time>2021-03-18T10:14:28.000Z</time>
      </trkpt>
      <trkpt lat="47.36691" lon="-2.36444">
        <ele>-22.39999961853</ele>
        <time>2021-03-18T10:14:35.000Z</time>
      </trkpt>
      <trkpt lat="47.36677" lon="-2.36456">
        <ele>-22</ele>
        <time>2021-03-18T10:14:38.000Z</time>
      </trkpt>
      <trkpt lat="47.36672" lon="-2.3646">
        <ele>-21.60000038147</ele>
        <time>2021-03-18T10:14:39.000Z</time>
      </trkpt>
      <trkpt lat="47.36668" lon="-2.36463">
        <ele>-21.200000762939</ele>
        <time>2021-03-18T10:14:40.000Z</time>
      </trkpt>
      <trkpt lat="47.36663" lon="-2.36466">
        <ele>-20.799999237061</ele>
        <time>2021-03-18T10:14:41.000Z</time>
      </trkpt>
      <trkpt lat="47.36658" lon="-2.36469">
        <ele>-20.39999961853</ele>
        <time>2021-03-18T10:14:42.000Z</time>
      </trkpt>
      <trkpt lat="47.36654" lon="-2.36471">
        <ele>-20.39999961853</ele>
        <time>2021-03-18T10:14:43.000Z</time>
      </trkpt>
      <trkpt lat="47.36625" lon="-2.36489">
        <ele>-20.39999961853</ele>
        <time>2021-03-18T10:14:50.000Z</time>
      </trkpt>
      <trkpt lat="47.36614" lon="-2.36497">
        <ele>-20</ele>
        <time>2021-03-18T10:14:53.000Z</time>
      </trkpt>
      <trkpt lat="47.3661" lon="-2.365">
        <ele>-19.60000038147</ele>
        <time>2021-03-18T10:14:54.000Z</time>
      </trkpt>
      <trkpt lat="47.36606" lon="-2.36503">
        <ele>-19.200000762939</ele>
        <time>2021-03-18T10:14:55.000Z</time>
      </trkpt>
      <trkpt lat="47.36602" lon="-2.36505">
        <ele>-18.799999237061</ele>
        <time>2021-03-18T10:14:56.000Z</time>
      </trkpt>
      <trkpt lat="47.36598" lon="-2.36506">
        <ele>-18.39999961853</ele>
        <time>2021-03-18T10:14:57.000Z</time>
      </trkpt>
      <trkpt lat="47.36575" lon="-2.36512">
        <ele>-18.39999961853</ele>
        <time>2021-03-18T10:15:03.000Z</time>
      </trkpt>
      <trkpt lat="47.36572" lon="-2.36509">
        <ele>-18</ele>
        <time>2021-03-18T10:15:04.000Z</time>
      </trkpt>
      <trkpt lat="47.36569" lon="-2.36505">
        <ele>-17.60000038147</ele>
        <time>2021-03-18T10:15:05.000Z</time>
      </trkpt>
      <trkpt lat="47.36567" lon="-2.365">
        <ele>-17.200000762939</ele>
        <time>2021-03-18T10:15:06.000Z</time>
      </trkpt>
      <trkpt lat="47.36564" lon="-2.36496">
        <ele>-16.60000038147</ele>
        <time>2021-03-18T10:15:07.000Z</time>
      </trkpt>
      <trkpt lat="47.36562" lon="-2.36491">
        <ele>-16.200000762939</ele>
        <time>2021-03-18T10:15:08.000Z</time>
      </trkpt>
      <trkpt lat="47.3656" lon="-2.36485">
        <ele>-16.200000762939</ele>
        <time>2021-03-18T10:15:09.000Z</time>
      </trkpt>
      <trkpt lat="47.36555" lon="-2.36472">
        <ele>-16.200000762939</ele>
        <time>2021-03-18T10:15:11.000Z</time>
      </trkpt>
      <trkpt lat="47.36537" lon="-2.36427">
        <ele>-16.200000762939</ele>
        <time>2021-03-18T10:15:17.000Z</time>
      </trkpt>
      <trkpt lat="47.36517" lon="-2.36366">
        <ele>-16.200000762939</ele>
        <time>2021-03-18T10:15:24.000Z</time>
      </trkpt>
      <trkpt lat="47.36506" lon="-2.36331">
        <ele>-16.200000762939</ele>
        <time>2021-03-18T10:15:28.000Z</time>
      </trkpt>
      <trkpt lat="47.36501" lon="-2.36315">
        <ele>-16.200000762939</ele>
        <time>2021-03-18T10:15:30.000Z</time>
      </trkpt>
      <trkpt lat="47.36487" lon="-2.3627">
        <ele>-16.200000762939</ele>
        <time>2021-03-18T10:15:36.000Z</time>
      </trkpt>
      <trkpt lat="47.36474" lon="-2.36233">
        <ele>-16.200000762939</ele>
        <time>2021-03-18T10:15:42.000Z</time>
      </trkpt>
      <trkpt lat="47.36467" lon="-2.36213">
        <ele>-16.200000762939</ele>
        <time>2021-03-18T10:15:46.000Z</time>
      </trkpt>
      <trkpt lat="47.36465" lon="-2.36206">
        <ele>-16.200000762939</ele>
        <time>2021-03-18T10:15:47.000Z</time>
      </trkpt>
      <trkpt lat="47.36462" lon="-2.36192">
        <ele>-15.800000190735</ele>
        <time>2021-03-18T10:15:49.000Z</time>
      </trkpt>
      <trkpt lat="47.3646" lon="-2.36185">
        <ele>-15.39999961853</ele>
        <time>2021-03-18T10:15:50.000Z</time>
      </trkpt>
      <trkpt lat="47.36459" lon="-2.36178">
        <ele>-15</ele>
        <time>2021-03-18T10:15:51.000Z</time>
      </trkpt>
      <trkpt lat="47.36456" lon="-2.36171">
        <ele>-14.60000038147</ele>
        <time>2021-03-18T10:15:52.000Z</time>
      </trkpt>
      <trkpt lat="47.36454" lon="-2.36164">
        <ele>-14.199999809265</ele>
        <time>2021-03-18T10:15:53.000Z</time>
      </trkpt>
      <trkpt lat="47.36438" lon="-2.36112">
        <ele>-14.199999809265</ele>
        <time>2021-03-18T10:16:00.000Z</time>
      </trkpt>
      <trkpt lat="47.36436" lon="-2.36105">
        <ele>-14.199999809265</ele>
        <time>2021-03-18T10:16:01.000Z</time>
      </trkpt>
      <trkpt lat="47.36439" lon="-2.36092">
        <ele>-14.199999809265</ele>
        <time>2021-03-18T10:16:03.000Z</time>
      </trkpt>
      <trkpt lat="47.36447" lon="-2.36079">
        <ele>-14.199999809265</ele>
        <time>2021-03-18T10:16:05.000Z</time>
      </trkpt>
      <trkpt lat="47.36454" lon="-2.36065">
        <ele>-14.199999809265</ele>
        <time>2021-03-18T10:16:07.000Z</time>
      </trkpt>
      <trkpt lat="47.36476" lon="-2.36025">
        <ele>-14.199999809265</ele>
        <time>2021-03-18T10:16:12.000Z</time>
      </trkpt>
      <trkpt lat="47.36487" lon="-2.36011">
        <ele>-14.199999809265</ele>
        <time>2021-03-18T10:16:14.000Z</time>
      </trkpt>
      <trkpt lat="47.36505" lon="-2.35992">
        <ele>-14.199999809265</ele>
        <time>2021-03-18T10:16:17.000Z</time>
      </trkpt>
      <trkpt lat="47.36522" lon="-2.35972">
        <ele>-14.60000038147</ele>
        <time>2021-03-18T10:16:20.000Z</time>
      </trkpt>
      <trkpt lat="47.36528" lon="-2.35966">
        <ele>-15</ele>
        <time>2021-03-18T10:16:21.000Z</time>
      </trkpt>
      <trkpt lat="47.36534" lon="-2.35959">
        <ele>-15.39999961853</ele>
        <time>2021-03-18T10:16:22.000Z</time>
      </trkpt>
      <trkpt lat="47.3654" lon="-2.35952">
        <ele>-16</ele>
        <time>2021-03-18T10:16:23.000Z</time>
      </trkpt>
      <trkpt lat="47.36545" lon="-2.35944">
        <ele>-16.39999961853</ele>
        <time>2021-03-18T10:16:24.000Z</time>
      </trkpt>
      <trkpt lat="47.36569" lon="-2.35906">
        <ele>-16.799999237061</ele>
        <time>2021-03-18T10:16:29.000Z</time>
      </trkpt>
      <trkpt lat="47.36573" lon="-2.359">
        <ele>-17.200000762939</ele>
        <time>2021-03-18T10:16:30.000Z</time>
      </trkpt>
      <trkpt lat="47.36578" lon="-2.35893">
        <ele>-17.60000038147</ele>
        <time>2021-03-18T10:16:31.000Z</time>
      </trkpt>
      <trkpt lat="47.36582" lon="-2.35888">
        <ele>-18.39999961853</ele>
        <time>2021-03-18T10:16:32.000Z</time>
      </trkpt>
      <trkpt lat="47.36584" lon="-2.35883">
        <ele>-18.39999961853</ele>
        <time>2021-03-18T10:16:33.000Z</time>
      </trkpt>
      <trkpt lat="47.36585" lon="-2.35878">
        <ele>-18.39999961853</ele>
        <time>2021-03-18T10:16:34.000Z</time>
      </trkpt>
      <trkpt lat="47.36584" lon="-2.35869">
        <ele>-18.799999237061</ele>
        <time>2021-03-18T10:16:36.000Z</time>
      </trkpt>
      <trkpt lat="47.36583" lon="-2.35863">
        <ele>-19.39999961853</ele>
        <time>2021-03-18T10:16:37.000Z</time>
      </trkpt>
      <trkpt lat="47.36582" lon="-2.35856">
        <ele>-19.799999237061</ele>
        <time>2021-03-18T10:16:38.000Z</time>
      </trkpt>
      <trkpt lat="47.36582" lon="-2.35848">
        <ele>-20.200000762939</ele>
        <time>2021-03-18T10:16:39.000Z</time>
      </trkpt>
      <trkpt lat="47.3658" lon="-2.3584">
        <ele>-20.60000038147</ele>
        <time>2021-03-18T10:16:40.000Z</time>
      </trkpt>
      <trkpt lat="47.36578" lon="-2.35832">
        <ele>-20.60000038147</ele>
        <time>2021-03-18T10:16:41.000Z</time>
      </trkpt>
      <trkpt lat="47.36568" lon="-2.3578">
        <ele>-20.60000038147</ele>
        <time>2021-03-18T10:16:47.000Z</time>
      </trkpt>
      <trkpt lat="47.36549" lon="-2.35727">
        <ele>-20.60000038147</ele>
        <time>2021-03-18T10:16:53.000Z</time>
      </trkpt>
      <trkpt lat="47.36526" lon="-2.35661">
        <ele>-20.60000038147</ele>
        <time>2021-03-18T10:17:00.000Z</time>
      </trkpt>
      <trkpt lat="47.36501" lon="-2.35588">
        <ele>-20.60000038147</ele>
        <time>2021-03-18T10:17:08.000Z</time>
      </trkpt>
      <trkpt lat="47.36498" lon="-2.35579">
        <ele>-20.60000038147</ele>
        <time>2021-03-18T10:17:09.000Z</time>
      </trkpt>
      <trkpt lat="47.3648" lon="-2.35528">
        <ele>-20.60000038147</ele>
        <time>2021-03-18T10:17:15.000Z</time>
      </trkpt>
      <trkpt lat="47.36481" lon="-2.35504">
        <ele>-20.60000038147</ele>
        <time>2021-03-18T10:17:18.000Z</time>
      </trkpt>
      <trkpt lat="47.36493" lon="-2.35485">
        <ele>-20.60000038147</ele>
        <time>2021-03-18T10:17:21.000Z</time>
      </trkpt>
      <trkpt lat="47.36497" lon="-2.35477">
        <ele>-20.60000038147</ele>
        <time>2021-03-18T10:17:22.000Z</time>
      </trkpt>
      <trkpt lat="47.36513" lon="-2.35448">
        <ele>-20.60000038147</ele>
        <time>2021-03-18T10:17:26.000Z</time>
      </trkpt>
      <trkpt lat="47.36521" lon="-2.35434">
        <ele>-20.60000038147</ele>
        <time>2021-03-18T10:17:28.000Z</time>
      </trkpt>
      <trkpt lat="47.36534" lon="-2.35412">
        <ele>-20.60000038147</ele>
        <time>2021-03-18T10:17:31.000Z</time>
      </trkpt>
      <trkpt lat="47.36539" lon="-2.35405">
        <ele>-20.60000038147</ele>
        <time>2021-03-18T10:17:32.000Z</time>
      </trkpt>
      <trkpt lat="47.36556" lon="-2.35377">
        <ele>-20.60000038147</ele>
        <time>2021-03-18T10:17:36.000Z</time>
      </trkpt>
      <trkpt lat="47.3656" lon="-2.3537">
        <ele>-20.60000038147</ele>
        <time>2021-03-18T10:17:37.000Z</time>
      </trkpt>
      <trkpt lat="47.36581" lon="-2.35335">
        <ele>-20.60000038147</ele>
        <time>2021-03-18T10:17:42.000Z</time>
      </trkpt>
      <trkpt lat="47.36607" lon="-2.35292">
        <ele>-20.60000038147</ele>
        <time>2021-03-18T10:17:48.000Z</time>
      </trkpt>
      <trkpt lat="47.3661" lon="-2.35285">
        <ele>-20.60000038147</ele>
        <time>2021-03-18T10:17:49.000Z</time>
      </trkpt>
      <trkpt lat="47.36622" lon="-2.35265">
        <ele>-20.60000038147</ele>
        <time>2021-03-18T10:17:52.000Z</time>
      </trkpt>
      <trkpt lat="47.3663" lon="-2.35253">
        <ele>-20.60000038147</ele>
        <time>2021-03-18T10:17:54.000Z</time>
      </trkpt>
      <trkpt lat="47.36637" lon="-2.3524">
        <ele>-20.60000038147</ele>
        <time>2021-03-18T10:17:56.000Z</time>
      </trkpt>
      <trkpt lat="47.36637" lon="-2.35224">
        <ele>-20.60000038147</ele>
        <time>2021-03-18T10:17:58.000Z</time>
      </trkpt>
      <trkpt lat="47.36627" lon="-2.35204">
        <ele>-20.60000038147</ele>
        <time>2021-03-18T10:18:01.000Z</time>
      </trkpt>
      <trkpt lat="47.36623" lon="-2.35198">
        <ele>-20.60000038147</ele>
        <time>2021-03-18T10:18:02.000Z</time>
      </trkpt>
      <trkpt lat="47.36601" lon="-2.35159">
        <ele>-20.60000038147</ele>
        <time>2021-03-18T10:18:08.000Z</time>
      </trkpt>
      <trkpt lat="47.36579" lon="-2.35122">
        <ele>-20.60000038147</ele>
        <time>2021-03-18T10:18:14.000Z</time>
      </trkpt>
      <trkpt lat="47.36557" lon="-2.35086">
        <ele>-20.60000038147</ele>
        <time>2021-03-18T10:18:20.000Z</time>
      </trkpt>
      <trkpt lat="47.36529" lon="-2.35036">
        <ele>-20.60000038147</ele>
        <time>2021-03-18T10:18:28.000Z</time>
      </trkpt>
      <trkpt lat="47.36514" lon="-2.35013">
        <ele>-20.60000038147</ele>
        <time>2021-03-18T10:18:32.000Z</time>
      </trkpt>
      <trkpt lat="47.36506" lon="-2.35002">
        <ele>-20.60000038147</ele>
        <time>2021-03-18T10:18:34.000Z</time>
      </trkpt>
      <trkpt lat="47.36499" lon="-2.3499">
        <ele>-20.60000038147</ele>
        <time>2021-03-18T10:18:36.000Z</time>
      </trkpt>
      <trkpt lat="47.36495" lon="-2.34985">
        <ele>-20.60000038147</ele>
        <time>2021-03-18T10:18:37.000Z</time>
      </trkpt>
      <trkpt lat="47.36486" lon="-2.34978">
        <ele>-20.60000038147</ele>
        <time>2021-03-18T10:18:39.000Z</time>
      </trkpt>
      <trkpt lat="47.36482" lon="-2.34973">
        <ele>-20.60000038147</ele>
        <time>2021-03-18T10:18:40.000Z</time>
      </trkpt>
      <trkpt lat="47.36466" lon="-2.3495">
        <ele>-20.60000038147</ele>
        <time>2021-03-18T10:18:44.000Z</time>
      </trkpt>
      <trkpt lat="47.36448" lon="-2.34922">
        <ele>-20.60000038147</ele>
        <time>2021-03-18T10:18:50.000Z</time>
      </trkpt>
      <trkpt lat="47.36434" lon="-2.3491">
        <ele>-20.60000038147</ele>
        <time>2021-03-18T10:18:54.000Z</time>
      </trkpt>
      <trkpt lat="47.3643" lon="-2.3491">
        <ele>-20.60000038147</ele>
        <time>2021-03-18T10:18:55.000Z</time>
      </trkpt>
      <trkpt lat="47.36412" lon="-2.34918">
        <ele>-20.60000038147</ele>
        <time>2021-03-18T10:18:59.000Z</time>
      </trkpt>
      <trkpt lat="47.36407" lon="-2.3492">
        <ele>-20.60000038147</ele>
        <time>2021-03-18T10:19:00.000Z</time>
      </trkpt>
      <trkpt lat="47.36393" lon="-2.3493">
        <ele>-20.60000038147</ele>
        <time>2021-03-18T10:19:03.000Z</time>
      </trkpt>
      <trkpt lat="47.36382" lon="-2.34938">
        <ele>-20.60000038147</ele>
        <time>2021-03-18T10:19:05.000Z</time>
      </trkpt>
      <trkpt lat="47.36349" lon="-2.34971">
        <ele>-20.60000038147</ele>
        <time>2021-03-18T10:19:12.000Z</time>
      </trkpt>
      <trkpt lat="47.36321" lon="-2.35">
        <ele>-20.60000038147</ele>
        <time>2021-03-18T10:19:18.000Z</time>
      </trkpt>
      <trkpt lat="47.36313" lon="-2.35007">
        <ele>-20.60000038147</ele>
        <time>2021-03-18T10:19:20.000Z</time>
      </trkpt>
      <trkpt lat="47.36306" lon="-2.35008">
        <ele>-20.60000038147</ele>
        <time>2021-03-18T10:19:22.000Z</time>
      </trkpt>
      <trkpt lat="47.36297" lon="-2.34999">
        <ele>-20.60000038147</ele>
        <time>2021-03-18T10:19:26.000Z</time>
      </trkpt>
      <trkpt lat="47.36295" lon="-2.34994">
        <ele>-20.60000038147</ele>
        <time>2021-03-18T10:19:27.000Z</time>
      </trkpt>
      <trkpt lat="47.3629" lon="-2.34982">
        <ele>-20.60000038147</ele>
        <time>2021-03-18T10:19:29.000Z</time>
      </trkpt>
      <trkpt lat="47.36288" lon="-2.34975">
        <ele>-20.60000038147</ele>
        <time>2021-03-18T10:19:30.000Z</time>
      </trkpt>
      <trkpt lat="47.36283" lon="-2.34939">
        <ele>-20.60000038147</ele>
        <time>2021-03-18T10:19:35.000Z</time>
      </trkpt>
      <trkpt lat="47.3628" lon="-2.34934">
        <ele>-20.60000038147</ele>
        <time>2021-03-18T10:19:36.000Z</time>
      </trkpt>
      <trkpt lat="47.36272" lon="-2.34932">
        <ele>-20.60000038147</ele>
        <time>2021-03-18T10:19:38.000Z</time>
      </trkpt>
      <trkpt lat="47.36263" lon="-2.34949">
        <ele>-20.60000038147</ele>
        <time>2021-03-18T10:19:41.000Z</time>
      </trkpt>
      <trkpt lat="47.3626" lon="-2.34956">
        <ele>-20.200000762939</ele>
        <time>2021-03-18T10:19:42.000Z</time>
      </trkpt>
      <trkpt lat="47.36257" lon="-2.34963">
        <ele>-19.799999237061</ele>
        <time>2021-03-18T10:19:43.000Z</time>
      </trkpt>
      <trkpt lat="47.36253" lon="-2.34971">
        <ele>-19.39999961853</ele>
        <time>2021-03-18T10:19:44.000Z</time>
      </trkpt>
      <trkpt lat="47.3625" lon="-2.34978">
        <ele>-19</ele>
        <time>2021-03-18T10:19:45.000Z</time>
      </trkpt>
      <trkpt lat="47.36246" lon="-2.34986">
        <ele>-18.60000038147</ele>
        <time>2021-03-18T10:19:46.000Z</time>
      </trkpt>
      <trkpt lat="47.36243" lon="-2.34993">
        <ele>-18.60000038147</ele>
        <time>2021-03-18T10:19:47.000Z</time>
      </trkpt>
      <trkpt lat="47.36216" lon="-2.35043">
        <ele>-18.60000038147</ele>
        <time>2021-03-18T10:19:54.000Z</time>
      </trkpt>
      <trkpt lat="47.36206" lon="-2.35056">
        <ele>-18.60000038147</ele>
        <time>2021-03-18T10:19:56.000Z</time>
      </trkpt>
      <trkpt lat="47.3619" lon="-2.35073">
        <ele>-18.60000038147</ele>
        <time>2021-03-18T10:19:59.000Z</time>
      </trkpt>
      <trkpt lat="47.36152" lon="-2.35111">
        <ele>-18.60000038147</ele>
        <time>2021-03-18T10:20:06.000Z</time>
      </trkpt>
      <trkpt lat="47.36115" lon="-2.35151">
        <ele>-18.60000038147</ele>
        <time>2021-03-18T10:20:13.000Z</time>
      </trkpt>
      <trkpt lat="47.36086" lon="-2.3519">
        <ele>-18.60000038147</ele>
        <time>2021-03-18T10:20:19.000Z</time>
      </trkpt>
      <trkpt lat="47.36051" lon="-2.35238">
        <ele>-18.60000038147</ele>
        <time>2021-03-18T10:20:26.000Z</time>
      </trkpt>
      <trkpt lat="47.36022" lon="-2.35278">
        <ele>-18.60000038147</ele>
        <time>2021-03-18T10:20:32.000Z</time>
      </trkpt>
      <trkpt lat="47.35991" lon="-2.35318">
        <ele>-18.60000038147</ele>
        <time>2021-03-18T10:20:38.000Z</time>
      </trkpt>
      <trkpt lat="47.35955" lon="-2.35364">
        <ele>-18.60000038147</ele>
        <time>2021-03-18T10:20:45.000Z</time>
      </trkpt>
      <trkpt lat="47.35946" lon="-2.35378">
        <ele>-18.60000038147</ele>
        <time>2021-03-18T10:20:47.000Z</time>
      </trkpt>
      <trkpt lat="47.35932" lon="-2.35397">
        <ele>-18.60000038147</ele>
        <time>2021-03-18T10:20:50.000Z</time>
      </trkpt>
      <trkpt lat="47.35901" lon="-2.35419">
        <ele>-18.60000038147</ele>
        <time>2021-03-18T10:20:55.000Z</time>
      </trkpt>
      <trkpt lat="47.35859" lon="-2.35451">
        <ele>-18.60000038147</ele>
        <time>2021-03-18T10:21:02.000Z</time>
      </trkpt>
      <trkpt lat="47.35823" lon="-2.35472">
        <ele>-18.60000038147</ele>
        <time>2021-03-18T10:21:08.000Z</time>
      </trkpt>
      <trkpt lat="47.35779" lon="-2.35493">
        <ele>-18.60000038147</ele>
        <time>2021-03-18T10:21:15.000Z</time>
      </trkpt>
      <trkpt lat="47.35742" lon="-2.3551">
        <ele>-18.60000038147</ele>
        <time>2021-03-18T10:21:21.000Z</time>
      </trkpt>
      <trkpt lat="47.35699" lon="-2.35529">
        <ele>-18.60000038147</ele>
        <time>2021-03-18T10:21:28.000Z</time>
      </trkpt>
      <trkpt lat="47.35663" lon="-2.35548">
        <ele>-18.60000038147</ele>
        <time>2021-03-18T10:21:34.000Z</time>
      </trkpt>
      <trkpt lat="47.35624" lon="-2.35585">
        <ele>-18.60000038147</ele>
        <time>2021-03-18T10:21:41.000Z</time>
      </trkpt>
      <trkpt lat="47.3559" lon="-2.35624">
        <ele>-18.60000038147</ele>
        <time>2021-03-18T10:21:48.000Z</time>
      </trkpt>
      <trkpt lat="47.35581" lon="-2.35634">
        <ele>-18.60000038147</ele>
        <time>2021-03-18T10:21:50.000Z</time>
      </trkpt>
      <trkpt lat="47.35566" lon="-2.35648">
        <ele>-18.60000038147</ele>
        <time>2021-03-18T10:21:53.000Z</time>
      </trkpt>
      <trkpt lat="47.35546" lon="-2.35664">
        <ele>-18</ele>
        <time>2021-03-18T10:21:57.000Z</time>
      </trkpt>
      <trkpt lat="47.35542" lon="-2.35668">
        <ele>-17.60000038147</ele>
        <time>2021-03-18T10:21:58.000Z</time>
      </trkpt>
      <trkpt lat="47.35537" lon="-2.35672">
        <ele>-17.200000762939</ele>
        <time>2021-03-18T10:21:59.000Z</time>
      </trkpt>
      <trkpt lat="47.35532" lon="-2.35676">
        <ele>-16.60000038147</ele>
        <time>2021-03-18T10:22:00.000Z</time>
      </trkpt>
      <trkpt lat="47.35527" lon="-2.35681">
        <ele>-16.200000762939</ele>
        <time>2021-03-18T10:22:01.000Z</time>
      </trkpt>
      <trkpt lat="47.35505" lon="-2.35706">
        <ele>-16.200000762939</ele>
        <time>2021-03-18T10:22:06.000Z</time>
      </trkpt>
      <trkpt lat="47.35477" lon="-2.35748">
        <ele>-16.200000762939</ele>
        <time>2021-03-18T10:22:13.000Z</time>
      </trkpt>
      <trkpt lat="47.35454" lon="-2.35785">
        <ele>-15.800000190735</ele>
        <time>2021-03-18T10:22:19.000Z</time>
      </trkpt>
      <trkpt lat="47.35449" lon="-2.3579">
        <ele>-15.39999961853</ele>
        <time>2021-03-18T10:22:20.000Z</time>
      </trkpt>
      <trkpt lat="47.35445" lon="-2.35796">
        <ele>-15</ele>
        <time>2021-03-18T10:22:21.000Z</time>
      </trkpt>
      <trkpt lat="47.35441" lon="-2.35802">
        <ele>-14.60000038147</ele>
        <time>2021-03-18T10:22:22.000Z</time>
      </trkpt>
      <trkpt lat="47.35436" lon="-2.35808">
        <ele>-14.199999809265</ele>
        <time>2021-03-18T10:22:23.000Z</time>
      </trkpt>
      <trkpt lat="47.35418" lon="-2.35833">
        <ele>-14.199999809265</ele>
        <time>2021-03-18T10:22:27.000Z</time>
      </trkpt>
      <trkpt lat="47.35389" lon="-2.35872">
        <ele>-14.199999809265</ele>
        <time>2021-03-18T10:22:33.000Z</time>
      </trkpt>
      <trkpt lat="47.35362" lon="-2.35899">
        <ele>-14.199999809265</ele>
        <time>2021-03-18T10:22:38.000Z</time>
      </trkpt>
      <trkpt lat="47.35339" lon="-2.35928">
        <ele>-14.199999809265</ele>
        <time>2021-03-18T10:22:42.000Z</time>
      </trkpt>
      <trkpt lat="47.35335" lon="-2.35937">
        <ele>-14.199999809265</ele>
        <time>2021-03-18T10:22:43.000Z</time>
      </trkpt>
      <trkpt lat="47.35322" lon="-2.35965">
        <ele>-14.60000038147</ele>
        <time>2021-03-18T10:22:46.000Z</time>
      </trkpt>
      <trkpt lat="47.35317" lon="-2.35975">
        <ele>-15</ele>
        <time>2021-03-18T10:22:47.000Z</time>
      </trkpt>
      <trkpt lat="47.35313" lon="-2.35985">
        <ele>-15.39999961853</ele>
        <time>2021-03-18T10:22:48.000Z</time>
      </trkpt>
      <trkpt lat="47.35309" lon="-2.35995">
        <ele>-15.800000190735</ele>
        <time>2021-03-18T10:22:49.000Z</time>
      </trkpt>
      <trkpt lat="47.35305" lon="-2.36004">
        <ele>-16.200000762939</ele>
        <time>2021-03-18T10:22:50.000Z</time>
      </trkpt>
      <trkpt lat="47.353" lon="-2.36013">
        <ele>-16.200000762939</ele>
        <time>2021-03-18T10:22:51.000Z</time>
      </trkpt>
      <trkpt lat="47.35289" lon="-2.36028">
        <ele>-16.200000762939</ele>
        <time>2021-03-18T10:22:53.000Z</time>
      </trkpt>
      <trkpt lat="47.35277" lon="-2.36039">
        <ele>-16.200000762939</ele>
        <time>2021-03-18T10:22:55.000Z</time>
      </trkpt>
      <trkpt lat="47.35259" lon="-2.36054">
        <ele>-16.200000762939</ele>
        <time>2021-03-18T10:22:58.000Z</time>
      </trkpt>
      <trkpt lat="47.35223" lon="-2.36084">
        <ele>-16.200000762939</ele>
        <time>2021-03-18T10:23:04.000Z</time>
      </trkpt>
      <trkpt lat="47.35179" lon="-2.3612">
        <ele>-16.200000762939</ele>
        <time>2021-03-18T10:23:11.000Z</time>
      </trkpt>
      <trkpt lat="47.35132" lon="-2.36154">
        <ele>-16.200000762939</ele>
        <time>2021-03-18T10:23:19.000Z</time>
      </trkpt>
      <trkpt lat="47.35105" lon="-2.36172">
        <ele>-16.200000762939</ele>
        <time>2021-03-18T10:23:25.000Z</time>
      </trkpt>
      <trkpt lat="47.35101" lon="-2.36175">
        <ele>-16.200000762939</ele>
        <time>2021-03-18T10:23:26.000Z</time>
      </trkpt>
      <trkpt lat="47.35087" lon="-2.36179">
        <ele>-16.200000762939</ele>
        <time>2021-03-18T10:23:29.000Z</time>
      </trkpt>
      <trkpt lat="47.35082" lon="-2.36179">
        <ele>-16.200000762939</ele>
        <time>2021-03-18T10:23:30.000Z</time>
      </trkpt>
      <trkpt lat="47.35055" lon="-2.36179">
        <ele>-16.200000762939</ele>
        <time>2021-03-18T10:23:35.000Z</time>
      </trkpt>
      <trkpt lat="47.3505" lon="-2.36177">
        <ele>-15.800000190735</ele>
        <time>2021-03-18T10:23:36.000Z</time>
      </trkpt>
      <trkpt lat="47.35044" lon="-2.36176">
        <ele>-15.39999961853</ele>
        <time>2021-03-18T10:23:37.000Z</time>
      </trkpt>
      <trkpt lat="47.35039" lon="-2.36174">
        <ele>-15</ele>
        <time>2021-03-18T10:23:38.000Z</time>
      </trkpt>
      <trkpt lat="47.35033" lon="-2.36172">
        <ele>-14.60000038147</ele>
        <time>2021-03-18T10:23:39.000Z</time>
      </trkpt>
      <trkpt lat="47.35028" lon="-2.3617">
        <ele>-14.199999809265</ele>
        <time>2021-03-18T10:23:40.000Z</time>
      </trkpt>
      <trkpt lat="47.35022" lon="-2.36168">
        <ele>-14.199999809265</ele>
        <time>2021-03-18T10:23:41.000Z</time>
      </trkpt>
      <trkpt lat="47.35005" lon="-2.36167">
        <ele>-14.199999809265</ele>
        <time>2021-03-18T10:23:44.000Z</time>
      </trkpt>
      <trkpt lat="47.34995" lon="-2.36169">
        <ele>-14.199999809265</ele>
        <time>2021-03-18T10:23:46.000Z</time>
      </trkpt>
      <trkpt lat="47.34971" lon="-2.36188">
        <ele>-13.800000190735</ele>
        <time>2021-03-18T10:23:51.000Z</time>
      </trkpt>
      <trkpt lat="47.34966" lon="-2.36193">
        <ele>-13.39999961853</ele>
        <time>2021-03-18T10:23:52.000Z</time>
      </trkpt>
      <trkpt lat="47.34962" lon="-2.36198">
        <ele>-13</ele>
        <time>2021-03-18T10:23:53.000Z</time>
      </trkpt>
      <trkpt lat="47.34958" lon="-2.36203">
        <ele>-12.60000038147</ele>
        <time>2021-03-18T10:23:54.000Z</time>
      </trkpt>
      <trkpt lat="47.34954" lon="-2.36209">
        <ele>-12.199999809265</ele>
        <time>2021-03-18T10:23:55.000Z</time>
      </trkpt>
      <trkpt lat="47.34933" lon="-2.36234">
        <ele>-12.199999809265</ele>
        <time>2021-03-18T10:24:00.000Z</time>
      </trkpt>
      <trkpt lat="47.34902" lon="-2.36265">
        <ele>-11.800000190735</ele>
        <time>2021-03-18T10:24:07.000Z</time>
      </trkpt>
      <trkpt lat="47.34898" lon="-2.36269">
        <ele>-11.39999961853</ele>
        <time>2021-03-18T10:24:08.000Z</time>
      </trkpt>
      <trkpt lat="47.34893" lon="-2.36272">
        <ele>-11</ele>
        <time>2021-03-18T10:24:09.000Z</time>
      </trkpt>
      <trkpt lat="47.34888" lon="-2.36276">
        <ele>-10.199999809265</ele>
        <time>2021-03-18T10:24:10.000Z</time>
      </trkpt>
      <trkpt lat="47.34869" lon="-2.36291">
        <ele>-10.199999809265</ele>
        <time>2021-03-18T10:24:14.000Z</time>
      </trkpt>
      <trkpt lat="47.34864" lon="-2.36295">
        <ele>-10.199999809265</ele>
        <time>2021-03-18T10:24:15.000Z</time>
      </trkpt>
      <trkpt lat="47.34836" lon="-2.36312">
        <ele>-10.199999809265</ele>
        <time>2021-03-18T10:24:20.000Z</time>
      </trkpt>
      <trkpt lat="47.34785" lon="-2.36345">
        <ele>-9.6000003814697</ele>
        <time>2021-03-18T10:24:29.000Z</time>
      </trkpt>
      <trkpt lat="47.3478" lon="-2.36349">
        <ele>-9.1999998092651</ele>
        <time>2021-03-18T10:24:30.000Z</time>
      </trkpt>
      <trkpt lat="47.34774" lon="-2.36352">
        <ele>-8.8000001907349</ele>
        <time>2021-03-18T10:24:31.000Z</time>
      </trkpt>
      <trkpt lat="47.34769" lon="-2.36356">
        <ele>-8.3999996185303</ele>
        <time>2021-03-18T10:24:32.000Z</time>
      </trkpt>
      <trkpt lat="47.34763" lon="-2.3636">
        <ele>-8</ele>
        <time>2021-03-18T10:24:33.000Z</time>
      </trkpt>
      <trkpt lat="47.34746" lon="-2.36372">
        <ele>-8</ele>
        <time>2021-03-18T10:24:36.000Z</time>
      </trkpt>
      <trkpt lat="47.34703" lon="-2.36395">
        <ele>-8</ele>
        <time>2021-03-18T10:24:43.000Z</time>
      </trkpt>
      <trkpt lat="47.34654" lon="-2.36417">
        <ele>-8</ele>
        <time>2021-03-18T10:24:50.000Z</time>
      </trkpt>
      <trkpt lat="47.34602" lon="-2.36443">
        <ele>-8.3999996185303</ele>
        <time>2021-03-18T10:24:57.000Z</time>
      </trkpt>
      <trkpt lat="47.34595" lon="-2.36441">
        <ele>-8.8000001907349</ele>
        <time>2021-03-18T10:24:58.000Z</time>
      </trkpt>
      <trkpt lat="47.3459" lon="-2.36437">
        <ele>-9.1999998092651</ele>
        <time>2021-03-18T10:24:59.000Z</time>
      </trkpt>
      <trkpt lat="47.34585" lon="-2.36431">
        <ele>-10.199999809265</ele>
        <time>2021-03-18T10:25:00.000Z</time>
      </trkpt>
      <trkpt lat="47.3457" lon="-2.36406">
        <ele>-10.199999809265</ele>
        <time>2021-03-18T10:25:03.000Z</time>
      </trkpt>
      <trkpt lat="47.34565" lon="-2.36396">
        <ele>-10.199999809265</ele>
        <time>2021-03-18T10:25:04.000Z</time>
      </trkpt>
      <trkpt lat="47.34559" lon="-2.36388">
        <ele>-10.60000038147</ele>
        <time>2021-03-18T10:25:05.000Z</time>
      </trkpt>
      <trkpt lat="47.34554" lon="-2.36379">
        <ele>-11</ele>
        <time>2021-03-18T10:25:06.000Z</time>
      </trkpt>
      <trkpt lat="47.34549" lon="-2.36369">
        <ele>-11.39999961853</ele>
        <time>2021-03-18T10:25:07.000Z</time>
      </trkpt>
      <trkpt lat="47.34545" lon="-2.36359">
        <ele>-11.800000190735</ele>
        <time>2021-03-18T10:25:08.000Z</time>
      </trkpt>
      <trkpt lat="47.34542" lon="-2.36349">
        <ele>-12.199999809265</ele>
        <time>2021-03-18T10:25:09.000Z</time>
      </trkpt>
      <trkpt lat="47.34517" lon="-2.36276">
        <ele>-12.199999809265</ele>
        <time>2021-03-18T10:25:16.000Z</time>
      </trkpt>
      <trkpt lat="47.34511" lon="-2.36255">
        <ele>-12.60000038147</ele>
        <time>2021-03-18T10:25:18.000Z</time>
      </trkpt>
      <trkpt lat="47.34508" lon="-2.36244">
        <ele>-13</ele>
        <time>2021-03-18T10:25:19.000Z</time>
      </trkpt>
      <trkpt lat="47.34505" lon="-2.36234">
        <ele>-13.39999961853</ele>
        <time>2021-03-18T10:25:20.000Z</time>
      </trkpt>
      <trkpt lat="47.34501" lon="-2.36225">
        <ele>-13.800000190735</ele>
        <time>2021-03-18T10:25:21.000Z</time>
      </trkpt>
      <trkpt lat="47.34496" lon="-2.36216">
        <ele>-14.199999809265</ele>
        <time>2021-03-18T10:25:22.000Z</time>
      </trkpt>
      <trkpt lat="47.34468" lon="-2.3617">
        <ele>-14.199999809265</ele>
        <time>2021-03-18T10:25:28.000Z</time>
      </trkpt>
      <trkpt lat="47.34457" lon="-2.36148">
        <ele>-14.199999809265</ele>
        <time>2021-03-18T10:25:31.000Z</time>
      </trkpt>
      <trkpt lat="47.34452" lon="-2.36133">
        <ele>-14.199999809265</ele>
        <time>2021-03-18T10:25:33.000Z</time>
      </trkpt>
      <trkpt lat="47.34443" lon="-2.3611">
        <ele>-14.199999809265</ele>
        <time>2021-03-18T10:25:36.000Z</time>
      </trkpt>
      <trkpt lat="47.34438" lon="-2.36097">
        <ele>-14.199999809265</ele>
        <time>2021-03-18T10:25:38.000Z</time>
      </trkpt>
      <trkpt lat="47.34426" lon="-2.36059">
        <ele>-14.199999809265</ele>
        <time>2021-03-18T10:25:43.000Z</time>
      </trkpt>
      <trkpt lat="47.34423" lon="-2.36044">
        <ele>-13.800000190735</ele>
        <time>2021-03-18T10:25:45.000Z</time>
      </trkpt>
      <trkpt lat="47.34421" lon="-2.36036">
        <ele>-13.39999961853</ele>
        <time>2021-03-18T10:25:46.000Z</time>
      </trkpt>
      <trkpt lat="47.34418" lon="-2.36029">
        <ele>-13</ele>
        <time>2021-03-18T10:25:47.000Z</time>
      </trkpt>
      <trkpt lat="47.34416" lon="-2.36021">
        <ele>-12.39999961853</ele>
        <time>2021-03-18T10:25:48.000Z</time>
      </trkpt>
      <trkpt lat="47.34413" lon="-2.36015">
        <ele>-12</ele>
        <time>2021-03-18T10:25:49.000Z</time>
      </trkpt>
      <trkpt lat="47.34391" lon="-2.3599">
        <ele>-12</ele>
        <time>2021-03-18T10:25:54.000Z</time>
      </trkpt>
      <trkpt lat="47.34358" lon="-2.35975">
        <ele>-12</ele>
        <time>2021-03-18T10:26:00.000Z</time>
      </trkpt>
      <trkpt lat="47.34346" lon="-2.3597">
        <ele>-12</ele>
        <time>2021-03-18T10:26:02.000Z</time>
      </trkpt>
      <trkpt lat="47.34329" lon="-2.35962">
        <ele>-12</ele>
        <time>2021-03-18T10:26:05.000Z</time>
      </trkpt>
      <trkpt lat="47.34307" lon="-2.35954">
        <ele>-12</ele>
        <time>2021-03-18T10:26:09.000Z</time>
      </trkpt>
      <trkpt lat="47.34295" lon="-2.35952">
        <ele>-12</ele>
        <time>2021-03-18T10:26:11.000Z</time>
      </trkpt>
      <trkpt lat="47.34275" lon="-2.35948">
        <ele>-12.60000038147</ele>
        <time>2021-03-18T10:26:14.000Z</time>
      </trkpt>
      <trkpt lat="47.34269" lon="-2.35949">
        <ele>-13</ele>
        <time>2021-03-18T10:26:15.000Z</time>
      </trkpt>
      <trkpt lat="47.34263" lon="-2.35949">
        <ele>-13.39999961853</ele>
        <time>2021-03-18T10:26:16.000Z</time>
      </trkpt>
      <trkpt lat="47.34257" lon="-2.35949">
        <ele>-14</ele>
        <time>2021-03-18T10:26:17.000Z</time>
      </trkpt>
      <trkpt lat="47.34252" lon="-2.35948">
        <ele>-14.60000038147</ele>
        <time>2021-03-18T10:26:18.000Z</time>
      </trkpt>
      <trkpt lat="47.34247" lon="-2.35947">
        <ele>-15.199999809265</ele>
        <time>2021-03-18T10:26:19.000Z</time>
      </trkpt>
      <trkpt lat="47.34245" lon="-2.35947">
        <ele>-15.800000190735</ele>
        <time>2021-03-18T10:26:20.000Z</time>
      </trkpt>
      <trkpt lat="47.34243" lon="-2.35947">
        <ele>-16.39999961853</ele>
        <time>2021-03-18T10:26:21.000Z</time>
      </trkpt>
      <trkpt lat="47.34241" lon="-2.35947">
        <ele>-16.799999237061</ele>
        <time>2021-03-18T10:26:22.000Z</time>
      </trkpt>
      <trkpt lat="47.3424" lon="-2.35946">
        <ele>-17.39999961853</ele>
        <time>2021-03-18T10:26:23.000Z</time>
      </trkpt>
      <trkpt lat="47.34239" lon="-2.35943">
        <ele>-17.799999237061</ele>
        <time>2021-03-18T10:26:24.000Z</time>
      </trkpt>
      <trkpt lat="47.3424" lon="-2.35939">
        <ele>-18.200000762939</ele>
        <time>2021-03-18T10:26:25.000Z</time>
      </trkpt>
      <trkpt lat="47.34241" lon="-2.35934">
        <ele>-18.60000038147</ele>
        <time>2021-03-18T10:26:26.000Z</time>
      </trkpt>
      <trkpt lat="47.34242" lon="-2.35928">
        <ele>-18.60000038147</ele>
        <time>2021-03-18T10:26:27.000Z</time>
      </trkpt>
      <trkpt lat="47.34248" lon="-2.35894">
        <ele>-18.60000038147</ele>
        <time>2021-03-18T10:26:31.000Z</time>
      </trkpt>
      <trkpt lat="47.3425" lon="-2.35855">
        <ele>-18.60000038147</ele>
        <time>2021-03-18T10:26:35.000Z</time>
      </trkpt>
      <trkpt lat="47.34248" lon="-2.35836">
        <ele>-18.60000038147</ele>
        <time>2021-03-18T10:26:37.000Z</time>
      </trkpt>
      <trkpt lat="47.34243" lon="-2.35818">
        <ele>-18.60000038147</ele>
        <time>2021-03-18T10:26:39.000Z</time>
      </trkpt>
      <trkpt lat="47.34234" lon="-2.35793">
        <ele>-18.60000038147</ele>
        <time>2021-03-18T10:26:42.000Z</time>
      </trkpt>
      <trkpt lat="47.34227" lon="-2.3577">
        <ele>-18.60000038147</ele>
        <time>2021-03-18T10:26:45.000Z</time>
      </trkpt>
      <trkpt lat="47.34224" lon="-2.35754">
        <ele>-18.60000038147</ele>
        <time>2021-03-18T10:26:47.000Z</time>
      </trkpt>
      <trkpt lat="47.34222" lon="-2.35738">
        <ele>-18.60000038147</ele>
        <time>2021-03-18T10:26:49.000Z</time>
      </trkpt>
      <trkpt lat="47.34217" lon="-2.35728">
        <ele>-18.60000038147</ele>
        <time>2021-03-18T10:26:51.000Z</time>
      </trkpt>
      <trkpt lat="47.34206" lon="-2.35715">
        <ele>-18.60000038147</ele>
        <time>2021-03-18T10:26:55.000Z</time>
      </trkpt>
      <trkpt lat="47.34205" lon="-2.35709">
        <ele>-18.60000038147</ele>
        <time>2021-03-18T10:26:59.000Z</time>
      </trkpt>
      <trkpt lat="47.34205" lon="-2.35707">
        <ele>-18.200000762939</ele>
        <time>2021-03-18T10:27:00.000Z</time>
      </trkpt>
      <trkpt lat="47.34205" lon="-2.35705">
        <ele>-17.799999237061</ele>
        <time>2021-03-18T10:27:01.000Z</time>
      </trkpt>
      <trkpt lat="47.34204" lon="-2.35702">
        <ele>-17.200000762939</ele>
        <time>2021-03-18T10:27:02.000Z</time>
      </trkpt>
      <trkpt lat="47.34203" lon="-2.35699">
        <ele>-16.39999961853</ele>
        <time>2021-03-18T10:27:03.000Z</time>
      </trkpt>
      <trkpt lat="47.34196" lon="-2.35689">
        <ele>-16.39999961853</ele>
        <time>2021-03-18T10:27:07.000Z</time>
      </trkpt>
      <trkpt lat="47.34191" lon="-2.35681">
        <ele>-16</ele>
        <time>2021-03-18T10:27:10.000Z</time>
      </trkpt>
      <trkpt lat="47.34189" lon="-2.35678">
        <ele>-15.60000038147</ele>
        <time>2021-03-18T10:27:11.000Z</time>
      </trkpt>
      <trkpt lat="47.34187" lon="-2.35675">
        <ele>-15.199999809265</ele>
        <time>2021-03-18T10:27:12.000Z</time>
      </trkpt>
      <trkpt lat="47.34185" lon="-2.35672">
        <ele>-14.800000190735</ele>
        <time>2021-03-18T10:27:13.000Z</time>
      </trkpt>
      <trkpt lat="47.34182" lon="-2.35669">
        <ele>-14.39999961853</ele>
        <time>2021-03-18T10:27:14.000Z</time>
      </trkpt>
      <trkpt lat="47.34172" lon="-2.3565">
        <ele>-13.800000190735</ele>
        <time>2021-03-18T10:27:19.000Z</time>
      </trkpt>
      <trkpt lat="47.34169" lon="-2.35646">
        <ele>-13.39999961853</ele>
        <time>2021-03-18T10:27:20.000Z</time>
      </trkpt>
      <trkpt lat="47.34166" lon="-2.35642">
        <ele>-13</ele>
        <time>2021-03-18T10:27:21.000Z</time>
      </trkpt>
      <trkpt lat="47.34164" lon="-2.35638">
        <ele>-12.60000038147</ele>
        <time>2021-03-18T10:27:22.000Z</time>
      </trkpt>
      <trkpt lat="47.34161" lon="-2.35633">
        <ele>-12.199999809265</ele>
        <time>2021-03-18T10:27:23.000Z</time>
      </trkpt>
      <trkpt lat="47.3415" lon="-2.35616">
        <ele>-12.199999809265</ele>
        <time>2021-03-18T10:27:27.000Z</time>
      </trkpt>
      <trkpt lat="47.34133" lon="-2.35582">
        <ele>-12.199999809265</ele>
        <time>2021-03-18T10:27:33.000Z</time>
      </trkpt>
      <trkpt lat="47.34131" lon="-2.35575">
        <ele>-12.199999809265</ele>
        <time>2021-03-18T10:27:34.000Z</time>
      </trkpt>
      <trkpt lat="47.34114" lon="-2.35523">
        <ele>-12.199999809265</ele>
        <time>2021-03-18T10:27:41.000Z</time>
      </trkpt>
      <trkpt lat="47.34093" lon="-2.35464">
        <ele>-12.199999809265</ele>
        <time>2021-03-18T10:27:49.000Z</time>
      </trkpt>
      <trkpt lat="47.34072" lon="-2.35408">
        <ele>-12.199999809265</ele>
        <time>2021-03-18T10:27:57.000Z</time>
      </trkpt>
      <trkpt lat="47.34055" lon="-2.35369">
        <ele>-12.199999809265</ele>
        <time>2021-03-18T10:28:04.000Z</time>
      </trkpt>
      <trkpt lat="47.34051" lon="-2.35363">
        <ele>-11.800000190735</ele>
        <time>2021-03-18T10:28:05.000Z</time>
      </trkpt>
      <trkpt lat="47.34047" lon="-2.35358">
        <ele>-11.199999809265</ele>
        <time>2021-03-18T10:28:06.000Z</time>
      </trkpt>
      <trkpt lat="47.34044" lon="-2.35353">
        <ele>-10.800000190735</ele>
        <time>2021-03-18T10:28:07.000Z</time>
      </trkpt>
      <trkpt lat="47.3404" lon="-2.35348">
        <ele>-10.39999961853</ele>
        <time>2021-03-18T10:28:08.000Z</time>
      </trkpt>
      <trkpt lat="47.34035" lon="-2.35343">
        <ele>-10</ele>
        <time>2021-03-18T10:28:09.000Z</time>
      </trkpt>
      <trkpt lat="47.34031" lon="-2.35339">
        <ele>-10</ele>
        <time>2021-03-18T10:28:10.000Z</time>
      </trkpt>
      <trkpt lat="47.33994" lon="-2.35303">
        <ele>-10</ele>
        <time>2021-03-18T10:28:18.000Z</time>
      </trkpt>
      <trkpt lat="47.33971" lon="-2.35279">
        <ele>-9.6000003814697</ele>
        <time>2021-03-18T10:28:24.000Z</time>
      </trkpt>
      <trkpt lat="47.33968" lon="-2.35276">
        <ele>-9.1999998092651</ele>
        <time>2021-03-18T10:28:25.000Z</time>
      </trkpt>
      <trkpt lat="47.33964" lon="-2.35273">
        <ele>-8.8000001907349</ele>
        <time>2021-03-18T10:28:26.000Z</time>
      </trkpt>
      <trkpt lat="47.33961" lon="-2.3527">
        <ele>-8.3999996185303</ele>
        <time>2021-03-18T10:28:27.000Z</time>
      </trkpt>
      <trkpt lat="47.33957" lon="-2.35268">
        <ele>-8</ele>
        <time>2021-03-18T10:28:28.000Z</time>
      </trkpt>
      <trkpt lat="47.33953" lon="-2.35268">
        <ele>-8</ele>
        <time>2021-03-18T10:28:29.000Z</time>
      </trkpt>
      <trkpt lat="47.33938" lon="-2.35273">
        <ele>-8</ele>
        <time>2021-03-18T10:28:33.000Z</time>
      </trkpt>
      <trkpt lat="47.33934" lon="-2.35277">
        <ele>-8</ele>
        <time>2021-03-18T10:28:34.000Z</time>
      </trkpt>
      <trkpt lat="47.33921" lon="-2.35286">
        <ele>-7.5999999046326</ele>
        <time>2021-03-18T10:28:37.000Z</time>
      </trkpt>
      <trkpt lat="47.33916" lon="-2.35289">
        <ele>-7.1999998092651</ele>
        <time>2021-03-18T10:28:38.000Z</time>
      </trkpt>
      <trkpt lat="47.33911" lon="-2.35291">
        <ele>-6.8000001907349</ele>
        <time>2021-03-18T10:28:39.000Z</time>
      </trkpt>
      <trkpt lat="47.33905" lon="-2.35293">
        <ele>-6.4000000953674</ele>
        <time>2021-03-18T10:28:40.000Z</time>
      </trkpt>
      <trkpt lat="47.339" lon="-2.35296">
        <ele>-6</ele>
        <time>2021-03-18T10:28:41.000Z</time>
      </trkpt>
      <trkpt lat="47.33878" lon="-2.35306">
        <ele>-6</ele>
        <time>2021-03-18T10:28:45.000Z</time>
      </trkpt>
      <trkpt lat="47.33852" lon="-2.35322">
        <ele>-6</ele>
        <time>2021-03-18T10:28:50.000Z</time>
      </trkpt>
      <trkpt lat="47.33816" lon="-2.35349">
        <ele>-6</ele>
        <time>2021-03-18T10:28:57.000Z</time>
      </trkpt>
      <trkpt lat="47.33792" lon="-2.35352">
        <ele>-6</ele>
        <time>2021-03-18T10:29:01.000Z</time>
      </trkpt>
      <trkpt lat="47.33745" lon="-2.35358">
        <ele>-6</ele>
        <time>2021-03-18T10:29:09.000Z</time>
      </trkpt>
      <trkpt lat="47.33702" lon="-2.35364">
        <ele>-6</ele>
        <time>2021-03-18T10:29:16.000Z</time>
      </trkpt>
      <trkpt lat="47.33696" lon="-2.35364">
        <ele>-6</ele>
        <time>2021-03-18T10:29:17.000Z</time>
      </trkpt>
      <trkpt lat="47.33666" lon="-2.35366">
        <ele>-6</ele>
        <time>2021-03-18T10:29:22.000Z</time>
      </trkpt>
      <trkpt lat="47.33626" lon="-2.35371">
        <ele>-6</ele>
        <time>2021-03-18T10:29:28.000Z</time>
      </trkpt>
      <trkpt lat="47.33577" lon="-2.35384">
        <ele>-6</ele>
        <time>2021-03-18T10:29:35.000Z</time>
      </trkpt>
      <trkpt lat="47.33533" lon="-2.35401">
        <ele>-6</ele>
        <time>2021-03-18T10:29:42.000Z</time>
      </trkpt>
      <trkpt lat="47.33495" lon="-2.35421">
        <ele>-6</ele>
        <time>2021-03-18T10:29:49.000Z</time>
      </trkpt>
      <trkpt lat="47.33475" lon="-2.35427">
        <ele>-6</ele>
        <time>2021-03-18T10:29:53.000Z</time>
      </trkpt>
      <trkpt lat="47.33471" lon="-2.35429">
        <ele>-6</ele>
        <time>2021-03-18T10:29:54.000Z</time>
      </trkpt>
      <trkpt lat="47.33453" lon="-2.35437">
        <ele>-6</ele>
        <time>2021-03-18T10:29:59.000Z</time>
      </trkpt>
      <trkpt lat="47.33435" lon="-2.35449">
        <ele>-6</ele>
        <time>2021-03-18T10:30:05.000Z</time>
      </trkpt>
      <trkpt lat="47.33427" lon="-2.35453">
        <ele>-6</ele>
        <time>2021-03-18T10:30:07.000Z</time>
      </trkpt>
      <trkpt lat="47.33413" lon="-2.35458">
        <ele>-6</ele>
        <time>2021-03-18T10:30:10.000Z</time>
      </trkpt>
      <trkpt lat="47.334" lon="-2.35465">
        <ele>-6</ele>
        <time>2021-03-18T10:30:13.000Z</time>
      </trkpt>
      <trkpt lat="47.33389" lon="-2.35472">
        <ele>-6</ele>
        <time>2021-03-18T10:30:15.000Z</time>
      </trkpt>
      <trkpt lat="47.33371" lon="-2.35482">
        <ele>-6</ele>
        <time>2021-03-18T10:30:18.000Z</time>
      </trkpt>
      <trkpt lat="47.33358" lon="-2.35487">
        <ele>-6</ele>
        <time>2021-03-18T10:30:20.000Z</time>
      </trkpt>
      <trkpt lat="47.33352" lon="-2.3549">
        <ele>-5</ele>
        <time>2021-03-18T10:30:21.000Z</time>
      </trkpt>
      <trkpt lat="47.33347" lon="-2.35493">
        <ele>-4.5999999046326</ele>
        <time>2021-03-18T10:30:22.000Z</time>
      </trkpt>
      <trkpt lat="47.33342" lon="-2.35496">
        <ele>-4.1999998092651</ele>
        <time>2021-03-18T10:30:23.000Z</time>
      </trkpt>
      <trkpt lat="47.33337" lon="-2.35499">
        <ele>-3.7999999523163</ele>
        <time>2021-03-18T10:30:24.000Z</time>
      </trkpt>
      <trkpt lat="47.33318" lon="-2.3551">
        <ele>-3.7999999523163</ele>
        <time>2021-03-18T10:30:28.000Z</time>
      </trkpt>
      <trkpt lat="47.333" lon="-2.35522">
        <ele>-3.7999999523163</ele>
        <time>2021-03-18T10:30:32.000Z</time>
      </trkpt>
      <trkpt lat="47.33292" lon="-2.35531">
        <ele>-3.7999999523163</ele>
        <time>2021-03-18T10:30:34.000Z</time>
      </trkpt>
      <trkpt lat="47.33288" lon="-2.35535">
        <ele>-3.7999999523163</ele>
        <time>2021-03-18T10:30:35.000Z</time>
      </trkpt>
      <trkpt lat="47.33272" lon="-2.35555">
        <ele>-3.7999999523163</ele>
        <time>2021-03-18T10:30:39.000Z</time>
      </trkpt>
      <trkpt lat="47.33264" lon="-2.35564">
        <ele>-3.7999999523163</ele>
        <time>2021-03-18T10:30:41.000Z</time>
      </trkpt>
      <trkpt lat="47.3323" lon="-2.35593">
        <ele>-3.7999999523163</ele>
        <time>2021-03-18T10:30:48.000Z</time>
      </trkpt>
      <trkpt lat="47.33193" lon="-2.35622">
        <ele>-3.7999999523163</ele>
        <time>2021-03-18T10:30:55.000Z</time>
      </trkpt>
      <trkpt lat="47.33174" lon="-2.35632">
        <ele>-3.7999999523163</ele>
        <time>2021-03-18T10:30:58.000Z</time>
      </trkpt>
      <trkpt lat="47.33159" lon="-2.35636">
        <ele>-3.7999999523163</ele>
        <time>2021-03-18T10:31:00.000Z</time>
      </trkpt>
      <trkpt lat="47.33117" lon="-2.35643">
        <ele>-3.7999999523163</ele>
        <time>2021-03-18T10:31:05.000Z</time>
      </trkpt>
      <trkpt lat="47.33099" lon="-2.35647">
        <ele>-4.1999998092651</ele>
        <time>2021-03-18T10:31:07.000Z</time>
      </trkpt>
      <trkpt lat="47.3309" lon="-2.35649">
        <ele>-4.5999999046326</ele>
        <time>2021-03-18T10:31:08.000Z</time>
      </trkpt>
      <trkpt lat="47.3308" lon="-2.3565">
        <ele>-5</ele>
        <time>2021-03-18T10:31:09.000Z</time>
      </trkpt>
      <trkpt lat="47.33071" lon="-2.3565">
        <ele>-5.4000000953674</ele>
        <time>2021-03-18T10:31:10.000Z</time>
      </trkpt>
      <trkpt lat="47.33062" lon="-2.35652">
        <ele>-5.8000001907349</ele>
        <time>2021-03-18T10:31:11.000Z</time>
      </trkpt>
      <trkpt lat="47.33053" lon="-2.35654">
        <ele>-5.8000001907349</ele>
        <time>2021-03-18T10:31:12.000Z</time>
      </trkpt>
      <trkpt lat="47.33038" lon="-2.35656">
        <ele>-6.1999998092651</ele>
        <time>2021-03-18T10:31:14.000Z</time>
      </trkpt>
      <trkpt lat="47.33031" lon="-2.35657">
        <ele>-6.8000001907349</ele>
        <time>2021-03-18T10:31:15.000Z</time>
      </trkpt>
      <trkpt lat="47.33026" lon="-2.35658">
        <ele>-7.1999998092651</ele>
        <time>2021-03-18T10:31:16.000Z</time>
      </trkpt>
      <trkpt lat="47.33021" lon="-2.3566">
        <ele>-7.5999999046326</ele>
        <time>2021-03-18T10:31:17.000Z</time>
      </trkpt>
      <trkpt lat="47.33018" lon="-2.3566">
        <ele>-8.1999998092651</ele>
        <time>2021-03-18T10:31:18.000Z</time>
      </trkpt>
      <trkpt lat="47.33016" lon="-2.3566">
        <ele>-9</ele>
        <time>2021-03-18T10:31:19.000Z</time>
      </trkpt>
      <trkpt lat="47.33014" lon="-2.35659">
        <ele>-9.6000003814697</ele>
        <time>2021-03-18T10:31:20.000Z</time>
      </trkpt>
      <trkpt lat="47.33013" lon="-2.35657">
        <ele>-10.199999809265</ele>
        <time>2021-03-18T10:31:21.000Z</time>
      </trkpt>
      <trkpt lat="47.33013" lon="-2.35654">
        <ele>-10.800000190735</ele>
        <time>2021-03-18T10:31:22.000Z</time>
      </trkpt>
      <trkpt lat="47.33013" lon="-2.35648">
        <ele>-10.800000190735</ele>
        <time>2021-03-18T10:31:24.000Z</time>
      </trkpt>
      <trkpt lat="47.33016" lon="-2.35633">
        <ele>-10.800000190735</ele>
        <time>2021-03-18T10:31:28.000Z</time>
      </trkpt>
      <trkpt lat="47.33019" lon="-2.35609">
        <ele>-10.800000190735</ele>
        <time>2021-03-18T10:31:34.000Z</time>
      </trkpt>
      <trkpt lat="47.33022" lon="-2.35585">
        <ele>-10.800000190735</ele>
        <time>2021-03-18T10:31:40.000Z</time>
      </trkpt>
      <trkpt lat="47.33022" lon="-2.35566">
        <ele>-10.800000190735</ele>
        <time>2021-03-18T10:31:45.000Z</time>
      </trkpt>
      <trkpt lat="47.33022" lon="-2.35551">
        <ele>-10.800000190735</ele>
        <time>2021-03-18T10:31:50.000Z</time>
      </trkpt>
      <trkpt lat="47.33025" lon="-2.35536">
        <ele>-10.800000190735</ele>
        <time>2021-03-18T10:31:55.000Z</time>
      </trkpt>
      <trkpt lat="47.33025" lon="-2.35526">
        <ele>-10.800000190735</ele>
        <time>2021-03-18T10:31:59.000Z</time>
      </trkpt>
      <trkpt lat="47.33026" lon="-2.35506">
        <ele>-10.39999961853</ele>
        <time>2021-03-18T10:32:04.000Z</time>
      </trkpt>
      <trkpt lat="47.33027" lon="-2.35503">
        <ele>-10</ele>
        <time>2021-03-18T10:32:05.000Z</time>
      </trkpt>
      <trkpt lat="47.33028" lon="-2.35499">
        <ele>-9.3999996185303</ele>
        <time>2021-03-18T10:32:06.000Z</time>
      </trkpt>
      <trkpt lat="47.33028" lon="-2.35495">
        <ele>-9</ele>
        <time>2021-03-18T10:32:07.000Z</time>
      </trkpt>
      <trkpt lat="47.33028" lon="-2.35491">
        <ele>-8.6000003814697</ele>
        <time>2021-03-18T10:32:08.000Z</time>
      </trkpt>
      <trkpt lat="47.33029" lon="-2.35484">
        <ele>-8.6000003814697</ele>
        <time>2021-03-18T10:32:11.000Z</time>
      </trkpt>
      <trkpt lat="47.33029" lon="-2.35483">
        <ele>-8.6000003814697</ele>
        <time>2021-03-18T10:32:12.000Z</time>
      </trkpt>
      <trkpt lat="47.33031" lon="-2.3545">
        <ele>-8.6000003814697</ele>
        <time>2021-03-18T10:32:43.000Z</time>
      </trkpt>
      <trkpt lat="47.33031" lon="-2.35447">
        <ele>-8.6000003814697</ele>
        <time>2021-03-18T10:32:46.000Z</time>
      </trkpt>
      <trkpt lat="47.33031" lon="-2.35446">
        <ele>-8.6000003814697</ele>
        <time>2021-03-18T10:32:48.000Z</time>
      </trkpt>
      <trkpt lat="47.33032" lon="-2.35437">
        <ele>-8.6000003814697</ele>
        <time>2021-03-18T10:32:52.000Z</time>
      </trkpt>
      <trkpt lat="47.33032" lon="-2.35433">
        <ele>-8.6000003814697</ele>
        <time>2021-03-18T10:32:53.000Z</time>
      </trkpt>
      <trkpt lat="47.33031" lon="-2.35419">
        <ele>-8.1999998092651</ele>
        <time>2021-03-18T10:32:56.000Z</time>
      </trkpt>
      <trkpt lat="47.33032" lon="-2.35415">
        <ele>-7.8000001907349</ele>
        <time>2021-03-18T10:32:57.000Z</time>
      </trkpt>
      <trkpt lat="47.33031" lon="-2.3541">
        <ele>-7.4000000953674</ele>
        <time>2021-03-18T10:32:58.000Z</time>
      </trkpt>
      <trkpt lat="47.33031" lon="-2.35405">
        <ele>-7</ele>
        <time>2021-03-18T10:32:59.000Z</time>
      </trkpt>
      <trkpt lat="47.33031" lon="-2.35399">
        <ele>-6.5999999046326</ele>
        <time>2021-03-18T10:33:00.000Z</time>
      </trkpt>
      <trkpt lat="47.33028" lon="-2.35372">
        <ele>-6.5999999046326</ele>
        <time>2021-03-18T10:33:05.000Z</time>
      </trkpt>
      <trkpt lat="47.33026" lon="-2.35354">
        <ele>-6.5999999046326</ele>
        <time>2021-03-18T10:33:08.000Z</time>
      </trkpt>
      <trkpt lat="47.33025" lon="-2.35333">
        <ele>-6.5999999046326</ele>
        <time>2021-03-18T10:33:11.000Z</time>
      </trkpt>
      <trkpt lat="47.33026" lon="-2.35302">
        <ele>-6.5999999046326</ele>
        <time>2021-03-18T10:33:16.000Z</time>
      </trkpt>
      <trkpt lat="47.33026" lon="-2.35295">
        <ele>-6.1999998092651</ele>
        <time>2021-03-18T10:33:17.000Z</time>
      </trkpt>
      <trkpt lat="47.33026" lon="-2.35289">
        <ele>-5.8000001907349</ele>
        <time>2021-03-18T10:33:18.000Z</time>
      </trkpt>
      <trkpt lat="47.33026" lon="-2.35282">
        <ele>-5.4000000953674</ele>
        <time>2021-03-18T10:33:19.000Z</time>
      </trkpt>
      <trkpt lat="47.33025" lon="-2.35276">
        <ele>-5</ele>
        <time>2021-03-18T10:33:20.000Z</time>
      </trkpt>
      <trkpt lat="47.33026" lon="-2.35269">
        <ele>-4.5999999046326</ele>
        <time>2021-03-18T10:33:21.000Z</time>
      </trkpt>
      <trkpt lat="47.33026" lon="-2.35263">
        <ele>-4.5999999046326</ele>
        <time>2021-03-18T10:33:22.000Z</time>
      </trkpt>
      <trkpt lat="47.33026" lon="-2.35242">
        <ele>-4.5999999046326</ele>
        <time>2021-03-18T10:33:25.000Z</time>
      </trkpt>
      <trkpt lat="47.33023" lon="-2.35229">
        <ele>-4.5999999046326</ele>
        <time>2021-03-18T10:33:27.000Z</time>
      </trkpt>
      <trkpt lat="47.33024" lon="-2.35221">
        <ele>-4.5999999046326</ele>
        <time>2021-03-18T10:33:28.000Z</time>
      </trkpt>
      <trkpt lat="47.33024" lon="-2.35208">
        <ele>-4.5999999046326</ele>
        <time>2021-03-18T10:33:30.000Z</time>
      </trkpt>
      <trkpt lat="47.33024" lon="-2.35194">
        <ele>-4.5999999046326</ele>
        <time>2021-03-18T10:33:32.000Z</time>
      </trkpt>
      <trkpt lat="47.33022" lon="-2.35172">
        <ele>-4.5999999046326</ele>
        <time>2021-03-18T10:33:35.000Z</time>
      </trkpt>
      <trkpt lat="47.3302" lon="-2.35158">
        <ele>-4.5999999046326</ele>
        <time>2021-03-18T10:33:37.000Z</time>
      </trkpt>
      <trkpt lat="47.33018" lon="-2.35128">
        <ele>-4.5999999046326</ele>
        <time>2021-03-18T10:33:42.000Z</time>
      </trkpt>
      <trkpt lat="47.33016" lon="-2.35102">
        <ele>-4.5999999046326</ele>
        <time>2021-03-18T10:33:47.000Z</time>
      </trkpt>
      <trkpt lat="47.33015" lon="-2.351">
        <ele>-5</ele>
        <time>2021-03-18T10:33:48.000Z</time>
      </trkpt>
      <trkpt lat="47.33014" lon="-2.35097">
        <ele>-5.4000000953674</ele>
        <time>2021-03-18T10:33:49.000Z</time>
      </trkpt>
      <trkpt lat="47.33014" lon="-2.35093">
        <ele>-5.8000001907349</ele>
        <time>2021-03-18T10:33:50.000Z</time>
      </trkpt>
      <trkpt lat="47.33013" lon="-2.3509">
        <ele>-6.1999998092651</ele>
        <time>2021-03-18T10:33:51.000Z</time>
      </trkpt>
      <trkpt lat="47.33012" lon="-2.35086">
        <ele>-6.5999999046326</ele>
        <time>2021-03-18T10:33:52.000Z</time>
      </trkpt>
      <trkpt lat="47.33005" lon="-2.35065">
        <ele>-6.5999999046326</ele>
        <time>2021-03-18T10:33:59.000Z</time>
      </trkpt>
      <trkpt lat="47.33006" lon="-2.35057">
        <ele>-6.5999999046326</ele>
        <time>2021-03-18T10:34:03.000Z</time>
      </trkpt>
      <trkpt lat="47.33006" lon="-2.35052">
        <ele>-6.5999999046326</ele>
        <time>2021-03-18T10:34:07.000Z</time>
      </trkpt>
      <trkpt lat="47.33008" lon="-2.35047">
        <ele>-6.5999999046326</ele>
        <time>2021-03-18T10:34:12.000Z</time>
      </trkpt>
      <trkpt lat="47.33007" lon="-2.35043">
        <ele>-6.5999999046326</ele>
        <time>2021-03-18T10:34:15.000Z</time>
      </trkpt>
      <trkpt lat="47.33004" lon="-2.35038">
        <ele>-6.5999999046326</ele>
        <time>2021-03-18T10:34:18.000Z</time>
      </trkpt>
      <trkpt lat="47.33004" lon="-2.35036">
        <ele>-6.5999999046326</ele>
        <time>2021-03-18T10:34:19.000Z</time>
      </trkpt>
      <trkpt lat="47.33002" lon="-2.35031">
        <ele>-6.5999999046326</ele>
        <time>2021-03-18T10:34:22.000Z</time>
      </trkpt>
      <trkpt lat="47.33001" lon="-2.35028">
        <ele>-6.5999999046326</ele>
        <time>2021-03-18T10:34:24.000Z</time>
      </trkpt>
      <trkpt lat="47.33001" lon="-2.35022">
        <ele>-6.5999999046326</ele>
        <time>2021-03-18T10:34:27.000Z</time>
      </trkpt>
      <trkpt lat="47.32999" lon="-2.35012">
        <ele>-6.5999999046326</ele>
        <time>2021-03-18T10:34:30.000Z</time>
      </trkpt>
      <trkpt lat="47.32998" lon="-2.35005">
        <ele>-6.5999999046326</ele>
        <time>2021-03-18T10:34:32.000Z</time>
      </trkpt>
      <trkpt lat="47.3299" lon="-2.34991">
        <ele>-6.5999999046326</ele>
        <time>2021-03-18T10:34:36.000Z</time>
      </trkpt>
      <trkpt lat="47.32981" lon="-2.34974">
        <ele>-6.5999999046326</ele>
        <time>2021-03-18T10:34:42.000Z</time>
      </trkpt>
      <trkpt lat="47.32975" lon="-2.34956">
        <ele>-6.5999999046326</ele>
        <time>2021-03-18T10:34:47.000Z</time>
      </trkpt>
      <trkpt lat="47.32973" lon="-2.34952">
        <ele>-7</ele>
        <time>2021-03-18T10:34:49.000Z</time>
      </trkpt>
      <trkpt lat="47.32972" lon="-2.3495">
        <ele>-7.4000000953674</ele>
        <time>2021-03-18T10:34:50.000Z</time>
      </trkpt>
      <trkpt lat="47.32971" lon="-2.34948">
        <ele>-7.8000001907349</ele>
        <time>2021-03-18T10:34:51.000Z</time>
      </trkpt>
      <trkpt lat="47.3297" lon="-2.34946">
        <ele>-8.6000003814697</ele>
        <time>2021-03-18T10:34:52.000Z</time>
      </trkpt>
      <trkpt lat="47.3297" lon="-2.34945">
        <ele>-8.6000003814697</ele>
        <time>2021-03-18T10:34:53.000Z</time>
      </trkpt>
      <trkpt lat="47.32964" lon="-2.34931">
        <ele>-8.6000003814697</ele>
        <time>2021-03-18T10:34:57.000Z</time>
      </trkpt>
      <trkpt lat="47.3296" lon="-2.34913">
        <ele>-8.6000003814697</ele>
        <time>2021-03-18T10:35:02.000Z</time>
      </trkpt>
      <trkpt lat="47.32952" lon="-2.34889">
        <ele>-8.6000003814697</ele>
        <time>2021-03-18T10:35:08.000Z</time>
      </trkpt>
      <trkpt lat="47.32946" lon="-2.34874">
        <ele>-8.6000003814697</ele>
        <time>2021-03-18T10:35:13.000Z</time>
      </trkpt>
      <trkpt lat="47.32937" lon="-2.34853">
        <ele>-8.6000003814697</ele>
        <time>2021-03-18T10:35:20.000Z</time>
      </trkpt>
      <trkpt lat="47.32933" lon="-2.34842">
        <ele>-8.6000003814697</ele>
        <time>2021-03-18T10:35:26.000Z</time>
      </trkpt>
      <trkpt lat="47.32929" lon="-2.34835">
        <ele>-8.6000003814697</ele>
        <time>2021-03-18T10:35:32.000Z</time>
      </trkpt>
      <trkpt lat="47.32925" lon="-2.34822">
        <ele>-8.6000003814697</ele>
        <time>2021-03-18T10:35:38.000Z</time>
      </trkpt>
      <trkpt lat="47.32925" lon="-2.34821">
        <ele>-8.6000003814697</ele>
        <time>2021-03-18T10:35:40.000Z</time>
      </trkpt>
      <trkpt lat="47.32917" lon="-2.34811">
        <ele>-8.6000003814697</ele>
        <time>2021-03-18T10:35:51.000Z</time>
      </trkpt>
      <trkpt lat="47.32917" lon="-2.3481">
        <ele>-8.6000003814697</ele>
        <time>2021-03-18T10:35:52.000Z</time>
      </trkpt>
      <trkpt lat="47.32903" lon="-2.34787">
        <ele>-11.199999809265</ele>
        <time>2021-03-18T10:36:23.000Z</time>
      </trkpt>
      <trkpt lat="47.32891" lon="-2.34792">
        <ele>-11.199999809265</ele>
        <time>2021-03-18T10:36:28.000Z</time>
      </trkpt>
      <trkpt lat="47.32876" lon="-2.34799">
        <ele>-11.199999809265</ele>
        <time>2021-03-18T10:36:33.000Z</time>
      </trkpt>
      <trkpt lat="47.3287" lon="-2.34803">
        <ele>-10.800000190735</ele>
        <time>2021-03-18T10:36:35.000Z</time>
      </trkpt>
      <trkpt lat="47.32867" lon="-2.34805">
        <ele>-10.39999961853</ele>
        <time>2021-03-18T10:36:36.000Z</time>
      </trkpt>
      <trkpt lat="47.32864" lon="-2.34807">
        <ele>-10</ele>
        <time>2021-03-18T10:36:37.000Z</time>
      </trkpt>
      <trkpt lat="47.32861" lon="-2.34809">
        <ele>-9.6000003814697</ele>
        <time>2021-03-18T10:36:38.000Z</time>
      </trkpt>
      <trkpt lat="47.32858" lon="-2.34812">
        <ele>-9.1999998092651</ele>
        <time>2021-03-18T10:36:39.000Z</time>
      </trkpt>
      <trkpt lat="47.32854" lon="-2.34815">
        <ele>-9.1999998092651</ele>
        <time>2021-03-18T10:36:40.000Z</time>
      </trkpt>
      <trkpt lat="47.32832" lon="-2.34829">
        <ele>-9.1999998092651</ele>
        <time>2021-03-18T10:36:46.000Z</time>
      </trkpt>
      <trkpt lat="47.3281" lon="-2.34846">
        <ele>-9.1999998092651</ele>
        <time>2021-03-18T10:36:52.000Z</time>
      </trkpt>
      <trkpt lat="47.32791" lon="-2.34859">
        <ele>-9.1999998092651</ele>
        <time>2021-03-18T10:36:58.000Z</time>
      </trkpt>
      <trkpt lat="47.3277" lon="-2.34874">
        <ele>-9.1999998092651</ele>
        <time>2021-03-18T10:37:04.000Z</time>
      </trkpt>
      <trkpt lat="47.32747" lon="-2.34892">
        <ele>-9.1999998092651</ele>
        <time>2021-03-18T10:37:10.000Z</time>
      </trkpt>
      <trkpt lat="47.3273" lon="-2.34903">
        <ele>-8.8000001907349</ele>
        <time>2021-03-18T10:37:14.000Z</time>
      </trkpt>
      <trkpt lat="47.32726" lon="-2.34906">
        <ele>-8.3999996185303</ele>
        <time>2021-03-18T10:37:15.000Z</time>
      </trkpt>
      <trkpt lat="47.32723" lon="-2.34909">
        <ele>-8</ele>
        <time>2021-03-18T10:37:16.000Z</time>
      </trkpt>
      <trkpt lat="47.32719" lon="-2.34912">
        <ele>-7.5999999046326</ele>
        <time>2021-03-18T10:37:17.000Z</time>
      </trkpt>
      <trkpt lat="47.32715" lon="-2.34915">
        <ele>-7</ele>
        <time>2021-03-18T10:37:18.000Z</time>
      </trkpt>
      <trkpt lat="47.32693" lon="-2.34931">
        <ele>-7</ele>
        <time>2021-03-18T10:37:24.000Z</time>
      </trkpt>
      <trkpt lat="47.32665" lon="-2.34949">
        <ele>-7</ele>
        <time>2021-03-18T10:37:32.000Z</time>
      </trkpt>
      <trkpt lat="47.32641" lon="-2.34965">
        <ele>-7</ele>
        <time>2021-03-18T10:37:39.000Z</time>
      </trkpt>
      <trkpt lat="47.32633" lon="-2.3497">
        <ele>-7</ele>
        <time>2021-03-18T10:37:41.000Z</time>
      </trkpt>
      <trkpt lat="47.32621" lon="-2.34977">
        <ele>-7</ele>
        <time>2021-03-18T10:37:44.000Z</time>
      </trkpt>
      <trkpt lat="47.32613" lon="-2.34981">
        <ele>-6.5999999046326</ele>
        <time>2021-03-18T10:37:46.000Z</time>
      </trkpt>
      <trkpt lat="47.32609" lon="-2.34982">
        <ele>-6.1999998092651</ele>
        <time>2021-03-18T10:37:47.000Z</time>
      </trkpt>
      <trkpt lat="47.32605" lon="-2.34984">
        <ele>-5.8000001907349</ele>
        <time>2021-03-18T10:37:48.000Z</time>
      </trkpt>
      <trkpt lat="47.32601" lon="-2.34986">
        <ele>-5.4000000953674</ele>
        <time>2021-03-18T10:37:49.000Z</time>
      </trkpt>
      <trkpt lat="47.32598" lon="-2.34988">
        <ele>-5</ele>
        <time>2021-03-18T10:37:50.000Z</time>
      </trkpt>
      <trkpt lat="47.32586" lon="-2.34995">
        <ele>-5</ele>
        <time>2021-03-18T10:37:53.000Z</time>
      </trkpt>
      <trkpt lat="47.3257" lon="-2.35004">
        <ele>-5</ele>
        <time>2021-03-18T10:37:57.000Z</time>
      </trkpt>
      <trkpt lat="47.32558" lon="-2.35009">
        <ele>-5</ele>
        <time>2021-03-18T10:38:00.000Z</time>
      </trkpt>
      <trkpt lat="47.32549" lon="-2.35013">
        <ele>-5</ele>
        <time>2021-03-18T10:38:02.000Z</time>
      </trkpt>
      <trkpt lat="47.32534" lon="-2.35018">
        <ele>-5</ele>
        <time>2021-03-18T10:38:05.000Z</time>
      </trkpt>
      <trkpt lat="47.3252" lon="-2.3502">
        <ele>-5</ele>
        <time>2021-03-18T10:38:08.000Z</time>
      </trkpt>
      <trkpt lat="47.32509" lon="-2.35021">
        <ele>-5</ele>
        <time>2021-03-18T10:38:10.000Z</time>
      </trkpt>
      <trkpt lat="47.32501" lon="-2.35022">
        <ele>-4.5999999046326</ele>
        <time>2021-03-18T10:38:12.000Z</time>
      </trkpt>
      <trkpt lat="47.32496" lon="-2.35024">
        <ele>-4.1999998092651</ele>
        <time>2021-03-18T10:38:13.000Z</time>
      </trkpt>
      <trkpt lat="47.32492" lon="-2.35025">
        <ele>-3.7999999523163</ele>
        <time>2021-03-18T10:38:14.000Z</time>
      </trkpt>
      <trkpt lat="47.32487" lon="-2.35026">
        <ele>-3.4000000953674</ele>
        <time>2021-03-18T10:38:15.000Z</time>
      </trkpt>
      <trkpt lat="47.32482" lon="-2.35027">
        <ele>-3</ele>
        <time>2021-03-18T10:38:16.000Z</time>
      </trkpt>
      <trkpt lat="47.32471" lon="-2.35028">
        <ele>-3</ele>
        <time>2021-03-18T10:38:18.000Z</time>
      </trkpt>
      <trkpt lat="47.32437" lon="-2.35038">
        <ele>-3</ele>
        <time>2021-03-18T10:38:25.000Z</time>
      </trkpt>
      <trkpt lat="47.32395" lon="-2.35042">
        <ele>-3</ele>
        <time>2021-03-18T10:38:33.000Z</time>
      </trkpt>
      <trkpt lat="47.32352" lon="-2.35045">
        <ele>-3</ele>
        <time>2021-03-18T10:38:41.000Z</time>
      </trkpt>
      <trkpt lat="47.32311" lon="-2.35045">
        <ele>-3</ele>
        <time>2021-03-18T10:38:48.000Z</time>
      </trkpt>
      <trkpt lat="47.32272" lon="-2.35044">
        <ele>-3</ele>
        <time>2021-03-18T10:38:54.000Z</time>
      </trkpt>
      <trkpt lat="47.32253" lon="-2.35044">
        <ele>-3</ele>
        <time>2021-03-18T10:38:57.000Z</time>
      </trkpt>
      <trkpt lat="47.3224" lon="-2.35047">
        <ele>-3</ele>
        <time>2021-03-18T10:38:59.000Z</time>
      </trkpt>
      <trkpt lat="47.32227" lon="-2.35049">
        <ele>-3.4000000953674</ele>
        <time>2021-03-18T10:39:01.000Z</time>
      </trkpt>
      <trkpt lat="47.32219" lon="-2.35049">
        <ele>-3.7999999523163</ele>
        <time>2021-03-18T10:39:02.000Z</time>
      </trkpt>
      <trkpt lat="47.32213" lon="-2.35051">
        <ele>-4.1999998092651</ele>
        <time>2021-03-18T10:39:03.000Z</time>
      </trkpt>
      <trkpt lat="47.32206" lon="-2.35051">
        <ele>-4.8000001907349</ele>
        <time>2021-03-18T10:39:04.000Z</time>
      </trkpt>
      <trkpt lat="47.322" lon="-2.35052">
        <ele>-5.1999998092651</ele>
        <time>2021-03-18T10:39:05.000Z</time>
      </trkpt>
      <trkpt lat="47.32163" lon="-2.35056">
        <ele>-5.1999998092651</ele>
        <time>2021-03-18T10:39:11.000Z</time>
      </trkpt>
      <trkpt lat="47.32122" lon="-2.35059">
        <ele>-5.1999998092651</ele>
        <time>2021-03-18T10:39:18.000Z</time>
      </trkpt>
      <trkpt lat="47.32088" lon="-2.35058">
        <ele>-5.1999998092651</ele>
        <time>2021-03-18T10:39:24.000Z</time>
      </trkpt>
      <trkpt lat="47.32059" lon="-2.35058">
        <ele>-5.1999998092651</ele>
        <time>2021-03-18T10:39:30.000Z</time>
      </trkpt>
      <trkpt lat="47.32044" lon="-2.35056">
        <ele>-5.1999998092651</ele>
        <time>2021-03-18T10:39:33.000Z</time>
      </trkpt>
      <trkpt lat="47.32037" lon="-2.3506">
        <ele>-5.1999998092651</ele>
        <time>2021-03-18T10:39:35.000Z</time>
      </trkpt>
      <trkpt lat="47.32036" lon="-2.35068">
        <ele>-5.5999999046326</ele>
        <time>2021-03-18T10:39:37.000Z</time>
      </trkpt>
      <trkpt lat="47.32037" lon="-2.35071">
        <ele>-6</ele>
        <time>2021-03-18T10:39:38.000Z</time>
      </trkpt>
      <trkpt lat="47.32038" lon="-2.35075">
        <ele>-6.4000000953674</ele>
        <time>2021-03-18T10:39:39.000Z</time>
      </trkpt>
      <trkpt lat="47.32039" lon="-2.3508">
        <ele>-6.8000001907349</ele>
        <time>2021-03-18T10:39:40.000Z</time>
      </trkpt>
      <trkpt lat="47.32041" lon="-2.35085">
        <ele>-7.1999998092651</ele>
        <time>2021-03-18T10:39:41.000Z</time>
      </trkpt>
      <trkpt lat="47.32042" lon="-2.35091">
        <ele>-7.1999998092651</ele>
        <time>2021-03-18T10:39:42.000Z</time>
      </trkpt>
      <trkpt lat="47.32039" lon="-2.35114">
        <ele>-7.1999998092651</ele>
        <time>2021-03-18T10:39:46.000Z</time>
      </trkpt>
      <trkpt lat="47.32022" lon="-2.35134">
        <ele>-7.1999998092651</ele>
        <time>2021-03-18T10:39:50.000Z</time>
      </trkpt>
      <trkpt lat="47.32014" lon="-2.35142">
        <ele>-7.1999998092651</ele>
        <time>2021-03-18T10:39:52.000Z</time>
      </trkpt>
      <trkpt lat="47.31996" lon="-2.35163">
        <ele>-7.1999998092651</ele>
        <time>2021-03-18T10:39:57.000Z</time>
      </trkpt>
      <trkpt lat="47.31971" lon="-2.35184">
        <ele>-7.1999998092651</ele>
        <time>2021-03-18T10:40:03.000Z</time>
      </trkpt>
      <trkpt lat="47.31967" lon="-2.35188">
        <ele>-7.1999998092651</ele>
        <time>2021-03-18T10:40:04.000Z</time>
      </trkpt>
      <trkpt lat="47.31945" lon="-2.35208">
        <ele>-7.1999998092651</ele>
        <time>2021-03-18T10:40:09.000Z</time>
      </trkpt>
      <trkpt lat="47.31917" lon="-2.35229">
        <ele>-7.1999998092651</ele>
        <time>2021-03-18T10:40:15.000Z</time>
      </trkpt>
      <trkpt lat="47.31913" lon="-2.35235">
        <ele>-7.1999998092651</ele>
        <time>2021-03-18T10:40:16.000Z</time>
      </trkpt>
      <trkpt lat="47.31907" lon="-2.35245">
        <ele>-6.8000001907349</ele>
        <time>2021-03-18T10:40:18.000Z</time>
      </trkpt>
      <trkpt lat="47.31904" lon="-2.35249">
        <ele>-6.4000000953674</ele>
        <time>2021-03-18T10:40:19.000Z</time>
      </trkpt>
      <trkpt lat="47.31901" lon="-2.35254">
        <ele>-6</ele>
        <time>2021-03-18T10:40:20.000Z</time>
      </trkpt>
      <trkpt lat="47.31897" lon="-2.35257">
        <ele>-5.5999999046326</ele>
        <time>2021-03-18T10:40:21.000Z</time>
      </trkpt>
      <trkpt lat="47.31894" lon="-2.35262">
        <ele>-5.1999998092651</ele>
        <time>2021-03-18T10:40:22.000Z</time>
      </trkpt>
      <trkpt lat="47.31881" lon="-2.35273">
        <ele>-5.1999998092651</ele>
        <time>2021-03-18T10:40:25.000Z</time>
      </trkpt>
      <trkpt lat="47.3187" lon="-2.35283">
        <ele>-5.1999998092651</ele>
        <time>2021-03-18T10:40:28.000Z</time>
      </trkpt>
      <trkpt lat="47.31857" lon="-2.35293">
        <ele>-5.1999998092651</ele>
        <time>2021-03-18T10:40:31.000Z</time>
      </trkpt>
      <trkpt lat="47.3184" lon="-2.35307">
        <ele>-5.1999998092651</ele>
        <time>2021-03-18T10:40:35.000Z</time>
      </trkpt>
      <trkpt lat="47.31836" lon="-2.3531">
        <ele>-5.1999998092651</ele>
        <time>2021-03-18T10:40:36.000Z</time>
      </trkpt>
      <trkpt lat="47.31832" lon="-2.35312">
        <ele>-4.8000001907349</ele>
        <time>2021-03-18T10:40:37.000Z</time>
      </trkpt>
      <trkpt lat="47.31828" lon="-2.35313">
        <ele>-4.4000000953674</ele>
        <time>2021-03-18T10:40:38.000Z</time>
      </trkpt>
      <trkpt lat="47.31823" lon="-2.35316">
        <ele>-4</ele>
        <time>2021-03-18T10:40:39.000Z</time>
      </trkpt>
      <trkpt lat="47.31819" lon="-2.35317">
        <ele>-3.5999999046326</ele>
        <time>2021-03-18T10:40:40.000Z</time>
      </trkpt>
      <trkpt lat="47.31816" lon="-2.35319">
        <ele>-3.2000000476837</ele>
        <time>2021-03-18T10:40:41.000Z</time>
      </trkpt>
      <trkpt lat="47.31806" lon="-2.3533">
        <ele>-3.2000000476837</ele>
        <time>2021-03-18T10:40:45.000Z</time>
      </trkpt>
      <trkpt lat="47.3179" lon="-2.35338">
        <ele>-3.2000000476837</ele>
        <time>2021-03-18T10:40:50.000Z</time>
      </trkpt>
      <trkpt lat="47.31783" lon="-2.35341">
        <ele>-2.5999999046326</ele>
        <time>2021-03-18T10:40:52.000Z</time>
      </trkpt>
      <trkpt lat="47.3178" lon="-2.35343">
        <ele>-2.2000000476837</ele>
        <time>2021-03-18T10:40:53.000Z</time>
      </trkpt>
      <trkpt lat="47.31777" lon="-2.35345">
        <ele>-1.7999999523163</ele>
        <time>2021-03-18T10:40:54.000Z</time>
      </trkpt>
      <trkpt lat="47.31775" lon="-2.35347">
        <ele>-1.3999999761581</ele>
        <time>2021-03-18T10:40:55.000Z</time>
      </trkpt>
      <trkpt lat="47.31772" lon="-2.3535">
        <ele>-0.80000001192093</ele>
        <time>2021-03-18T10:40:56.000Z</time>
      </trkpt>
      <trkpt lat="47.31764" lon="-2.35363">
        <ele>-0.80000001192093</ele>
        <time>2021-03-18T10:41:00.000Z</time>
      </trkpt>
      <trkpt lat="47.31765" lon="-2.35368">
        <ele>-0.80000001192093</ele>
        <time>2021-03-18T10:41:01.000Z</time>
      </trkpt>
      <trkpt lat="47.31772" lon="-2.35387">
        <ele>-0.80000001192093</ele>
        <time>2021-03-18T10:41:05.000Z</time>
      </trkpt>
      <trkpt lat="47.31785" lon="-2.35412">
        <ele>-0.80000001192093</ele>
        <time>2021-03-18T10:41:10.000Z</time>
      </trkpt>
      <trkpt lat="47.31796" lon="-2.35428">
        <ele>-0.80000001192093</ele>
        <time>2021-03-18T10:41:15.000Z</time>
      </trkpt>
      <trkpt lat="47.31806" lon="-2.35442">
        <ele>-1.2000000476837</ele>
        <time>2021-03-18T10:41:22.000Z</time>
      </trkpt>
      <trkpt lat="47.31807" lon="-2.35444">
        <ele>-1.6000000238419</ele>
        <time>2021-03-18T10:41:23.000Z</time>
      </trkpt>
      <trkpt lat="47.31809" lon="-2.35446">
        <ele>-2</ele>
        <time>2021-03-18T10:41:24.000Z</time>
      </trkpt>
      <trkpt lat="47.3181" lon="-2.35449">
        <ele>-2.4000000953674</ele>
        <time>2021-03-18T10:41:25.000Z</time>
      </trkpt>
      <trkpt lat="47.31811" lon="-2.35451">
        <ele>-3</ele>
        <time>2021-03-18T10:41:26.000Z</time>
      </trkpt>
      <trkpt lat="47.31811" lon="-2.35452">
        <ele>-3</ele>
        <time>2021-03-18T10:41:28.000Z</time>
      </trkpt>
      <trkpt lat="47.31816" lon="-2.35492">
        <ele>-3</ele>
        <time>2021-03-18T10:41:51.000Z</time>
      </trkpt>
      <trkpt lat="47.3182" lon="-2.35498">
        <ele>-3</ele>
        <time>2021-03-18T10:41:54.000Z</time>
      </trkpt>
      <trkpt lat="47.31822" lon="-2.35505">
        <ele>-3</ele>
        <time>2021-03-18T10:41:57.000Z</time>
      </trkpt>
      <trkpt lat="47.31826" lon="-2.35512">
        <ele>-3</ele>
        <time>2021-03-18T10:42:01.000Z</time>
      </trkpt>
      <trkpt lat="47.31828" lon="-2.35518">
        <ele>-3</ele>
        <time>2021-03-18T10:42:06.000Z</time>
      </trkpt>
      <trkpt lat="47.31831" lon="-2.35526">
        <ele>-3</ele>
        <time>2021-03-18T10:42:11.000Z</time>
      </trkpt>
      <trkpt lat="47.31832" lon="-2.35528">
        <ele>-3</ele>
        <time>2021-03-18T10:42:12.000Z</time>
      </trkpt>
      <trkpt lat="47.31836" lon="-2.35539">
        <ele>-3</ele>
        <time>2021-03-18T10:42:20.000Z</time>
      </trkpt>
      <trkpt lat="47.31832" lon="-2.35545">
        <ele>-3</ele>
        <time>2021-03-18T10:42:27.000Z</time>
      </trkpt>
      <trkpt lat="47.31825" lon="-2.35553">
        <ele>-3</ele>
        <time>2021-03-18T10:42:33.000Z</time>
      </trkpt>
      <trkpt lat="47.31823" lon="-2.35556">
        <ele>-3</ele>
        <time>2021-03-18T10:42:35.000Z</time>
      </trkpt>
      <trkpt lat="47.31821" lon="-2.3556">
        <ele>-3</ele>
        <time>2021-03-18T10:42:37.000Z</time>
      </trkpt>
      <trkpt lat="47.31819" lon="-2.35562">
        <ele>-3</ele>
        <time>2021-03-18T10:42:39.000Z</time>
      </trkpt>
      <trkpt lat="47.318" lon="-2.35603">
        <ele>-3</ele>
        <time>2021-03-18T10:43:14.000Z</time>
      </trkpt>
      <trkpt lat="47.31792" lon="-2.35614">
        <ele>-3</ele>
        <time>2021-03-18T10:43:20.000Z</time>
      </trkpt>
      <trkpt lat="47.31787" lon="-2.35627">
        <ele>-3</ele>
        <time>2021-03-18T10:43:26.000Z</time>
      </trkpt>
      <trkpt lat="47.31782" lon="-2.35642">
        <ele>-3</ele>
        <time>2021-03-18T10:43:33.000Z</time>
      </trkpt>
      <trkpt lat="47.31781" lon="-2.35664">
        <ele>-2.4000000953674</ele>
        <time>2021-03-18T10:43:41.000Z</time>
      </trkpt>
      <trkpt lat="47.31781" lon="-2.35667">
        <ele>-2</ele>
        <time>2021-03-18T10:43:42.000Z</time>
      </trkpt>
      <trkpt lat="47.31781" lon="-2.3567">
        <ele>-1.6000000238419</ele>
        <time>2021-03-18T10:43:43.000Z</time>
      </trkpt>
      <trkpt lat="47.31781" lon="-2.35673">
        <ele>-1.2000000476837</ele>
        <time>2021-03-18T10:43:44.000Z</time>
      </trkpt>
      <trkpt lat="47.31781" lon="-2.35676">
        <ele>-0.80000001192093</ele>
        <time>2021-03-18T10:43:45.000Z</time>
      </trkpt>
      <trkpt lat="47.31782" lon="-2.3568">
        <ele>-0.80000001192093</ele>
        <time>2021-03-18T10:43:46.000Z</time>
      </trkpt>
      <trkpt lat="47.31782" lon="-2.35702">
        <ele>-0.80000001192093</ele>
        <time>2021-03-18T10:43:51.000Z</time>
      </trkpt>
      <trkpt lat="47.31782" lon="-2.35727">
        <ele>-0.80000001192093</ele>
        <time>2021-03-18T10:43:57.000Z</time>
      </trkpt>
      <trkpt lat="47.31782" lon="-2.35731">
        <ele>-0.40000000596046</ele>
        <time>2021-03-18T10:43:58.000Z</time>
      </trkpt>
      <trkpt lat="47.31782" lon="-2.35735">
        <ele>32.4</ele>
        <time>2021-03-18T10:43:59.000Z</time>
      </trkpt>
      <trkpt lat="47.31782" lon="-2.35739">
        <ele>0.40000000596046</ele>
        <time>2021-03-18T10:44:00.000Z</time>
      </trkpt>
      <trkpt lat="47.31783" lon="-2.35742">
        <ele>0.80000001192093</ele>
        <time>2021-03-18T10:44:01.000Z</time>
      </trkpt>
      <trkpt lat="47.31783" lon="-2.35746">
        <ele>1.2000000476837</ele>
        <time>2021-03-18T10:44:02.000Z</time>
      </trkpt>
      <trkpt lat="47.31784" lon="-2.3575">
        <ele>1.2000000476837</ele>
        <time>2021-03-18T10:44:03.000Z</time>
      </trkpt>
      <trkpt lat="47.31784" lon="-2.35779">
        <ele>1.2000000476837</ele>
        <time>2021-03-18T10:44:10.000Z</time>
      </trkpt>
      <trkpt lat="47.31793" lon="-2.35799">
        <ele>1.2000000476837</ele>
        <time>2021-03-18T10:44:15.000Z</time>
      </trkpt>
      <trkpt lat="47.31807" lon="-2.35814">
        <ele>1.2000000476837</ele>
        <time>2021-03-18T10:44:21.000Z</time>
      </trkpt>
      <trkpt lat="47.31822" lon="-2.3583">
        <ele>1.2000000476837</ele>
        <time>2021-03-18T10:44:29.000Z</time>
      </trkpt>
      <trkpt lat="47.31826" lon="-2.35854">
        <ele>1.2000000476837</ele>
        <time>2021-03-18T10:44:35.000Z</time>
      </trkpt>
      <trkpt lat="47.31828" lon="-2.35869">
        <ele>1.2000000476837</ele>
        <time>2021-03-18T10:44:39.000Z</time>
      </trkpt>
      <trkpt lat="47.31827" lon="-2.35873">
        <ele>1.2000000476837</ele>
        <time>2021-03-18T10:44:40.000Z</time>
      </trkpt>
      <trkpt lat="47.31822" lon="-2.35882">
        <ele>1.2000000476837</ele>
        <time>2021-03-18T10:44:44.000Z</time>
      </trkpt>
      <trkpt lat="47.31807" lon="-2.35892">
        <ele>1.2000000476837</ele>
        <time>2021-03-18T10:44:50.000Z</time>
      </trkpt>
      <trkpt lat="47.31792" lon="-2.35902">
        <ele>1.2000000476837</ele>
        <time>2021-03-18T10:44:57.000Z</time>
      </trkpt>
      <trkpt lat="47.31776" lon="-2.35911">
        <ele>1.2000000476837</ele>
        <time>2021-03-18T10:45:04.000Z</time>
      </trkpt>
      <trkpt lat="47.31766" lon="-2.35915">
        <ele>1.6000000238419</ele>
        <time>2021-03-18T10:45:08.000Z</time>
      </trkpt>
      <trkpt lat="47.31764" lon="-2.35914">
        <ele>2.4000000953674</ele>
        <time>2021-03-18T10:45:09.000Z</time>
      </trkpt>
      <trkpt lat="47.31762" lon="-2.35914">
        <ele>2.7999999523163</ele>
        <time>2021-03-18T10:45:10.000Z</time>
      </trkpt>
      <trkpt lat="47.3176" lon="-2.35916">
        <ele>3.2000000476837</ele>
        <time>2021-03-18T10:45:11.000Z</time>
      </trkpt>
      <trkpt lat="47.31753" lon="-2.3592">
        <ele>3.2000000476837</ele>
        <time>2021-03-18T10:45:13.000Z</time>
      </trkpt>
      <trkpt lat="47.31723" lon="-2.35936">
        <ele>3.2000000476837</ele>
        <time>2021-03-18T10:45:21.000Z</time>
      </trkpt>
      <trkpt lat="47.31696" lon="-2.35951">
        <ele>3.5999999046326</ele>
        <time>2021-03-18T10:45:29.000Z</time>
      </trkpt>
      <trkpt lat="47.31692" lon="-2.35952">
        <ele>4</ele>
        <time>2021-03-18T10:45:30.000Z</time>
      </trkpt>
      <trkpt lat="47.31689" lon="-2.35955">
        <ele>4.4000000953674</ele>
        <time>2021-03-18T10:45:31.000Z</time>
      </trkpt>
      <trkpt lat="47.31686" lon="-2.35957">
        <ele>4.8000001907349</ele>
        <time>2021-03-18T10:45:32.000Z</time>
      </trkpt>
      <trkpt lat="47.31683" lon="-2.35958">
        <ele>5.1999998092651</ele>
        <time>2021-03-18T10:45:33.000Z</time>
      </trkpt>
      <trkpt lat="47.3168" lon="-2.3596">
        <ele>5.1999998092651</ele>
        <time>2021-03-18T10:45:34.000Z</time>
      </trkpt>
      <trkpt lat="47.31664" lon="-2.35968">
        <ele>5.1999998092651</ele>
        <time>2021-03-18T10:45:39.000Z</time>
      </trkpt>
      <trkpt lat="47.31641" lon="-2.35987">
        <ele>5.1999998092651</ele>
        <time>2021-03-18T10:45:46.000Z</time>
      </trkpt>
      <trkpt lat="47.31623" lon="-2.36006">
        <ele>5.1999998092651</ele>
        <time>2021-03-18T10:45:52.000Z</time>
      </trkpt>
      <trkpt lat="47.31614" lon="-2.36014">
        <ele>5.5999999046326</ele>
        <time>2021-03-18T10:45:55.000Z</time>
      </trkpt>
      <trkpt lat="47.31612" lon="-2.36017">
        <ele>6</ele>
        <time>2021-03-18T10:45:56.000Z</time>
      </trkpt>
      <trkpt lat="47.31608" lon="-2.36019">
        <ele>6.4000000953674</ele>
        <time>2021-03-18T10:45:57.000Z</time>
      </trkpt>
      <trkpt lat="47.31605" lon="-2.36022">
        <ele>7.1999998092651</ele>
        <time>2021-03-18T10:45:58.000Z</time>
      </trkpt>
      <trkpt lat="47.31602" lon="-2.36026">
        <ele>7.1999998092651</ele>
        <time>2021-03-18T10:45:59.000Z</time>
      </trkpt>
      <trkpt lat="47.31585" lon="-2.3604">
        <ele>7.1999998092651</ele>
        <time>2021-03-18T10:46:05.000Z</time>
      </trkpt>
      <trkpt lat="47.31568" lon="-2.36059">
        <ele>7.1999998092651</ele>
        <time>2021-03-18T10:46:12.000Z</time>
      </trkpt>
      <trkpt lat="47.31554" lon="-2.36073">
        <ele>7.1999998092651</ele>
        <time>2021-03-18T10:46:17.000Z</time>
      </trkpt>
      <trkpt lat="47.31548" lon="-2.36082">
        <ele>7.1999998092651</ele>
        <time>2021-03-18T10:46:19.000Z</time>
      </trkpt>
      <trkpt lat="47.31543" lon="-2.36089">
        <ele>7.1999998092651</ele>
        <time>2021-03-18T10:46:21.000Z</time>
      </trkpt>
      <trkpt lat="47.31519" lon="-2.36116">
        <ele>7.1999998092651</ele>
        <time>2021-03-18T10:46:29.000Z</time>
      </trkpt>
      <trkpt lat="47.31499" lon="-2.36141">
        <ele>7.1999998092651</ele>
        <time>2021-03-18T10:46:35.000Z</time>
      </trkpt>
      <trkpt lat="47.31495" lon="-2.36144">
        <ele>7.5999999046326</ele>
        <time>2021-03-18T10:46:36.000Z</time>
      </trkpt>
      <trkpt lat="47.31492" lon="-2.36148">
        <ele>8</ele>
        <time>2021-03-18T10:46:37.000Z</time>
      </trkpt>
      <trkpt lat="47.31488" lon="-2.36151">
        <ele>8.3999996185303</ele>
        <time>2021-03-18T10:46:38.000Z</time>
      </trkpt>
      <trkpt lat="47.31485" lon="-2.36155">
        <ele>8.8000001907349</ele>
        <time>2021-03-18T10:46:39.000Z</time>
      </trkpt>
      <trkpt lat="47.31482" lon="-2.36158">
        <ele>9.1999998092651</ele>
        <time>2021-03-18T10:46:40.000Z</time>
      </trkpt>
      <trkpt lat="47.31476" lon="-2.36163">
        <ele>9.1999998092651</ele>
        <time>2021-03-18T10:46:42.000Z</time>
      </trkpt>
      <trkpt lat="47.31451" lon="-2.36188">
        <ele>9.1999998092651</ele>
        <time>2021-03-18T10:46:50.000Z</time>
      </trkpt>
      <trkpt lat="47.31434" lon="-2.362">
        <ele>9.1999998092651</ele>
        <time>2021-03-18T10:46:54.000Z</time>
      </trkpt>
      <trkpt lat="47.3143" lon="-2.36202">
        <ele>9.1999998092651</ele>
        <time>2021-03-18T10:46:55.000Z</time>
      </trkpt>
      <trkpt lat="47.31427" lon="-2.36206">
        <ele>9.1999998092651</ele>
        <time>2021-03-18T10:46:56.000Z</time>
      </trkpt>
      <trkpt lat="47.31413" lon="-2.36213">
        <ele>9.1999998092651</ele>
        <time>2021-03-18T10:46:59.000Z</time>
      </trkpt>
      <trkpt lat="47.31377" lon="-2.36231">
        <ele>9.1999998092651</ele>
        <time>2021-03-18T10:47:07.000Z</time>
      </trkpt>
      <trkpt lat="47.31357" lon="-2.36245">
        <ele>9.1999998092651</ele>
        <time>2021-03-18T10:47:12.000Z</time>
      </trkpt>
      <trkpt lat="47.31352" lon="-2.36249">
        <ele>9.1999998092651</ele>
        <time>2021-03-18T10:47:13.000Z</time>
      </trkpt>
      <trkpt lat="47.31323" lon="-2.36275">
        <ele>9.1999998092651</ele>
        <time>2021-03-18T10:47:20.000Z</time>
      </trkpt>
      <trkpt lat="47.31315" lon="-2.36284">
        <ele>9.1999998092651</ele>
        <time>2021-03-18T10:47:22.000Z</time>
      </trkpt>
      <trkpt lat="47.31299" lon="-2.36294">
        <ele>9.1999998092651</ele>
        <time>2021-03-18T10:47:25.000Z</time>
      </trkpt>
      <trkpt lat="47.31267" lon="-2.36309">
        <ele>9.1999998092651</ele>
        <time>2021-03-18T10:47:30.000Z</time>
      </trkpt>
      <trkpt lat="47.31233" lon="-2.3633">
        <ele>9.1999998092651</ele>
        <time>2021-03-18T10:47:35.000Z</time>
      </trkpt>
      <trkpt lat="47.31198" lon="-2.36351">
        <ele>9.1999998092651</ele>
        <time>2021-03-18T10:47:40.000Z</time>
      </trkpt>
      <trkpt lat="47.31171" lon="-2.36368">
        <ele>9.1999998092651</ele>
        <time>2021-03-18T10:47:44.000Z</time>
      </trkpt>
      <trkpt lat="47.3115" lon="-2.36383">
        <ele>9.1999998092651</ele>
        <time>2021-03-18T10:47:47.000Z</time>
      </trkpt>
      <trkpt lat="47.31144" lon="-2.36388">
        <ele>9.1999998092651</ele>
        <time>2021-03-18T10:47:48.000Z</time>
      </trkpt>
      <trkpt lat="47.31118" lon="-2.36404">
        <ele>9.1999998092651</ele>
        <time>2021-03-18T10:47:52.000Z</time>
      </trkpt>
      <trkpt lat="47.31101" lon="-2.36413">
        <ele>9.1999998092651</ele>
        <time>2021-03-18T10:47:55.000Z</time>
      </trkpt>
      <trkpt lat="47.31092" lon="-2.36415">
        <ele>8.8000001907349</ele>
        <time>2021-03-18T10:47:57.000Z</time>
      </trkpt>
      <trkpt lat="47.31088" lon="-2.36415">
        <ele>8.3999996185303</ele>
        <time>2021-03-18T10:47:58.000Z</time>
      </trkpt>
      <trkpt lat="47.31084" lon="-2.36414">
        <ele>8</ele>
        <time>2021-03-18T10:47:59.000Z</time>
      </trkpt>
      <trkpt lat="47.31079" lon="-2.36415">
        <ele>7.1999998092651</ele>
        <time>2021-03-18T10:48:00.000Z</time>
      </trkpt>
      <trkpt lat="47.31064" lon="-2.36416">
        <ele>7.1999998092651</ele>
        <time>2021-03-18T10:48:03.000Z</time>
      </trkpt>
      <trkpt lat="47.31032" lon="-2.3642">
        <ele>7.1999998092651</ele>
        <time>2021-03-18T10:48:09.000Z</time>
      </trkpt>
      <trkpt lat="47.31027" lon="-2.36421">
        <ele>7.1999998092651</ele>
        <time>2021-03-18T10:48:10.000Z</time>
      </trkpt>
      <trkpt lat="47.31001" lon="-2.36432">
        <ele>7.5999999046326</ele>
        <time>2021-03-18T10:48:15.000Z</time>
      </trkpt>
      <trkpt lat="47.30996" lon="-2.36434">
        <ele>8</ele>
        <time>2021-03-18T10:48:16.000Z</time>
      </trkpt>
      <trkpt lat="47.30991" lon="-2.36437">
        <ele>8.3999996185303</ele>
        <time>2021-03-18T10:48:17.000Z</time>
      </trkpt>
      <trkpt lat="47.30986" lon="-2.36439">
        <ele>8.8000001907349</ele>
        <time>2021-03-18T10:48:18.000Z</time>
      </trkpt>
      <trkpt lat="47.30981" lon="-2.36442">
        <ele>9.1999998092651</ele>
        <time>2021-03-18T10:48:19.000Z</time>
      </trkpt>
      <trkpt lat="47.3096" lon="-2.36452">
        <ele>9.1999998092651</ele>
        <time>2021-03-18T10:48:23.000Z</time>
      </trkpt>
      <trkpt lat="47.30955" lon="-2.36454">
        <ele>9.1999998092651</ele>
        <time>2021-03-18T10:48:24.000Z</time>
      </trkpt>
      <trkpt lat="47.30934" lon="-2.36459">
        <ele>9.1999998092651</ele>
        <time>2021-03-18T10:48:28.000Z</time>
      </trkpt>
      <trkpt lat="47.30923" lon="-2.36462">
        <ele>9.1999998092651</ele>
        <time>2021-03-18T10:48:30.000Z</time>
      </trkpt>
      <trkpt lat="47.30895" lon="-2.36472">
        <ele>9.1999998092651</ele>
        <time>2021-03-18T10:48:35.000Z</time>
      </trkpt>
      <trkpt lat="47.30879" lon="-2.36478">
        <ele>9.1999998092651</ele>
        <time>2021-03-18T10:48:38.000Z</time>
      </trkpt>
      <trkpt lat="47.30869" lon="-2.3648">
        <ele>9.1999998092651</ele>
        <time>2021-03-18T10:48:40.000Z</time>
      </trkpt>
      <trkpt lat="47.3084" lon="-2.36484">
        <ele>9.1999998092651</ele>
        <time>2021-03-18T10:48:46.000Z</time>
      </trkpt>
      <trkpt lat="47.30831" lon="-2.36483">
        <ele>9.1999998092651</ele>
        <time>2021-03-18T10:48:48.000Z</time>
      </trkpt>
      <trkpt lat="47.30823" lon="-2.36479">
        <ele>9.1999998092651</ele>
        <time>2021-03-18T10:48:50.000Z</time>
      </trkpt>
      <trkpt lat="47.30815" lon="-2.36473">
        <ele>9.1999998092651</ele>
        <time>2021-03-18T10:48:52.000Z</time>
      </trkpt>
      <trkpt lat="47.30801" lon="-2.36472">
        <ele>9.1999998092651</ele>
        <time>2021-03-18T10:48:55.000Z</time>
      </trkpt>
      <trkpt lat="47.30791" lon="-2.36475">
        <ele>9.1999998092651</ele>
        <time>2021-03-18T10:48:57.000Z</time>
      </trkpt>
      <trkpt lat="47.30773" lon="-2.36482">
        <ele>9.6000003814697</ele>
        <time>2021-03-18T10:49:01.000Z</time>
      </trkpt>
      <trkpt lat="47.30768" lon="-2.36484">
        <ele>10</ele>
        <time>2021-03-18T10:49:02.000Z</time>
      </trkpt>
      <trkpt lat="47.30764" lon="-2.36485">
        <ele>10.39999961853</ele>
        <time>2021-03-18T10:49:03.000Z</time>
      </trkpt>
      <trkpt lat="47.30759" lon="-2.36486">
        <ele>10.800000190735</ele>
        <time>2021-03-18T10:49:04.000Z</time>
      </trkpt>
      <trkpt lat="47.30754" lon="-2.36487">
        <ele>11.199999809265</ele>
        <time>2021-03-18T10:49:05.000Z</time>
      </trkpt>
      <trkpt lat="47.30746" lon="-2.3649">
        <ele>11.199999809265</ele>
        <time>2021-03-18T10:49:07.000Z</time>
      </trkpt>
      <trkpt lat="47.30722" lon="-2.36501">
        <ele>11.199999809265</ele>
        <time>2021-03-18T10:49:13.000Z</time>
      </trkpt>
      <trkpt lat="47.3071" lon="-2.3651">
        <ele>11.199999809265</ele>
        <time>2021-03-18T10:49:18.000Z</time>
      </trkpt>
      <trkpt lat="47.30701" lon="-2.36518">
        <ele>11.60000038147</ele>
        <time>2021-03-18T10:49:22.000Z</time>
      </trkpt>
      <trkpt lat="47.30698" lon="-2.36516">
        <ele>12</ele>
        <time>2021-03-18T10:49:23.000Z</time>
      </trkpt>
      <trkpt lat="47.30696" lon="-2.36514">
        <ele>12.39999961853</ele>
        <time>2021-03-18T10:49:24.000Z</time>
      </trkpt>
      <trkpt lat="47.30694" lon="-2.36512">
        <ele>12.800000190735</ele>
        <time>2021-03-18T10:49:25.000Z</time>
      </trkpt>
      <trkpt lat="47.30691" lon="-2.36511">
        <ele>13.199999809265</ele>
        <time>2021-03-18T10:49:26.000Z</time>
      </trkpt>
      <trkpt lat="47.30687" lon="-2.36512">
        <ele>13.199999809265</ele>
        <time>2021-03-18T10:49:27.000Z</time>
      </trkpt>
      <trkpt lat="47.30678" lon="-2.36515">
        <ele>13.199999809265</ele>
        <time>2021-03-18T10:49:30.000Z</time>
      </trkpt>
      <trkpt lat="47.30669" lon="-2.36519">
        <ele>13.199999809265</ele>
        <time>2021-03-18T10:49:33.000Z</time>
      </trkpt>
      <trkpt lat="47.30647" lon="-2.3653">
        <ele>13.199999809265</ele>
        <time>2021-03-18T10:49:40.000Z</time>
      </trkpt>
      <trkpt lat="47.30621" lon="-2.36543">
        <ele>13.199999809265</ele>
        <time>2021-03-18T10:49:48.000Z</time>
      </trkpt>
      <trkpt lat="47.30601" lon="-2.36546">
        <ele>13.199999809265</ele>
        <time>2021-03-18T10:49:53.000Z</time>
      </trkpt>
      <trkpt lat="47.30591" lon="-2.36548">
        <ele>13.199999809265</ele>
        <time>2021-03-18T10:49:55.000Z</time>
      </trkpt>
      <trkpt lat="47.30576" lon="-2.36552">
        <ele>13.199999809265</ele>
        <time>2021-03-18T10:49:59.000Z</time>
      </trkpt>
      <trkpt lat="47.30566" lon="-2.36557">
        <ele>13.199999809265</ele>
        <time>2021-03-18T10:50:04.000Z</time>
      </trkpt>
      <trkpt lat="47.30556" lon="-2.36567">
        <ele>13.199999809265</ele>
        <time>2021-03-18T10:50:10.000Z</time>
      </trkpt>
      <trkpt lat="47.30548" lon="-2.36573">
        <ele>13.199999809265</ele>
        <time>2021-03-18T10:50:15.000Z</time>
      </trkpt>
      <trkpt lat="47.3053" lon="-2.36586">
        <ele>13.199999809265</ele>
        <time>2021-03-18T10:50:21.000Z</time>
      </trkpt>
      <trkpt lat="47.3051" lon="-2.36596">
        <ele>13.199999809265</ele>
        <time>2021-03-18T10:50:27.000Z</time>
      </trkpt>
      <trkpt lat="47.30493" lon="-2.366">
        <ele>13.199999809265</ele>
        <time>2021-03-18T10:50:34.000Z</time>
      </trkpt>
      <trkpt lat="47.3049" lon="-2.366">
        <ele>13.199999809265</ele>
        <time>2021-03-18T10:50:36.000Z</time>
      </trkpt>
      <trkpt lat="47.30488" lon="-2.36601">
        <ele>13.199999809265</ele>
        <time>2021-03-18T10:50:46.000Z</time>
      </trkpt>
      <trkpt lat="47.30486" lon="-2.36602">
        <ele>13.199999809265</ele>
        <time>2021-03-18T10:50:47.000Z</time>
      </trkpt>
      <trkpt lat="47.30471" lon="-2.36611">
        <ele>13.199999809265</ele>
        <time>2021-03-18T10:50:52.000Z</time>
      </trkpt>
      <trkpt lat="47.30455" lon="-2.36622">
        <ele>13.199999809265</ele>
        <time>2021-03-18T10:50:57.000Z</time>
      </trkpt>
      <trkpt lat="47.30437" lon="-2.36637">
        <ele>13.199999809265</ele>
        <time>2021-03-18T10:51:02.000Z</time>
      </trkpt>
      <trkpt lat="47.30433" lon="-2.36641">
        <ele>13.199999809265</ele>
        <time>2021-03-18T10:51:03.000Z</time>
      </trkpt>
      <trkpt lat="47.30422" lon="-2.3665">
        <ele>13.199999809265</ele>
        <time>2021-03-18T10:51:06.000Z</time>
      </trkpt>
      <trkpt lat="47.30418" lon="-2.36652">
        <ele>13.199999809265</ele>
        <time>2021-03-18T10:51:07.000Z</time>
      </trkpt>
      <trkpt lat="47.30394" lon="-2.36658">
        <ele>13.199999809265</ele>
        <time>2021-03-18T10:51:12.000Z</time>
      </trkpt>
      <trkpt lat="47.30388" lon="-2.36658">
        <ele>13.199999809265</ele>
        <time>2021-03-18T10:51:13.000Z</time>
      </trkpt>
      <trkpt lat="47.30365" lon="-2.36656">
        <ele>13.199999809265</ele>
        <time>2021-03-18T10:51:17.000Z</time>
      </trkpt>
      <trkpt lat="47.30353" lon="-2.36655">
        <ele>13.199999809265</ele>
        <time>2021-03-18T10:51:19.000Z</time>
      </trkpt>
      <trkpt lat="47.30335" lon="-2.36651">
        <ele>13.199999809265</ele>
        <time>2021-03-18T10:51:22.000Z</time>
      </trkpt>
      <trkpt lat="47.30319" lon="-2.36646">
        <ele>13.199999809265</ele>
        <time>2021-03-18T10:51:25.000Z</time>
      </trkpt>
      <trkpt lat="47.30307" lon="-2.36646">
        <ele>13.199999809265</ele>
        <time>2021-03-18T10:51:27.000Z</time>
      </trkpt>
      <trkpt lat="47.30302" lon="-2.36647">
        <ele>13.199999809265</ele>
        <time>2021-03-18T10:51:28.000Z</time>
      </trkpt>
      <trkpt lat="47.30284" lon="-2.36653">
        <ele>13.199999809265</ele>
        <time>2021-03-18T10:51:32.000Z</time>
      </trkpt>
      <trkpt lat="47.30256" lon="-2.36663">
        <ele>13.199999809265</ele>
        <time>2021-03-18T10:51:38.000Z</time>
      </trkpt>
      <trkpt lat="47.30222" lon="-2.36668">
        <ele>13.199999809265</ele>
        <time>2021-03-18T10:51:45.000Z</time>
      </trkpt>
      <trkpt lat="47.30203" lon="-2.3667">
        <ele>13.199999809265</ele>
        <time>2021-03-18T10:51:50.000Z</time>
      </trkpt>
      <trkpt lat="47.30186" lon="-2.36675">
        <ele>13.199999809265</ele>
        <time>2021-03-18T10:51:56.000Z</time>
      </trkpt>
      <trkpt lat="47.30183" lon="-2.36676">
        <ele>12.800000190735</ele>
        <time>2021-03-18T10:51:57.000Z</time>
      </trkpt>
      <trkpt lat="47.30182" lon="-2.36677">
        <ele>12.39999961853</ele>
        <time>2021-03-18T10:51:58.000Z</time>
      </trkpt>
      <trkpt lat="47.3018" lon="-2.36677">
        <ele>12</ele>
        <time>2021-03-18T10:51:59.000Z</time>
      </trkpt>
      <trkpt lat="47.30179" lon="-2.36678">
        <ele>11.60000038147</ele>
        <time>2021-03-18T10:52:00.000Z</time>
      </trkpt>
      <trkpt lat="47.30178" lon="-2.36678">
        <ele>11.199999809265</ele>
        <time>2021-03-18T10:52:01.000Z</time>
      </trkpt>
      <trkpt lat="47.30174" lon="-2.36677">
        <ele>11.199999809265</ele>
        <time>2021-03-18T10:52:04.000Z</time>
      </trkpt>
      <trkpt lat="47.30174" lon="-2.36677">
        <ele>11.199999809265</ele>
        <time>2021-03-18T10:52:05.000Z</time>
      </trkpt>
      <trkpt lat="47.30173" lon="-2.36677">
        <ele>11.199999809265</ele>
        <time>2021-03-18T10:53:12.000Z</time>
      </trkpt>
      <trkpt lat="47.30169" lon="-2.36678">
        <ele>11.199999809265</ele>
        <time>2021-03-18T10:53:14.000Z</time>
      </trkpt>
      <trkpt lat="47.30162" lon="-2.36676">
        <ele>11.199999809265</ele>
        <time>2021-03-18T10:53:17.000Z</time>
      </trkpt>
      <trkpt lat="47.30158" lon="-2.36676">
        <ele>11.199999809265</ele>
        <time>2021-03-18T10:53:19.000Z</time>
      </trkpt>
      <trkpt lat="47.30156" lon="-2.36674">
        <ele>10.800000190735</ele>
        <time>2021-03-18T10:53:20.000Z</time>
      </trkpt>
      <trkpt lat="47.30154" lon="-2.3667">
        <ele>10</ele>
        <time>2021-03-18T10:53:21.000Z</time>
      </trkpt>
      <trkpt lat="47.30152" lon="-2.36666">
        <ele>9.6000003814697</ele>
        <time>2021-03-18T10:53:22.000Z</time>
      </trkpt>
      <trkpt lat="47.3015" lon="-2.36662">
        <ele>9.1999998092651</ele>
        <time>2021-03-18T10:53:23.000Z</time>
      </trkpt>
      <trkpt lat="47.30149" lon="-2.36657">
        <ele>9.1999998092651</ele>
        <time>2021-03-18T10:53:24.000Z</time>
      </trkpt>
      <trkpt lat="47.30138" lon="-2.36631">
        <ele>9.1999998092651</ele>
        <time>2021-03-18T10:53:29.000Z</time>
      </trkpt>
      <trkpt lat="47.30126" lon="-2.36588">
        <ele>9.1999998092651</ele>
        <time>2021-03-18T10:53:35.000Z</time>
      </trkpt>
      <trkpt lat="47.30118" lon="-2.36535">
        <ele>9.1999998092651</ele>
        <time>2021-03-18T10:53:41.000Z</time>
      </trkpt>
      <trkpt lat="47.30107" lon="-2.36453">
        <ele>9.1999998092651</ele>
        <time>2021-03-18T10:53:50.000Z</time>
      </trkpt>
      <trkpt lat="47.30104" lon="-2.36434">
        <ele>8.8000001907349</ele>
        <time>2021-03-18T10:53:52.000Z</time>
      </trkpt>
      <trkpt lat="47.30103" lon="-2.36425">
        <ele>8.3999996185303</ele>
        <time>2021-03-18T10:53:53.000Z</time>
      </trkpt>
      <trkpt lat="47.30102" lon="-2.36416">
        <ele>8</ele>
        <time>2021-03-18T10:53:54.000Z</time>
      </trkpt>
      <trkpt lat="47.30101" lon="-2.36406">
        <ele>7.5999999046326</ele>
        <time>2021-03-18T10:53:55.000Z</time>
      </trkpt>
      <trkpt lat="47.301" lon="-2.36397">
        <ele>7.1999998092651</ele>
        <time>2021-03-18T10:53:56.000Z</time>
      </trkpt>
      <trkpt lat="47.30098" lon="-2.36369">
        <ele>7.1999998092651</ele>
        <time>2021-03-18T10:53:59.000Z</time>
      </trkpt>
      <trkpt lat="47.30091" lon="-2.36285">
        <ele>7.1999998092651</ele>
        <time>2021-03-18T10:54:08.000Z</time>
      </trkpt>
      <trkpt lat="47.3009" lon="-2.36275">
        <ele>6.8000001907349</ele>
        <time>2021-03-18T10:54:09.000Z</time>
      </trkpt>
      <trkpt lat="47.30089" lon="-2.36264">
        <ele>6</ele>
        <time>2021-03-18T10:54:10.000Z</time>
      </trkpt>
      <trkpt lat="47.30088" lon="-2.36254">
        <ele>5.5999999046326</ele>
        <time>2021-03-18T10:54:11.000Z</time>
      </trkpt>
      <trkpt lat="47.30087" lon="-2.36244">
        <ele>5</ele>
        <time>2021-03-18T10:54:12.000Z</time>
      </trkpt>
      <trkpt lat="47.30085" lon="-2.36213">
        <ele>5</ele>
        <time>2021-03-18T10:54:15.000Z</time>
      </trkpt>
      <trkpt lat="47.30086" lon="-2.36173">
        <ele>4.5999999046326</ele>
        <time>2021-03-18T10:54:19.000Z</time>
      </trkpt>
      <trkpt lat="47.30087" lon="-2.36163">
        <ele>4.1999998092651</ele>
        <time>2021-03-18T10:54:20.000Z</time>
      </trkpt>
      <trkpt lat="47.30088" lon="-2.36153">
        <ele>3.7999999523163</ele>
        <time>2021-03-18T10:54:21.000Z</time>
      </trkpt>
      <trkpt lat="47.30088" lon="-2.36144">
        <ele>3.4000000953674</ele>
        <time>2021-03-18T10:54:22.000Z</time>
      </trkpt>
      <trkpt lat="47.30089" lon="-2.36135">
        <ele>3</ele>
        <time>2021-03-18T10:54:23.000Z</time>
      </trkpt>
      <trkpt lat="47.30095" lon="-2.36088">
        <ele>3</ele>
        <time>2021-03-18T10:54:28.000Z</time>
      </trkpt>
      <trkpt lat="47.30102" lon="-2.36017">
        <ele>3</ele>
        <time>2021-03-18T10:54:35.000Z</time>
      </trkpt>
      <trkpt lat="47.30112" lon="-2.35953">
        <ele>3</ele>
        <time>2021-03-18T10:54:42.000Z</time>
      </trkpt>
      <trkpt lat="47.30126" lon="-2.35883">
        <ele>3</ele>
        <time>2021-03-18T10:54:50.000Z</time>
      </trkpt>
      <trkpt lat="47.30137" lon="-2.35823">
        <ele>3</ele>
        <time>2021-03-18T10:54:57.000Z</time>
      </trkpt>
      <trkpt lat="47.30138" lon="-2.35797">
        <ele>3.4000000953674</ele>
        <time>2021-03-18T10:55:00.000Z</time>
      </trkpt>
      <trkpt lat="47.30138" lon="-2.35788">
        <ele>3.7999999523163</ele>
        <time>2021-03-18T10:55:01.000Z</time>
      </trkpt>
      <trkpt lat="47.30137" lon="-2.3578">
        <ele>4.4000000953674</ele>
        <time>2021-03-18T10:55:02.000Z</time>
      </trkpt>
      <trkpt lat="47.30137" lon="-2.35772">
        <ele>4.8000001907349</ele>
        <time>2021-03-18T10:55:03.000Z</time>
      </trkpt>
      <trkpt lat="47.30136" lon="-2.35764">
        <ele>5.4000000953674</ele>
        <time>2021-03-18T10:55:04.000Z</time>
      </trkpt>
      <trkpt lat="47.30135" lon="-2.35733">
        <ele>5.8000001907349</ele>
        <time>2021-03-18T10:55:08.000Z</time>
      </trkpt>
      <trkpt lat="47.30134" lon="-2.35725">
        <ele>6.1999998092651</ele>
        <time>2021-03-18T10:55:09.000Z</time>
      </trkpt>
      <trkpt lat="47.30134" lon="-2.35718">
        <ele>6.5999999046326</ele>
        <time>2021-03-18T10:55:10.000Z</time>
      </trkpt>
      <trkpt lat="47.30133" lon="-2.3571">
        <ele>7.1999998092651</ele>
        <time>2021-03-18T10:55:11.000Z</time>
      </trkpt>
      <trkpt lat="47.30133" lon="-2.35702">
        <ele>7.5999999046326</ele>
        <time>2021-03-18T10:55:12.000Z</time>
      </trkpt>
      <trkpt lat="47.30132" lon="-2.35666">
        <ele>7.5999999046326</ele>
        <time>2021-03-18T10:55:17.000Z</time>
      </trkpt>
      <trkpt lat="47.30129" lon="-2.35622">
        <ele>7.5999999046326</ele>
        <time>2021-03-18T10:55:23.000Z</time>
      </trkpt>
      <trkpt lat="47.30127" lon="-2.35615">
        <ele>7.5999999046326</ele>
        <time>2021-03-18T10:55:24.000Z</time>
      </trkpt>
      <trkpt lat="47.30125" lon="-2.35593">
        <ele>7.5999999046326</ele>
        <time>2021-03-18T10:55:27.000Z</time>
      </trkpt>
      <trkpt lat="47.30126" lon="-2.35585">
        <ele>7.5999999046326</ele>
        <time>2021-03-18T10:55:28.000Z</time>
      </trkpt>
      <trkpt lat="47.30127" lon="-2.35569">
        <ele>7.5999999046326</ele>
        <time>2021-03-18T10:55:30.000Z</time>
      </trkpt>
      <trkpt lat="47.30126" lon="-2.3555">
        <ele>7.5999999046326</ele>
        <time>2021-03-18T10:55:32.000Z</time>
      </trkpt>
      <trkpt lat="47.30123" lon="-2.35494">
        <ele>7.1999998092651</ele>
        <time>2021-03-18T10:55:38.000Z</time>
      </trkpt>
      <trkpt lat="47.30121" lon="-2.35485">
        <ele>6.8000001907349</ele>
        <time>2021-03-18T10:55:39.000Z</time>
      </trkpt>
      <trkpt lat="47.30119" lon="-2.35476">
        <ele>6.4000000953674</ele>
        <time>2021-03-18T10:55:40.000Z</time>
      </trkpt>
      <trkpt lat="47.30117" lon="-2.35467">
        <ele>5.8000001907349</ele>
        <time>2021-03-18T10:55:41.000Z</time>
      </trkpt>
      <trkpt lat="47.30112" lon="-2.35459">
        <ele>5.4000000953674</ele>
        <time>2021-03-18T10:55:42.000Z</time>
      </trkpt>
      <trkpt lat="47.30107" lon="-2.35451">
        <ele>5.4000000953674</ele>
        <time>2021-03-18T10:55:43.000Z</time>
      </trkpt>
      <trkpt lat="47.30101" lon="-2.35444">
        <ele>5.4000000953674</ele>
        <time>2021-03-18T10:55:44.000Z</time>
      </trkpt>
      <trkpt lat="47.30084" lon="-2.3542">
        <ele>5</ele>
        <time>2021-03-18T10:55:47.000Z</time>
      </trkpt>
      <trkpt lat="47.30079" lon="-2.35412">
        <ele>4.5999999046326</ele>
        <time>2021-03-18T10:55:48.000Z</time>
      </trkpt>
      <trkpt lat="47.30074" lon="-2.35404">
        <ele>3.5999999046326</ele>
        <time>2021-03-18T10:55:49.000Z</time>
      </trkpt>
      <trkpt lat="47.30068" lon="-2.35396">
        <ele>3.2000000476837</ele>
        <time>2021-03-18T10:55:50.000Z</time>
      </trkpt>
      <trkpt lat="47.30042" lon="-2.35342">
        <ele>3.2000000476837</ele>
        <time>2021-03-18T10:55:56.000Z</time>
      </trkpt>
      <trkpt lat="47.30038" lon="-2.35332">
        <ele>2.7999999523163</ele>
        <time>2021-03-18T10:55:57.000Z</time>
      </trkpt>
      <trkpt lat="47.30034" lon="-2.35323">
        <ele>2.4000000953674</ele>
        <time>2021-03-18T10:55:58.000Z</time>
      </trkpt>
      <trkpt lat="47.30031" lon="-2.35315">
        <ele>2</ele>
        <time>2021-03-18T10:55:59.000Z</time>
      </trkpt>
      <trkpt lat="47.30028" lon="-2.35307">
        <ele>1.6000000238419</ele>
        <time>2021-03-18T10:56:00.000Z</time>
      </trkpt>
      <trkpt lat="47.30025" lon="-2.353">
        <ele>1.2000000476837</ele>
        <time>2021-03-18T10:56:01.000Z</time>
      </trkpt>
      <trkpt lat="47.30022" lon="-2.35293">
        <ele>1.2000000476837</ele>
        <time>2021-03-18T10:56:02.000Z</time>
      </trkpt>
      <trkpt lat="47.3001" lon="-2.35262">
        <ele>1.2000000476837</ele>
        <time>2021-03-18T10:56:07.000Z</time>
      </trkpt>
      <trkpt lat="47.30006" lon="-2.35259">
        <ele>1.2000000476837</ele>
        <time>2021-03-18T10:56:08.000Z</time>
      </trkpt>
      <trkpt lat="47.29995" lon="-2.35261">
        <ele>0.80000001192093</ele>
        <time>2021-03-18T10:56:11.000Z</time>
      </trkpt>
      <trkpt lat="47.29991" lon="-2.35265">
        <ele>0.40000000596046</ele>
        <time>2021-03-18T10:56:12.000Z</time>
      </trkpt>
      <trkpt lat="47.29988" lon="-2.35269">
        <ele>-0.40000000596046</ele>
        <time>2021-03-18T10:56:13.000Z</time>
      </trkpt>
      <trkpt lat="47.29984" lon="-2.35274">
        <ele>-0.80000001192093</ele>
        <time>2021-03-18T10:56:14.000Z</time>
      </trkpt>
      <trkpt lat="47.29977" lon="-2.35282">
        <ele>-0.80000001192093</ele>
        <time>2021-03-18T10:56:16.000Z</time>
      </trkpt>
      <trkpt lat="47.29948" lon="-2.35321">
        <ele>-0.80000001192093</ele>
        <time>2021-03-18T10:56:24.000Z</time>
      </trkpt>
      <trkpt lat="47.29915" lon="-2.35363">
        <ele>-0.80000001192093</ele>
        <time>2021-03-18T10:56:33.000Z</time>
      </trkpt>
      <trkpt lat="47.29888" lon="-2.35393">
        <ele>-0.80000001192093</ele>
        <time>2021-03-18T10:56:40.000Z</time>
      </trkpt>
      <trkpt lat="47.2986" lon="-2.35424">
        <ele>-0.80000001192093</ele>
        <time>2021-03-18T10:56:47.000Z</time>
      </trkpt>
      <trkpt lat="47.29832" lon="-2.35454">
        <ele>-0.80000001192093</ele>
        <time>2021-03-18T10:56:54.000Z</time>
      </trkpt>
      <trkpt lat="47.29828" lon="-2.35468">
        <ele>-0.40000000596046</ele>
        <time>2021-03-18T10:56:56.000Z</time>
      </trkpt>
      <trkpt lat="47.29829" lon="-2.35476">
        <ele>33.3</ele>
        <time>2021-03-18T10:56:57.000Z</time>
      </trkpt>
      <trkpt lat="47.29831" lon="-2.35483">
        <ele>0.40000000596046</ele>
        <time>2021-03-18T10:56:58.000Z</time>
      </trkpt>
      <trkpt lat="47.29834" lon="-2.35491">
        <ele>0.80000001192093</ele>
        <time>2021-03-18T10:56:59.000Z</time>
      </trkpt>
      <trkpt lat="47.29836" lon="-2.35497">
        <ele>1.2000000476837</ele>
        <time>2021-03-18T10:57:00.000Z</time>
      </trkpt>
      <trkpt lat="47.2984" lon="-2.35511">
        <ele>1.2000000476837</ele>
        <time>2021-03-18T10:57:02.000Z</time>
      </trkpt>
      <trkpt lat="47.29853" lon="-2.35554">
        <ele>1.2000000476837</ele>
        <time>2021-03-18T10:57:08.000Z</time>
      </trkpt>
      <trkpt lat="47.29857" lon="-2.35568">
        <ele>1.6000000238419</ele>
        <time>2021-03-18T10:57:10.000Z</time>
      </trkpt>
      <trkpt lat="47.29859" lon="-2.35575">
        <ele>2</ele>
        <time>2021-03-18T10:57:11.000Z</time>
      </trkpt>
      <trkpt lat="47.29861" lon="-2.35583">
        <ele>2.4000000953674</ele>
        <time>2021-03-18T10:57:12.000Z</time>
      </trkpt>
      <trkpt lat="47.29863" lon="-2.3559">
        <ele>2.7999999523163</ele>
        <time>2021-03-18T10:57:13.000Z</time>
      </trkpt>
      <trkpt lat="47.29864" lon="-2.35596">
        <ele>3.2000000476837</ele>
        <time>2021-03-18T10:57:14.000Z</time>
      </trkpt>
      <trkpt lat="47.29866" lon="-2.35603">
        <ele>3.2000000476837</ele>
        <time>2021-03-18T10:57:15.000Z</time>
      </trkpt>
      <trkpt lat="47.29876" lon="-2.35654">
        <ele>3.2000000476837</ele>
        <time>2021-03-18T10:57:22.000Z</time>
      </trkpt>
      <trkpt lat="47.29878" lon="-2.35669">
        <ele>3.2000000476837</ele>
        <time>2021-03-18T10:57:24.000Z</time>
      </trkpt>
      <trkpt lat="47.29882" lon="-2.35689">
        <ele>3.2000000476837</ele>
        <time>2021-03-18T10:57:27.000Z</time>
      </trkpt>
      <trkpt lat="47.29894" lon="-2.35738">
        <ele>3.2000000476837</ele>
        <time>2021-03-18T10:57:35.000Z</time>
      </trkpt>
      <trkpt lat="47.29896" lon="-2.35743">
        <ele>3.2000000476837</ele>
        <time>2021-03-18T10:57:36.000Z</time>
      </trkpt>
      <trkpt lat="47.29894" lon="-2.35755">
        <ele>3.2000000476837</ele>
        <time>2021-03-18T10:57:39.000Z</time>
      </trkpt>
      <trkpt lat="47.29887" lon="-2.35765">
        <ele>3.2000000476837</ele>
        <time>2021-03-18T10:57:42.000Z</time>
      </trkpt>
      <trkpt lat="47.29863" lon="-2.35776">
        <ele>3.2000000476837</ele>
        <time>2021-03-18T10:57:47.000Z</time>
      </trkpt>
      <trkpt lat="47.29837" lon="-2.35785">
        <ele>3.2000000476837</ele>
        <time>2021-03-18T10:57:52.000Z</time>
      </trkpt>
      <trkpt lat="47.29827" lon="-2.35788">
        <ele>3.2000000476837</ele>
        <time>2021-03-18T10:57:54.000Z</time>
      </trkpt>
      <trkpt lat="47.29818" lon="-2.35791">
        <ele>3.7999999523163</ele>
        <time>2021-03-18T10:57:56.000Z</time>
      </trkpt>
      <trkpt lat="47.29813" lon="-2.35792">
        <ele>4.1999998092651</ele>
        <time>2021-03-18T10:57:57.000Z</time>
      </trkpt>
      <trkpt lat="47.29809" lon="-2.35794">
        <ele>4.8000001907349</ele>
        <time>2021-03-18T10:57:58.000Z</time>
      </trkpt>
      <trkpt lat="47.29804" lon="-2.35795">
        <ele>5.1999998092651</ele>
        <time>2021-03-18T10:57:59.000Z</time>
      </trkpt>
      <trkpt lat="47.29799" lon="-2.35797">
        <ele>5.8000001907349</ele>
        <time>2021-03-18T10:58:00.000Z</time>
      </trkpt>
      <trkpt lat="47.29794" lon="-2.35798">
        <ele>5.8000001907349</ele>
        <time>2021-03-18T10:58:01.000Z</time>
      </trkpt>
      <trkpt lat="47.29749" lon="-2.35814">
        <ele>5.8000001907349</ele>
        <time>2021-03-18T10:58:10.000Z</time>
      </trkpt>
      <trkpt lat="47.29716" lon="-2.35831">
        <ele>5.8000001907349</ele>
        <time>2021-03-18T10:58:15.000Z</time>
      </trkpt>
      <trkpt lat="47.29694" lon="-2.35841">
        <ele>5.8000001907349</ele>
        <time>2021-03-18T10:58:18.000Z</time>
      </trkpt>
      <trkpt lat="47.29679" lon="-2.35845">
        <ele>5.8000001907349</ele>
        <time>2021-03-18T10:58:20.000Z</time>
      </trkpt>
      <trkpt lat="47.2966" lon="-2.35859">
        <ele>5.8000001907349</ele>
        <time>2021-03-18T10:58:23.000Z</time>
      </trkpt>
      <trkpt lat="47.29654" lon="-2.35863">
        <ele>5.8000001907349</ele>
        <time>2021-03-18T10:58:24.000Z</time>
      </trkpt>
      <trkpt lat="47.29628" lon="-2.35877">
        <ele>5.8000001907349</ele>
        <time>2021-03-18T10:58:28.000Z</time>
      </trkpt>
      <trkpt lat="47.29609" lon="-2.35888">
        <ele>5.4000000953674</ele>
        <time>2021-03-18T10:58:31.000Z</time>
      </trkpt>
      <trkpt lat="47.29603" lon="-2.35891">
        <ele>5</ele>
        <time>2021-03-18T10:58:32.000Z</time>
      </trkpt>
      <trkpt lat="47.29597" lon="-2.35895">
        <ele>4.5999999046326</ele>
        <time>2021-03-18T10:58:33.000Z</time>
      </trkpt>
      <trkpt lat="47.29591" lon="-2.35898">
        <ele>4.1999998092651</ele>
        <time>2021-03-18T10:58:34.000Z</time>
      </trkpt>
      <trkpt lat="47.29585" lon="-2.35902">
        <ele>3.7999999523163</ele>
        <time>2021-03-18T10:58:35.000Z</time>
      </trkpt>
      <trkpt lat="47.29579" lon="-2.35905">
        <ele>3.7999999523163</ele>
        <time>2021-03-18T10:58:36.000Z</time>
      </trkpt>
      <trkpt lat="47.29544" lon="-2.35926">
        <ele>3.7999999523163</ele>
        <time>2021-03-18T10:58:42.000Z</time>
      </trkpt>
      <trkpt lat="47.29515" lon="-2.3594">
        <ele>3.7999999523163</ele>
        <time>2021-03-18T10:58:47.000Z</time>
      </trkpt>
      <trkpt lat="47.2951" lon="-2.35937">
        <ele>3.7999999523163</ele>
        <time>2021-03-18T10:58:48.000Z</time>
      </trkpt>
      <trkpt lat="47.295" lon="-2.3592">
        <ele>3.7999999523163</ele>
        <time>2021-03-18T10:58:51.000Z</time>
      </trkpt>
      <trkpt lat="47.29497" lon="-2.35907">
        <ele>3.7999999523163</ele>
        <time>2021-03-18T10:58:53.000Z</time>
      </trkpt>
      <trkpt lat="47.29493" lon="-2.35898">
        <ele>3.7999999523163</ele>
        <time>2021-03-18T10:58:55.000Z</time>
      </trkpt>
      <trkpt lat="47.29489" lon="-2.35895">
        <ele>3.7999999523163</ele>
        <time>2021-03-18T10:58:56.000Z</time>
      </trkpt>
      <trkpt lat="47.29471" lon="-2.35895">
        <ele>3.7999999523163</ele>
        <time>2021-03-18T10:59:00.000Z</time>
      </trkpt>
      <trkpt lat="47.29453" lon="-2.35897">
        <ele>3.7999999523163</ele>
        <time>2021-03-18T10:59:04.000Z</time>
      </trkpt>
      <trkpt lat="47.29449" lon="-2.359">
        <ele>3.7999999523163</ele>
        <time>2021-03-18T10:59:05.000Z</time>
      </trkpt>
      <trkpt lat="47.29434" lon="-2.35908">
        <ele>3.7999999523163</ele>
        <time>2021-03-18T10:59:09.000Z</time>
      </trkpt>
      <trkpt lat="47.29425" lon="-2.35893">
        <ele>3.7999999523163</ele>
        <time>2021-03-18T10:59:12.000Z</time>
      </trkpt>
      <trkpt lat="47.29418" lon="-2.35882">
        <ele>3.7999999523163</ele>
        <time>2021-03-18T10:59:14.000Z</time>
      </trkpt>
      <trkpt lat="47.2941" lon="-2.35871">
        <ele>3.7999999523163</ele>
        <time>2021-03-18T10:59:16.000Z</time>
      </trkpt>
      <trkpt lat="47.29406" lon="-2.35866">
        <ele>3.7999999523163</ele>
        <time>2021-03-18T10:59:17.000Z</time>
      </trkpt>
      <trkpt lat="47.29382" lon="-2.35836">
        <ele>3.7999999523163</ele>
        <time>2021-03-18T10:59:23.000Z</time>
      </trkpt>
      <trkpt lat="47.29351" lon="-2.35806">
        <ele>3.7999999523163</ele>
        <time>2021-03-18T10:59:30.000Z</time>
      </trkpt>
      <trkpt lat="47.29327" lon="-2.35788">
        <ele>3.7999999523163</ele>
        <time>2021-03-18T10:59:35.000Z</time>
      </trkpt>
      <trkpt lat="47.29321" lon="-2.35789">
        <ele>3.7999999523163</ele>
        <time>2021-03-18T10:59:36.000Z</time>
      </trkpt>
      <trkpt lat="47.29306" lon="-2.35801">
        <ele>3.7999999523163</ele>
        <time>2021-03-18T10:59:39.000Z</time>
      </trkpt>
      <trkpt lat="47.29301" lon="-2.35807">
        <ele>3.7999999523163</ele>
        <time>2021-03-18T10:59:40.000Z</time>
      </trkpt>
      <trkpt lat="47.29286" lon="-2.35822">
        <ele>3.7999999523163</ele>
        <time>2021-03-18T10:59:43.000Z</time>
      </trkpt>
      <trkpt lat="47.29274" lon="-2.35829">
        <ele>3.7999999523163</ele>
        <time>2021-03-18T10:59:45.000Z</time>
      </trkpt>
      <trkpt lat="47.29251" lon="-2.35842">
        <ele>3.7999999523163</ele>
        <time>2021-03-18T10:59:49.000Z</time>
      </trkpt>
      <trkpt lat="47.29241" lon="-2.35843">
        <ele>3.7999999523163</ele>
        <time>2021-03-18T10:59:51.000Z</time>
      </trkpt>
      <trkpt lat="47.29231" lon="-2.35826">
        <ele>3.7999999523163</ele>
        <time>2021-03-18T10:59:54.000Z</time>
      </trkpt>
      <trkpt lat="47.29227" lon="-2.35804">
        <ele>3.7999999523163</ele>
        <time>2021-03-18T10:59:57.000Z</time>
      </trkpt>
      <trkpt lat="47.29224" lon="-2.35791">
        <ele>3.7999999523163</ele>
        <time>2021-03-18T10:59:59.000Z</time>
      </trkpt>
      <trkpt lat="47.29222" lon="-2.35786">
        <ele>3.7999999523163</ele>
        <time>2021-03-18T11:00:00.000Z</time>
      </trkpt>
      <trkpt lat="47.29214" lon="-2.35783">
        <ele>3.7999999523163</ele>
        <time>2021-03-18T11:00:02.000Z</time>
      </trkpt>
      <trkpt lat="47.292" lon="-2.35792">
        <ele>3.7999999523163</ele>
        <time>2021-03-18T11:00:05.000Z</time>
      </trkpt>
      <trkpt lat="47.2917" lon="-2.35817">
        <ele>3.7999999523163</ele>
        <time>2021-03-18T11:00:11.000Z</time>
      </trkpt>
      <trkpt lat="47.29149" lon="-2.35833">
        <ele>3.7999999523163</ele>
        <time>2021-03-18T11:00:15.000Z</time>
      </trkpt>
      <trkpt lat="47.29139" lon="-2.35843">
        <ele>3.7999999523163</ele>
        <time>2021-03-18T11:00:17.000Z</time>
      </trkpt>
      <trkpt lat="47.29112" lon="-2.35874">
        <ele>3.7999999523163</ele>
        <time>2021-03-18T11:00:23.000Z</time>
      </trkpt>
      <trkpt lat="47.29087" lon="-2.35905">
        <ele>3.7999999523163</ele>
        <time>2021-03-18T11:00:29.000Z</time>
      </trkpt>
      <trkpt lat="47.29048" lon="-2.35949">
        <ele>3.7999999523163</ele>
        <time>2021-03-18T11:00:37.000Z</time>
      </trkpt>
      <trkpt lat="47.29012" lon="-2.35987">
        <ele>3.7999999523163</ele>
        <time>2021-03-18T11:00:44.000Z</time>
      </trkpt>
      <trkpt lat="47.28965" lon="-2.36035">
        <ele>3.7999999523163</ele>
        <time>2021-03-18T11:00:53.000Z</time>
      </trkpt>
      <trkpt lat="47.28924" lon="-2.36063">
        <ele>3.7999999523163</ele>
        <time>2021-03-18T11:01:00.000Z</time>
      </trkpt>
      <trkpt lat="47.28901" lon="-2.36082">
        <ele>3.7999999523163</ele>
        <time>2021-03-18T11:01:04.000Z</time>
      </trkpt>
      <trkpt lat="47.2889" lon="-2.36092">
        <ele>3.7999999523163</ele>
        <time>2021-03-18T11:01:06.000Z</time>
      </trkpt>
      <trkpt lat="47.28852" lon="-2.3613">
        <ele>3.7999999523163</ele>
        <time>2021-03-18T11:01:13.000Z</time>
      </trkpt>
      <trkpt lat="47.28847" lon="-2.36136">
        <ele>3.7999999523163</ele>
        <time>2021-03-18T11:01:14.000Z</time>
      </trkpt>
      <trkpt lat="47.28819" lon="-2.36171">
        <ele>3.7999999523163</ele>
        <time>2021-03-18T11:01:20.000Z</time>
      </trkpt>
      <trkpt lat="47.28814" lon="-2.36176">
        <ele>3.7999999523163</ele>
        <time>2021-03-18T11:01:21.000Z</time>
      </trkpt>
      <trkpt lat="47.28793" lon="-2.36193">
        <ele>3.7999999523163</ele>
        <time>2021-03-18T11:01:25.000Z</time>
      </trkpt>
      <trkpt lat="47.28756" lon="-2.36217">
        <ele>3.7999999523163</ele>
        <time>2021-03-18T11:01:32.000Z</time>
      </trkpt>
      <trkpt lat="47.28746" lon="-2.36224">
        <ele>3.7999999523163</ele>
        <time>2021-03-18T11:01:34.000Z</time>
      </trkpt>
      <trkpt lat="47.28735" lon="-2.36234">
        <ele>3.7999999523163</ele>
        <time>2021-03-18T11:01:37.000Z</time>
      </trkpt>
      <trkpt lat="47.28732" lon="-2.36237">
        <ele>3.7999999523163</ele>
        <time>2021-03-18T11:01:38.000Z</time>
      </trkpt>
      <trkpt lat="47.2872" lon="-2.36252">
        <ele>3.7999999523163</ele>
        <time>2021-03-18T11:01:43.000Z</time>
      </trkpt>
      <trkpt lat="47.28715" lon="-2.36258">
        <ele>3.7999999523163</ele>
        <time>2021-03-18T11:01:48.000Z</time>
      </trkpt>
      <trkpt lat="47.2871" lon="-2.36266">
        <ele>3.7999999523163</ele>
        <time>2021-03-18T11:01:53.000Z</time>
      </trkpt>
      <trkpt lat="47.28704" lon="-2.36272">
        <ele>4.1999998092651</ele>
        <time>2021-03-18T11:01:57.000Z</time>
      </trkpt>
      <trkpt lat="47.28702" lon="-2.36274">
        <ele>4.5999999046326</ele>
        <time>2021-03-18T11:01:58.000Z</time>
      </trkpt>
      <trkpt lat="47.287" lon="-2.36275">
        <ele>5.4000000953674</ele>
        <time>2021-03-18T11:01:59.000Z</time>
      </trkpt>
      <trkpt lat="47.28698" lon="-2.36275">
        <ele>5.8000001907349</ele>
        <time>2021-03-18T11:02:00.000Z</time>
      </trkpt>
      <trkpt lat="47.28696" lon="-2.36275">
        <ele>5.8000001907349</ele>
        <time>2021-03-18T11:02:01.000Z</time>
      </trkpt>
      <trkpt lat="47.28681" lon="-2.36271">
        <ele>5.8000001907349</ele>
        <time>2021-03-18T11:02:08.000Z</time>
      </trkpt>
      <trkpt lat="47.2868" lon="-2.36268">
        <ele>5.8000001907349</ele>
        <time>2021-03-18T11:02:09.000Z</time>
      </trkpt>
      <trkpt lat="47.28679" lon="-2.36265">
        <ele>6.1999998092651</ele>
        <time>2021-03-18T11:02:10.000Z</time>
      </trkpt>
      <trkpt lat="47.28678" lon="-2.36262">
        <ele>6.5999999046326</ele>
        <time>2021-03-18T11:02:11.000Z</time>
      </trkpt>
      <trkpt lat="47.28677" lon="-2.36258">
        <ele>7</ele>
        <time>2021-03-18T11:02:12.000Z</time>
      </trkpt>
      <trkpt lat="47.28675" lon="-2.36253">
        <ele>7.4000000953674</ele>
        <time>2021-03-18T11:02:13.000Z</time>
      </trkpt>
      <trkpt lat="47.28674" lon="-2.36248">
        <ele>7.8000001907349</ele>
        <time>2021-03-18T11:02:14.000Z</time>
      </trkpt>
      <trkpt lat="47.28674" lon="-2.36244">
        <ele>7.8000001907349</ele>
        <time>2021-03-18T11:02:15.000Z</time>
      </trkpt>
      <trkpt lat="47.28674" lon="-2.36221">
        <ele>7.8000001907349</ele>
        <time>2021-03-18T11:02:21.000Z</time>
      </trkpt>
      <trkpt lat="47.28674" lon="-2.36214">
        <ele>8.6000003814697</ele>
        <time>2021-03-18T11:02:23.000Z</time>
      </trkpt>
      <trkpt lat="47.28674" lon="-2.3621">
        <ele>9</ele>
        <time>2021-03-18T11:02:24.000Z</time>
      </trkpt>
      <trkpt lat="47.28673" lon="-2.36206">
        <ele>9.3999996185303</ele>
        <time>2021-03-18T11:02:25.000Z</time>
      </trkpt>
      <trkpt lat="47.28673" lon="-2.36202">
        <ele>9.8000001907349</ele>
        <time>2021-03-18T11:02:26.000Z</time>
      </trkpt>
      <trkpt lat="47.28673" lon="-2.36198">
        <ele>9.8000001907349</ele>
        <time>2021-03-18T11:02:27.000Z</time>
      </trkpt>
      <trkpt lat="47.28663" lon="-2.3618">
        <ele>9.8000001907349</ele>
        <time>2021-03-18T11:02:33.000Z</time>
      </trkpt>
      <trkpt lat="47.28641" lon="-2.36158">
        <ele>10.39999961853</ele>
        <time>2021-03-18T11:02:40.000Z</time>
      </trkpt>
      <trkpt lat="47.28639" lon="-2.36154">
        <ele>10.800000190735</ele>
        <time>2021-03-18T11:02:41.000Z</time>
      </trkpt>
      <trkpt lat="47.28637" lon="-2.3615">
        <ele>11.199999809265</ele>
        <time>2021-03-18T11:02:42.000Z</time>
      </trkpt>
      <trkpt lat="47.28636" lon="-2.36147">
        <ele>11.60000038147</ele>
        <time>2021-03-18T11:02:43.000Z</time>
      </trkpt>
      <trkpt lat="47.28634" lon="-2.36144">
        <ele>12</ele>
        <time>2021-03-18T11:02:44.000Z</time>
      </trkpt>
      <trkpt lat="47.28631" lon="-2.36141">
        <ele>12</ele>
        <time>2021-03-18T11:02:45.000Z</time>
      </trkpt>
      <trkpt lat="47.28625" lon="-2.36139">
        <ele>12</ele>
        <time>2021-03-18T11:02:47.000Z</time>
      </trkpt>
      <trkpt lat="47.28614" lon="-2.36145">
        <ele>12</ele>
        <time>2021-03-18T11:02:52.000Z</time>
      </trkpt>
      <trkpt lat="47.28613" lon="-2.36148">
        <ele>12</ele>
        <time>2021-03-18T11:02:53.000Z</time>
      </trkpt>
      <trkpt lat="47.28603" lon="-2.36152">
        <ele>12</ele>
        <time>2021-03-18T11:02:57.000Z</time>
      </trkpt>
      <trkpt lat="47.28587" lon="-2.36148">
        <ele>12</ele>
        <time>2021-03-18T11:03:03.000Z</time>
      </trkpt>
      <trkpt lat="47.28577" lon="-2.36143">
        <ele>12</ele>
        <time>2021-03-18T11:03:08.000Z</time>
      </trkpt>
      <trkpt lat="47.28574" lon="-2.36143">
        <ele>12</ele>
        <time>2021-03-18T11:03:09.000Z</time>
      </trkpt>
      <trkpt lat="47.28552" lon="-2.3615">
        <ele>12</ele>
        <time>2021-03-18T11:03:14.000Z</time>
      </trkpt>
      <trkpt lat="47.28548" lon="-2.36148">
        <ele>11.60000038147</ele>
        <time>2021-03-18T11:03:15.000Z</time>
      </trkpt>
      <trkpt lat="47.28544" lon="-2.36146">
        <ele>11.199999809265</ele>
        <time>2021-03-18T11:03:16.000Z</time>
      </trkpt>
      <trkpt lat="47.28542" lon="-2.36142">
        <ele>10.800000190735</ele>
        <time>2021-03-18T11:03:17.000Z</time>
      </trkpt>
      <trkpt lat="47.28539" lon="-2.36134">
        <ele>10.39999961853</ele>
        <time>2021-03-18T11:03:18.000Z</time>
      </trkpt>
      <trkpt lat="47.28537" lon="-2.36126">
        <ele>9.8000001907349</ele>
        <time>2021-03-18T11:03:19.000Z</time>
      </trkpt>
      <trkpt lat="47.28531" lon="-2.36093">
        <ele>9.8000001907349</ele>
        <time>2021-03-18T11:03:24.000Z</time>
      </trkpt>
      <trkpt lat="47.28523" lon="-2.36069">
        <ele>9.8000001907349</ele>
        <time>2021-03-18T11:03:29.000Z</time>
      </trkpt>
      <trkpt lat="47.28509" lon="-2.36042">
        <ele>9.8000001907349</ele>
        <time>2021-03-18T11:03:34.000Z</time>
      </trkpt>
      <trkpt lat="47.28492" lon="-2.36024">
        <ele>9.8000001907349</ele>
        <time>2021-03-18T11:03:39.000Z</time>
      </trkpt>
      <trkpt lat="47.28471" lon="-2.36009">
        <ele>9.8000001907349</ele>
        <time>2021-03-18T11:03:43.000Z</time>
      </trkpt>
      <trkpt lat="47.28467" lon="-2.36005">
        <ele>9.8000001907349</ele>
        <time>2021-03-18T11:03:44.000Z</time>
      </trkpt>
      <trkpt lat="47.28456" lon="-2.35992">
        <ele>9.8000001907349</ele>
        <time>2021-03-18T11:03:48.000Z</time>
      </trkpt>
      <trkpt lat="47.28454" lon="-2.35991">
        <ele>9.8000001907349</ele>
        <time>2021-03-18T11:03:50.000Z</time>
      </trkpt>
      <trkpt lat="47.28453" lon="-2.3599">
        <ele>9.8000001907349</ele>
        <time>2021-03-18T11:04:06.000Z</time>
      </trkpt>
      <trkpt lat="47.2845" lon="-2.35989">
        <ele>9.8000001907349</ele>
        <time>2021-03-18T11:04:07.000Z</time>
      </trkpt>
      <trkpt lat="47.28436" lon="-2.35994">
        <ele>9.8000001907349</ele>
        <time>2021-03-18T11:04:12.000Z</time>
      </trkpt>
      <trkpt lat="47.28413" lon="-2.36015">
        <ele>9.8000001907349</ele>
        <time>2021-03-18T11:04:18.000Z</time>
      </trkpt>
      <trkpt lat="47.28394" lon="-2.36018">
        <ele>9.8000001907349</ele>
        <time>2021-03-18T11:04:22.000Z</time>
      </trkpt>
      <trkpt lat="47.28387" lon="-2.36018">
        <ele>9.3999996185303</ele>
        <time>2021-03-18T11:04:23.000Z</time>
      </trkpt>
      <trkpt lat="47.28379" lon="-2.36018">
        <ele>9</ele>
        <time>2021-03-18T11:04:24.000Z</time>
      </trkpt>
      <trkpt lat="47.28372" lon="-2.36018">
        <ele>8.6000003814697</ele>
        <time>2021-03-18T11:04:25.000Z</time>
      </trkpt>
      <trkpt lat="47.28365" lon="-2.36019">
        <ele>8.1999998092651</ele>
        <time>2021-03-18T11:04:26.000Z</time>
      </trkpt>
      <trkpt lat="47.28359" lon="-2.3602">
        <ele>7.1999998092651</ele>
        <time>2021-03-18T11:04:27.000Z</time>
      </trkpt>
      <trkpt lat="47.28353" lon="-2.36022">
        <ele>6.5999999046326</ele>
        <time>2021-03-18T11:04:28.000Z</time>
      </trkpt>
      <trkpt lat="47.28347" lon="-2.36026">
        <ele>5.8000001907349</ele>
        <time>2021-03-18T11:04:29.000Z</time>
      </trkpt>
      <trkpt lat="47.28341" lon="-2.36031">
        <ele>5.1999998092651</ele>
        <time>2021-03-18T11:04:30.000Z</time>
      </trkpt>
      <trkpt lat="47.28335" lon="-2.36035">
        <ele>4.4000000953674</ele>
        <time>2021-03-18T11:04:31.000Z</time>
      </trkpt>
      <trkpt lat="47.2833" lon="-2.3604">
        <ele>3.7999999523163</ele>
        <time>2021-03-18T11:04:32.000Z</time>
      </trkpt>
      <trkpt lat="47.28324" lon="-2.36043">
        <ele>3</ele>
        <time>2021-03-18T11:04:33.000Z</time>
      </trkpt>
      <trkpt lat="47.28319" lon="-2.36043">
        <ele>3</ele>
        <time>2021-03-18T11:04:34.000Z</time>
      </trkpt>
      <trkpt lat="47.28314" lon="-2.36042">
        <ele>2.5999999046326</ele>
        <time>2021-03-18T11:04:35.000Z</time>
      </trkpt>
      <trkpt lat="47.28309" lon="-2.36041">
        <ele>2.2000000476837</ele>
        <time>2021-03-18T11:04:36.000Z</time>
      </trkpt>
      <trkpt lat="47.28304" lon="-2.3604">
        <ele>1.7999999523163</ele>
        <time>2021-03-18T11:04:37.000Z</time>
      </trkpt>
      <trkpt lat="47.283" lon="-2.36039">
        <ele>1.3999999761581</ele>
        <time>2021-03-18T11:04:38.000Z</time>
      </trkpt>
      <trkpt lat="47.28295" lon="-2.36038">
        <ele>1</ele>
        <time>2021-03-18T11:04:39.000Z</time>
      </trkpt>
      <trkpt lat="47.28291" lon="-2.36034">
        <ele>1</ele>
        <time>2021-03-18T11:04:40.000Z</time>
      </trkpt>
      <trkpt lat="47.28287" lon="-2.3603">
        <ele>0.60000002384186</ele>
        <time>2021-03-18T11:04:41.000Z</time>
      </trkpt>
      <trkpt lat="47.28284" lon="-2.36026">
        <ele>0.20000000298023</ele>
        <time>2021-03-18T11:04:42.000Z</time>
      </trkpt>
      <trkpt lat="47.28281" lon="-2.36022">
        <ele>-0.40000000596046</ele>
        <time>2021-03-18T11:04:43.000Z</time>
      </trkpt>
      <trkpt lat="47.28279" lon="-2.36018">
        <ele>-1</ele>
        <time>2021-03-18T11:04:44.000Z</time>
      </trkpt>
      <trkpt lat="47.28277" lon="-2.36015">
        <ele>-1.6000000238419</ele>
        <time>2021-03-18T11:04:45.000Z</time>
      </trkpt>
      <trkpt lat="47.28275" lon="-2.36011">
        <ele>-2.2000000476837</ele>
        <time>2021-03-18T11:04:46.000Z</time>
      </trkpt>
      <trkpt lat="47.28274" lon="-2.36008">
        <ele>-2.7999999523163</ele>
        <time>2021-03-18T11:04:47.000Z</time>
      </trkpt>
      <trkpt lat="47.28275" lon="-2.36003">
        <ele>-3.5999999046326</ele>
        <time>2021-03-18T11:04:48.000Z</time>
      </trkpt>
      <trkpt lat="47.28276" lon="-2.35998">
        <ele>-4.4000000953674</ele>
        <time>2021-03-18T11:04:49.000Z</time>
      </trkpt>
      <trkpt lat="47.28277" lon="-2.35992">
        <ele>-5</ele>
        <time>2021-03-18T11:04:51.000Z</time>
      </trkpt>
      <trkpt lat="47.28278" lon="-2.35987">
        <ele>-6.4000000953674</ele>
        <time>2021-03-18T11:04:52.000Z</time>
      </trkpt>
      <trkpt lat="47.28279" lon="-2.35982">
        <ele>-7.1999998092651</ele>
        <time>2021-03-18T11:04:53.000Z</time>
      </trkpt>
      <trkpt lat="47.28279" lon="-2.35977">
        <ele>-7.8000001907349</ele>
        <time>2021-03-18T11:04:54.000Z</time>
      </trkpt>
      <trkpt lat="47.28279" lon="-2.35972">
        <ele>-7.8000001907349</ele>
        <time>2021-03-18T11:04:55.000Z</time>
      </trkpt>
      <trkpt lat="47.28275" lon="-2.3595">
        <ele>-7.8000001907349</ele>
        <time>2021-03-18T11:04:59.000Z</time>
      </trkpt>
      <trkpt lat="47.28273" lon="-2.35944">
        <ele>-7.8000001907349</ele>
        <time>2021-03-18T11:05:00.000Z</time>
      </trkpt>
      <trkpt lat="47.28268" lon="-2.35932">
        <ele>-7.8000001907349</ele>
        <time>2021-03-18T11:05:02.000Z</time>
      </trkpt>
      <trkpt lat="47.28259" lon="-2.35913">
        <ele>-7.8000001907349</ele>
        <time>2021-03-18T11:05:06.000Z</time>
      </trkpt>
      <trkpt lat="47.2825" lon="-2.35901">
        <ele>-7.8000001907349</ele>
        <time>2021-03-18T11:05:10.000Z</time>
      </trkpt>
      <trkpt lat="47.28246" lon="-2.35902">
        <ele>-7.8000001907349</ele>
        <time>2021-03-18T11:05:11.000Z</time>
      </trkpt>
      <trkpt lat="47.28225" lon="-2.35899">
        <ele>-7.8000001907349</ele>
        <time>2021-03-18T11:05:16.000Z</time>
      </trkpt>
      <trkpt lat="47.2822" lon="-2.35898">
        <ele>-7.8000001907349</ele>
        <time>2021-03-18T11:05:17.000Z</time>
      </trkpt>
      <trkpt lat="47.28196" lon="-2.35898">
        <ele>-7.8000001907349</ele>
        <time>2021-03-18T11:05:23.000Z</time>
      </trkpt>
      <trkpt lat="47.28192" lon="-2.35896">
        <ele>-7.8000001907349</ele>
        <time>2021-03-18T11:05:24.000Z</time>
      </trkpt>
      <trkpt lat="47.2818" lon="-2.35891">
        <ele>-7.8000001907349</ele>
        <time>2021-03-18T11:05:27.000Z</time>
      </trkpt>
      <trkpt lat="47.28166" lon="-2.35887">
        <ele>-7.8000001907349</ele>
        <time>2021-03-18T11:05:30.000Z</time>
      </trkpt>
      <trkpt lat="47.28157" lon="-2.3588">
        <ele>-7.8000001907349</ele>
        <time>2021-03-18T11:05:32.000Z</time>
      </trkpt>
      <trkpt lat="47.2815" lon="-2.35875">
        <ele>-7.8000001907349</ele>
        <time>2021-03-18T11:05:34.000Z</time>
      </trkpt>
      <trkpt lat="47.28137" lon="-2.35866">
        <ele>-7.8000001907349</ele>
        <time>2021-03-18T11:05:37.000Z</time>
      </trkpt>
      <trkpt lat="47.28121" lon="-2.35845">
        <ele>-7.8000001907349</ele>
        <time>2021-03-18T11:05:43.000Z</time>
      </trkpt>
      <trkpt lat="47.2811" lon="-2.35842">
        <ele>-7.8000001907349</ele>
        <time>2021-03-18T11:05:48.000Z</time>
      </trkpt>
      <trkpt lat="47.2811" lon="-2.3584">
        <ele>-7.8000001907349</ele>
        <time>2021-03-18T11:05:50.000Z</time>
      </trkpt>
      <trkpt lat="47.28107" lon="-2.35825">
        <ele>-7.8000001907349</ele>
        <time>2021-03-18T11:05:55.000Z</time>
      </trkpt>
      <trkpt lat="47.28107" lon="-2.35821">
        <ele>-8.1999998092651</ele>
        <time>2021-03-18T11:05:56.000Z</time>
      </trkpt>
      <trkpt lat="47.28106" lon="-2.35818">
        <ele>-8.6000003814697</ele>
        <time>2021-03-18T11:05:57.000Z</time>
      </trkpt>
      <trkpt lat="47.28106" lon="-2.35815">
        <ele>-9.1999998092651</ele>
        <time>2021-03-18T11:05:58.000Z</time>
      </trkpt>
      <trkpt lat="47.28105" lon="-2.35812">
        <ele>-9.6000003814697</ele>
        <time>2021-03-18T11:05:59.000Z</time>
      </trkpt>
      <trkpt lat="47.28104" lon="-2.3581">
        <ele>-10</ele>
        <time>2021-03-18T11:06:00.000Z</time>
      </trkpt>
      <trkpt lat="47.28102" lon="-2.35808">
        <ele>-10</ele>
        <time>2021-03-18T11:06:01.000Z</time>
      </trkpt>
      <trkpt lat="47.281" lon="-2.35807">
        <ele>-10</ele>
        <time>2021-03-18T11:06:02.000Z</time>
      </trkpt>
      <trkpt lat="47.28087" lon="-2.35799">
        <ele>-10</ele>
        <time>2021-03-18T11:06:07.000Z</time>
      </trkpt>
      <trkpt lat="47.28083" lon="-2.35781">
        <ele>-10</ele>
        <time>2021-03-18T11:06:12.000Z</time>
      </trkpt>
      <trkpt lat="47.28082" lon="-2.35774">
        <ele>-9.6000003814697</ele>
        <time>2021-03-18T11:06:14.000Z</time>
      </trkpt>
      <trkpt lat="47.28081" lon="-2.3577">
        <ele>-9.1999998092651</ele>
        <time>2021-03-18T11:06:15.000Z</time>
      </trkpt>
      <trkpt lat="47.28081" lon="-2.35766">
        <ele>-8.6000003814697</ele>
        <time>2021-03-18T11:06:16.000Z</time>
      </trkpt>
      <trkpt lat="47.28081" lon="-2.35761">
        <ele>-8.1999998092651</ele>
        <time>2021-03-18T11:06:17.000Z</time>
      </trkpt>
      <trkpt lat="47.28082" lon="-2.35757">
        <ele>-7.8000001907349</ele>
        <time>2021-03-18T11:06:18.000Z</time>
      </trkpt>
      <trkpt lat="47.28084" lon="-2.35735">
        <ele>-7.8000001907349</ele>
        <time>2021-03-18T11:06:23.000Z</time>
      </trkpt>
      <trkpt lat="47.28085" lon="-2.35726">
        <ele>-7.4000000953674</ele>
        <time>2021-03-18T11:06:26.000Z</time>
      </trkpt>
      <trkpt lat="47.28085" lon="-2.35722">
        <ele>-7</ele>
        <time>2021-03-18T11:06:27.000Z</time>
      </trkpt>
      <trkpt lat="47.28085" lon="-2.35719">
        <ele>-6.4000000953674</ele>
        <time>2021-03-18T11:06:28.000Z</time>
      </trkpt>
      <trkpt lat="47.28085" lon="-2.35714">
        <ele>-6</ele>
        <time>2021-03-18T11:06:29.000Z</time>
      </trkpt>
      <trkpt lat="47.28085" lon="-2.35709">
        <ele>-5.5999999046326</ele>
        <time>2021-03-18T11:06:30.000Z</time>
      </trkpt>
      <trkpt lat="47.28086" lon="-2.357">
        <ele>-5.5999999046326</ele>
        <time>2021-03-18T11:06:32.000Z</time>
      </trkpt>
      <trkpt lat="47.28084" lon="-2.35672">
        <ele>-5.5999999046326</ele>
        <time>2021-03-18T11:06:36.000Z</time>
      </trkpt>
      <trkpt lat="47.28078" lon="-2.35644">
        <ele>-6.1999998092651</ele>
        <time>2021-03-18T11:06:40.000Z</time>
      </trkpt>
      <trkpt lat="47.28077" lon="-2.35637">
        <ele>-6.5999999046326</ele>
        <time>2021-03-18T11:06:41.000Z</time>
      </trkpt>
      <trkpt lat="47.28076" lon="-2.3563">
        <ele>-7.1999998092651</ele>
        <time>2021-03-18T11:06:42.000Z</time>
      </trkpt>
      <trkpt lat="47.28076" lon="-2.35625">
        <ele>-7.8000001907349</ele>
        <time>2021-03-18T11:06:43.000Z</time>
      </trkpt>
      <trkpt lat="47.28076" lon="-2.35621">
        <ele>-8.3999996185303</ele>
        <time>2021-03-18T11:06:44.000Z</time>
      </trkpt>
      <trkpt lat="47.28077" lon="-2.35619">
        <ele>-9.1999998092651</ele>
        <time>2021-03-18T11:06:45.000Z</time>
      </trkpt>
      <trkpt lat="47.2808" lon="-2.35618">
        <ele>-9.8000001907349</ele>
        <time>2021-03-18T11:06:46.000Z</time>
      </trkpt>
      <trkpt lat="47.28084" lon="-2.35618">
        <ele>-10.39999961853</ele>
        <time>2021-03-18T11:06:47.000Z</time>
      </trkpt>
      <trkpt lat="47.28085" lon="-2.35616">
        <ele>-10.39999961853</ele>
        <time>2021-03-18T11:06:48.000Z</time>
      </trkpt>
      <trkpt lat="47.28085" lon="-2.35616">
        <ele>-10.39999961853</ele>
        <time>2021-03-18T11:06:49.000Z</time>
      </trkpt>
      <trkpt lat="47.28088" lon="-2.35611">
        <ele>-12.39999961853</ele>
        <time>2021-03-18T11:13:19.000Z</time>
      </trkpt>
      <trkpt lat="47.28087" lon="-2.35608">
        <ele>-12.39999961853</ele>
        <time>2021-03-18T11:13:20.000Z</time>
      </trkpt>
      <trkpt lat="47.28077" lon="-2.3559">
        <ele>-12.39999961853</ele>
        <time>2021-03-18T11:13:25.000Z</time>
      </trkpt>
      <trkpt lat="47.28068" lon="-2.35578">
        <ele>-12.39999961853</ele>
        <time>2021-03-18T11:13:29.000Z</time>
      </trkpt>
      <trkpt lat="47.28054" lon="-2.35573">
        <ele>-12.39999961853</ele>
        <time>2021-03-18T11:13:32.000Z</time>
      </trkpt>
      <trkpt lat="47.28042" lon="-2.35573">
        <ele>-12.39999961853</ele>
        <time>2021-03-18T11:13:34.000Z</time>
      </trkpt>
      <trkpt lat="47.28036" lon="-2.35573">
        <ele>-13</ele>
        <time>2021-03-18T11:13:35.000Z</time>
      </trkpt>
      <trkpt lat="47.28031" lon="-2.35573">
        <ele>-13.39999961853</ele>
        <time>2021-03-18T11:13:36.000Z</time>
      </trkpt>
      <trkpt lat="47.28026" lon="-2.35574">
        <ele>-13.800000190735</ele>
        <time>2021-03-18T11:13:37.000Z</time>
      </trkpt>
      <trkpt lat="47.28021" lon="-2.35575">
        <ele>-14.199999809265</ele>
        <time>2021-03-18T11:13:38.000Z</time>
      </trkpt>
      <trkpt lat="47.28016" lon="-2.35577">
        <ele>-14.800000190735</ele>
        <time>2021-03-18T11:13:39.000Z</time>
      </trkpt>
      <trkpt lat="47.2801" lon="-2.35577">
        <ele>-14.800000190735</ele>
        <time>2021-03-18T11:13:40.000Z</time>
      </trkpt>
      <trkpt lat="47.27984" lon="-2.35584">
        <ele>-14.800000190735</ele>
        <time>2021-03-18T11:13:45.000Z</time>
      </trkpt>
      <trkpt lat="47.27979" lon="-2.35583">
        <ele>-14.800000190735</ele>
        <time>2021-03-18T11:13:46.000Z</time>
      </trkpt>
      <trkpt lat="47.27963" lon="-2.35579">
        <ele>-14.800000190735</ele>
        <time>2021-03-18T11:13:49.000Z</time>
      </trkpt>
      <trkpt lat="47.27946" lon="-2.3558">
        <ele>-14.800000190735</ele>
        <time>2021-03-18T11:13:52.000Z</time>
      </trkpt>
      <trkpt lat="47.2794" lon="-2.35582">
        <ele>-15.199999809265</ele>
        <time>2021-03-18T11:13:53.000Z</time>
      </trkpt>
      <trkpt lat="47.27934" lon="-2.35584">
        <ele>-16</ele>
        <time>2021-03-18T11:13:54.000Z</time>
      </trkpt>
      <trkpt lat="47.27929" lon="-2.35585">
        <ele>-16.39999961853</ele>
        <time>2021-03-18T11:13:55.000Z</time>
      </trkpt>
      <trkpt lat="47.27923" lon="-2.35587">
        <ele>-16.799999237061</ele>
        <time>2021-03-18T11:13:56.000Z</time>
      </trkpt>
      <trkpt lat="47.27911" lon="-2.3559">
        <ele>-16.799999237061</ele>
        <time>2021-03-18T11:13:58.000Z</time>
      </trkpt>
      <trkpt lat="47.27869" lon="-2.356">
        <ele>-16.799999237061</ele>
        <time>2021-03-18T11:14:05.000Z</time>
      </trkpt>
      <trkpt lat="47.27842" lon="-2.35607">
        <ele>-17.200000762939</ele>
        <time>2021-03-18T11:14:09.000Z</time>
      </trkpt>
      <trkpt lat="47.27835" lon="-2.35609">
        <ele>-17.60000038147</ele>
        <time>2021-03-18T11:14:10.000Z</time>
      </trkpt>
      <trkpt lat="47.27828" lon="-2.35611">
        <ele>-18</ele>
        <time>2021-03-18T11:14:11.000Z</time>
      </trkpt>
      <trkpt lat="47.27822" lon="-2.35613">
        <ele>-18.39999961853</ele>
        <time>2021-03-18T11:14:12.000Z</time>
      </trkpt>
      <trkpt lat="47.27815" lon="-2.35615">
        <ele>-18.799999237061</ele>
        <time>2021-03-18T11:14:13.000Z</time>
      </trkpt>
      <trkpt lat="47.27787" lon="-2.35626">
        <ele>-18.799999237061</ele>
        <time>2021-03-18T11:14:17.000Z</time>
      </trkpt>
      <trkpt lat="47.27775" lon="-2.35635">
        <ele>-19.60000038147</ele>
        <time>2021-03-18T11:14:19.000Z</time>
      </trkpt>
      <trkpt lat="47.27768" lon="-2.3564">
        <ele>-20</ele>
        <time>2021-03-18T11:14:20.000Z</time>
      </trkpt>
      <trkpt lat="47.27762" lon="-2.35646">
        <ele>-20.39999961853</ele>
        <time>2021-03-18T11:14:21.000Z</time>
      </trkpt>
      <trkpt lat="47.27756" lon="-2.35654">
        <ele>-20.799999237061</ele>
        <time>2021-03-18T11:14:22.000Z</time>
      </trkpt>
      <trkpt lat="47.27745" lon="-2.35669">
        <ele>-20.799999237061</ele>
        <time>2021-03-18T11:14:24.000Z</time>
      </trkpt>
      <trkpt lat="47.27709" lon="-2.35718">
        <ele>-20.799999237061</ele>
        <time>2021-03-18T11:14:31.000Z</time>
      </trkpt>
      <trkpt lat="47.27702" lon="-2.35724">
        <ele>-21.39999961853</ele>
        <time>2021-03-18T11:14:32.000Z</time>
      </trkpt>
      <trkpt lat="47.27696" lon="-2.35729">
        <ele>-21.799999237061</ele>
        <time>2021-03-18T11:14:33.000Z</time>
      </trkpt>
      <trkpt lat="47.27691" lon="-2.35733">
        <ele>-22.200000762939</ele>
        <time>2021-03-18T11:14:34.000Z</time>
      </trkpt>
      <trkpt lat="47.27686" lon="-2.35737">
        <ele>-22.60000038147</ele>
        <time>2021-03-18T11:14:35.000Z</time>
      </trkpt>
      <trkpt lat="47.27682" lon="-2.35743">
        <ele>-23.200000762939</ele>
        <time>2021-03-18T11:14:36.000Z</time>
      </trkpt>
      <trkpt lat="47.27668" lon="-2.35742">
        <ele>-23.200000762939</ele>
        <time>2021-03-18T11:14:39.000Z</time>
      </trkpt>
      <trkpt lat="47.27659" lon="-2.3573">
        <ele>-23.200000762939</ele>
        <time>2021-03-18T11:14:41.000Z</time>
      </trkpt>
      <trkpt lat="47.27649" lon="-2.35721">
        <ele>-23.60000038147</ele>
        <time>2021-03-18T11:14:43.000Z</time>
      </trkpt>
      <trkpt lat="47.27643" lon="-2.35718">
        <ele>-24.39999961853</ele>
        <time>2021-03-18T11:14:44.000Z</time>
      </trkpt>
      <trkpt lat="47.27636" lon="-2.35716">
        <ele>-24.799999237061</ele>
        <time>2021-03-18T11:14:45.000Z</time>
      </trkpt>
      <trkpt lat="47.2763" lon="-2.35713">
        <ele>-25.39999961853</ele>
        <time>2021-03-18T11:14:46.000Z</time>
      </trkpt>
      <trkpt lat="47.27623" lon="-2.35711">
        <ele>-25.39999961853</ele>
        <time>2021-03-18T11:14:47.000Z</time>
      </trkpt>
      <trkpt lat="47.27582" lon="-2.35699">
        <ele>-25.39999961853</ele>
        <time>2021-03-18T11:14:53.000Z</time>
      </trkpt>
      <trkpt lat="47.27541" lon="-2.35689">
        <ele>-25.799999237061</ele>
        <time>2021-03-18T11:14:59.000Z</time>
      </trkpt>
      <trkpt lat="47.27534" lon="-2.35687">
        <ele>-26.200000762939</ele>
        <time>2021-03-18T11:15:00.000Z</time>
      </trkpt>
      <trkpt lat="47.27527" lon="-2.35686">
        <ele>-26.60000038147</ele>
        <time>2021-03-18T11:15:01.000Z</time>
      </trkpt>
      <trkpt lat="47.2752" lon="-2.35684">
        <ele>-27</ele>
        <time>2021-03-18T11:15:02.000Z</time>
      </trkpt>
      <trkpt lat="47.27512" lon="-2.35683">
        <ele>-27.39999961853</ele>
        <time>2021-03-18T11:15:03.000Z</time>
      </trkpt>
      <trkpt lat="47.27477" lon="-2.35675">
        <ele>-27.39999961853</ele>
        <time>2021-03-18T11:15:08.000Z</time>
      </trkpt>
      <trkpt lat="47.27464" lon="-2.35673">
        <ele>-28</ele>
        <time>2021-03-18T11:15:10.000Z</time>
      </trkpt>
      <trkpt lat="47.27457" lon="-2.35671">
        <ele>-28.39999961853</ele>
        <time>2021-03-18T11:15:11.000Z</time>
      </trkpt>
      <trkpt lat="47.27451" lon="-2.35669">
        <ele>-28.799999237061</ele>
        <time>2021-03-18T11:15:12.000Z</time>
      </trkpt>
      <trkpt lat="47.27444" lon="-2.35668">
        <ele>-29.39999961853</ele>
        <time>2021-03-18T11:15:13.000Z</time>
      </trkpt>
      <trkpt lat="47.27437" lon="-2.35666">
        <ele>-29.799999237061</ele>
        <time>2021-03-18T11:15:14.000Z</time>
      </trkpt>
      <trkpt lat="47.27431" lon="-2.35665">
        <ele>-29.799999237061</ele>
        <time>2021-03-18T11:15:15.000Z</time>
      </trkpt>
      <trkpt lat="47.27412" lon="-2.35661">
        <ele>-29.799999237061</ele>
        <time>2021-03-18T11:15:18.000Z</time>
      </trkpt>
      <trkpt lat="47.27405" lon="-2.35662">
        <ele>-29.799999237061</ele>
        <time>2021-03-18T11:15:19.000Z</time>
      </trkpt>
      <trkpt lat="47.27382" lon="-2.35677">
        <ele>-29.799999237061</ele>
        <time>2021-03-18T11:15:23.000Z</time>
      </trkpt>
      <trkpt lat="47.27377" lon="-2.35682">
        <ele>-29.799999237061</ele>
        <time>2021-03-18T11:15:24.000Z</time>
      </trkpt>
      <trkpt lat="47.2735" lon="-2.35701">
        <ele>-29.799999237061</ele>
        <time>2021-03-18T11:15:29.000Z</time>
      </trkpt>
      <trkpt lat="47.27323" lon="-2.35732">
        <ele>-29.799999237061</ele>
        <time>2021-03-18T11:15:35.000Z</time>
      </trkpt>
      <trkpt lat="47.27317" lon="-2.35741">
        <ele>-29.799999237061</ele>
        <time>2021-03-18T11:15:37.000Z</time>
      </trkpt>
      <trkpt lat="47.27308" lon="-2.35737">
        <ele>-29.799999237061</ele>
        <time>2021-03-18T11:15:39.000Z</time>
      </trkpt>
      <trkpt lat="47.27299" lon="-2.35717">
        <ele>-29.799999237061</ele>
        <time>2021-03-18T11:15:42.000Z</time>
      </trkpt>
      <trkpt lat="47.27294" lon="-2.35703">
        <ele>-29.799999237061</ele>
        <time>2021-03-18T11:15:44.000Z</time>
      </trkpt>
      <trkpt lat="47.27291" lon="-2.35697">
        <ele>-29.799999237061</ele>
        <time>2021-03-18T11:15:45.000Z</time>
      </trkpt>
      <trkpt lat="47.27284" lon="-2.35684">
        <ele>-29.799999237061</ele>
        <time>2021-03-18T11:15:47.000Z</time>
      </trkpt>
      <trkpt lat="47.27275" lon="-2.35663">
        <ele>-29.799999237061</ele>
        <time>2021-03-18T11:15:50.000Z</time>
      </trkpt>
      <trkpt lat="47.27266" lon="-2.35644">
        <ele>-29.799999237061</ele>
        <time>2021-03-18T11:15:53.000Z</time>
      </trkpt>
      <trkpt lat="47.27246" lon="-2.35599">
        <ele>-29.799999237061</ele>
        <time>2021-03-18T11:16:00.000Z</time>
      </trkpt>
      <trkpt lat="47.27221" lon="-2.35545">
        <ele>-29.799999237061</ele>
        <time>2021-03-18T11:16:08.000Z</time>
      </trkpt>
      <trkpt lat="47.272" lon="-2.35499">
        <ele>-29.39999961853</ele>
        <time>2021-03-18T11:16:15.000Z</time>
      </trkpt>
      <trkpt lat="47.27197" lon="-2.35492">
        <ele>-29</ele>
        <time>2021-03-18T11:16:16.000Z</time>
      </trkpt>
      <trkpt lat="47.27194" lon="-2.35486">
        <ele>-28.60000038147</ele>
        <time>2021-03-18T11:16:17.000Z</time>
      </trkpt>
      <trkpt lat="47.27191" lon="-2.35479">
        <ele>-28</ele>
        <time>2021-03-18T11:16:18.000Z</time>
      </trkpt>
      <trkpt lat="47.27188" lon="-2.35472">
        <ele>-27.60000038147</ele>
        <time>2021-03-18T11:16:19.000Z</time>
      </trkpt>
      <trkpt lat="47.27171" lon="-2.35439">
        <ele>-27.60000038147</ele>
        <time>2021-03-18T11:16:24.000Z</time>
      </trkpt>
      <trkpt lat="47.27139" lon="-2.35379">
        <ele>-27.60000038147</ele>
        <time>2021-03-18T11:16:33.000Z</time>
      </trkpt>
      <trkpt lat="47.27104" lon="-2.35322">
        <ele>-27.60000038147</ele>
        <time>2021-03-18T11:16:42.000Z</time>
      </trkpt>
      <trkpt lat="47.27071" lon="-2.35268">
        <ele>-27.60000038147</ele>
        <time>2021-03-18T11:16:50.000Z</time>
      </trkpt>
      <trkpt lat="47.27032" lon="-2.35207">
        <ele>-27.60000038147</ele>
        <time>2021-03-18T11:16:59.000Z</time>
      </trkpt>
      <trkpt lat="47.26997" lon="-2.35155">
        <ele>-27.60000038147</ele>
        <time>2021-03-18T11:17:07.000Z</time>
      </trkpt>
      <trkpt lat="47.26958" lon="-2.35094">
        <ele>-27.60000038147</ele>
        <time>2021-03-18T11:17:16.000Z</time>
      </trkpt>
      <trkpt lat="47.26954" lon="-2.35087">
        <ele>-27.60000038147</ele>
        <time>2021-03-18T11:17:17.000Z</time>
      </trkpt>
      <trkpt lat="47.26915" lon="-2.35028">
        <ele>-27.60000038147</ele>
        <time>2021-03-18T11:17:26.000Z</time>
      </trkpt>
      <trkpt lat="47.26911" lon="-2.35022">
        <ele>-27.60000038147</ele>
        <time>2021-03-18T11:17:27.000Z</time>
      </trkpt>
      <trkpt lat="47.26875" lon="-2.34969">
        <ele>-27.60000038147</ele>
        <time>2021-03-18T11:17:35.000Z</time>
      </trkpt>
      <trkpt lat="47.26836" lon="-2.3491">
        <ele>-27.60000038147</ele>
        <time>2021-03-18T11:17:44.000Z</time>
      </trkpt>
      <trkpt lat="47.26802" lon="-2.34861">
        <ele>-27.60000038147</ele>
        <time>2021-03-18T11:17:52.000Z</time>
      </trkpt>
      <trkpt lat="47.26762" lon="-2.34801">
        <ele>-27.60000038147</ele>
        <time>2021-03-18T11:18:02.000Z</time>
      </trkpt>
      <trkpt lat="47.26728" lon="-2.34757">
        <ele>-27.60000038147</ele>
        <time>2021-03-18T11:18:09.000Z</time>
      </trkpt>
      <trkpt lat="47.26693" lon="-2.34715">
        <ele>-27.60000038147</ele>
        <time>2021-03-18T11:18:16.000Z</time>
      </trkpt>
      <trkpt lat="47.26654" lon="-2.34667">
        <ele>-27.60000038147</ele>
        <time>2021-03-18T11:18:24.000Z</time>
      </trkpt>
      <trkpt lat="47.26616" lon="-2.34621">
        <ele>-27.60000038147</ele>
        <time>2021-03-18T11:18:32.000Z</time>
      </trkpt>
      <trkpt lat="47.26573" lon="-2.34572">
        <ele>-27.60000038147</ele>
        <time>2021-03-18T11:18:41.000Z</time>
      </trkpt>
      <trkpt lat="47.26531" lon="-2.34528">
        <ele>-27.60000038147</ele>
        <time>2021-03-18T11:18:49.000Z</time>
      </trkpt>
      <trkpt lat="47.26485" lon="-2.34495">
        <ele>-27.60000038147</ele>
        <time>2021-03-18T11:18:57.000Z</time>
      </trkpt>
      <trkpt lat="47.26443" lon="-2.34466">
        <ele>-27.60000038147</ele>
        <time>2021-03-18T11:19:04.000Z</time>
      </trkpt>
      <trkpt lat="47.26401" lon="-2.34432">
        <ele>-27.60000038147</ele>
        <time>2021-03-18T11:19:12.000Z</time>
      </trkpt>
      <trkpt lat="47.2639" lon="-2.34423">
        <ele>-27.60000038147</ele>
        <time>2021-03-18T11:19:14.000Z</time>
      </trkpt>
      <trkpt lat="47.2637" lon="-2.34407">
        <ele>-27.60000038147</ele>
        <time>2021-03-18T11:19:18.000Z</time>
      </trkpt>
      <trkpt lat="47.26336" lon="-2.34377">
        <ele>-27.60000038147</ele>
        <time>2021-03-18T11:19:24.000Z</time>
      </trkpt>
      <trkpt lat="47.2633" lon="-2.34375">
        <ele>-27.60000038147</ele>
        <time>2021-03-18T11:19:25.000Z</time>
      </trkpt>
      <trkpt lat="47.26309" lon="-2.34354">
        <ele>-27.60000038147</ele>
        <time>2021-03-18T11:19:29.000Z</time>
      </trkpt>
      <trkpt lat="47.26294" lon="-2.34338">
        <ele>-27.60000038147</ele>
        <time>2021-03-18T11:19:32.000Z</time>
      </trkpt>
      <trkpt lat="47.26283" lon="-2.34327">
        <ele>-27.60000038147</ele>
        <time>2021-03-18T11:19:34.000Z</time>
      </trkpt>
      <trkpt lat="47.26249" lon="-2.34289">
        <ele>-27.60000038147</ele>
        <time>2021-03-18T11:19:41.000Z</time>
      </trkpt>
      <trkpt lat="47.26206" lon="-2.34241">
        <ele>-27.60000038147</ele>
        <time>2021-03-18T11:19:50.000Z</time>
      </trkpt>
      <trkpt lat="47.26195" lon="-2.3423">
        <ele>-27.60000038147</ele>
        <time>2021-03-18T11:19:52.000Z</time>
      </trkpt>
      <trkpt lat="47.26148" lon="-2.34185">
        <ele>-27.60000038147</ele>
        <time>2021-03-18T11:20:01.000Z</time>
      </trkpt>
      <trkpt lat="47.26136" lon="-2.34178">
        <ele>-27.60000038147</ele>
        <time>2021-03-18T11:20:03.000Z</time>
      </trkpt>
      <trkpt lat="47.26124" lon="-2.34168">
        <ele>-27.60000038147</ele>
        <time>2021-03-18T11:20:05.000Z</time>
      </trkpt>
      <trkpt lat="47.26107" lon="-2.34155">
        <ele>-27.60000038147</ele>
        <time>2021-03-18T11:20:08.000Z</time>
      </trkpt>
      <trkpt lat="47.26095" lon="-2.34148">
        <ele>-27.60000038147</ele>
        <time>2021-03-18T11:20:10.000Z</time>
      </trkpt>
      <trkpt lat="47.2607" lon="-2.34136">
        <ele>-28</ele>
        <time>2021-03-18T11:20:14.000Z</time>
      </trkpt>
      <trkpt lat="47.26064" lon="-2.34133">
        <ele>-28.39999961853</ele>
        <time>2021-03-18T11:20:15.000Z</time>
      </trkpt>
      <trkpt lat="47.26058" lon="-2.34129">
        <ele>-28.799999237061</ele>
        <time>2021-03-18T11:20:16.000Z</time>
      </trkpt>
      <trkpt lat="47.26052" lon="-2.34125">
        <ele>-29.200000762939</ele>
        <time>2021-03-18T11:20:17.000Z</time>
      </trkpt>
      <trkpt lat="47.26046" lon="-2.34121">
        <ele>-29.60000038147</ele>
        <time>2021-03-18T11:20:18.000Z</time>
      </trkpt>
      <trkpt lat="47.26005" lon="-2.34101">
        <ele>-29.60000038147</ele>
        <time>2021-03-18T11:20:25.000Z</time>
      </trkpt>
      <trkpt lat="47.25963" lon="-2.34084">
        <ele>-29.60000038147</ele>
        <time>2021-03-18T11:20:32.000Z</time>
      </trkpt>
      <trkpt lat="47.25915" lon="-2.34068">
        <ele>-29.60000038147</ele>
        <time>2021-03-18T11:20:40.000Z</time>
      </trkpt>
      <trkpt lat="47.25895" lon="-2.34052">
        <ele>-29.60000038147</ele>
        <time>2021-03-18T11:20:44.000Z</time>
      </trkpt>
      <trkpt lat="47.25896" lon="-2.34027">
        <ele>-29.60000038147</ele>
        <time>2021-03-18T11:20:47.000Z</time>
      </trkpt>
      <trkpt lat="47.25902" lon="-2.34011">
        <ele>-29.60000038147</ele>
        <time>2021-03-18T11:20:49.000Z</time>
      </trkpt>
      <trkpt lat="47.2591" lon="-2.33986">
        <ele>-29.60000038147</ele>
        <time>2021-03-18T11:20:52.000Z</time>
      </trkpt>
      <trkpt lat="47.2593" lon="-2.33939">
        <ele>-29.60000038147</ele>
        <time>2021-03-18T11:20:58.000Z</time>
      </trkpt>
      <trkpt lat="47.25942" lon="-2.33918">
        <ele>-29.60000038147</ele>
        <time>2021-03-18T11:21:01.000Z</time>
      </trkpt>
      <trkpt lat="47.25946" lon="-2.33903">
        <ele>-29.60000038147</ele>
        <time>2021-03-18T11:21:03.000Z</time>
      </trkpt>
      <trkpt lat="47.25955" lon="-2.33884">
        <ele>-29.60000038147</ele>
        <time>2021-03-18T11:21:06.000Z</time>
      </trkpt>
      <trkpt lat="47.25956" lon="-2.33877">
        <ele>-29.60000038147</ele>
        <time>2021-03-18T11:21:07.000Z</time>
      </trkpt>
      <trkpt lat="47.25969" lon="-2.33823">
        <ele>-29.60000038147</ele>
        <time>2021-03-18T11:21:14.000Z</time>
      </trkpt>
      <trkpt lat="47.25984" lon="-2.33774">
        <ele>-29.60000038147</ele>
        <time>2021-03-18T11:21:20.000Z</time>
      </trkpt>
      <trkpt lat="47.26002" lon="-2.33721">
        <ele>-29.60000038147</ele>
        <time>2021-03-18T11:21:26.000Z</time>
      </trkpt>
      <trkpt lat="47.26016" lon="-2.33674">
        <ele>-29.60000038147</ele>
        <time>2021-03-18T11:21:32.000Z</time>
      </trkpt>
      <trkpt lat="47.26018" lon="-2.33669">
        <ele>-29.60000038147</ele>
        <time>2021-03-18T11:21:33.000Z</time>
      </trkpt>
      <trkpt lat="47.26022" lon="-2.33665">
        <ele>-30.200000762939</ele>
        <time>2021-03-18T11:21:34.000Z</time>
      </trkpt>
      <trkpt lat="47.26026" lon="-2.33665">
        <ele>-30.60000038147</ele>
        <time>2021-03-18T11:21:35.000Z</time>
      </trkpt>
      <trkpt lat="47.2603" lon="-2.33667">
        <ele>-31</ele>
        <time>2021-03-18T11:21:36.000Z</time>
      </trkpt>
      <trkpt lat="47.26033" lon="-2.33668">
        <ele>-31.60000038147</ele>
        <time>2021-03-18T11:21:37.000Z</time>
      </trkpt>
      <trkpt lat="47.26036" lon="-2.33668">
        <ele>-32</ele>
        <time>2021-03-18T11:21:38.000Z</time>
      </trkpt>
      <trkpt lat="47.26044" lon="-2.33667">
        <ele>-32</ele>
        <time>2021-03-18T11:21:40.000Z</time>
      </trkpt>
      <trkpt lat="47.26052" lon="-2.33663">
        <ele>-32</ele>
        <time>2021-03-18T11:21:42.000Z</time>
      </trkpt>
      <trkpt lat="47.26055" lon="-2.33657">
        <ele>-32</ele>
        <time>2021-03-18T11:21:43.000Z</time>
      </trkpt>
      <trkpt lat="47.26066" lon="-2.33624">
        <ele>-32</ele>
        <time>2021-03-18T11:21:47.000Z</time>
      </trkpt>
      <trkpt lat="47.26087" lon="-2.33559">
        <ele>-32</ele>
        <time>2021-03-18T11:21:55.000Z</time>
      </trkpt>
      <trkpt lat="47.26107" lon="-2.33505">
        <ele>-32</ele>
        <time>2021-03-18T11:22:02.000Z</time>
      </trkpt>
      <trkpt lat="47.26127" lon="-2.33454">
        <ele>-32</ele>
        <time>2021-03-18T11:22:10.000Z</time>
      </trkpt>
      <trkpt lat="47.26133" lon="-2.33437">
        <ele>-32</ele>
        <time>2021-03-18T11:22:15.000Z</time>
      </trkpt>
      <trkpt lat="47.26133" lon="-2.33427">
        <ele>-32</ele>
        <time>2021-03-18T11:22:17.000Z</time>
      </trkpt>
      <trkpt lat="47.2613" lon="-2.33423">
        <ele>-32</ele>
        <time>2021-03-18T11:22:18.000Z</time>
      </trkpt>
      <trkpt lat="47.26122" lon="-2.3341">
        <ele>-32</ele>
        <time>2021-03-18T11:22:21.000Z</time>
      </trkpt>
      <trkpt lat="47.26113" lon="-2.334">
        <ele>-32</ele>
        <time>2021-03-18T11:22:23.000Z</time>
      </trkpt>
      <trkpt lat="47.26086" lon="-2.33366">
        <ele>-32</ele>
        <time>2021-03-18T11:22:29.000Z</time>
      </trkpt>
      <trkpt lat="47.26071" lon="-2.33338">
        <ele>-32</ele>
        <time>2021-03-18T11:22:33.000Z</time>
      </trkpt>
      <trkpt lat="47.26064" lon="-2.33321">
        <ele>-32</ele>
        <time>2021-03-18T11:22:35.000Z</time>
      </trkpt>
      <trkpt lat="47.26061" lon="-2.33314">
        <ele>-31.60000038147</ele>
        <time>2021-03-18T11:22:36.000Z</time>
      </trkpt>
      <trkpt lat="47.26057" lon="-2.33306">
        <ele>-31.200000762939</ele>
        <time>2021-03-18T11:22:37.000Z</time>
      </trkpt>
      <trkpt lat="47.26054" lon="-2.33298">
        <ele>-30.799999237061</ele>
        <time>2021-03-18T11:22:38.000Z</time>
      </trkpt>
      <trkpt lat="47.26051" lon="-2.33289">
        <ele>-30.200000762939</ele>
        <time>2021-03-18T11:22:39.000Z</time>
      </trkpt>
      <trkpt lat="47.26048" lon="-2.3328">
        <ele>-29.799999237061</ele>
        <time>2021-03-18T11:22:40.000Z</time>
      </trkpt>
      <trkpt lat="47.26042" lon="-2.33264">
        <ele>-29.799999237061</ele>
        <time>2021-03-18T11:22:42.000Z</time>
      </trkpt>
      <trkpt lat="47.26021" lon="-2.33199">
        <ele>-29.799999237061</ele>
        <time>2021-03-18T11:22:50.000Z</time>
      </trkpt>
      <trkpt lat="47.25995" lon="-2.33127">
        <ele>-29.799999237061</ele>
        <time>2021-03-18T11:22:59.000Z</time>
      </trkpt>
      <trkpt lat="47.25988" lon="-2.33102">
        <ele>-29.799999237061</ele>
        <time>2021-03-18T11:23:02.000Z</time>
      </trkpt>
      <trkpt lat="47.25982" lon="-2.33076">
        <ele>-29.799999237061</ele>
        <time>2021-03-18T11:23:05.000Z</time>
      </trkpt>
      <trkpt lat="47.25974" lon="-2.33053">
        <ele>-29.799999237061</ele>
        <time>2021-03-18T11:23:08.000Z</time>
      </trkpt>
      <trkpt lat="47.25968" lon="-2.33037">
        <ele>-29.799999237061</ele>
        <time>2021-03-18T11:23:10.000Z</time>
      </trkpt>
      <trkpt lat="47.25944" lon="-2.32964">
        <ele>-29.799999237061</ele>
        <time>2021-03-18T11:23:19.000Z</time>
      </trkpt>
      <trkpt lat="47.25918" lon="-2.32892">
        <ele>-29.799999237061</ele>
        <time>2021-03-18T11:23:28.000Z</time>
      </trkpt>
      <trkpt lat="47.25915" lon="-2.32884">
        <ele>-29.799999237061</ele>
        <time>2021-03-18T11:23:29.000Z</time>
      </trkpt>
      <trkpt lat="47.2589" lon="-2.32821">
        <ele>-29.799999237061</ele>
        <time>2021-03-18T11:23:37.000Z</time>
      </trkpt>
      <trkpt lat="47.25876" lon="-2.32783">
        <ele>-29.799999237061</ele>
        <time>2021-03-18T11:23:42.000Z</time>
      </trkpt>
      <trkpt lat="47.2586" lon="-2.32726">
        <ele>-29.799999237061</ele>
        <time>2021-03-18T11:23:50.000Z</time>
      </trkpt>
      <trkpt lat="47.25857" lon="-2.32703">
        <ele>-29.799999237061</ele>
        <time>2021-03-18T11:23:53.000Z</time>
      </trkpt>
      <trkpt lat="47.2585" lon="-2.32692">
        <ele>-29.799999237061</ele>
        <time>2021-03-18T11:23:55.000Z</time>
      </trkpt>
      <trkpt lat="47.25844" lon="-2.32678">
        <ele>-29.799999237061</ele>
        <time>2021-03-18T11:23:57.000Z</time>
      </trkpt>
      <trkpt lat="47.25837" lon="-2.32656">
        <ele>-29.799999237061</ele>
        <time>2021-03-18T11:24:00.000Z</time>
      </trkpt>
      <trkpt lat="47.25824" lon="-2.32596">
        <ele>-29.799999237061</ele>
        <time>2021-03-18T11:24:07.000Z</time>
      </trkpt>
      <trkpt lat="47.25808" lon="-2.32529">
        <ele>-29.799999237061</ele>
        <time>2021-03-18T11:24:15.000Z</time>
      </trkpt>
      <trkpt lat="47.25797" lon="-2.32476">
        <ele>-29.799999237061</ele>
        <time>2021-03-18T11:24:22.000Z</time>
      </trkpt>
      <trkpt lat="47.25802" lon="-2.3246">
        <ele>-29.799999237061</ele>
        <time>2021-03-18T11:24:25.000Z</time>
      </trkpt>
      <trkpt lat="47.25813" lon="-2.32454">
        <ele>-29.799999237061</ele>
        <time>2021-03-18T11:24:28.000Z</time>
      </trkpt>
      <trkpt lat="47.25832" lon="-2.32465">
        <ele>-29.799999237061</ele>
        <time>2021-03-18T11:24:32.000Z</time>
      </trkpt>
      <trkpt lat="47.25838" lon="-2.32468">
        <ele>-29.799999237061</ele>
        <time>2021-03-18T11:24:33.000Z</time>
      </trkpt>
      <trkpt lat="47.25853" lon="-2.32471">
        <ele>-29.799999237061</ele>
        <time>2021-03-18T11:24:36.000Z</time>
      </trkpt>
      <trkpt lat="47.25863" lon="-2.3247">
        <ele>-29.799999237061</ele>
        <time>2021-03-18T11:24:38.000Z</time>
      </trkpt>
      <trkpt lat="47.25884" lon="-2.32466">
        <ele>-29.799999237061</ele>
        <time>2021-03-18T11:24:42.000Z</time>
      </trkpt>
      <trkpt lat="47.25888" lon="-2.32463">
        <ele>-29.799999237061</ele>
        <time>2021-03-18T11:24:43.000Z</time>
      </trkpt>
      <trkpt lat="47.25911" lon="-2.32441">
        <ele>-29.799999237061</ele>
        <time>2021-03-18T11:24:48.000Z</time>
      </trkpt>
      <trkpt lat="47.25939" lon="-2.32403">
        <ele>-29.799999237061</ele>
        <time>2021-03-18T11:24:55.000Z</time>
      </trkpt>
      <trkpt lat="47.25943" lon="-2.32398">
        <ele>-29.799999237061</ele>
        <time>2021-03-18T11:24:56.000Z</time>
      </trkpt>
      <trkpt lat="47.25958" lon="-2.32378">
        <ele>-29.799999237061</ele>
        <time>2021-03-18T11:25:00.000Z</time>
      </trkpt>
      <trkpt lat="47.25962" lon="-2.32373">
        <ele>-29.799999237061</ele>
        <time>2021-03-18T11:25:01.000Z</time>
      </trkpt>
      <trkpt lat="47.25973" lon="-2.32358">
        <ele>-29.799999237061</ele>
        <time>2021-03-18T11:25:04.000Z</time>
      </trkpt>
      <trkpt lat="47.25985" lon="-2.32343">
        <ele>-29.799999237061</ele>
        <time>2021-03-18T11:25:07.000Z</time>
      </trkpt>
      <trkpt lat="47.26016" lon="-2.32305">
        <ele>-29.799999237061</ele>
        <time>2021-03-18T11:25:15.000Z</time>
      </trkpt>
      <trkpt lat="47.26044" lon="-2.32272">
        <ele>-29.799999237061</ele>
        <time>2021-03-18T11:25:22.000Z</time>
      </trkpt>
      <trkpt lat="47.26056" lon="-2.32257">
        <ele>-29.799999237061</ele>
        <time>2021-03-18T11:25:25.000Z</time>
      </trkpt>
      <trkpt lat="47.26064" lon="-2.32248">
        <ele>-29.799999237061</ele>
        <time>2021-03-18T11:25:27.000Z</time>
      </trkpt>
      <trkpt lat="47.26082" lon="-2.32225">
        <ele>-29.799999237061</ele>
        <time>2021-03-18T11:25:32.000Z</time>
      </trkpt>
      <trkpt lat="47.26099" lon="-2.3219">
        <ele>-29.799999237061</ele>
        <time>2021-03-18T11:25:38.000Z</time>
      </trkpt>
      <trkpt lat="47.26119" lon="-2.3214">
        <ele>-29.799999237061</ele>
        <time>2021-03-18T11:25:46.000Z</time>
      </trkpt>
      <trkpt lat="47.26126" lon="-2.3212">
        <ele>-30.200000762939</ele>
        <time>2021-03-18T11:25:49.000Z</time>
      </trkpt>
      <trkpt lat="47.26128" lon="-2.32113">
        <ele>-31.200000762939</ele>
        <time>2021-03-18T11:25:50.000Z</time>
      </trkpt>
      <trkpt lat="47.26131" lon="-2.32105">
        <ele>-31.60000038147</ele>
        <time>2021-03-18T11:25:51.000Z</time>
      </trkpt>
      <trkpt lat="47.26133" lon="-2.32098">
        <ele>-32</ele>
        <time>2021-03-18T11:25:52.000Z</time>
      </trkpt>
      <trkpt lat="47.26135" lon="-2.32091">
        <ele>-32</ele>
        <time>2021-03-18T11:25:53.000Z</time>
      </trkpt>
      <trkpt lat="47.26152" lon="-2.32044">
        <ele>-32</ele>
        <time>2021-03-18T11:26:00.000Z</time>
      </trkpt>
      <trkpt lat="47.26154" lon="-2.32038">
        <ele>-32</ele>
        <time>2021-03-18T11:26:01.000Z</time>
      </trkpt>
      <trkpt lat="47.26159" lon="-2.32027">
        <ele>-32</ele>
        <time>2021-03-18T11:26:03.000Z</time>
      </trkpt>
      <trkpt lat="47.26169" lon="-2.32017">
        <ele>-32</ele>
        <time>2021-03-18T11:26:06.000Z</time>
      </trkpt>
      <trkpt lat="47.26177" lon="-2.32017">
        <ele>-32</ele>
        <time>2021-03-18T11:26:08.000Z</time>
      </trkpt>
      <trkpt lat="47.26185" lon="-2.32019">
        <ele>-32</ele>
        <time>2021-03-18T11:26:11.000Z</time>
      </trkpt>
      <trkpt lat="47.2619" lon="-2.3202">
        <ele>-32</ele>
        <time>2021-03-18T11:26:14.000Z</time>
      </trkpt>
      <trkpt lat="47.26193" lon="-2.32015">
        <ele>-32</ele>
        <time>2021-03-18T11:26:16.000Z</time>
      </trkpt>
      <trkpt lat="47.26197" lon="-2.32004">
        <ele>-32</ele>
        <time>2021-03-18T11:26:20.000Z</time>
      </trkpt>
      <trkpt lat="47.2621" lon="-2.31993">
        <ele>-32</ele>
        <time>2021-03-18T11:26:25.000Z</time>
      </trkpt>
      <trkpt lat="47.26221" lon="-2.31981">
        <ele>-32</ele>
        <time>2021-03-18T11:26:29.000Z</time>
      </trkpt>
      <trkpt lat="47.26223" lon="-2.3198">
        <ele>-32</ele>
        <time>2021-03-18T11:26:30.000Z</time>
      </trkpt>
      <trkpt lat="47.26233" lon="-2.31978">
        <ele>-32</ele>
        <time>2021-03-18T11:26:33.000Z</time>
      </trkpt>
      <trkpt lat="47.26238" lon="-2.31966">
        <ele>-32</ele>
        <time>2021-03-18T11:26:36.000Z</time>
      </trkpt>
      <trkpt lat="47.26239" lon="-2.31962">
        <ele>-32</ele>
        <time>2021-03-18T11:26:37.000Z</time>
      </trkpt>
      <trkpt lat="47.26249" lon="-2.31941">
        <ele>-32</ele>
        <time>2021-03-18T11:26:43.000Z</time>
      </trkpt>
      <trkpt lat="47.26263" lon="-2.31918">
        <ele>-32</ele>
        <time>2021-03-18T11:26:50.000Z</time>
      </trkpt>
      <trkpt lat="47.26287" lon="-2.31894">
        <ele>-32</ele>
        <time>2021-03-18T11:26:56.000Z</time>
      </trkpt>
      <trkpt lat="47.26294" lon="-2.31882">
        <ele>-32</ele>
        <time>2021-03-18T11:26:59.000Z</time>
      </trkpt>
      <trkpt lat="47.26295" lon="-2.31877">
        <ele>-32</ele>
        <time>2021-03-18T11:27:00.000Z</time>
      </trkpt>
      <trkpt lat="47.26298" lon="-2.31852">
        <ele>-32</ele>
        <time>2021-03-18T11:27:05.000Z</time>
      </trkpt>
      <trkpt lat="47.26299" lon="-2.31826">
        <ele>-32</ele>
        <time>2021-03-18T11:27:10.000Z</time>
      </trkpt>
      <trkpt lat="47.26302" lon="-2.31799">
        <ele>-32</ele>
        <time>2021-03-18T11:27:15.000Z</time>
      </trkpt>
      <trkpt lat="47.263" lon="-2.31773">
        <ele>-32</ele>
        <time>2021-03-18T11:27:20.000Z</time>
      </trkpt>
      <trkpt lat="47.26299" lon="-2.31736">
        <ele>-32</ele>
        <time>2021-03-18T11:27:26.000Z</time>
      </trkpt>
      <trkpt lat="47.263" lon="-2.31725">
        <ele>-32</ele>
        <time>2021-03-18T11:27:28.000Z</time>
      </trkpt>
      <trkpt lat="47.26306" lon="-2.31717">
        <ele>-32</ele>
        <time>2021-03-18T11:27:30.000Z</time>
      </trkpt>
      <trkpt lat="47.26313" lon="-2.31711">
        <ele>-32</ele>
        <time>2021-03-18T11:27:32.000Z</time>
      </trkpt>
      <trkpt lat="47.26324" lon="-2.31706">
        <ele>-32</ele>
        <time>2021-03-18T11:27:35.000Z</time>
      </trkpt>
      <trkpt lat="47.26333" lon="-2.31697">
        <ele>-31.60000038147</ele>
        <time>2021-03-18T11:27:38.000Z</time>
      </trkpt>
      <trkpt lat="47.26334" lon="-2.31692">
        <ele>-31.200000762939</ele>
        <time>2021-03-18T11:27:39.000Z</time>
      </trkpt>
      <trkpt lat="47.26336" lon="-2.31689">
        <ele>-30.799999237061</ele>
        <time>2021-03-18T11:27:40.000Z</time>
      </trkpt>
      <trkpt lat="47.26338" lon="-2.31687">
        <ele>-30.39999961853</ele>
        <time>2021-03-18T11:27:41.000Z</time>
      </trkpt>
      <trkpt lat="47.26341" lon="-2.31685">
        <ele>-30</ele>
        <time>2021-03-18T11:27:42.000Z</time>
      </trkpt>
      <trkpt lat="47.26344" lon="-2.31684">
        <ele>-30</ele>
        <time>2021-03-18T11:27:43.000Z</time>
      </trkpt>
      <trkpt lat="47.26354" lon="-2.31679">
        <ele>-29.60000038147</ele>
        <time>2021-03-18T11:27:46.000Z</time>
      </trkpt>
      <trkpt lat="47.26358" lon="-2.31677">
        <ele>-29.200000762939</ele>
        <time>2021-03-18T11:27:47.000Z</time>
      </trkpt>
      <trkpt lat="47.26361" lon="-2.31675">
        <ele>-28.799999237061</ele>
        <time>2021-03-18T11:27:48.000Z</time>
      </trkpt>
      <trkpt lat="47.26364" lon="-2.31674">
        <ele>-28.200000762939</ele>
        <time>2021-03-18T11:27:49.000Z</time>
      </trkpt>
      <trkpt lat="47.26368" lon="-2.31673">
        <ele>-27.799999237061</ele>
        <time>2021-03-18T11:27:50.000Z</time>
      </trkpt>
      <trkpt lat="47.26383" lon="-2.31665">
        <ele>-27.799999237061</ele>
        <time>2021-03-18T11:27:55.000Z</time>
      </trkpt>
      <trkpt lat="47.26406" lon="-2.31651">
        <ele>-27.799999237061</ele>
        <time>2021-03-18T11:28:03.000Z</time>
      </trkpt>
      <trkpt lat="47.26409" lon="-2.31648">
        <ele>-27.799999237061</ele>
        <time>2021-03-18T11:28:04.000Z</time>
      </trkpt>
      <trkpt lat="47.2641" lon="-2.3164">
        <ele>-27.799999237061</ele>
        <time>2021-03-18T11:28:06.000Z</time>
      </trkpt>
      <trkpt lat="47.26411" lon="-2.31631">
        <ele>-27.799999237061</ele>
        <time>2021-03-18T11:28:08.000Z</time>
      </trkpt>
      <trkpt lat="47.26411" lon="-2.31612">
        <ele>-27.799999237061</ele>
        <time>2021-03-18T11:28:12.000Z</time>
      </trkpt>
      <trkpt lat="47.26411" lon="-2.31587">
        <ele>-27.39999961853</ele>
        <time>2021-03-18T11:28:17.000Z</time>
      </trkpt>
      <trkpt lat="47.26411" lon="-2.31582">
        <ele>-27</ele>
        <time>2021-03-18T11:28:18.000Z</time>
      </trkpt>
      <trkpt lat="47.26411" lon="-2.31578">
        <ele>-26.60000038147</ele>
        <time>2021-03-18T11:28:19.000Z</time>
      </trkpt>
      <trkpt lat="47.26411" lon="-2.31573">
        <ele>-25.799999237061</ele>
        <time>2021-03-18T11:28:20.000Z</time>
      </trkpt>
      <trkpt lat="47.2641" lon="-2.31555">
        <ele>-25.799999237061</ele>
        <time>2021-03-18T11:28:25.000Z</time>
      </trkpt>
      <trkpt lat="47.26411" lon="-2.31552">
        <ele>-25.799999237061</ele>
        <time>2021-03-18T11:28:26.000Z</time>
      </trkpt>
      <trkpt lat="47.26415" lon="-2.31551">
        <ele>-25.799999237061</ele>
        <time>2021-03-18T11:28:28.000Z</time>
      </trkpt>
      <trkpt lat="47.26417" lon="-2.31551">
        <ele>-25.799999237061</ele>
        <time>2021-03-18T11:28:30.000Z</time>
      </trkpt>
    </trkseg>
  </trk>
</gpx>